<?xml version="1.0" encoding="utf-8"?>
<gpx xmlns:xsi="http://www.w3.org/2001/XMLSchema-instance" xmlns:xsd="http://www.w3.org/2001/XMLSchema" version="1.1" creator="Shapelink.com" xmlns="http://www.topografix.com/GPX/1/1" xmlns:gpxtpx="http://www.garmin.com/xmlschemas/TrackPointExtension/v1">
  <metadata>
    <name>Sykling 20.25 km, 2013-05-22</name>
    <desc></desc>
    <author><name>Mikael Blom</name></author> 
    <time>2013-05-22T17:00:06Z</time>
  </metadata>
  <trk>
    <name>Sykling 20.25 km, 2013-05-22</name>
    <trkseg>
      <trkpt lat="59.9788696" lon="17.7393118">
        <ele>42.4354</ele>
        <time>2013-05-22T17:00:06Z</time>
      </trkpt>
      <trkpt lat="59.9788452" lon="17.7392994">
        <ele>42.4354</ele>
        <time>2013-05-22T17:00:07Z</time>
      </trkpt>
      <trkpt lat="59.9788164" lon="17.7392862">
        <ele>42.4354</ele>
        <time>2013-05-22T17:00:08Z</time>
      </trkpt>
      <trkpt lat="59.9787898" lon="17.7392757">
        <ele>42.4354</ele>
        <time>2013-05-22T17:00:09Z</time>
      </trkpt>
      <trkpt lat="59.9787599" lon="17.7392766">
        <ele>42.4354</ele>
        <time>2013-05-22T17:00:10Z</time>
      </trkpt>
      <trkpt lat="59.9787261" lon="17.7392699">
        <ele>42.4354</ele>
        <time>2013-05-22T17:00:11Z</time>
      </trkpt>
      <trkpt lat="59.978687" lon="17.7392616">
        <ele>42.4354</ele>
        <time>2013-05-22T17:00:12Z</time>
      </trkpt>
      <trkpt lat="59.9786432" lon="17.7392555">
        <ele>42.916</ele>
        <time>2013-05-22T17:00:13Z</time>
      </trkpt>
      <trkpt lat="59.9785926" lon="17.7392377">
        <ele>43.8773</ele>
        <time>2013-05-22T17:00:14Z</time>
      </trkpt>
      <trkpt lat="59.9785408" lon="17.7392134">
        <ele>44.358</ele>
        <time>2013-05-22T17:00:15Z</time>
      </trkpt>
      <trkpt lat="59.9784932" lon="17.7391935">
        <ele>44.8386</ele>
        <time>2013-05-22T17:00:16Z</time>
      </trkpt>
      <trkpt lat="59.9784451" lon="17.7391757">
        <ele>45.3192</ele>
        <time>2013-05-22T17:00:17Z</time>
      </trkpt>
      <trkpt lat="59.9783923" lon="17.7391565">
        <ele>45.7999</ele>
        <time>2013-05-22T17:00:18Z</time>
      </trkpt>
      <trkpt lat="59.9783383" lon="17.7391397">
        <ele>46.2806</ele>
        <time>2013-05-22T17:00:19Z</time>
      </trkpt>
      <trkpt lat="59.9782868" lon="17.7391264">
        <ele>46.7612</ele>
        <time>2013-05-22T17:00:20Z</time>
      </trkpt>
      <trkpt lat="59.9782309" lon="17.7391046">
        <ele>47.7225</ele>
        <time>2013-05-22T17:00:21Z</time>
      </trkpt>
      <trkpt lat="59.9781698" lon="17.7390783">
        <ele>48.684</ele>
        <time>2013-05-22T17:00:22Z</time>
      </trkpt>
      <trkpt lat="59.9781078" lon="17.7390543">
        <ele>50.126</ele>
        <time>2013-05-22T17:00:23Z</time>
      </trkpt>
      <trkpt lat="59.9780444" lon="17.7390207">
        <ele>51.0872</ele>
        <time>2013-05-22T17:00:24Z</time>
      </trkpt>
      <trkpt lat="59.9779885" lon="17.7389913">
        <ele>51.0872</ele>
        <time>2013-05-22T17:00:25Z</time>
      </trkpt>
      <trkpt lat="59.9779321" lon="17.7389592">
        <ele>51.0872</ele>
        <time>2013-05-22T17:00:26Z</time>
      </trkpt>
      <trkpt lat="59.9778721" lon="17.7389245">
        <ele>51.5679</ele>
        <time>2013-05-22T17:00:27Z</time>
      </trkpt>
      <trkpt lat="59.9778131" lon="17.7388954">
        <ele>52.0486</ele>
        <time>2013-05-22T17:00:28Z</time>
      </trkpt>
      <trkpt lat="59.977756" lon="17.7388714">
        <ele>52.0486</ele>
        <time>2013-05-22T17:00:29Z</time>
      </trkpt>
      <trkpt lat="59.9776976" lon="17.7388553">
        <ele>51.5679</ele>
        <time>2013-05-22T17:00:30Z</time>
      </trkpt>
      <trkpt lat="59.9776369" lon="17.7388468">
        <ele>51.5679</ele>
        <time>2013-05-22T17:00:31Z</time>
      </trkpt>
      <trkpt lat="59.9775741" lon="17.738845">
        <ele>51.0872</ele>
        <time>2013-05-22T17:00:32Z</time>
      </trkpt>
      <trkpt lat="59.977495" lon="17.7388328">
        <ele>52.5292</ele>
        <time>2013-05-22T17:00:33Z</time>
      </trkpt>
      <trkpt lat="59.9774169" lon="17.7388357">
        <ele>53.4905</ele>
        <time>2013-05-22T17:00:34Z</time>
      </trkpt>
      <trkpt lat="59.9773375" lon="17.7388496">
        <ele>53.9712</ele>
        <time>2013-05-22T17:00:35Z</time>
      </trkpt>
      <trkpt lat="59.9772463" lon="17.7389304">
        <ele>53.9712</ele>
        <time>2013-05-22T17:00:36Z</time>
      </trkpt>
      <trkpt lat="59.9771663" lon="17.7390549">
        <ele>53.0098</ele>
        <time>2013-05-22T17:00:37Z</time>
      </trkpt>
      <trkpt lat="59.9771065" lon="17.7391122">
        <ele>52.0486</ele>
        <time>2013-05-22T17:00:38Z</time>
      </trkpt>
      <trkpt lat="59.9770468" lon="17.739162">
        <ele>51.0872</ele>
        <time>2013-05-22T17:00:39Z</time>
      </trkpt>
      <trkpt lat="59.9769817" lon="17.7392227">
        <ele>49.6453</ele>
        <time>2013-05-22T17:00:40Z</time>
      </trkpt>
      <trkpt lat="59.9769133" lon="17.7392761">
        <ele>49.1646</ele>
        <time>2013-05-22T17:00:41Z</time>
      </trkpt>
      <trkpt lat="59.9768417" lon="17.7393266">
        <ele>48.684</ele>
        <time>2013-05-22T17:00:42Z</time>
      </trkpt>
      <trkpt lat="59.9767695" lon="17.7393692">
        <ele>47.7225</ele>
        <time>2013-05-22T17:00:43Z</time>
      </trkpt>
      <trkpt lat="59.9767048" lon="17.7393942">
        <ele>46.7612</ele>
        <time>2013-05-22T17:00:44Z</time>
      </trkpt>
      <trkpt lat="59.9766419" lon="17.7394204">
        <ele>45.7999</ele>
        <time>2013-05-22T17:00:45Z</time>
      </trkpt>
      <trkpt lat="59.9765848" lon="17.7394417">
        <ele>44.8386</ele>
        <time>2013-05-22T17:00:46Z</time>
      </trkpt>
      <trkpt lat="59.9765295" lon="17.7394748">
        <ele>44.358</ele>
        <time>2013-05-22T17:00:47Z</time>
      </trkpt>
      <trkpt lat="59.9764846" lon="17.7394973">
        <ele>43.8773</ele>
        <time>2013-05-22T17:00:48Z</time>
      </trkpt>
      <trkpt lat="59.976452" lon="17.7395204">
        <ele>43.3966</ele>
        <time>2013-05-22T17:00:49Z</time>
      </trkpt>
      <trkpt lat="59.9764336" lon="17.7395352">
        <ele>42.916</ele>
        <time>2013-05-22T17:00:50Z</time>
      </trkpt>
      <trkpt lat="59.9764331" lon="17.7395495">
        <ele>42.4354</ele>
        <time>2013-05-22T17:00:51Z</time>
      </trkpt>
      <trkpt lat="59.9764399" lon="17.7395539">
        <ele>42.4354</ele>
        <time>2013-05-22T17:00:52Z</time>
      </trkpt>
      <trkpt lat="59.9764499" lon="17.7395712">
        <ele>41.9547</ele>
        <time>2013-05-22T17:00:53Z</time>
      </trkpt>
      <trkpt lat="59.9764533" lon="17.7395719">
        <ele>41.9547</ele>
        <time>2013-05-22T17:00:54Z</time>
      </trkpt>
      <trkpt lat="59.9764578" lon="17.7395756">
        <ele>41.9547</ele>
        <time>2013-05-22T17:00:55Z</time>
      </trkpt>
      <trkpt lat="59.9764615" lon="17.7395872">
        <ele>41.9547</ele>
        <time>2013-05-22T17:00:56Z</time>
      </trkpt>
      <trkpt lat="59.9764642" lon="17.7395946">
        <ele>41.9547</ele>
        <time>2013-05-22T17:00:57Z</time>
      </trkpt>
      <trkpt lat="59.9764646" lon="17.7396067">
        <ele>41.9547</ele>
        <time>2013-05-22T17:00:58Z</time>
      </trkpt>
      <trkpt lat="59.9764598" lon="17.7396338">
        <ele>42.4354</ele>
        <time>2013-05-22T17:00:59Z</time>
      </trkpt>
      <trkpt lat="59.9764615" lon="17.7396849">
        <ele>43.3966</ele>
        <time>2013-05-22T17:01:00Z</time>
      </trkpt>
      <trkpt lat="59.976447" lon="17.7396919">
        <ele>42.916</ele>
        <time>2013-05-22T17:01:01Z</time>
      </trkpt>
      <trkpt lat="59.9764305" lon="17.7397107">
        <ele>41.9547</ele>
        <time>2013-05-22T17:01:02Z</time>
      </trkpt>
      <trkpt lat="59.9764106" lon="17.7397426">
        <ele>42.4354</ele>
        <time>2013-05-22T17:01:03Z</time>
      </trkpt>
      <trkpt lat="59.9763906" lon="17.7397764">
        <ele>41.9547</ele>
        <time>2013-05-22T17:01:04Z</time>
      </trkpt>
      <trkpt lat="59.9763647" lon="17.7398013">
        <ele>41.474</ele>
        <time>2013-05-22T17:01:05Z</time>
      </trkpt>
      <trkpt lat="59.976336" lon="17.7398209">
        <ele>40.9934</ele>
        <time>2013-05-22T17:01:06Z</time>
      </trkpt>
      <trkpt lat="59.9762989" lon="17.7398168">
        <ele>40.5128</ele>
        <time>2013-05-22T17:01:07Z</time>
      </trkpt>
      <trkpt lat="59.9762576" lon="17.7397932">
        <ele>40.0321</ele>
        <time>2013-05-22T17:01:08Z</time>
      </trkpt>
      <trkpt lat="59.9762145" lon="17.7397479">
        <ele>39.5513</ele>
        <time>2013-05-22T17:01:09Z</time>
      </trkpt>
      <trkpt lat="59.9761683" lon="17.7396818">
        <ele>39.0707</ele>
        <time>2013-05-22T17:01:10Z</time>
      </trkpt>
      <trkpt lat="59.9761163" lon="17.7395993">
        <ele>38.1094</ele>
        <time>2013-05-22T17:01:11Z</time>
      </trkpt>
      <trkpt lat="59.9760544" lon="17.739491">
        <ele>38.5901</ele>
        <time>2013-05-22T17:01:12Z</time>
      </trkpt>
      <trkpt lat="59.9760017" lon="17.7393928">
        <ele>37.6287</ele>
        <time>2013-05-22T17:01:13Z</time>
      </trkpt>
      <trkpt lat="59.9759451" lon="17.7392878">
        <ele>37.1481</ele>
        <time>2013-05-22T17:01:14Z</time>
      </trkpt>
      <trkpt lat="59.9758848" lon="17.7391771">
        <ele>36.1868</ele>
        <time>2013-05-22T17:01:15Z</time>
      </trkpt>
      <trkpt lat="59.9758214" lon="17.7390617">
        <ele>35.7061</ele>
        <time>2013-05-22T17:01:16Z</time>
      </trkpt>
      <trkpt lat="59.9757565" lon="17.738943">
        <ele>35.2255</ele>
        <time>2013-05-22T17:01:17Z</time>
      </trkpt>
      <trkpt lat="59.9756902" lon="17.7388217">
        <ele>34.7449</ele>
        <time>2013-05-22T17:01:18Z</time>
      </trkpt>
      <trkpt lat="59.9756228" lon="17.7386985">
        <ele>34.7449</ele>
        <time>2013-05-22T17:01:19Z</time>
      </trkpt>
      <trkpt lat="59.975553" lon="17.7385726">
        <ele>34.7449</ele>
        <time>2013-05-22T17:01:20Z</time>
      </trkpt>
      <trkpt lat="59.9754823" lon="17.7384487">
        <ele>34.7449</ele>
        <time>2013-05-22T17:01:21Z</time>
      </trkpt>
      <trkpt lat="59.9754113" lon="17.7383271">
        <ele>34.7449</ele>
        <time>2013-05-22T17:01:22Z</time>
      </trkpt>
      <trkpt lat="59.9753417" lon="17.7382089">
        <ele>34.7449</ele>
        <time>2013-05-22T17:01:23Z</time>
      </trkpt>
      <trkpt lat="59.9752725" lon="17.7380899">
        <ele>34.7449</ele>
        <time>2013-05-22T17:01:24Z</time>
      </trkpt>
      <trkpt lat="59.9752059" lon="17.7379748">
        <ele>34.7449</ele>
        <time>2013-05-22T17:01:25Z</time>
      </trkpt>
      <trkpt lat="59.9751386" lon="17.7378567">
        <ele>34.7449</ele>
        <time>2013-05-22T17:01:26Z</time>
      </trkpt>
      <trkpt lat="59.9750726" lon="17.7377381">
        <ele>34.7449</ele>
        <time>2013-05-22T17:01:27Z</time>
      </trkpt>
      <trkpt lat="59.9750075" lon="17.7376186">
        <ele>34.2642</ele>
        <time>2013-05-22T17:01:28Z</time>
      </trkpt>
      <trkpt lat="59.9749444" lon="17.7374955">
        <ele>34.2642</ele>
        <time>2013-05-22T17:01:29Z</time>
      </trkpt>
      <trkpt lat="59.9748842" lon="17.7373668">
        <ele>34.2642</ele>
        <time>2013-05-22T17:01:30Z</time>
      </trkpt>
      <trkpt lat="59.9748267" lon="17.7372331">
        <ele>33.7834</ele>
        <time>2013-05-22T17:01:31Z</time>
      </trkpt>
      <trkpt lat="59.9747714" lon="17.7370954">
        <ele>33.7834</ele>
        <time>2013-05-22T17:01:32Z</time>
      </trkpt>
      <trkpt lat="59.974718" lon="17.7369537">
        <ele>33.7834</ele>
        <time>2013-05-22T17:01:33Z</time>
      </trkpt>
      <trkpt lat="59.9746669" lon="17.7368078">
        <ele>33.7834</ele>
        <time>2013-05-22T17:01:34Z</time>
      </trkpt>
      <trkpt lat="59.9746174" lon="17.73666">
        <ele>33.7834</ele>
        <time>2013-05-22T17:01:35Z</time>
      </trkpt>
      <trkpt lat="59.9745708" lon="17.7365087">
        <ele>33.7834</ele>
        <time>2013-05-22T17:01:36Z</time>
      </trkpt>
      <trkpt lat="59.9745284" lon="17.736353">
        <ele>33.7834</ele>
        <time>2013-05-22T17:01:37Z</time>
      </trkpt>
      <trkpt lat="59.97449" lon="17.7361942">
        <ele>33.7834</ele>
        <time>2013-05-22T17:01:38Z</time>
      </trkpt>
      <trkpt lat="59.9744552" lon="17.7360328">
        <ele>33.7834</ele>
        <time>2013-05-22T17:01:39Z</time>
      </trkpt>
      <trkpt lat="59.9744232" lon="17.7358686">
        <ele>33.3029</ele>
        <time>2013-05-22T17:01:40Z</time>
      </trkpt>
      <trkpt lat="59.9743936" lon="17.7357027">
        <ele>33.3029</ele>
        <time>2013-05-22T17:01:41Z</time>
      </trkpt>
      <trkpt lat="59.9743672" lon="17.7355345">
        <ele>33.3029</ele>
        <time>2013-05-22T17:01:42Z</time>
      </trkpt>
      <trkpt lat="59.974345" lon="17.7353641">
        <ele>33.3029</ele>
        <time>2013-05-22T17:01:43Z</time>
      </trkpt>
      <trkpt lat="59.9743264" lon="17.7351912">
        <ele>32.8223</ele>
        <time>2013-05-22T17:01:44Z</time>
      </trkpt>
      <trkpt lat="59.9743113" lon="17.735016">
        <ele>32.8223</ele>
        <time>2013-05-22T17:01:45Z</time>
      </trkpt>
      <trkpt lat="59.9743002" lon="17.7348387">
        <ele>32.8223</ele>
        <time>2013-05-22T17:01:46Z</time>
      </trkpt>
      <trkpt lat="59.9742937" lon="17.7346601">
        <ele>32.8223</ele>
        <time>2013-05-22T17:01:47Z</time>
      </trkpt>
      <trkpt lat="59.9742902" lon="17.7344817">
        <ele>32.3416</ele>
        <time>2013-05-22T17:01:48Z</time>
      </trkpt>
      <trkpt lat="59.9742912" lon="17.7343036">
        <ele>32.3416</ele>
        <time>2013-05-22T17:01:49Z</time>
      </trkpt>
      <trkpt lat="59.9742974" lon="17.7341272">
        <ele>32.3416</ele>
        <time>2013-05-22T17:01:50Z</time>
      </trkpt>
      <trkpt lat="59.9743061" lon="17.733953">
        <ele>32.3416</ele>
        <time>2013-05-22T17:01:51Z</time>
      </trkpt>
      <trkpt lat="59.9743163" lon="17.7337795">
        <ele>32.3416</ele>
        <time>2013-05-22T17:01:52Z</time>
      </trkpt>
      <trkpt lat="59.9743262" lon="17.7336068">
        <ele>32.3416</ele>
        <time>2013-05-22T17:01:53Z</time>
      </trkpt>
      <trkpt lat="59.974335" lon="17.7334354">
        <ele>31.8607</ele>
        <time>2013-05-22T17:01:54Z</time>
      </trkpt>
      <trkpt lat="59.974342" lon="17.7332645">
        <ele>31.8607</ele>
        <time>2013-05-22T17:01:55Z</time>
      </trkpt>
      <trkpt lat="59.9743474" lon="17.7330931">
        <ele>31.8607</ele>
        <time>2013-05-22T17:01:56Z</time>
      </trkpt>
      <trkpt lat="59.974351" lon="17.7329204">
        <ele>31.8607</ele>
        <time>2013-05-22T17:01:57Z</time>
      </trkpt>
      <trkpt lat="59.9743532" lon="17.7327474">
        <ele>31.8607</ele>
        <time>2013-05-22T17:01:58Z</time>
      </trkpt>
      <trkpt lat="59.9743536" lon="17.7325747">
        <ele>31.8607</ele>
        <time>2013-05-22T17:01:59Z</time>
      </trkpt>
      <trkpt lat="59.9743506" lon="17.7324034">
        <ele>31.8607</ele>
        <time>2013-05-22T17:02:00Z</time>
      </trkpt>
      <trkpt lat="59.9743466" lon="17.7322336">
        <ele>31.8607</ele>
        <time>2013-05-22T17:02:01Z</time>
      </trkpt>
      <trkpt lat="59.9743434" lon="17.7320649">
        <ele>31.8607</ele>
        <time>2013-05-22T17:02:02Z</time>
      </trkpt>
      <trkpt lat="59.9743404" lon="17.7318989">
        <ele>31.8607</ele>
        <time>2013-05-22T17:02:03Z</time>
      </trkpt>
      <trkpt lat="59.9743381" lon="17.7317355">
        <ele>31.8607</ele>
        <time>2013-05-22T17:02:04Z</time>
      </trkpt>
      <trkpt lat="59.9743378" lon="17.7315751">
        <ele>31.8607</ele>
        <time>2013-05-22T17:02:05Z</time>
      </trkpt>
      <trkpt lat="59.9743402" lon="17.7314166">
        <ele>31.8607</ele>
        <time>2013-05-22T17:02:06Z</time>
      </trkpt>
      <trkpt lat="59.9743453" lon="17.7312603">
        <ele>31.8607</ele>
        <time>2013-05-22T17:02:07Z</time>
      </trkpt>
      <trkpt lat="59.9743523" lon="17.7311054">
        <ele>31.8607</ele>
        <time>2013-05-22T17:02:08Z</time>
      </trkpt>
      <trkpt lat="59.9743603" lon="17.7309517">
        <ele>31.8607</ele>
        <time>2013-05-22T17:02:09Z</time>
      </trkpt>
      <trkpt lat="59.9743697" lon="17.7307995">
        <ele>31.8607</ele>
        <time>2013-05-22T17:02:10Z</time>
      </trkpt>
      <trkpt lat="59.9743807" lon="17.730649">
        <ele>31.8607</ele>
        <time>2013-05-22T17:02:11Z</time>
      </trkpt>
      <trkpt lat="59.9743924" lon="17.7305004">
        <ele>31.8607</ele>
        <time>2013-05-22T17:02:12Z</time>
      </trkpt>
      <trkpt lat="59.9744043" lon="17.7303545">
        <ele>31.8607</ele>
        <time>2013-05-22T17:02:13Z</time>
      </trkpt>
      <trkpt lat="59.9744171" lon="17.7302129">
        <ele>31.8607</ele>
        <time>2013-05-22T17:02:14Z</time>
      </trkpt>
      <trkpt lat="59.97443" lon="17.7300748">
        <ele>31.8607</ele>
        <time>2013-05-22T17:02:15Z</time>
      </trkpt>
      <trkpt lat="59.9744408" lon="17.7299393">
        <ele>31.8607</ele>
        <time>2013-05-22T17:02:16Z</time>
      </trkpt>
      <trkpt lat="59.9744494" lon="17.7298049">
        <ele>31.8607</ele>
        <time>2013-05-22T17:02:17Z</time>
      </trkpt>
      <trkpt lat="59.9744574" lon="17.7296717">
        <ele>31.8607</ele>
        <time>2013-05-22T17:02:18Z</time>
      </trkpt>
      <trkpt lat="59.9744645" lon="17.7295389">
        <ele>31.8607</ele>
        <time>2013-05-22T17:02:19Z</time>
      </trkpt>
      <trkpt lat="59.9744688" lon="17.7294057">
        <ele>31.8607</ele>
        <time>2013-05-22T17:02:20Z</time>
      </trkpt>
      <trkpt lat="59.9744714" lon="17.7292712">
        <ele>31.3801</ele>
        <time>2013-05-22T17:02:21Z</time>
      </trkpt>
      <trkpt lat="59.9744708" lon="17.7291356">
        <ele>31.3801</ele>
        <time>2013-05-22T17:02:22Z</time>
      </trkpt>
      <trkpt lat="59.9744666" lon="17.7290004">
        <ele>31.3801</ele>
        <time>2013-05-22T17:02:23Z</time>
      </trkpt>
      <trkpt lat="59.974461" lon="17.7288642">
        <ele>31.3801</ele>
        <time>2013-05-22T17:02:24Z</time>
      </trkpt>
      <trkpt lat="59.9744563" lon="17.7287253">
        <ele>31.3801</ele>
        <time>2013-05-22T17:02:25Z</time>
      </trkpt>
      <trkpt lat="59.9744535" lon="17.7285855">
        <ele>31.3801</ele>
        <time>2013-05-22T17:02:26Z</time>
      </trkpt>
      <trkpt lat="59.974451" lon="17.7284461">
        <ele>31.3801</ele>
        <time>2013-05-22T17:02:27Z</time>
      </trkpt>
      <trkpt lat="59.9744475" lon="17.7283068">
        <ele>31.3801</ele>
        <time>2013-05-22T17:02:28Z</time>
      </trkpt>
      <trkpt lat="59.9744445" lon="17.7281689">
        <ele>31.3801</ele>
        <time>2013-05-22T17:02:29Z</time>
      </trkpt>
      <trkpt lat="59.9744418" lon="17.7280322">
        <ele>31.3801</ele>
        <time>2013-05-22T17:02:30Z</time>
      </trkpt>
      <trkpt lat="59.9744387" lon="17.7278874">
        <ele>31.3801</ele>
        <time>2013-05-22T17:02:31Z</time>
      </trkpt>
      <trkpt lat="59.9744262" lon="17.7277496">
        <ele>31.3801</ele>
        <time>2013-05-22T17:02:32Z</time>
      </trkpt>
      <trkpt lat="59.974423" lon="17.7276131">
        <ele>31.3801</ele>
        <time>2013-05-22T17:02:33Z</time>
      </trkpt>
      <trkpt lat="59.974422" lon="17.7274846">
        <ele>31.3801</ele>
        <time>2013-05-22T17:02:34Z</time>
      </trkpt>
      <trkpt lat="59.974424" lon="17.7273645">
        <ele>31.3801</ele>
        <time>2013-05-22T17:02:35Z</time>
      </trkpt>
      <trkpt lat="59.9744201" lon="17.7272368">
        <ele>31.3801</ele>
        <time>2013-05-22T17:02:36Z</time>
      </trkpt>
      <trkpt lat="59.9744119" lon="17.7271054">
        <ele>31.3801</ele>
        <time>2013-05-22T17:02:37Z</time>
      </trkpt>
      <trkpt lat="59.9744082" lon="17.7269828">
        <ele>31.8607</ele>
        <time>2013-05-22T17:02:38Z</time>
      </trkpt>
      <trkpt lat="59.9744067" lon="17.7268623">
        <ele>31.8607</ele>
        <time>2013-05-22T17:02:39Z</time>
      </trkpt>
      <trkpt lat="59.9744067" lon="17.7267428">
        <ele>31.8607</ele>
        <time>2013-05-22T17:02:40Z</time>
      </trkpt>
      <trkpt lat="59.9744054" lon="17.726625">
        <ele>31.8607</ele>
        <time>2013-05-22T17:02:41Z</time>
      </trkpt>
      <trkpt lat="59.974401" lon="17.7265078">
        <ele>32.3416</ele>
        <time>2013-05-22T17:02:42Z</time>
      </trkpt>
      <trkpt lat="59.974396" lon="17.7263941">
        <ele>32.3416</ele>
        <time>2013-05-22T17:02:43Z</time>
      </trkpt>
      <trkpt lat="59.9743926" lon="17.7262791">
        <ele>32.3416</ele>
        <time>2013-05-22T17:02:44Z</time>
      </trkpt>
      <trkpt lat="59.9743847" lon="17.7261502">
        <ele>32.3416</ele>
        <time>2013-05-22T17:02:45Z</time>
      </trkpt>
      <trkpt lat="59.9743812" lon="17.7260288">
        <ele>32.3416</ele>
        <time>2013-05-22T17:02:46Z</time>
      </trkpt>
      <trkpt lat="59.974374" lon="17.7259021">
        <ele>32.3416</ele>
        <time>2013-05-22T17:02:47Z</time>
      </trkpt>
      <trkpt lat="59.9743666" lon="17.7257757">
        <ele>32.3416</ele>
        <time>2013-05-22T17:02:48Z</time>
      </trkpt>
      <trkpt lat="59.9743572" lon="17.7256483">
        <ele>32.3416</ele>
        <time>2013-05-22T17:02:49Z</time>
      </trkpt>
      <trkpt lat="59.9743458" lon="17.7255188">
        <ele>31.8607</ele>
        <time>2013-05-22T17:02:50Z</time>
      </trkpt>
      <trkpt lat="59.974332" lon="17.7253878">
        <ele>31.8607</ele>
        <time>2013-05-22T17:02:51Z</time>
      </trkpt>
      <trkpt lat="59.9743165" lon="17.7252567">
        <ele>31.8607</ele>
        <time>2013-05-22T17:02:52Z</time>
      </trkpt>
      <trkpt lat="59.9743003" lon="17.7251254">
        <ele>31.8607</ele>
        <time>2013-05-22T17:02:53Z</time>
      </trkpt>
      <trkpt lat="59.9742836" lon="17.7249941">
        <ele>31.8607</ele>
        <time>2013-05-22T17:02:54Z</time>
      </trkpt>
      <trkpt lat="59.9742658" lon="17.7248625">
        <ele>31.8607</ele>
        <time>2013-05-22T17:02:55Z</time>
      </trkpt>
      <trkpt lat="59.9742476" lon="17.7247293">
        <ele>31.8607</ele>
        <time>2013-05-22T17:02:56Z</time>
      </trkpt>
      <trkpt lat="59.9742289" lon="17.7245951">
        <ele>31.8607</ele>
        <time>2013-05-22T17:02:57Z</time>
      </trkpt>
      <trkpt lat="59.9742093" lon="17.7244615">
        <ele>31.8607</ele>
        <time>2013-05-22T17:02:58Z</time>
      </trkpt>
      <trkpt lat="59.9741906" lon="17.724329">
        <ele>31.8607</ele>
        <time>2013-05-22T17:02:59Z</time>
      </trkpt>
      <trkpt lat="59.9741722" lon="17.7241963">
        <ele>31.8607</ele>
        <time>2013-05-22T17:03:00Z</time>
      </trkpt>
      <trkpt lat="59.9741533" lon="17.7240626">
        <ele>31.8607</ele>
        <time>2013-05-22T17:03:01Z</time>
      </trkpt>
      <trkpt lat="59.9741336" lon="17.7239283">
        <ele>31.8607</ele>
        <time>2013-05-22T17:03:02Z</time>
      </trkpt>
      <trkpt lat="59.9741137" lon="17.7237938">
        <ele>31.8607</ele>
        <time>2013-05-22T17:03:03Z</time>
      </trkpt>
      <trkpt lat="59.9740942" lon="17.7236596">
        <ele>31.8607</ele>
        <time>2013-05-22T17:03:04Z</time>
      </trkpt>
      <trkpt lat="59.9740749" lon="17.7235254">
        <ele>31.8607</ele>
        <time>2013-05-22T17:03:05Z</time>
      </trkpt>
      <trkpt lat="59.9740544" lon="17.7233911">
        <ele>31.8607</ele>
        <time>2013-05-22T17:03:06Z</time>
      </trkpt>
      <trkpt lat="59.9740326" lon="17.7232575">
        <ele>31.8607</ele>
        <time>2013-05-22T17:03:07Z</time>
      </trkpt>
      <trkpt lat="59.9740088" lon="17.7231252">
        <ele>31.8607</ele>
        <time>2013-05-22T17:03:08Z</time>
      </trkpt>
      <trkpt lat="59.9739828" lon="17.722995">
        <ele>31.8607</ele>
        <time>2013-05-22T17:03:09Z</time>
      </trkpt>
      <trkpt lat="59.9739539" lon="17.7228682">
        <ele>31.8607</ele>
        <time>2013-05-22T17:03:10Z</time>
      </trkpt>
      <trkpt lat="59.9739236" lon="17.7227443">
        <ele>31.8607</ele>
        <time>2013-05-22T17:03:11Z</time>
      </trkpt>
      <trkpt lat="59.9738917" lon="17.7226217">
        <ele>31.8607</ele>
        <time>2013-05-22T17:03:12Z</time>
      </trkpt>
      <trkpt lat="59.973859" lon="17.7225003">
        <ele>31.8607</ele>
        <time>2013-05-22T17:03:13Z</time>
      </trkpt>
      <trkpt lat="59.9738249" lon="17.7223807">
        <ele>31.8607</ele>
        <time>2013-05-22T17:03:14Z</time>
      </trkpt>
      <trkpt lat="59.9737889" lon="17.7222639">
        <ele>31.8607</ele>
        <time>2013-05-22T17:03:15Z</time>
      </trkpt>
      <trkpt lat="59.9737519" lon="17.7221487">
        <ele>31.8607</ele>
        <time>2013-05-22T17:03:16Z</time>
      </trkpt>
      <trkpt lat="59.9737136" lon="17.7220367">
        <ele>32.3416</ele>
        <time>2013-05-22T17:03:17Z</time>
      </trkpt>
      <trkpt lat="59.9736741" lon="17.7219275">
        <ele>32.3416</ele>
        <time>2013-05-22T17:03:18Z</time>
      </trkpt>
      <trkpt lat="59.9736338" lon="17.7218205">
        <ele>32.3416</ele>
        <time>2013-05-22T17:03:19Z</time>
      </trkpt>
      <trkpt lat="59.9735926" lon="17.7217161">
        <ele>32.3416</ele>
        <time>2013-05-22T17:03:20Z</time>
      </trkpt>
      <trkpt lat="59.9735503" lon="17.7216162">
        <ele>32.3416</ele>
        <time>2013-05-22T17:03:21Z</time>
      </trkpt>
      <trkpt lat="59.9735069" lon="17.7215195">
        <ele>32.8223</ele>
        <time>2013-05-22T17:03:22Z</time>
      </trkpt>
      <trkpt lat="59.9734633" lon="17.7214254">
        <ele>32.8223</ele>
        <time>2013-05-22T17:03:23Z</time>
      </trkpt>
      <trkpt lat="59.9734192" lon="17.7213349">
        <ele>32.8223</ele>
        <time>2013-05-22T17:03:24Z</time>
      </trkpt>
      <trkpt lat="59.9733743" lon="17.7212482">
        <ele>32.8223</ele>
        <time>2013-05-22T17:03:25Z</time>
      </trkpt>
      <trkpt lat="59.9733297" lon="17.7211645">
        <ele>32.8223</ele>
        <time>2013-05-22T17:03:26Z</time>
      </trkpt>
      <trkpt lat="59.9732846" lon="17.721084">
        <ele>32.8223</ele>
        <time>2013-05-22T17:03:27Z</time>
      </trkpt>
      <trkpt lat="59.9732385" lon="17.7210047">
        <ele>33.3029</ele>
        <time>2013-05-22T17:03:28Z</time>
      </trkpt>
      <trkpt lat="59.9731908" lon="17.7209277">
        <ele>33.3029</ele>
        <time>2013-05-22T17:03:29Z</time>
      </trkpt>
      <trkpt lat="59.973142" lon="17.720853">
        <ele>33.3029</ele>
        <time>2013-05-22T17:03:30Z</time>
      </trkpt>
      <trkpt lat="59.9730925" lon="17.72078">
        <ele>33.3029</ele>
        <time>2013-05-22T17:03:31Z</time>
      </trkpt>
      <trkpt lat="59.9730422" lon="17.7207104">
        <ele>33.3029</ele>
        <time>2013-05-22T17:03:32Z</time>
      </trkpt>
      <trkpt lat="59.9729914" lon="17.7206421">
        <ele>33.7834</ele>
        <time>2013-05-22T17:03:33Z</time>
      </trkpt>
      <trkpt lat="59.9729391" lon="17.7205737">
        <ele>33.7834</ele>
        <time>2013-05-22T17:03:34Z</time>
      </trkpt>
      <trkpt lat="59.9728853" lon="17.7205091">
        <ele>33.7834</ele>
        <time>2013-05-22T17:03:35Z</time>
      </trkpt>
      <trkpt lat="59.9728306" lon="17.7204484">
        <ele>33.7834</ele>
        <time>2013-05-22T17:03:36Z</time>
      </trkpt>
      <trkpt lat="59.9727759" lon="17.7203884">
        <ele>33.7834</ele>
        <time>2013-05-22T17:03:37Z</time>
      </trkpt>
      <trkpt lat="59.9727216" lon="17.7203298">
        <ele>34.2642</ele>
        <time>2013-05-22T17:03:38Z</time>
      </trkpt>
      <trkpt lat="59.9726669" lon="17.7202746">
        <ele>34.2642</ele>
        <time>2013-05-22T17:03:39Z</time>
      </trkpt>
      <trkpt lat="59.9726112" lon="17.7202232">
        <ele>34.2642</ele>
        <time>2013-05-22T17:03:40Z</time>
      </trkpt>
      <trkpt lat="59.972555" lon="17.7201743">
        <ele>34.2642</ele>
        <time>2013-05-22T17:03:41Z</time>
      </trkpt>
      <trkpt lat="59.9724984" lon="17.7201232">
        <ele>34.2642</ele>
        <time>2013-05-22T17:03:42Z</time>
      </trkpt>
      <trkpt lat="59.9724421" lon="17.7200698">
        <ele>34.2642</ele>
        <time>2013-05-22T17:03:43Z</time>
      </trkpt>
      <trkpt lat="59.9723849" lon="17.7200178">
        <ele>34.2642</ele>
        <time>2013-05-22T17:03:44Z</time>
      </trkpt>
      <trkpt lat="59.9723272" lon="17.7199671">
        <ele>34.7449</ele>
        <time>2013-05-22T17:03:45Z</time>
      </trkpt>
      <trkpt lat="59.9722697" lon="17.7199154">
        <ele>34.7449</ele>
        <time>2013-05-22T17:03:46Z</time>
      </trkpt>
      <trkpt lat="59.9722121" lon="17.7198646">
        <ele>34.7449</ele>
        <time>2013-05-22T17:03:47Z</time>
      </trkpt>
      <trkpt lat="59.9721543" lon="17.7198143">
        <ele>34.7449</ele>
        <time>2013-05-22T17:03:48Z</time>
      </trkpt>
      <trkpt lat="59.9720973" lon="17.7197621">
        <ele>34.7449</ele>
        <time>2013-05-22T17:03:49Z</time>
      </trkpt>
      <trkpt lat="59.9720402" lon="17.7197109">
        <ele>35.2255</ele>
        <time>2013-05-22T17:03:50Z</time>
      </trkpt>
      <trkpt lat="59.9719828" lon="17.7196615">
        <ele>35.2255</ele>
        <time>2013-05-22T17:03:51Z</time>
      </trkpt>
      <trkpt lat="59.9719256" lon="17.7196112">
        <ele>35.2255</ele>
        <time>2013-05-22T17:03:52Z</time>
      </trkpt>
      <trkpt lat="59.9718688" lon="17.71956">
        <ele>35.2255</ele>
        <time>2013-05-22T17:03:53Z</time>
      </trkpt>
      <trkpt lat="59.9718122" lon="17.7195093">
        <ele>35.2255</ele>
        <time>2013-05-22T17:03:54Z</time>
      </trkpt>
      <trkpt lat="59.9717557" lon="17.7194604">
        <ele>35.2255</ele>
        <time>2013-05-22T17:03:55Z</time>
      </trkpt>
      <trkpt lat="59.9716995" lon="17.7194112">
        <ele>35.2255</ele>
        <time>2013-05-22T17:03:56Z</time>
      </trkpt>
      <trkpt lat="59.9716439" lon="17.7193612">
        <ele>35.7061</ele>
        <time>2013-05-22T17:03:57Z</time>
      </trkpt>
      <trkpt lat="59.9715882" lon="17.7193121">
        <ele>35.7061</ele>
        <time>2013-05-22T17:03:58Z</time>
      </trkpt>
      <trkpt lat="59.9715331" lon="17.7192634">
        <ele>35.7061</ele>
        <time>2013-05-22T17:03:59Z</time>
      </trkpt>
      <trkpt lat="59.9714782" lon="17.7192139">
        <ele>35.7061</ele>
        <time>2013-05-22T17:04:00Z</time>
      </trkpt>
      <trkpt lat="59.9714234" lon="17.7191641">
        <ele>35.7061</ele>
        <time>2013-05-22T17:04:01Z</time>
      </trkpt>
      <trkpt lat="59.9713685" lon="17.7191157">
        <ele>36.1868</ele>
        <time>2013-05-22T17:04:02Z</time>
      </trkpt>
      <trkpt lat="59.9713136" lon="17.7190685">
        <ele>36.1868</ele>
        <time>2013-05-22T17:04:03Z</time>
      </trkpt>
      <trkpt lat="59.9712592" lon="17.7190209">
        <ele>36.1868</ele>
        <time>2013-05-22T17:04:04Z</time>
      </trkpt>
      <trkpt lat="59.9712056" lon="17.7189715">
        <ele>36.1868</ele>
        <time>2013-05-22T17:04:05Z</time>
      </trkpt>
      <trkpt lat="59.9711519" lon="17.7189205">
        <ele>36.1868</ele>
        <time>2013-05-22T17:04:06Z</time>
      </trkpt>
      <trkpt lat="59.971098" lon="17.7188706">
        <ele>36.1868</ele>
        <time>2013-05-22T17:04:07Z</time>
      </trkpt>
      <trkpt lat="59.9710438" lon="17.7188221">
        <ele>36.1868</ele>
        <time>2013-05-22T17:04:08Z</time>
      </trkpt>
      <trkpt lat="59.9709899" lon="17.7187746">
        <ele>36.1868</ele>
        <time>2013-05-22T17:04:09Z</time>
      </trkpt>
      <trkpt lat="59.9709364" lon="17.7187272">
        <ele>36.6675</ele>
        <time>2013-05-22T17:04:10Z</time>
      </trkpt>
      <trkpt lat="59.9708834" lon="17.7186785">
        <ele>36.6675</ele>
        <time>2013-05-22T17:04:11Z</time>
      </trkpt>
      <trkpt lat="59.9708302" lon="17.7186285">
        <ele>36.6675</ele>
        <time>2013-05-22T17:04:12Z</time>
      </trkpt>
      <trkpt lat="59.970776" lon="17.7185791">
        <ele>36.6675</ele>
        <time>2013-05-22T17:04:13Z</time>
      </trkpt>
      <trkpt lat="59.9707214" lon="17.7185304">
        <ele>36.6675</ele>
        <time>2013-05-22T17:04:14Z</time>
      </trkpt>
      <trkpt lat="59.9706662" lon="17.7184827">
        <ele>36.6675</ele>
        <time>2013-05-22T17:04:15Z</time>
      </trkpt>
      <trkpt lat="59.9706106" lon="17.7184365">
        <ele>36.6675</ele>
        <time>2013-05-22T17:04:16Z</time>
      </trkpt>
      <trkpt lat="59.9705542" lon="17.7183899">
        <ele>36.6675</ele>
        <time>2013-05-22T17:04:17Z</time>
      </trkpt>
      <trkpt lat="59.9704981" lon="17.7183422">
        <ele>36.6675</ele>
        <time>2013-05-22T17:04:18Z</time>
      </trkpt>
      <trkpt lat="59.9704419" lon="17.7182927">
        <ele>36.6675</ele>
        <time>2013-05-22T17:04:19Z</time>
      </trkpt>
      <trkpt lat="59.9703856" lon="17.7182421">
        <ele>37.1481</ele>
        <time>2013-05-22T17:04:20Z</time>
      </trkpt>
      <trkpt lat="59.9703288" lon="17.7181893">
        <ele>37.1481</ele>
        <time>2013-05-22T17:04:21Z</time>
      </trkpt>
      <trkpt lat="59.9702713" lon="17.7181359">
        <ele>37.1481</ele>
        <time>2013-05-22T17:04:22Z</time>
      </trkpt>
      <trkpt lat="59.9702128" lon="17.7180853">
        <ele>37.1481</ele>
        <time>2013-05-22T17:04:23Z</time>
      </trkpt>
      <trkpt lat="59.9701538" lon="17.7180382">
        <ele>37.1481</ele>
        <time>2013-05-22T17:04:24Z</time>
      </trkpt>
      <trkpt lat="59.9700924" lon="17.7179886">
        <ele>37.1481</ele>
        <time>2013-05-22T17:04:25Z</time>
      </trkpt>
      <trkpt lat="59.9700311" lon="17.7179351">
        <ele>37.1481</ele>
        <time>2013-05-22T17:04:26Z</time>
      </trkpt>
      <trkpt lat="59.9699719" lon="17.7178814">
        <ele>37.1481</ele>
        <time>2013-05-22T17:04:27Z</time>
      </trkpt>
      <trkpt lat="59.9699123" lon="17.7178293">
        <ele>37.1481</ele>
        <time>2013-05-22T17:04:28Z</time>
      </trkpt>
      <trkpt lat="59.9698523" lon="17.7177781">
        <ele>37.6287</ele>
        <time>2013-05-22T17:04:29Z</time>
      </trkpt>
      <trkpt lat="59.969792" lon="17.7177284">
        <ele>37.6287</ele>
        <time>2013-05-22T17:04:30Z</time>
      </trkpt>
      <trkpt lat="59.9697305" lon="17.7176808">
        <ele>37.6287</ele>
        <time>2013-05-22T17:04:31Z</time>
      </trkpt>
      <trkpt lat="59.9696693" lon="17.7176321">
        <ele>37.6287</ele>
        <time>2013-05-22T17:04:32Z</time>
      </trkpt>
      <trkpt lat="59.9696092" lon="17.7175804">
        <ele>37.6287</ele>
        <time>2013-05-22T17:04:33Z</time>
      </trkpt>
      <trkpt lat="59.9695487" lon="17.717532">
        <ele>38.1094</ele>
        <time>2013-05-22T17:04:34Z</time>
      </trkpt>
      <trkpt lat="59.9694875" lon="17.7174887">
        <ele>38.1094</ele>
        <time>2013-05-22T17:04:35Z</time>
      </trkpt>
      <trkpt lat="59.9694258" lon="17.7174496">
        <ele>38.1094</ele>
        <time>2013-05-22T17:04:36Z</time>
      </trkpt>
      <trkpt lat="59.9693634" lon="17.7174156">
        <ele>38.5901</ele>
        <time>2013-05-22T17:04:37Z</time>
      </trkpt>
      <trkpt lat="59.9693016" lon="17.7173869">
        <ele>38.5901</ele>
        <time>2013-05-22T17:04:38Z</time>
      </trkpt>
      <trkpt lat="59.9692406" lon="17.7173606">
        <ele>38.5901</ele>
        <time>2013-05-22T17:04:39Z</time>
      </trkpt>
      <trkpt lat="59.9691802" lon="17.7173354">
        <ele>38.5901</ele>
        <time>2013-05-22T17:04:40Z</time>
      </trkpt>
      <trkpt lat="59.9691202" lon="17.7173105">
        <ele>38.5901</ele>
        <time>2013-05-22T17:04:41Z</time>
      </trkpt>
      <trkpt lat="59.9690601" lon="17.7172861">
        <ele>38.5901</ele>
        <time>2013-05-22T17:04:42Z</time>
      </trkpt>
      <trkpt lat="59.9689994" lon="17.7172638">
        <ele>39.0707</ele>
        <time>2013-05-22T17:04:43Z</time>
      </trkpt>
      <trkpt lat="59.9689389" lon="17.7172431">
        <ele>39.0707</ele>
        <time>2013-05-22T17:04:44Z</time>
      </trkpt>
      <trkpt lat="59.9688785" lon="17.7172227">
        <ele>39.0707</ele>
        <time>2013-05-22T17:04:45Z</time>
      </trkpt>
      <trkpt lat="59.9688181" lon="17.7172004">
        <ele>39.0707</ele>
        <time>2013-05-22T17:04:46Z</time>
      </trkpt>
      <trkpt lat="59.9687565" lon="17.7171743">
        <ele>39.0707</ele>
        <time>2013-05-22T17:04:47Z</time>
      </trkpt>
      <trkpt lat="59.9686933" lon="17.7171479">
        <ele>38.5901</ele>
        <time>2013-05-22T17:04:48Z</time>
      </trkpt>
      <trkpt lat="59.9686286" lon="17.7171219">
        <ele>38.5901</ele>
        <time>2013-05-22T17:04:49Z</time>
      </trkpt>
      <trkpt lat="59.9685633" lon="17.7170939">
        <ele>38.5901</ele>
        <time>2013-05-22T17:04:50Z</time>
      </trkpt>
      <trkpt lat="59.9684976" lon="17.7170612">
        <ele>38.1094</ele>
        <time>2013-05-22T17:04:51Z</time>
      </trkpt>
      <trkpt lat="59.9684313" lon="17.7170224">
        <ele>38.1094</ele>
        <time>2013-05-22T17:04:52Z</time>
      </trkpt>
      <trkpt lat="59.9683644" lon="17.7169764">
        <ele>37.6287</ele>
        <time>2013-05-22T17:04:53Z</time>
      </trkpt>
      <trkpt lat="59.9682967" lon="17.7169222">
        <ele>37.6287</ele>
        <time>2013-05-22T17:04:54Z</time>
      </trkpt>
      <trkpt lat="59.9682287" lon="17.7168587">
        <ele>37.1481</ele>
        <time>2013-05-22T17:04:55Z</time>
      </trkpt>
      <trkpt lat="59.9681616" lon="17.7167722">
        <ele>36.6675</ele>
        <time>2013-05-22T17:04:56Z</time>
      </trkpt>
      <trkpt lat="59.968093" lon="17.7166772">
        <ele>36.1868</ele>
        <time>2013-05-22T17:04:57Z</time>
      </trkpt>
      <trkpt lat="59.9680253" lon="17.7165738">
        <ele>35.7061</ele>
        <time>2013-05-22T17:04:58Z</time>
      </trkpt>
      <trkpt lat="59.967959" lon="17.716463">
        <ele>35.2255</ele>
        <time>2013-05-22T17:04:59Z</time>
      </trkpt>
      <trkpt lat="59.9678922" lon="17.7163433">
        <ele>34.2642</ele>
        <time>2013-05-22T17:05:00Z</time>
      </trkpt>
      <trkpt lat="59.9678266" lon="17.7162113">
        <ele>33.7834</ele>
        <time>2013-05-22T17:05:01Z</time>
      </trkpt>
      <trkpt lat="59.9677639" lon="17.7160651">
        <ele>33.3029</ele>
        <time>2013-05-22T17:05:02Z</time>
      </trkpt>
      <trkpt lat="59.9677049" lon="17.7159048">
        <ele>32.8223</ele>
        <time>2013-05-22T17:05:03Z</time>
      </trkpt>
      <trkpt lat="59.9676507" lon="17.7157316">
        <ele>31.8607</ele>
        <time>2013-05-22T17:05:04Z</time>
      </trkpt>
      <trkpt lat="59.9676025" lon="17.7155488">
        <ele>31.3801</ele>
        <time>2013-05-22T17:05:05Z</time>
      </trkpt>
      <trkpt lat="59.967559" lon="17.7153623">
        <ele>31.3801</ele>
        <time>2013-05-22T17:05:06Z</time>
      </trkpt>
      <trkpt lat="59.9675278" lon="17.7151672">
        <ele>29.9381</ele>
        <time>2013-05-22T17:05:07Z</time>
      </trkpt>
      <trkpt lat="59.9674939" lon="17.714968">
        <ele>29.4575</ele>
        <time>2013-05-22T17:05:08Z</time>
      </trkpt>
      <trkpt lat="59.9674713" lon="17.7147828">
        <ele>28.9769</ele>
        <time>2013-05-22T17:05:09Z</time>
      </trkpt>
      <trkpt lat="59.9674533" lon="17.7146121">
        <ele>28.4962</ele>
        <time>2013-05-22T17:05:10Z</time>
      </trkpt>
      <trkpt lat="59.9674353" lon="17.7144459">
        <ele>28.4962</ele>
        <time>2013-05-22T17:05:11Z</time>
      </trkpt>
      <trkpt lat="59.9674176" lon="17.7142894">
        <ele>28.4962</ele>
        <time>2013-05-22T17:05:12Z</time>
      </trkpt>
      <trkpt lat="59.9674009" lon="17.7141422">
        <ele>28.4962</ele>
        <time>2013-05-22T17:05:13Z</time>
      </trkpt>
      <trkpt lat="59.9673846" lon="17.7140033">
        <ele>28.9769</ele>
        <time>2013-05-22T17:05:14Z</time>
      </trkpt>
      <trkpt lat="59.9673684" lon="17.713873">
        <ele>29.4575</ele>
        <time>2013-05-22T17:05:15Z</time>
      </trkpt>
      <trkpt lat="59.9673521" lon="17.7137512">
        <ele>29.9381</ele>
        <time>2013-05-22T17:05:16Z</time>
      </trkpt>
      <trkpt lat="59.9673357" lon="17.7136356">
        <ele>30.4188</ele>
        <time>2013-05-22T17:05:17Z</time>
      </trkpt>
      <trkpt lat="59.9673192" lon="17.7135244">
        <ele>30.8995</ele>
        <time>2013-05-22T17:05:18Z</time>
      </trkpt>
      <trkpt lat="59.9673036" lon="17.7134175">
        <ele>31.3801</ele>
        <time>2013-05-22T17:05:19Z</time>
      </trkpt>
      <trkpt lat="59.9672881" lon="17.713314">
        <ele>31.3801</ele>
        <time>2013-05-22T17:05:20Z</time>
      </trkpt>
      <trkpt lat="59.9672714" lon="17.7132146">
        <ele>31.8607</ele>
        <time>2013-05-22T17:05:21Z</time>
      </trkpt>
      <trkpt lat="59.967253" lon="17.7131176">
        <ele>31.8607</ele>
        <time>2013-05-22T17:05:22Z</time>
      </trkpt>
      <trkpt lat="59.9672325" lon="17.7130223">
        <ele>32.3416</ele>
        <time>2013-05-22T17:05:23Z</time>
      </trkpt>
      <trkpt lat="59.9672102" lon="17.7129289">
        <ele>32.3416</ele>
        <time>2013-05-22T17:05:24Z</time>
      </trkpt>
      <trkpt lat="59.9671876" lon="17.7128356">
        <ele>32.8223</ele>
        <time>2013-05-22T17:05:25Z</time>
      </trkpt>
      <trkpt lat="59.9671643" lon="17.7127444">
        <ele>32.8223</ele>
        <time>2013-05-22T17:05:26Z</time>
      </trkpt>
      <trkpt lat="59.9671394" lon="17.7126555">
        <ele>32.8223</ele>
        <time>2013-05-22T17:05:27Z</time>
      </trkpt>
      <trkpt lat="59.9671138" lon="17.712567">
        <ele>32.8223</ele>
        <time>2013-05-22T17:05:28Z</time>
      </trkpt>
      <trkpt lat="59.967087" lon="17.7124799">
        <ele>33.3029</ele>
        <time>2013-05-22T17:05:29Z</time>
      </trkpt>
      <trkpt lat="59.9670575" lon="17.7123944">
        <ele>33.3029</ele>
        <time>2013-05-22T17:05:30Z</time>
      </trkpt>
      <trkpt lat="59.967025" lon="17.7123096">
        <ele>33.3029</ele>
        <time>2013-05-22T17:05:31Z</time>
      </trkpt>
      <trkpt lat="59.9669909" lon="17.7122223">
        <ele>33.3029</ele>
        <time>2013-05-22T17:05:32Z</time>
      </trkpt>
      <trkpt lat="59.9669576" lon="17.7121312">
        <ele>33.3029</ele>
        <time>2013-05-22T17:05:33Z</time>
      </trkpt>
      <trkpt lat="59.966923" lon="17.7120407">
        <ele>33.3029</ele>
        <time>2013-05-22T17:05:34Z</time>
      </trkpt>
      <trkpt lat="59.9668873" lon="17.7119504">
        <ele>33.3029</ele>
        <time>2013-05-22T17:05:35Z</time>
      </trkpt>
      <trkpt lat="59.9668519" lon="17.7118573">
        <ele>33.3029</ele>
        <time>2013-05-22T17:05:36Z</time>
      </trkpt>
      <trkpt lat="59.9668167" lon="17.711762">
        <ele>33.3029</ele>
        <time>2013-05-22T17:05:37Z</time>
      </trkpt>
      <trkpt lat="59.9667816" lon="17.7116661">
        <ele>33.3029</ele>
        <time>2013-05-22T17:05:38Z</time>
      </trkpt>
      <trkpt lat="59.9667471" lon="17.7115703">
        <ele>33.3029</ele>
        <time>2013-05-22T17:05:39Z</time>
      </trkpt>
      <trkpt lat="59.9667126" lon="17.7114735">
        <ele>33.3029</ele>
        <time>2013-05-22T17:05:40Z</time>
      </trkpt>
      <trkpt lat="59.9666797" lon="17.7113745">
        <ele>33.3029</ele>
        <time>2013-05-22T17:05:41Z</time>
      </trkpt>
      <trkpt lat="59.966649" lon="17.711272">
        <ele>33.3029</ele>
        <time>2013-05-22T17:05:42Z</time>
      </trkpt>
      <trkpt lat="59.9666189" lon="17.7111668">
        <ele>33.3029</ele>
        <time>2013-05-22T17:05:43Z</time>
      </trkpt>
      <trkpt lat="59.9665881" lon="17.7110611">
        <ele>33.3029</ele>
        <time>2013-05-22T17:05:44Z</time>
      </trkpt>
      <trkpt lat="59.9665568" lon="17.7109548">
        <ele>33.3029</ele>
        <time>2013-05-22T17:05:45Z</time>
      </trkpt>
      <trkpt lat="59.9665266" lon="17.7108461">
        <ele>32.8223</ele>
        <time>2013-05-22T17:05:46Z</time>
      </trkpt>
      <trkpt lat="59.9664959" lon="17.7107346">
        <ele>32.8223</ele>
        <time>2013-05-22T17:05:47Z</time>
      </trkpt>
      <trkpt lat="59.966464" lon="17.7106199">
        <ele>32.8223</ele>
        <time>2013-05-22T17:05:48Z</time>
      </trkpt>
      <trkpt lat="59.9664307" lon="17.7105036">
        <ele>32.8223</ele>
        <time>2013-05-22T17:05:49Z</time>
      </trkpt>
      <trkpt lat="59.9663957" lon="17.7103866">
        <ele>32.8223</ele>
        <time>2013-05-22T17:05:50Z</time>
      </trkpt>
      <trkpt lat="59.9663608" lon="17.7102673">
        <ele>32.3416</ele>
        <time>2013-05-22T17:05:51Z</time>
      </trkpt>
      <trkpt lat="59.9663262" lon="17.7101448">
        <ele>32.3416</ele>
        <time>2013-05-22T17:05:52Z</time>
      </trkpt>
      <trkpt lat="59.9662923" lon="17.7100206">
        <ele>32.3416</ele>
        <time>2013-05-22T17:05:53Z</time>
      </trkpt>
      <trkpt lat="59.9662574" lon="17.7098955">
        <ele>32.3416</ele>
        <time>2013-05-22T17:05:54Z</time>
      </trkpt>
      <trkpt lat="59.966222" lon="17.7097702">
        <ele>31.8607</ele>
        <time>2013-05-22T17:05:55Z</time>
      </trkpt>
      <trkpt lat="59.9661861" lon="17.7096452">
        <ele>31.8607</ele>
        <time>2013-05-22T17:05:56Z</time>
      </trkpt>
      <trkpt lat="59.9661495" lon="17.7095222">
        <ele>31.8607</ele>
        <time>2013-05-22T17:05:57Z</time>
      </trkpt>
      <trkpt lat="59.9661127" lon="17.7094014">
        <ele>31.8607</ele>
        <time>2013-05-22T17:05:58Z</time>
      </trkpt>
      <trkpt lat="59.9660769" lon="17.7092797">
        <ele>31.3801</ele>
        <time>2013-05-22T17:05:59Z</time>
      </trkpt>
      <trkpt lat="59.9660414" lon="17.7091565">
        <ele>31.3801</ele>
        <time>2013-05-22T17:06:00Z</time>
      </trkpt>
      <trkpt lat="59.9660048" lon="17.7090342">
        <ele>31.3801</ele>
        <time>2013-05-22T17:06:01Z</time>
      </trkpt>
      <trkpt lat="59.9659667" lon="17.708914">
        <ele>31.3801</ele>
        <time>2013-05-22T17:06:02Z</time>
      </trkpt>
      <trkpt lat="59.9659283" lon="17.708797">
        <ele>31.8607</ele>
        <time>2013-05-22T17:06:03Z</time>
      </trkpt>
      <trkpt lat="59.9658891" lon="17.7086848">
        <ele>31.8607</ele>
        <time>2013-05-22T17:06:04Z</time>
      </trkpt>
      <trkpt lat="59.965849" lon="17.7085769">
        <ele>31.8607</ele>
        <time>2013-05-22T17:06:05Z</time>
      </trkpt>
      <trkpt lat="59.9658072" lon="17.7084741">
        <ele>31.8607</ele>
        <time>2013-05-22T17:06:06Z</time>
      </trkpt>
      <trkpt lat="59.9657626" lon="17.7083769">
        <ele>31.8607</ele>
        <time>2013-05-22T17:06:07Z</time>
      </trkpt>
      <trkpt lat="59.9657139" lon="17.7082877">
        <ele>31.8607</ele>
        <time>2013-05-22T17:06:08Z</time>
      </trkpt>
      <trkpt lat="59.9656599" lon="17.7082059">
        <ele>32.3416</ele>
        <time>2013-05-22T17:06:09Z</time>
      </trkpt>
      <trkpt lat="59.9656035" lon="17.7081317">
        <ele>32.3416</ele>
        <time>2013-05-22T17:06:10Z</time>
      </trkpt>
      <trkpt lat="59.965546" lon="17.7080637">
        <ele>32.3416</ele>
        <time>2013-05-22T17:06:11Z</time>
      </trkpt>
      <trkpt lat="59.9654876" lon="17.7080024">
        <ele>32.3416</ele>
        <time>2013-05-22T17:06:12Z</time>
      </trkpt>
      <trkpt lat="59.9654283" lon="17.7079477">
        <ele>32.8223</ele>
        <time>2013-05-22T17:06:13Z</time>
      </trkpt>
      <trkpt lat="59.9653682" lon="17.7078961">
        <ele>32.8223</ele>
        <time>2013-05-22T17:06:14Z</time>
      </trkpt>
      <trkpt lat="59.9653082" lon="17.7078447">
        <ele>32.8223</ele>
        <time>2013-05-22T17:06:15Z</time>
      </trkpt>
      <trkpt lat="59.9652482" lon="17.7077933">
        <ele>32.8223</ele>
        <time>2013-05-22T17:06:16Z</time>
      </trkpt>
      <trkpt lat="59.9651876" lon="17.7077446">
        <ele>32.8223</ele>
        <time>2013-05-22T17:06:17Z</time>
      </trkpt>
      <trkpt lat="59.9651259" lon="17.7076977">
        <ele>32.8223</ele>
        <time>2013-05-22T17:06:18Z</time>
      </trkpt>
      <trkpt lat="59.9650637" lon="17.7076516">
        <ele>33.3029</ele>
        <time>2013-05-22T17:06:19Z</time>
      </trkpt>
      <trkpt lat="59.9650007" lon="17.7076073">
        <ele>33.3029</ele>
        <time>2013-05-22T17:06:20Z</time>
      </trkpt>
      <trkpt lat="59.9649389" lon="17.7075635">
        <ele>33.3029</ele>
        <time>2013-05-22T17:06:21Z</time>
      </trkpt>
      <trkpt lat="59.9648783" lon="17.7075174">
        <ele>33.3029</ele>
        <time>2013-05-22T17:06:22Z</time>
      </trkpt>
      <trkpt lat="59.9648187" lon="17.7074707">
        <ele>33.3029</ele>
        <time>2013-05-22T17:06:23Z</time>
      </trkpt>
      <trkpt lat="59.9647602" lon="17.7074282">
        <ele>33.7834</ele>
        <time>2013-05-22T17:06:24Z</time>
      </trkpt>
      <trkpt lat="59.9647018" lon="17.7073904">
        <ele>33.7834</ele>
        <time>2013-05-22T17:06:25Z</time>
      </trkpt>
      <trkpt lat="59.9646442" lon="17.7073535">
        <ele>33.7834</ele>
        <time>2013-05-22T17:06:26Z</time>
      </trkpt>
      <trkpt lat="59.9645868" lon="17.7073178">
        <ele>33.7834</ele>
        <time>2013-05-22T17:06:27Z</time>
      </trkpt>
      <trkpt lat="59.9645292" lon="17.7072878">
        <ele>34.2642</ele>
        <time>2013-05-22T17:06:28Z</time>
      </trkpt>
      <trkpt lat="59.9644706" lon="17.7072603">
        <ele>34.2642</ele>
        <time>2013-05-22T17:06:29Z</time>
      </trkpt>
      <trkpt lat="59.9644116" lon="17.7072361">
        <ele>34.2642</ele>
        <time>2013-05-22T17:06:30Z</time>
      </trkpt>
      <trkpt lat="59.964352" lon="17.7072147">
        <ele>34.2642</ele>
        <time>2013-05-22T17:06:31Z</time>
      </trkpt>
      <trkpt lat="59.9642912" lon="17.7071969">
        <ele>34.2642</ele>
        <time>2013-05-22T17:06:32Z</time>
      </trkpt>
      <trkpt lat="59.9642296" lon="17.7071831">
        <ele>34.2642</ele>
        <time>2013-05-22T17:06:33Z</time>
      </trkpt>
      <trkpt lat="59.9641677" lon="17.7071708">
        <ele>34.2642</ele>
        <time>2013-05-22T17:06:34Z</time>
      </trkpt>
      <trkpt lat="59.9641058" lon="17.7071626">
        <ele>34.7449</ele>
        <time>2013-05-22T17:06:35Z</time>
      </trkpt>
      <trkpt lat="59.9640423" lon="17.7071544">
        <ele>34.7449</ele>
        <time>2013-05-22T17:06:36Z</time>
      </trkpt>
      <trkpt lat="59.9639796" lon="17.7071438">
        <ele>34.7449</ele>
        <time>2013-05-22T17:06:37Z</time>
      </trkpt>
      <trkpt lat="59.9639165" lon="17.7071314">
        <ele>34.7449</ele>
        <time>2013-05-22T17:06:38Z</time>
      </trkpt>
      <trkpt lat="59.9638532" lon="17.7071211">
        <ele>34.7449</ele>
        <time>2013-05-22T17:06:39Z</time>
      </trkpt>
      <trkpt lat="59.96379" lon="17.707114">
        <ele>35.2255</ele>
        <time>2013-05-22T17:06:40Z</time>
      </trkpt>
      <trkpt lat="59.9637266" lon="17.7071051">
        <ele>34.7449</ele>
        <time>2013-05-22T17:06:41Z</time>
      </trkpt>
      <trkpt lat="59.9636579" lon="17.7071075">
        <ele>34.7449</ele>
        <time>2013-05-22T17:06:42Z</time>
      </trkpt>
      <trkpt lat="59.963593" lon="17.7071041">
        <ele>34.7449</ele>
        <time>2013-05-22T17:06:43Z</time>
      </trkpt>
      <trkpt lat="59.9635277" lon="17.7071023">
        <ele>34.7449</ele>
        <time>2013-05-22T17:06:44Z</time>
      </trkpt>
      <trkpt lat="59.9634624" lon="17.7071021">
        <ele>34.7449</ele>
        <time>2013-05-22T17:06:45Z</time>
      </trkpt>
      <trkpt lat="59.9633979" lon="17.7071013">
        <ele>35.2255</ele>
        <time>2013-05-22T17:06:46Z</time>
      </trkpt>
      <trkpt lat="59.9633346" lon="17.7070984">
        <ele>35.2255</ele>
        <time>2013-05-22T17:06:47Z</time>
      </trkpt>
      <trkpt lat="59.9632708" lon="17.7070999">
        <ele>35.2255</ele>
        <time>2013-05-22T17:06:48Z</time>
      </trkpt>
      <trkpt lat="59.9632083" lon="17.7071005">
        <ele>35.2255</ele>
        <time>2013-05-22T17:06:49Z</time>
      </trkpt>
      <trkpt lat="59.9631464" lon="17.7071028">
        <ele>35.2255</ele>
        <time>2013-05-22T17:06:50Z</time>
      </trkpt>
      <trkpt lat="59.9630854" lon="17.7071078">
        <ele>35.2255</ele>
        <time>2013-05-22T17:06:51Z</time>
      </trkpt>
      <trkpt lat="59.9630253" lon="17.7071121">
        <ele>35.7061</ele>
        <time>2013-05-22T17:06:52Z</time>
      </trkpt>
      <trkpt lat="59.9629651" lon="17.7071143">
        <ele>35.7061</ele>
        <time>2013-05-22T17:06:53Z</time>
      </trkpt>
      <trkpt lat="59.9629055" lon="17.707116">
        <ele>35.7061</ele>
        <time>2013-05-22T17:06:54Z</time>
      </trkpt>
      <trkpt lat="59.9628456" lon="17.7071175">
        <ele>35.7061</ele>
        <time>2013-05-22T17:06:55Z</time>
      </trkpt>
      <trkpt lat="59.9627866" lon="17.7071137">
        <ele>35.7061</ele>
        <time>2013-05-22T17:06:56Z</time>
      </trkpt>
      <trkpt lat="59.9627269" lon="17.7071021">
        <ele>35.7061</ele>
        <time>2013-05-22T17:06:57Z</time>
      </trkpt>
      <trkpt lat="59.9626675" lon="17.7070845">
        <ele>35.7061</ele>
        <time>2013-05-22T17:06:58Z</time>
      </trkpt>
      <trkpt lat="59.9626108" lon="17.7070689">
        <ele>35.7061</ele>
        <time>2013-05-22T17:06:59Z</time>
      </trkpt>
      <trkpt lat="59.9625533" lon="17.7070445">
        <ele>35.2255</ele>
        <time>2013-05-22T17:07:00Z</time>
      </trkpt>
      <trkpt lat="59.9624943" lon="17.7070176">
        <ele>34.7449</ele>
        <time>2013-05-22T17:07:01Z</time>
      </trkpt>
      <trkpt lat="59.9624365" lon="17.7069953">
        <ele>34.7449</ele>
        <time>2013-05-22T17:07:02Z</time>
      </trkpt>
      <trkpt lat="59.9623788" lon="17.706973">
        <ele>34.7449</ele>
        <time>2013-05-22T17:07:03Z</time>
      </trkpt>
      <trkpt lat="59.9623218" lon="17.7069476">
        <ele>34.7449</ele>
        <time>2013-05-22T17:07:04Z</time>
      </trkpt>
      <trkpt lat="59.962264" lon="17.7069205">
        <ele>34.7449</ele>
        <time>2013-05-22T17:07:05Z</time>
      </trkpt>
      <trkpt lat="59.9622067" lon="17.70689">
        <ele>34.7449</ele>
        <time>2013-05-22T17:07:06Z</time>
      </trkpt>
      <trkpt lat="59.9621494" lon="17.706857">
        <ele>34.7449</ele>
        <time>2013-05-22T17:07:07Z</time>
      </trkpt>
      <trkpt lat="59.9620918" lon="17.7068217">
        <ele>34.7449</ele>
        <time>2013-05-22T17:07:08Z</time>
      </trkpt>
      <trkpt lat="59.9620344" lon="17.7067856">
        <ele>34.7449</ele>
        <time>2013-05-22T17:07:09Z</time>
      </trkpt>
      <trkpt lat="59.9619775" lon="17.7067487">
        <ele>34.7449</ele>
        <time>2013-05-22T17:07:10Z</time>
      </trkpt>
      <trkpt lat="59.9619203" lon="17.7067102">
        <ele>34.7449</ele>
        <time>2013-05-22T17:07:11Z</time>
      </trkpt>
      <trkpt lat="59.9618629" lon="17.7066679">
        <ele>34.7449</ele>
        <time>2013-05-22T17:07:12Z</time>
      </trkpt>
      <trkpt lat="59.961806" lon="17.7066202">
        <ele>34.7449</ele>
        <time>2013-05-22T17:07:13Z</time>
      </trkpt>
      <trkpt lat="59.9617498" lon="17.7065668">
        <ele>34.7449</ele>
        <time>2013-05-22T17:07:14Z</time>
      </trkpt>
      <trkpt lat="59.9616935" lon="17.7065109">
        <ele>34.7449</ele>
        <time>2013-05-22T17:07:15Z</time>
      </trkpt>
      <trkpt lat="59.9616382" lon="17.7064487">
        <ele>34.7449</ele>
        <time>2013-05-22T17:07:16Z</time>
      </trkpt>
      <trkpt lat="59.9615846" lon="17.7063797">
        <ele>34.2642</ele>
        <time>2013-05-22T17:07:17Z</time>
      </trkpt>
      <trkpt lat="59.9615323" lon="17.7063051">
        <ele>34.2642</ele>
        <time>2013-05-22T17:07:18Z</time>
      </trkpt>
      <trkpt lat="59.961482" lon="17.7062255">
        <ele>34.2642</ele>
        <time>2013-05-22T17:07:19Z</time>
      </trkpt>
      <trkpt lat="59.9614333" lon="17.7061422">
        <ele>34.2642</ele>
        <time>2013-05-22T17:07:20Z</time>
      </trkpt>
      <trkpt lat="59.9613859" lon="17.7060552">
        <ele>34.2642</ele>
        <time>2013-05-22T17:07:21Z</time>
      </trkpt>
      <trkpt lat="59.9613383" lon="17.705966">
        <ele>34.2642</ele>
        <time>2013-05-22T17:07:22Z</time>
      </trkpt>
      <trkpt lat="59.9612906" lon="17.7058759">
        <ele>34.2642</ele>
        <time>2013-05-22T17:07:23Z</time>
      </trkpt>
      <trkpt lat="59.9612424" lon="17.7057862">
        <ele>34.2642</ele>
        <time>2013-05-22T17:07:24Z</time>
      </trkpt>
      <trkpt lat="59.9611937" lon="17.7056961">
        <ele>34.2642</ele>
        <time>2013-05-22T17:07:25Z</time>
      </trkpt>
      <trkpt lat="59.9611443" lon="17.7056047">
        <ele>34.2642</ele>
        <time>2013-05-22T17:07:26Z</time>
      </trkpt>
      <trkpt lat="59.961094" lon="17.7055149">
        <ele>34.2642</ele>
        <time>2013-05-22T17:07:27Z</time>
      </trkpt>
      <trkpt lat="59.9610424" lon="17.7054288">
        <ele>34.2642</ele>
        <time>2013-05-22T17:07:28Z</time>
      </trkpt>
      <trkpt lat="59.9609899" lon="17.7053443">
        <ele>34.2642</ele>
        <time>2013-05-22T17:07:29Z</time>
      </trkpt>
      <trkpt lat="59.9609366" lon="17.7052625">
        <ele>34.2642</ele>
        <time>2013-05-22T17:07:30Z</time>
      </trkpt>
      <trkpt lat="59.9608814" lon="17.7051827">
        <ele>34.2642</ele>
        <time>2013-05-22T17:07:31Z</time>
      </trkpt>
      <trkpt lat="59.9608254" lon="17.7051056">
        <ele>34.2642</ele>
        <time>2013-05-22T17:07:32Z</time>
      </trkpt>
      <trkpt lat="59.9607696" lon="17.7050314">
        <ele>34.2642</ele>
        <time>2013-05-22T17:07:33Z</time>
      </trkpt>
      <trkpt lat="59.9607138" lon="17.7049584">
        <ele>34.2642</ele>
        <time>2013-05-22T17:07:34Z</time>
      </trkpt>
      <trkpt lat="59.9606581" lon="17.7048864">
        <ele>34.7449</ele>
        <time>2013-05-22T17:07:35Z</time>
      </trkpt>
      <trkpt lat="59.960602" lon="17.704817">
        <ele>34.7449</ele>
        <time>2013-05-22T17:07:36Z</time>
      </trkpt>
      <trkpt lat="59.9605452" lon="17.7047493">
        <ele>34.7449</ele>
        <time>2013-05-22T17:07:37Z</time>
      </trkpt>
      <trkpt lat="59.9604881" lon="17.7046818">
        <ele>34.7449</ele>
        <time>2013-05-22T17:07:38Z</time>
      </trkpt>
      <trkpt lat="59.9604302" lon="17.7046143">
        <ele>34.7449</ele>
        <time>2013-05-22T17:07:39Z</time>
      </trkpt>
      <trkpt lat="59.9603715" lon="17.7045461">
        <ele>34.7449</ele>
        <time>2013-05-22T17:07:40Z</time>
      </trkpt>
      <trkpt lat="59.9603121" lon="17.7044767">
        <ele>34.7449</ele>
        <time>2013-05-22T17:07:41Z</time>
      </trkpt>
      <trkpt lat="59.9602523" lon="17.7044064">
        <ele>35.2255</ele>
        <time>2013-05-22T17:07:42Z</time>
      </trkpt>
      <trkpt lat="59.9601935" lon="17.7043322">
        <ele>35.2255</ele>
        <time>2013-05-22T17:07:43Z</time>
      </trkpt>
      <trkpt lat="59.9601392" lon="17.7042476">
        <ele>35.7061</ele>
        <time>2013-05-22T17:07:44Z</time>
      </trkpt>
      <trkpt lat="59.9600896" lon="17.7041538">
        <ele>35.7061</ele>
        <time>2013-05-22T17:07:45Z</time>
      </trkpt>
      <trkpt lat="59.9600422" lon="17.7040554">
        <ele>35.7061</ele>
        <time>2013-05-22T17:07:46Z</time>
      </trkpt>
      <trkpt lat="59.9599981" lon="17.7039519">
        <ele>35.7061</ele>
        <time>2013-05-22T17:07:47Z</time>
      </trkpt>
      <trkpt lat="59.9599604" lon="17.7038432">
        <ele>35.7061</ele>
        <time>2013-05-22T17:07:48Z</time>
      </trkpt>
      <trkpt lat="59.9599277" lon="17.7037334">
        <ele>35.2255</ele>
        <time>2013-05-22T17:07:49Z</time>
      </trkpt>
      <trkpt lat="59.9598966" lon="17.7036233">
        <ele>35.2255</ele>
        <time>2013-05-22T17:07:50Z</time>
      </trkpt>
      <trkpt lat="59.9598648" lon="17.7035135">
        <ele>35.7061</ele>
        <time>2013-05-22T17:07:51Z</time>
      </trkpt>
      <trkpt lat="59.9598346" lon="17.703409">
        <ele>35.7061</ele>
        <time>2013-05-22T17:07:52Z</time>
      </trkpt>
      <trkpt lat="59.9598049" lon="17.7033071">
        <ele>35.7061</ele>
        <time>2013-05-22T17:07:53Z</time>
      </trkpt>
      <trkpt lat="59.9597752" lon="17.7032071">
        <ele>35.7061</ele>
        <time>2013-05-22T17:07:54Z</time>
      </trkpt>
      <trkpt lat="59.9597465" lon="17.7031079">
        <ele>35.7061</ele>
        <time>2013-05-22T17:07:55Z</time>
      </trkpt>
      <trkpt lat="59.9597196" lon="17.7030117">
        <ele>35.7061</ele>
        <time>2013-05-22T17:07:56Z</time>
      </trkpt>
      <trkpt lat="59.9596906" lon="17.7029147">
        <ele>36.1868</ele>
        <time>2013-05-22T17:07:57Z</time>
      </trkpt>
      <trkpt lat="59.9596608" lon="17.7028134">
        <ele>35.7061</ele>
        <time>2013-05-22T17:07:58Z</time>
      </trkpt>
      <trkpt lat="59.9596344" lon="17.7027134">
        <ele>35.7061</ele>
        <time>2013-05-22T17:07:59Z</time>
      </trkpt>
      <trkpt lat="59.9596066" lon="17.7026113">
        <ele>35.7061</ele>
        <time>2013-05-22T17:08:00Z</time>
      </trkpt>
      <trkpt lat="59.959577" lon="17.7025071">
        <ele>35.7061</ele>
        <time>2013-05-22T17:08:01Z</time>
      </trkpt>
      <trkpt lat="59.9595462" lon="17.7024004">
        <ele>35.7061</ele>
        <time>2013-05-22T17:08:02Z</time>
      </trkpt>
      <trkpt lat="59.9595162" lon="17.70229">
        <ele>35.7061</ele>
        <time>2013-05-22T17:08:03Z</time>
      </trkpt>
      <trkpt lat="59.9594869" lon="17.7021767">
        <ele>35.7061</ele>
        <time>2013-05-22T17:08:04Z</time>
      </trkpt>
      <trkpt lat="59.9594583" lon="17.7020616">
        <ele>35.7061</ele>
        <time>2013-05-22T17:08:05Z</time>
      </trkpt>
      <trkpt lat="59.9594298" lon="17.7019455">
        <ele>35.7061</ele>
        <time>2013-05-22T17:08:06Z</time>
      </trkpt>
      <trkpt lat="59.9594009" lon="17.7018286">
        <ele>35.7061</ele>
        <time>2013-05-22T17:08:07Z</time>
      </trkpt>
      <trkpt lat="59.9593718" lon="17.7017116">
        <ele>35.7061</ele>
        <time>2013-05-22T17:08:08Z</time>
      </trkpt>
      <trkpt lat="59.9593434" lon="17.7015936">
        <ele>35.7061</ele>
        <time>2013-05-22T17:08:09Z</time>
      </trkpt>
      <trkpt lat="59.9593175" lon="17.7014733">
        <ele>35.7061</ele>
        <time>2013-05-22T17:08:10Z</time>
      </trkpt>
      <trkpt lat="59.9592957" lon="17.7013495">
        <ele>35.7061</ele>
        <time>2013-05-22T17:08:11Z</time>
      </trkpt>
      <trkpt lat="59.9592764" lon="17.7012222">
        <ele>35.7061</ele>
        <time>2013-05-22T17:08:12Z</time>
      </trkpt>
      <trkpt lat="59.9592579" lon="17.701092">
        <ele>35.2255</ele>
        <time>2013-05-22T17:08:13Z</time>
      </trkpt>
      <trkpt lat="59.9592412" lon="17.7009608">
        <ele>35.2255</ele>
        <time>2013-05-22T17:08:14Z</time>
      </trkpt>
      <trkpt lat="59.9592257" lon="17.7008294">
        <ele>35.2255</ele>
        <time>2013-05-22T17:08:15Z</time>
      </trkpt>
      <trkpt lat="59.9592106" lon="17.7006969">
        <ele>35.2255</ele>
        <time>2013-05-22T17:08:16Z</time>
      </trkpt>
      <trkpt lat="59.9591961" lon="17.7005612">
        <ele>34.7449</ele>
        <time>2013-05-22T17:08:17Z</time>
      </trkpt>
      <trkpt lat="59.9591816" lon="17.7004218">
        <ele>34.7449</ele>
        <time>2013-05-22T17:08:18Z</time>
      </trkpt>
      <trkpt lat="59.9591673" lon="17.7002787">
        <ele>34.7449</ele>
        <time>2013-05-22T17:08:19Z</time>
      </trkpt>
      <trkpt lat="59.9591575" lon="17.7001345">
        <ele>34.7449</ele>
        <time>2013-05-22T17:08:20Z</time>
      </trkpt>
      <trkpt lat="59.9591482" lon="17.6999885">
        <ele>34.7449</ele>
        <time>2013-05-22T17:08:21Z</time>
      </trkpt>
      <trkpt lat="59.9591368" lon="17.6998416">
        <ele>34.7449</ele>
        <time>2013-05-22T17:08:22Z</time>
      </trkpt>
      <trkpt lat="59.9591251" lon="17.6996944">
        <ele>34.7449</ele>
        <time>2013-05-22T17:08:23Z</time>
      </trkpt>
      <trkpt lat="59.9591135" lon="17.6995463">
        <ele>34.7449</ele>
        <time>2013-05-22T17:08:24Z</time>
      </trkpt>
      <trkpt lat="59.9591044" lon="17.699398">
        <ele>34.7449</ele>
        <time>2013-05-22T17:08:25Z</time>
      </trkpt>
      <trkpt lat="59.9590972" lon="17.6992499">
        <ele>34.7449</ele>
        <time>2013-05-22T17:08:26Z</time>
      </trkpt>
      <trkpt lat="59.9590904" lon="17.6991016">
        <ele>34.7449</ele>
        <time>2013-05-22T17:08:27Z</time>
      </trkpt>
      <trkpt lat="59.9590855" lon="17.6989542">
        <ele>35.2255</ele>
        <time>2013-05-22T17:08:28Z</time>
      </trkpt>
      <trkpt lat="59.9590828" lon="17.6988072">
        <ele>35.2255</ele>
        <time>2013-05-22T17:08:29Z</time>
      </trkpt>
      <trkpt lat="59.9590797" lon="17.6986584">
        <ele>35.2255</ele>
        <time>2013-05-22T17:08:30Z</time>
      </trkpt>
      <trkpt lat="59.9590806" lon="17.6985154">
        <ele>35.2255</ele>
        <time>2013-05-22T17:08:31Z</time>
      </trkpt>
      <trkpt lat="59.9590802" lon="17.6983709">
        <ele>34.7449</ele>
        <time>2013-05-22T17:08:32Z</time>
      </trkpt>
      <trkpt lat="59.9590746" lon="17.6982207">
        <ele>34.7449</ele>
        <time>2013-05-22T17:08:33Z</time>
      </trkpt>
      <trkpt lat="59.9590652" lon="17.6980694">
        <ele>34.2642</ele>
        <time>2013-05-22T17:08:34Z</time>
      </trkpt>
      <trkpt lat="59.9590521" lon="17.6979174">
        <ele>34.2642</ele>
        <time>2013-05-22T17:08:35Z</time>
      </trkpt>
      <trkpt lat="59.959035" lon="17.6977628">
        <ele>33.7834</ele>
        <time>2013-05-22T17:08:36Z</time>
      </trkpt>
      <trkpt lat="59.959015" lon="17.6976059">
        <ele>33.3029</ele>
        <time>2013-05-22T17:08:37Z</time>
      </trkpt>
      <trkpt lat="59.9589914" lon="17.6974473">
        <ele>32.8223</ele>
        <time>2013-05-22T17:08:38Z</time>
      </trkpt>
      <trkpt lat="59.9589641" lon="17.6972882">
        <ele>32.8223</ele>
        <time>2013-05-22T17:08:39Z</time>
      </trkpt>
      <trkpt lat="59.9589342" lon="17.6971287">
        <ele>32.3416</ele>
        <time>2013-05-22T17:08:40Z</time>
      </trkpt>
      <trkpt lat="59.958902" lon="17.6969712">
        <ele>32.3416</ele>
        <time>2013-05-22T17:08:41Z</time>
      </trkpt>
      <trkpt lat="59.9588677" lon="17.6968167">
        <ele>32.3416</ele>
        <time>2013-05-22T17:08:42Z</time>
      </trkpt>
      <trkpt lat="59.9588303" lon="17.6966665">
        <ele>32.3416</ele>
        <time>2013-05-22T17:08:43Z</time>
      </trkpt>
      <trkpt lat="59.9587887" lon="17.6965217">
        <ele>32.3416</ele>
        <time>2013-05-22T17:08:44Z</time>
      </trkpt>
      <trkpt lat="59.9587436" lon="17.6963822">
        <ele>31.8607</ele>
        <time>2013-05-22T17:08:45Z</time>
      </trkpt>
      <trkpt lat="59.9586954" lon="17.6962466">
        <ele>31.8607</ele>
        <time>2013-05-22T17:08:46Z</time>
      </trkpt>
      <trkpt lat="59.9586452" lon="17.6961148">
        <ele>31.8607</ele>
        <time>2013-05-22T17:08:47Z</time>
      </trkpt>
      <trkpt lat="59.9585939" lon="17.6959851">
        <ele>31.8607</ele>
        <time>2013-05-22T17:08:48Z</time>
      </trkpt>
      <trkpt lat="59.958542" lon="17.695856">
        <ele>31.8607</ele>
        <time>2013-05-22T17:08:49Z</time>
      </trkpt>
      <trkpt lat="59.9584898" lon="17.6957268">
        <ele>31.8607</ele>
        <time>2013-05-22T17:08:50Z</time>
      </trkpt>
      <trkpt lat="59.9584382" lon="17.6955988">
        <ele>31.8607</ele>
        <time>2013-05-22T17:08:51Z</time>
      </trkpt>
      <trkpt lat="59.9583877" lon="17.6954733">
        <ele>31.8607</ele>
        <time>2013-05-22T17:08:52Z</time>
      </trkpt>
      <trkpt lat="59.9582908" lon="17.6952269">
        <ele>31.8607</ele>
        <time>2013-05-22T17:08:54Z</time>
      </trkpt>
      <trkpt lat="59.9582436" lon="17.6951039">
        <ele>31.3801</ele>
        <time>2013-05-22T17:08:55Z</time>
      </trkpt>
      <trkpt lat="59.9581976" lon="17.6949805">
        <ele>31.3801</ele>
        <time>2013-05-22T17:08:56Z</time>
      </trkpt>
      <trkpt lat="59.9581528" lon="17.6948567">
        <ele>31.8607</ele>
        <time>2013-05-22T17:08:57Z</time>
      </trkpt>
      <trkpt lat="59.958108" lon="17.694734">
        <ele>31.8607</ele>
        <time>2013-05-22T17:08:58Z</time>
      </trkpt>
      <trkpt lat="59.9580644" lon="17.6946118">
        <ele>31.3801</ele>
        <time>2013-05-22T17:08:59Z</time>
      </trkpt>
      <trkpt lat="59.9580217" lon="17.6944898">
        <ele>31.3801</ele>
        <time>2013-05-22T17:09:00Z</time>
      </trkpt>
      <trkpt lat="59.9579791" lon="17.6943678">
        <ele>31.3801</ele>
        <time>2013-05-22T17:09:01Z</time>
      </trkpt>
      <trkpt lat="59.9579371" lon="17.6942461">
        <ele>31.3801</ele>
        <time>2013-05-22T17:09:02Z</time>
      </trkpt>
      <trkpt lat="59.957895" lon="17.6941249">
        <ele>31.3801</ele>
        <time>2013-05-22T17:09:03Z</time>
      </trkpt>
      <trkpt lat="59.9578527" lon="17.694004">
        <ele>31.3801</ele>
        <time>2013-05-22T17:09:04Z</time>
      </trkpt>
      <trkpt lat="59.9578111" lon="17.6938829">
        <ele>31.3801</ele>
        <time>2013-05-22T17:09:05Z</time>
      </trkpt>
      <trkpt lat="59.957765" lon="17.693762">
        <ele>31.3801</ele>
        <time>2013-05-22T17:09:06Z</time>
      </trkpt>
      <trkpt lat="59.9577208" lon="17.693643">
        <ele>31.3801</ele>
        <time>2013-05-22T17:09:07Z</time>
      </trkpt>
      <trkpt lat="59.9576775" lon="17.6935248">
        <ele>31.3801</ele>
        <time>2013-05-22T17:09:08Z</time>
      </trkpt>
      <trkpt lat="59.9576329" lon="17.6934078">
        <ele>31.3801</ele>
        <time>2013-05-22T17:09:09Z</time>
      </trkpt>
      <trkpt lat="59.957591" lon="17.6932922">
        <ele>31.8607</ele>
        <time>2013-05-22T17:09:10Z</time>
      </trkpt>
      <trkpt lat="59.9575503" lon="17.6931763">
        <ele>31.8607</ele>
        <time>2013-05-22T17:09:11Z</time>
      </trkpt>
      <trkpt lat="59.9575106" lon="17.6930614">
        <ele>31.8607</ele>
        <time>2013-05-22T17:09:12Z</time>
      </trkpt>
      <trkpt lat="59.9574708" lon="17.692948">
        <ele>31.8607</ele>
        <time>2013-05-22T17:09:13Z</time>
      </trkpt>
      <trkpt lat="59.9574309" lon="17.6928354">
        <ele>31.8607</ele>
        <time>2013-05-22T17:09:14Z</time>
      </trkpt>
      <trkpt lat="59.9573919" lon="17.692722">
        <ele>31.8607</ele>
        <time>2013-05-22T17:09:15Z</time>
      </trkpt>
      <trkpt lat="59.9573527" lon="17.692608">
        <ele>31.8607</ele>
        <time>2013-05-22T17:09:16Z</time>
      </trkpt>
      <trkpt lat="59.9573129" lon="17.6924944">
        <ele>31.8607</ele>
        <time>2013-05-22T17:09:17Z</time>
      </trkpt>
      <trkpt lat="59.9572737" lon="17.6923816">
        <ele>31.8607</ele>
        <time>2013-05-22T17:09:18Z</time>
      </trkpt>
      <trkpt lat="59.957235" lon="17.6922693">
        <ele>31.8607</ele>
        <time>2013-05-22T17:09:19Z</time>
      </trkpt>
      <trkpt lat="59.9571969" lon="17.6921583">
        <ele>31.8607</ele>
        <time>2013-05-22T17:09:20Z</time>
      </trkpt>
      <trkpt lat="59.9571588" lon="17.692049">
        <ele>31.8607</ele>
        <time>2013-05-22T17:09:21Z</time>
      </trkpt>
      <trkpt lat="59.9571204" lon="17.6919396">
        <ele>31.8607</ele>
        <time>2013-05-22T17:09:22Z</time>
      </trkpt>
      <trkpt lat="59.9570817" lon="17.69183">
        <ele>31.8607</ele>
        <time>2013-05-22T17:09:23Z</time>
      </trkpt>
      <trkpt lat="59.9570424" lon="17.6917192">
        <ele>31.8607</ele>
        <time>2013-05-22T17:09:24Z</time>
      </trkpt>
      <trkpt lat="59.9570035" lon="17.6916057">
        <ele>31.8607</ele>
        <time>2013-05-22T17:09:25Z</time>
      </trkpt>
      <trkpt lat="59.9569651" lon="17.6914912">
        <ele>32.3416</ele>
        <time>2013-05-22T17:09:26Z</time>
      </trkpt>
      <trkpt lat="59.956927" lon="17.6913773">
        <ele>32.3416</ele>
        <time>2013-05-22T17:09:27Z</time>
      </trkpt>
      <trkpt lat="59.9568902" lon="17.6912652">
        <ele>32.8223</ele>
        <time>2013-05-22T17:09:28Z</time>
      </trkpt>
      <trkpt lat="59.9568545" lon="17.6911564">
        <ele>32.8223</ele>
        <time>2013-05-22T17:09:29Z</time>
      </trkpt>
      <trkpt lat="59.9568202" lon="17.6910517">
        <ele>33.3029</ele>
        <time>2013-05-22T17:09:30Z</time>
      </trkpt>
      <trkpt lat="59.9567866" lon="17.6909521">
        <ele>33.3029</ele>
        <time>2013-05-22T17:09:31Z</time>
      </trkpt>
      <trkpt lat="59.9567538" lon="17.6908566">
        <ele>33.7834</ele>
        <time>2013-05-22T17:09:32Z</time>
      </trkpt>
      <trkpt lat="59.9567216" lon="17.6907634">
        <ele>34.2642</ele>
        <time>2013-05-22T17:09:33Z</time>
      </trkpt>
      <trkpt lat="59.9566907" lon="17.6906717">
        <ele>34.2642</ele>
        <time>2013-05-22T17:09:34Z</time>
      </trkpt>
      <trkpt lat="59.9566602" lon="17.6905819">
        <ele>34.7449</ele>
        <time>2013-05-22T17:09:35Z</time>
      </trkpt>
      <trkpt lat="59.9566302" lon="17.6904949">
        <ele>34.7449</ele>
        <time>2013-05-22T17:09:36Z</time>
      </trkpt>
      <trkpt lat="59.9566021" lon="17.6904075">
        <ele>34.7449</ele>
        <time>2013-05-22T17:09:37Z</time>
      </trkpt>
      <trkpt lat="59.956574" lon="17.6903241">
        <ele>35.2255</ele>
        <time>2013-05-22T17:09:38Z</time>
      </trkpt>
      <trkpt lat="59.9565445" lon="17.6902354">
        <ele>35.2255</ele>
        <time>2013-05-22T17:09:39Z</time>
      </trkpt>
      <trkpt lat="59.9565192" lon="17.6901501">
        <ele>35.2255</ele>
        <time>2013-05-22T17:09:40Z</time>
      </trkpt>
      <trkpt lat="59.9564944" lon="17.6900672">
        <ele>35.7061</ele>
        <time>2013-05-22T17:09:41Z</time>
      </trkpt>
      <trkpt lat="59.956471" lon="17.6899797">
        <ele>35.7061</ele>
        <time>2013-05-22T17:09:42Z</time>
      </trkpt>
      <trkpt lat="59.9564503" lon="17.6898916">
        <ele>35.7061</ele>
        <time>2013-05-22T17:09:43Z</time>
      </trkpt>
      <trkpt lat="59.9564286" lon="17.6898036">
        <ele>35.7061</ele>
        <time>2013-05-22T17:09:44Z</time>
      </trkpt>
      <trkpt lat="59.9564088" lon="17.6897175">
        <ele>35.7061</ele>
        <time>2013-05-22T17:09:45Z</time>
      </trkpt>
      <trkpt lat="59.95639" lon="17.6896334">
        <ele>35.7061</ele>
        <time>2013-05-22T17:09:46Z</time>
      </trkpt>
      <trkpt lat="59.9563705" lon="17.6895526">
        <ele>35.7061</ele>
        <time>2013-05-22T17:09:47Z</time>
      </trkpt>
      <trkpt lat="59.9563504" lon="17.6894715">
        <ele>35.7061</ele>
        <time>2013-05-22T17:09:48Z</time>
      </trkpt>
      <trkpt lat="59.9563286" lon="17.6893885">
        <ele>35.7061</ele>
        <time>2013-05-22T17:09:49Z</time>
      </trkpt>
      <trkpt lat="59.9563036" lon="17.6893">
        <ele>35.7061</ele>
        <time>2013-05-22T17:09:50Z</time>
      </trkpt>
      <trkpt lat="59.9562791" lon="17.6892067">
        <ele>35.7061</ele>
        <time>2013-05-22T17:09:51Z</time>
      </trkpt>
      <trkpt lat="59.9562539" lon="17.6891084">
        <ele>35.7061</ele>
        <time>2013-05-22T17:09:52Z</time>
      </trkpt>
      <trkpt lat="59.9562204" lon="17.6890125">
        <ele>35.7061</ele>
        <time>2013-05-22T17:09:53Z</time>
      </trkpt>
      <trkpt lat="59.9561773" lon="17.6889225">
        <ele>35.7061</ele>
        <time>2013-05-22T17:09:54Z</time>
      </trkpt>
      <trkpt lat="59.9561312" lon="17.6888305">
        <ele>35.2255</ele>
        <time>2013-05-22T17:09:55Z</time>
      </trkpt>
      <trkpt lat="59.9560886" lon="17.6887256">
        <ele>35.2255</ele>
        <time>2013-05-22T17:09:56Z</time>
      </trkpt>
      <trkpt lat="59.956055" lon="17.6886017">
        <ele>35.2255</ele>
        <time>2013-05-22T17:09:57Z</time>
      </trkpt>
      <trkpt lat="59.9560305" lon="17.688463">
        <ele>35.2255</ele>
        <time>2013-05-22T17:09:58Z</time>
      </trkpt>
      <trkpt lat="59.9560108" lon="17.6883192">
        <ele>35.2255</ele>
        <time>2013-05-22T17:09:59Z</time>
      </trkpt>
      <trkpt lat="59.955992" lon="17.6881739">
        <ele>34.7449</ele>
        <time>2013-05-22T17:10:00Z</time>
      </trkpt>
      <trkpt lat="59.9559715" lon="17.6880269">
        <ele>34.7449</ele>
        <time>2013-05-22T17:10:01Z</time>
      </trkpt>
      <trkpt lat="59.9559488" lon="17.6878779">
        <ele>34.7449</ele>
        <time>2013-05-22T17:10:02Z</time>
      </trkpt>
      <trkpt lat="59.9559254" lon="17.6877268">
        <ele>34.7449</ele>
        <time>2013-05-22T17:10:03Z</time>
      </trkpt>
      <trkpt lat="59.9559015" lon="17.6875757">
        <ele>34.7449</ele>
        <time>2013-05-22T17:10:04Z</time>
      </trkpt>
      <trkpt lat="59.9558778" lon="17.6874254">
        <ele>34.7449</ele>
        <time>2013-05-22T17:10:05Z</time>
      </trkpt>
      <trkpt lat="59.9558546" lon="17.6872751">
        <ele>34.7449</ele>
        <time>2013-05-22T17:10:06Z</time>
      </trkpt>
      <trkpt lat="59.9558323" lon="17.6871259">
        <ele>34.7449</ele>
        <time>2013-05-22T17:10:07Z</time>
      </trkpt>
      <trkpt lat="59.9558111" lon="17.6869778">
        <ele>34.2642</ele>
        <time>2013-05-22T17:10:08Z</time>
      </trkpt>
      <trkpt lat="59.9557902" lon="17.6868297">
        <ele>34.2642</ele>
        <time>2013-05-22T17:10:09Z</time>
      </trkpt>
      <trkpt lat="59.9557686" lon="17.6866814">
        <ele>34.2642</ele>
        <time>2013-05-22T17:10:10Z</time>
      </trkpt>
      <trkpt lat="59.9557452" lon="17.6865333">
        <ele>34.2642</ele>
        <time>2013-05-22T17:10:11Z</time>
      </trkpt>
      <trkpt lat="59.9557216" lon="17.6863853">
        <ele>34.2642</ele>
        <time>2013-05-22T17:10:12Z</time>
      </trkpt>
      <trkpt lat="59.9557002" lon="17.6862345">
        <ele>34.2642</ele>
        <time>2013-05-22T17:10:13Z</time>
      </trkpt>
      <trkpt lat="59.9556803" lon="17.6860804">
        <ele>33.7834</ele>
        <time>2013-05-22T17:10:14Z</time>
      </trkpt>
      <trkpt lat="59.9556597" lon="17.6859252">
        <ele>33.7834</ele>
        <time>2013-05-22T17:10:15Z</time>
      </trkpt>
      <trkpt lat="59.9556384" lon="17.6857708">
        <ele>33.7834</ele>
        <time>2013-05-22T17:10:16Z</time>
      </trkpt>
      <trkpt lat="59.955618" lon="17.6856173">
        <ele>33.7834</ele>
        <time>2013-05-22T17:10:17Z</time>
      </trkpt>
      <trkpt lat="59.9555978" lon="17.6854637">
        <ele>33.7834</ele>
        <time>2013-05-22T17:10:18Z</time>
      </trkpt>
      <trkpt lat="59.9555778" lon="17.6853097">
        <ele>33.3029</ele>
        <time>2013-05-22T17:10:19Z</time>
      </trkpt>
      <trkpt lat="59.9555571" lon="17.6851554">
        <ele>33.3029</ele>
        <time>2013-05-22T17:10:20Z</time>
      </trkpt>
      <trkpt lat="59.955534" lon="17.6850026">
        <ele>33.3029</ele>
        <time>2013-05-22T17:10:21Z</time>
      </trkpt>
      <trkpt lat="59.9555091" lon="17.684851">
        <ele>33.3029</ele>
        <time>2013-05-22T17:10:22Z</time>
      </trkpt>
      <trkpt lat="59.9554842" lon="17.6846986">
        <ele>33.3029</ele>
        <time>2013-05-22T17:10:23Z</time>
      </trkpt>
      <trkpt lat="59.9554604" lon="17.6845453">
        <ele>33.3029</ele>
        <time>2013-05-22T17:10:24Z</time>
      </trkpt>
      <trkpt lat="59.9554351" lon="17.6843919">
        <ele>32.8223</ele>
        <time>2013-05-22T17:10:25Z</time>
      </trkpt>
      <trkpt lat="59.9554081" lon="17.6842384">
        <ele>32.8223</ele>
        <time>2013-05-22T17:10:26Z</time>
      </trkpt>
      <trkpt lat="59.9553809" lon="17.6840847">
        <ele>32.8223</ele>
        <time>2013-05-22T17:10:27Z</time>
      </trkpt>
      <trkpt lat="59.9553524" lon="17.6839318">
        <ele>32.8223</ele>
        <time>2013-05-22T17:10:28Z</time>
      </trkpt>
      <trkpt lat="59.9553211" lon="17.6837807">
        <ele>32.8223</ele>
        <time>2013-05-22T17:10:29Z</time>
      </trkpt>
      <trkpt lat="59.9552879" lon="17.6836321">
        <ele>32.8223</ele>
        <time>2013-05-22T17:10:30Z</time>
      </trkpt>
      <trkpt lat="59.9552533" lon="17.6834859">
        <ele>32.3416</ele>
        <time>2013-05-22T17:10:31Z</time>
      </trkpt>
      <trkpt lat="59.955218" lon="17.6833425">
        <ele>32.3416</ele>
        <time>2013-05-22T17:10:32Z</time>
      </trkpt>
      <trkpt lat="59.9551826" lon="17.6832005">
        <ele>32.3416</ele>
        <time>2013-05-22T17:10:33Z</time>
      </trkpt>
      <trkpt lat="59.9551473" lon="17.6830597">
        <ele>32.3416</ele>
        <time>2013-05-22T17:10:34Z</time>
      </trkpt>
      <trkpt lat="59.9551122" lon="17.6829203">
        <ele>32.3416</ele>
        <time>2013-05-22T17:10:35Z</time>
      </trkpt>
      <trkpt lat="59.9550768" lon="17.682784">
        <ele>32.3416</ele>
        <time>2013-05-22T17:10:36Z</time>
      </trkpt>
      <trkpt lat="59.9550404" lon="17.6826519">
        <ele>32.3416</ele>
        <time>2013-05-22T17:10:37Z</time>
      </trkpt>
      <trkpt lat="59.9550046" lon="17.6825238">
        <ele>32.3416</ele>
        <time>2013-05-22T17:10:38Z</time>
      </trkpt>
      <trkpt lat="59.9549644" lon="17.6823953">
        <ele>31.8607</ele>
        <time>2013-05-22T17:10:39Z</time>
      </trkpt>
      <trkpt lat="59.9549268" lon="17.682265">
        <ele>31.8607</ele>
        <time>2013-05-22T17:10:40Z</time>
      </trkpt>
      <trkpt lat="59.9548849" lon="17.6821347">
        <ele>31.8607</ele>
        <time>2013-05-22T17:10:41Z</time>
      </trkpt>
      <trkpt lat="59.9548362" lon="17.6820194">
        <ele>31.8607</ele>
        <time>2013-05-22T17:10:42Z</time>
      </trkpt>
      <trkpt lat="59.9547766" lon="17.681927">
        <ele>31.8607</ele>
        <time>2013-05-22T17:10:43Z</time>
      </trkpt>
      <trkpt lat="59.954713" lon="17.6818411">
        <ele>31.8607</ele>
        <time>2013-05-22T17:10:44Z</time>
      </trkpt>
      <trkpt lat="59.9546586" lon="17.6817418">
        <ele>31.8607</ele>
        <time>2013-05-22T17:10:45Z</time>
      </trkpt>
      <trkpt lat="59.9546134" lon="17.6816299">
        <ele>31.8607</ele>
        <time>2013-05-22T17:10:46Z</time>
      </trkpt>
      <trkpt lat="59.9545729" lon="17.6815122">
        <ele>31.8607</ele>
        <time>2013-05-22T17:10:47Z</time>
      </trkpt>
      <trkpt lat="59.9545337" lon="17.6813909">
        <ele>31.8607</ele>
        <time>2013-05-22T17:10:48Z</time>
      </trkpt>
      <trkpt lat="59.9544942" lon="17.6812679">
        <ele>31.8607</ele>
        <time>2013-05-22T17:10:49Z</time>
      </trkpt>
      <trkpt lat="59.954454" lon="17.6811428">
        <ele>31.8607</ele>
        <time>2013-05-22T17:10:50Z</time>
      </trkpt>
      <trkpt lat="59.9544157" lon="17.6810166">
        <ele>31.3801</ele>
        <time>2013-05-22T17:10:51Z</time>
      </trkpt>
      <trkpt lat="59.9543788" lon="17.6808906">
        <ele>31.3801</ele>
        <time>2013-05-22T17:10:52Z</time>
      </trkpt>
      <trkpt lat="59.9543409" lon="17.6807682">
        <ele>31.8607</ele>
        <time>2013-05-22T17:10:53Z</time>
      </trkpt>
      <trkpt lat="59.9543015" lon="17.6806484">
        <ele>31.8607</ele>
        <time>2013-05-22T17:10:54Z</time>
      </trkpt>
      <trkpt lat="59.9542616" lon="17.6805295">
        <ele>31.3801</ele>
        <time>2013-05-22T17:10:55Z</time>
      </trkpt>
      <trkpt lat="59.9542203" lon="17.6804114">
        <ele>31.3801</ele>
        <time>2013-05-22T17:10:56Z</time>
      </trkpt>
      <trkpt lat="59.9541781" lon="17.6802932">
        <ele>31.8607</ele>
        <time>2013-05-22T17:10:57Z</time>
      </trkpt>
      <trkpt lat="59.9541361" lon="17.6801742">
        <ele>31.8607</ele>
        <time>2013-05-22T17:10:58Z</time>
      </trkpt>
      <trkpt lat="59.9540944" lon="17.6800556">
        <ele>31.8607</ele>
        <time>2013-05-22T17:10:59Z</time>
      </trkpt>
      <trkpt lat="59.9540534" lon="17.6799374">
        <ele>31.8607</ele>
        <time>2013-05-22T17:11:00Z</time>
      </trkpt>
      <trkpt lat="59.9540141" lon="17.6798182">
        <ele>31.8607</ele>
        <time>2013-05-22T17:11:01Z</time>
      </trkpt>
      <trkpt lat="59.9539759" lon="17.6796982">
        <ele>31.8607</ele>
        <time>2013-05-22T17:11:02Z</time>
      </trkpt>
      <trkpt lat="59.953937" lon="17.679581">
        <ele>31.8607</ele>
        <time>2013-05-22T17:11:03Z</time>
      </trkpt>
      <trkpt lat="59.9538976" lon="17.6794666">
        <ele>31.8607</ele>
        <time>2013-05-22T17:11:04Z</time>
      </trkpt>
      <trkpt lat="59.9538592" lon="17.6793515">
        <ele>31.8607</ele>
        <time>2013-05-22T17:11:05Z</time>
      </trkpt>
      <trkpt lat="59.953822" lon="17.6792346">
        <ele>31.8607</ele>
        <time>2013-05-22T17:11:06Z</time>
      </trkpt>
      <trkpt lat="59.9537851" lon="17.679117">
        <ele>31.8607</ele>
        <time>2013-05-22T17:11:07Z</time>
      </trkpt>
      <trkpt lat="59.9537477" lon="17.6790014">
        <ele>32.3416</ele>
        <time>2013-05-22T17:11:08Z</time>
      </trkpt>
      <trkpt lat="59.9537096" lon="17.6788899">
        <ele>32.3416</ele>
        <time>2013-05-22T17:11:09Z</time>
      </trkpt>
      <trkpt lat="59.9536712" lon="17.6787803">
        <ele>32.3416</ele>
        <time>2013-05-22T17:11:10Z</time>
      </trkpt>
      <trkpt lat="59.9536335" lon="17.6786718">
        <ele>32.3416</ele>
        <time>2013-05-22T17:11:11Z</time>
      </trkpt>
      <trkpt lat="59.9535981" lon="17.6785653">
        <ele>31.8607</ele>
        <time>2013-05-22T17:11:12Z</time>
      </trkpt>
      <trkpt lat="59.953562" lon="17.6784582">
        <ele>31.8607</ele>
        <time>2013-05-22T17:11:13Z</time>
      </trkpt>
      <trkpt lat="59.9535256" lon="17.6783509">
        <ele>31.3801</ele>
        <time>2013-05-22T17:11:14Z</time>
      </trkpt>
      <trkpt lat="59.9534908" lon="17.6782447">
        <ele>31.3801</ele>
        <time>2013-05-22T17:11:15Z</time>
      </trkpt>
      <trkpt lat="59.9534557" lon="17.6781374">
        <ele>31.3801</ele>
        <time>2013-05-22T17:11:16Z</time>
      </trkpt>
      <trkpt lat="59.9534197" lon="17.6780316">
        <ele>30.8995</ele>
        <time>2013-05-22T17:11:17Z</time>
      </trkpt>
      <trkpt lat="59.9533831" lon="17.6779276">
        <ele>30.8995</ele>
        <time>2013-05-22T17:11:18Z</time>
      </trkpt>
      <trkpt lat="59.9533472" lon="17.6778249">
        <ele>30.8995</ele>
        <time>2013-05-22T17:11:19Z</time>
      </trkpt>
      <trkpt lat="59.9533094" lon="17.6777226">
        <ele>30.8995</ele>
        <time>2013-05-22T17:11:20Z</time>
      </trkpt>
      <trkpt lat="59.9532728" lon="17.6776255">
        <ele>30.4188</ele>
        <time>2013-05-22T17:11:21Z</time>
      </trkpt>
      <trkpt lat="59.9532356" lon="17.6775256">
        <ele>30.4188</ele>
        <time>2013-05-22T17:11:22Z</time>
      </trkpt>
      <trkpt lat="59.9531982" lon="17.6774252">
        <ele>29.9381</ele>
        <time>2013-05-22T17:11:23Z</time>
      </trkpt>
      <trkpt lat="59.9531619" lon="17.6773273">
        <ele>29.9381</ele>
        <time>2013-05-22T17:11:24Z</time>
      </trkpt>
      <trkpt lat="59.9531247" lon="17.6772268">
        <ele>29.9381</ele>
        <time>2013-05-22T17:11:25Z</time>
      </trkpt>
      <trkpt lat="59.9530869" lon="17.6771251">
        <ele>29.9381</ele>
        <time>2013-05-22T17:11:26Z</time>
      </trkpt>
      <trkpt lat="59.9530489" lon="17.6770243">
        <ele>29.9381</ele>
        <time>2013-05-22T17:11:27Z</time>
      </trkpt>
      <trkpt lat="59.9530097" lon="17.6769258">
        <ele>29.4575</ele>
        <time>2013-05-22T17:11:28Z</time>
      </trkpt>
      <trkpt lat="59.9529707" lon="17.6768268">
        <ele>29.9381</ele>
        <time>2013-05-22T17:11:29Z</time>
      </trkpt>
      <trkpt lat="59.9529321" lon="17.676726">
        <ele>29.9381</ele>
        <time>2013-05-22T17:11:30Z</time>
      </trkpt>
      <trkpt lat="59.9528937" lon="17.6766295">
        <ele>29.9381</ele>
        <time>2013-05-22T17:11:31Z</time>
      </trkpt>
      <trkpt lat="59.9528526" lon="17.6765353">
        <ele>29.9381</ele>
        <time>2013-05-22T17:11:32Z</time>
      </trkpt>
      <trkpt lat="59.9528126" lon="17.67644">
        <ele>30.4188</ele>
        <time>2013-05-22T17:11:33Z</time>
      </trkpt>
      <trkpt lat="59.952777" lon="17.67634">
        <ele>30.4188</ele>
        <time>2013-05-22T17:11:34Z</time>
      </trkpt>
      <trkpt lat="59.9527442" lon="17.6762384">
        <ele>30.4188</ele>
        <time>2013-05-22T17:11:35Z</time>
      </trkpt>
      <trkpt lat="59.9527112" lon="17.676136">
        <ele>30.8995</ele>
        <time>2013-05-22T17:11:36Z</time>
      </trkpt>
      <trkpt lat="59.952677" lon="17.6760341">
        <ele>31.3801</ele>
        <time>2013-05-22T17:11:37Z</time>
      </trkpt>
      <trkpt lat="59.9526414" lon="17.6759355">
        <ele>31.3801</ele>
        <time>2013-05-22T17:11:38Z</time>
      </trkpt>
      <trkpt lat="59.9526051" lon="17.6758414">
        <ele>31.8607</ele>
        <time>2013-05-22T17:11:39Z</time>
      </trkpt>
      <trkpt lat="59.9525693" lon="17.6757509">
        <ele>31.8607</ele>
        <time>2013-05-22T17:11:40Z</time>
      </trkpt>
      <trkpt lat="59.952534" lon="17.6756655">
        <ele>32.3416</ele>
        <time>2013-05-22T17:11:41Z</time>
      </trkpt>
      <trkpt lat="59.9525" lon="17.6755842">
        <ele>32.8223</ele>
        <time>2013-05-22T17:11:42Z</time>
      </trkpt>
      <trkpt lat="59.9524684" lon="17.6755054">
        <ele>33.3029</ele>
        <time>2013-05-22T17:11:43Z</time>
      </trkpt>
      <trkpt lat="59.9524384" lon="17.675428">
        <ele>33.3029</ele>
        <time>2013-05-22T17:11:44Z</time>
      </trkpt>
      <trkpt lat="59.9524103" lon="17.6753506">
        <ele>33.7834</ele>
        <time>2013-05-22T17:11:45Z</time>
      </trkpt>
      <trkpt lat="59.9523839" lon="17.6752734">
        <ele>33.7834</ele>
        <time>2013-05-22T17:11:46Z</time>
      </trkpt>
      <trkpt lat="59.9523588" lon="17.6751949">
        <ele>34.2642</ele>
        <time>2013-05-22T17:11:47Z</time>
      </trkpt>
      <trkpt lat="59.952335" lon="17.6751143">
        <ele>34.2642</ele>
        <time>2013-05-22T17:11:48Z</time>
      </trkpt>
      <trkpt lat="59.9523135" lon="17.6750289">
        <ele>34.2642</ele>
        <time>2013-05-22T17:11:49Z</time>
      </trkpt>
      <trkpt lat="59.9522939" lon="17.6749372">
        <ele>34.2642</ele>
        <time>2013-05-22T17:11:50Z</time>
      </trkpt>
      <trkpt lat="59.9522762" lon="17.6748362">
        <ele>33.7834</ele>
        <time>2013-05-22T17:11:51Z</time>
      </trkpt>
      <trkpt lat="59.9522599" lon="17.6747217">
        <ele>33.3029</ele>
        <time>2013-05-22T17:11:52Z</time>
      </trkpt>
      <trkpt lat="59.9522414" lon="17.6745973">
        <ele>33.3029</ele>
        <time>2013-05-22T17:11:53Z</time>
      </trkpt>
      <trkpt lat="59.9522183" lon="17.6744704">
        <ele>32.8223</ele>
        <time>2013-05-22T17:11:54Z</time>
      </trkpt>
      <trkpt lat="59.9521912" lon="17.6743445">
        <ele>32.8223</ele>
        <time>2013-05-22T17:11:55Z</time>
      </trkpt>
      <trkpt lat="59.9521643" lon="17.6742201">
        <ele>32.8223</ele>
        <time>2013-05-22T17:11:56Z</time>
      </trkpt>
      <trkpt lat="59.9521394" lon="17.6740953">
        <ele>32.3416</ele>
        <time>2013-05-22T17:11:57Z</time>
      </trkpt>
      <trkpt lat="59.9521155" lon="17.6739688">
        <ele>32.3416</ele>
        <time>2013-05-22T17:11:58Z</time>
      </trkpt>
      <trkpt lat="59.9520907" lon="17.6738376">
        <ele>31.8607</ele>
        <time>2013-05-22T17:11:59Z</time>
      </trkpt>
      <trkpt lat="59.9520659" lon="17.6737032">
        <ele>31.8607</ele>
        <time>2013-05-22T17:12:00Z</time>
      </trkpt>
      <trkpt lat="59.9520416" lon="17.6735679">
        <ele>31.8607</ele>
        <time>2013-05-22T17:12:01Z</time>
      </trkpt>
      <trkpt lat="59.9520187" lon="17.673432">
        <ele>31.8607</ele>
        <time>2013-05-22T17:12:02Z</time>
      </trkpt>
      <trkpt lat="59.9519964" lon="17.6732954">
        <ele>31.8607</ele>
        <time>2013-05-22T17:12:03Z</time>
      </trkpt>
      <trkpt lat="59.9519745" lon="17.6731584">
        <ele>31.8607</ele>
        <time>2013-05-22T17:12:04Z</time>
      </trkpt>
      <trkpt lat="59.9519535" lon="17.6730222">
        <ele>31.8607</ele>
        <time>2013-05-22T17:12:05Z</time>
      </trkpt>
      <trkpt lat="59.9519348" lon="17.6728862">
        <ele>31.8607</ele>
        <time>2013-05-22T17:12:06Z</time>
      </trkpt>
      <trkpt lat="59.951918" lon="17.6727496">
        <ele>31.3801</ele>
        <time>2013-05-22T17:12:07Z</time>
      </trkpt>
      <trkpt lat="59.9519015" lon="17.6726129">
        <ele>31.3801</ele>
        <time>2013-05-22T17:12:08Z</time>
      </trkpt>
      <trkpt lat="59.951885" lon="17.6724756">
        <ele>31.3801</ele>
        <time>2013-05-22T17:12:09Z</time>
      </trkpt>
      <trkpt lat="59.9518701" lon="17.6723363">
        <ele>31.3801</ele>
        <time>2013-05-22T17:12:10Z</time>
      </trkpt>
      <trkpt lat="59.9518574" lon="17.6721955">
        <ele>30.8995</ele>
        <time>2013-05-22T17:12:11Z</time>
      </trkpt>
      <trkpt lat="59.9518447" lon="17.672055">
        <ele>30.8995</ele>
        <time>2013-05-22T17:12:12Z</time>
      </trkpt>
      <trkpt lat="59.9518353" lon="17.6719146">
        <ele>30.8995</ele>
        <time>2013-05-22T17:12:13Z</time>
      </trkpt>
      <trkpt lat="59.9518308" lon="17.6717745">
        <ele>30.8995</ele>
        <time>2013-05-22T17:12:14Z</time>
      </trkpt>
      <trkpt lat="59.9518279" lon="17.6716326">
        <ele>30.8995</ele>
        <time>2013-05-22T17:12:15Z</time>
      </trkpt>
      <trkpt lat="59.9518225" lon="17.6714871">
        <ele>30.4188</ele>
        <time>2013-05-22T17:12:16Z</time>
      </trkpt>
      <trkpt lat="59.9518089" lon="17.671339">
        <ele>30.4188</ele>
        <time>2013-05-22T17:12:17Z</time>
      </trkpt>
      <trkpt lat="59.9517841" lon="17.6711904">
        <ele>29.9381</ele>
        <time>2013-05-22T17:12:18Z</time>
      </trkpt>
      <trkpt lat="59.9517561" lon="17.6710346">
        <ele>29.4575</ele>
        <time>2013-05-22T17:12:19Z</time>
      </trkpt>
      <trkpt lat="59.9517399" lon="17.6708677">
        <ele>28.9769</ele>
        <time>2013-05-22T17:12:20Z</time>
      </trkpt>
      <trkpt lat="59.9517393" lon="17.6706952">
        <ele>28.9769</ele>
        <time>2013-05-22T17:12:21Z</time>
      </trkpt>
      <trkpt lat="59.9517488" lon="17.6705221">
        <ele>28.4962</ele>
        <time>2013-05-22T17:12:22Z</time>
      </trkpt>
      <trkpt lat="59.9517618" lon="17.6703488">
        <ele>28.4962</ele>
        <time>2013-05-22T17:12:23Z</time>
      </trkpt>
      <trkpt lat="59.9517757" lon="17.6701754">
        <ele>28.4962</ele>
        <time>2013-05-22T17:12:24Z</time>
      </trkpt>
      <trkpt lat="59.9517876" lon="17.670001">
        <ele>28.0155</ele>
        <time>2013-05-22T17:12:25Z</time>
      </trkpt>
      <trkpt lat="59.9517964" lon="17.6698273">
        <ele>28.0155</ele>
        <time>2013-05-22T17:12:26Z</time>
      </trkpt>
      <trkpt lat="59.9518033" lon="17.6696556">
        <ele>28.0155</ele>
        <time>2013-05-22T17:12:27Z</time>
      </trkpt>
      <trkpt lat="59.9518108" lon="17.6694872">
        <ele>28.0155</ele>
        <time>2013-05-22T17:12:28Z</time>
      </trkpt>
      <trkpt lat="59.9518177" lon="17.669322">
        <ele>28.0155</ele>
        <time>2013-05-22T17:12:29Z</time>
      </trkpt>
      <trkpt lat="59.951823" lon="17.6691609">
        <ele>28.0155</ele>
        <time>2013-05-22T17:12:30Z</time>
      </trkpt>
      <trkpt lat="59.9518259" lon="17.6690034">
        <ele>28.0155</ele>
        <time>2013-05-22T17:12:31Z</time>
      </trkpt>
      <trkpt lat="59.9518223" lon="17.6688483">
        <ele>27.5349</ele>
        <time>2013-05-22T17:12:32Z</time>
      </trkpt>
      <trkpt lat="59.9518089" lon="17.6686942">
        <ele>27.5349</ele>
        <time>2013-05-22T17:12:33Z</time>
      </trkpt>
      <trkpt lat="59.951786" lon="17.6685437">
        <ele>27.5349</ele>
        <time>2013-05-22T17:12:34Z</time>
      </trkpt>
      <trkpt lat="59.9517556" lon="17.6684012">
        <ele>27.0543</ele>
        <time>2013-05-22T17:12:35Z</time>
      </trkpt>
      <trkpt lat="59.9517175" lon="17.6682692">
        <ele>27.0543</ele>
        <time>2013-05-22T17:12:36Z</time>
      </trkpt>
      <trkpt lat="59.9516691" lon="17.6681568">
        <ele>27.0543</ele>
        <time>2013-05-22T17:12:37Z</time>
      </trkpt>
      <trkpt lat="59.9516103" lon="17.6680772">
        <ele>27.0543</ele>
        <time>2013-05-22T17:12:38Z</time>
      </trkpt>
      <trkpt lat="59.9515442" lon="17.6680372">
        <ele>27.5349</ele>
        <time>2013-05-22T17:12:39Z</time>
      </trkpt>
      <trkpt lat="59.9514763" lon="17.66803">
        <ele>27.5349</ele>
        <time>2013-05-22T17:12:40Z</time>
      </trkpt>
      <trkpt lat="59.9514091" lon="17.6680414">
        <ele>27.5349</ele>
        <time>2013-05-22T17:12:41Z</time>
      </trkpt>
      <trkpt lat="59.9513416" lon="17.6680576">
        <ele>27.5349</ele>
        <time>2013-05-22T17:12:42Z</time>
      </trkpt>
      <trkpt lat="59.9512738" lon="17.6680751">
        <ele>27.5349</ele>
        <time>2013-05-22T17:12:43Z</time>
      </trkpt>
      <trkpt lat="59.9512065" lon="17.6680957">
        <ele>28.0155</ele>
        <time>2013-05-22T17:12:44Z</time>
      </trkpt>
      <trkpt lat="59.9511401" lon="17.6681186">
        <ele>28.0155</ele>
        <time>2013-05-22T17:12:45Z</time>
      </trkpt>
      <trkpt lat="59.9510745" lon="17.6681394">
        <ele>28.0155</ele>
        <time>2013-05-22T17:12:46Z</time>
      </trkpt>
      <trkpt lat="59.95101" lon="17.6681581">
        <ele>28.4962</ele>
        <time>2013-05-22T17:12:47Z</time>
      </trkpt>
      <trkpt lat="59.9509464" lon="17.6681761">
        <ele>28.4962</ele>
        <time>2013-05-22T17:12:48Z</time>
      </trkpt>
      <trkpt lat="59.9508843" lon="17.6681932">
        <ele>28.4962</ele>
        <time>2013-05-22T17:12:49Z</time>
      </trkpt>
      <trkpt lat="59.9508226" lon="17.6682088">
        <ele>28.4962</ele>
        <time>2013-05-22T17:12:50Z</time>
      </trkpt>
      <trkpt lat="59.9507603" lon="17.6682227">
        <ele>28.4962</ele>
        <time>2013-05-22T17:12:51Z</time>
      </trkpt>
      <trkpt lat="59.9506977" lon="17.6682341">
        <ele>28.9769</ele>
        <time>2013-05-22T17:12:52Z</time>
      </trkpt>
      <trkpt lat="59.9506349" lon="17.6682428">
        <ele>28.9769</ele>
        <time>2013-05-22T17:12:53Z</time>
      </trkpt>
      <trkpt lat="59.9505719" lon="17.6682496">
        <ele>28.9769</ele>
        <time>2013-05-22T17:12:54Z</time>
      </trkpt>
      <trkpt lat="59.9505087" lon="17.6682524">
        <ele>28.9769</ele>
        <time>2013-05-22T17:12:55Z</time>
      </trkpt>
      <trkpt lat="59.9504455" lon="17.6682528">
        <ele>29.4575</ele>
        <time>2013-05-22T17:12:56Z</time>
      </trkpt>
      <trkpt lat="59.9503824" lon="17.6682521">
        <ele>29.4575</ele>
        <time>2013-05-22T17:12:57Z</time>
      </trkpt>
      <trkpt lat="59.9503196" lon="17.6682502">
        <ele>29.9381</ele>
        <time>2013-05-22T17:12:58Z</time>
      </trkpt>
      <trkpt lat="59.9502568" lon="17.6682448">
        <ele>29.9381</ele>
        <time>2013-05-22T17:12:59Z</time>
      </trkpt>
      <trkpt lat="59.9501933" lon="17.6682341">
        <ele>29.9381</ele>
        <time>2013-05-22T17:13:00Z</time>
      </trkpt>
      <trkpt lat="59.950129" lon="17.6682182">
        <ele>29.9381</ele>
        <time>2013-05-22T17:13:01Z</time>
      </trkpt>
      <trkpt lat="59.9500646" lon="17.6681994">
        <ele>30.4188</ele>
        <time>2013-05-22T17:13:02Z</time>
      </trkpt>
      <trkpt lat="59.9500003" lon="17.6681785">
        <ele>30.4188</ele>
        <time>2013-05-22T17:13:03Z</time>
      </trkpt>
      <trkpt lat="59.9499354" lon="17.6681559">
        <ele>30.4188</ele>
        <time>2013-05-22T17:13:04Z</time>
      </trkpt>
      <trkpt lat="59.9498696" lon="17.6681315">
        <ele>30.4188</ele>
        <time>2013-05-22T17:13:05Z</time>
      </trkpt>
      <trkpt lat="59.9498035" lon="17.6681031">
        <ele>30.4188</ele>
        <time>2013-05-22T17:13:06Z</time>
      </trkpt>
      <trkpt lat="59.9497373" lon="17.668074">
        <ele>30.4188</ele>
        <time>2013-05-22T17:13:07Z</time>
      </trkpt>
      <trkpt lat="59.9496712" lon="17.6680454">
        <ele>30.4188</ele>
        <time>2013-05-22T17:13:08Z</time>
      </trkpt>
      <trkpt lat="59.9496057" lon="17.6680156">
        <ele>30.4188</ele>
        <time>2013-05-22T17:13:09Z</time>
      </trkpt>
      <trkpt lat="59.9495409" lon="17.6679838">
        <ele>30.4188</ele>
        <time>2013-05-22T17:13:10Z</time>
      </trkpt>
      <trkpt lat="59.949477" lon="17.6679497">
        <ele>30.4188</ele>
        <time>2013-05-22T17:13:11Z</time>
      </trkpt>
      <trkpt lat="59.9494142" lon="17.667915">
        <ele>30.4188</ele>
        <time>2013-05-22T17:13:12Z</time>
      </trkpt>
      <trkpt lat="59.9493525" lon="17.6678819">
        <ele>30.4188</ele>
        <time>2013-05-22T17:13:13Z</time>
      </trkpt>
      <trkpt lat="59.9492922" lon="17.6678487">
        <ele>30.4188</ele>
        <time>2013-05-22T17:13:14Z</time>
      </trkpt>
      <trkpt lat="59.9492328" lon="17.6678144">
        <ele>30.4188</ele>
        <time>2013-05-22T17:13:15Z</time>
      </trkpt>
      <trkpt lat="59.9491737" lon="17.6677808">
        <ele>30.4188</ele>
        <time>2013-05-22T17:13:16Z</time>
      </trkpt>
      <trkpt lat="59.9491153" lon="17.6677482">
        <ele>30.4188</ele>
        <time>2013-05-22T17:13:17Z</time>
      </trkpt>
      <trkpt lat="59.9490578" lon="17.6677142">
        <ele>30.4188</ele>
        <time>2013-05-22T17:13:18Z</time>
      </trkpt>
      <trkpt lat="59.9490011" lon="17.6676793">
        <ele>30.4188</ele>
        <time>2013-05-22T17:13:19Z</time>
      </trkpt>
      <trkpt lat="59.9489443" lon="17.6676467">
        <ele>30.4188</ele>
        <time>2013-05-22T17:13:20Z</time>
      </trkpt>
      <trkpt lat="59.9488877" lon="17.6676165">
        <ele>30.8995</ele>
        <time>2013-05-22T17:13:21Z</time>
      </trkpt>
      <trkpt lat="59.9488312" lon="17.6675871">
        <ele>30.8995</ele>
        <time>2013-05-22T17:13:22Z</time>
      </trkpt>
      <trkpt lat="59.9487748" lon="17.6675569">
        <ele>30.8995</ele>
        <time>2013-05-22T17:13:23Z</time>
      </trkpt>
      <trkpt lat="59.9487185" lon="17.6675251">
        <ele>30.8995</ele>
        <time>2013-05-22T17:13:24Z</time>
      </trkpt>
      <trkpt lat="59.9486623" lon="17.6674938">
        <ele>30.8995</ele>
        <time>2013-05-22T17:13:25Z</time>
      </trkpt>
      <trkpt lat="59.9486061" lon="17.6674638">
        <ele>30.8995</ele>
        <time>2013-05-22T17:13:26Z</time>
      </trkpt>
      <trkpt lat="59.9485502" lon="17.6674338">
        <ele>30.8995</ele>
        <time>2013-05-22T17:13:27Z</time>
      </trkpt>
      <trkpt lat="59.9484948" lon="17.6674015">
        <ele>30.8995</ele>
        <time>2013-05-22T17:13:28Z</time>
      </trkpt>
      <trkpt lat="59.9484396" lon="17.6673675">
        <ele>30.8995</ele>
        <time>2013-05-22T17:13:29Z</time>
      </trkpt>
      <trkpt lat="59.9483843" lon="17.6673345">
        <ele>30.8995</ele>
        <time>2013-05-22T17:13:30Z</time>
      </trkpt>
      <trkpt lat="59.9483289" lon="17.667301">
        <ele>30.8995</ele>
        <time>2013-05-22T17:13:31Z</time>
      </trkpt>
      <trkpt lat="59.9482735" lon="17.667269">
        <ele>31.3801</ele>
        <time>2013-05-22T17:13:32Z</time>
      </trkpt>
      <trkpt lat="59.9482176" lon="17.6672402">
        <ele>31.3801</ele>
        <time>2013-05-22T17:13:33Z</time>
      </trkpt>
      <trkpt lat="59.9481621" lon="17.6672121">
        <ele>31.3801</ele>
        <time>2013-05-22T17:13:34Z</time>
      </trkpt>
      <trkpt lat="59.9481072" lon="17.6671831">
        <ele>31.3801</ele>
        <time>2013-05-22T17:13:35Z</time>
      </trkpt>
      <trkpt lat="59.9480526" lon="17.6671541">
        <ele>31.3801</ele>
        <time>2013-05-22T17:13:36Z</time>
      </trkpt>
      <trkpt lat="59.947998" lon="17.6671254">
        <ele>31.3801</ele>
        <time>2013-05-22T17:13:37Z</time>
      </trkpt>
      <trkpt lat="59.9479438" lon="17.6670948">
        <ele>31.3801</ele>
        <time>2013-05-22T17:13:38Z</time>
      </trkpt>
      <trkpt lat="59.9478892" lon="17.6670655">
        <ele>31.3801</ele>
        <time>2013-05-22T17:13:39Z</time>
      </trkpt>
      <trkpt lat="59.9478343" lon="17.6670376">
        <ele>31.3801</ele>
        <time>2013-05-22T17:13:40Z</time>
      </trkpt>
      <trkpt lat="59.9477793" lon="17.6670086">
        <ele>31.3801</ele>
        <time>2013-05-22T17:13:41Z</time>
      </trkpt>
      <trkpt lat="59.9477244" lon="17.6669798">
        <ele>31.3801</ele>
        <time>2013-05-22T17:13:42Z</time>
      </trkpt>
      <trkpt lat="59.9476693" lon="17.6669521">
        <ele>31.3801</ele>
        <time>2013-05-22T17:13:43Z</time>
      </trkpt>
      <trkpt lat="59.9476139" lon="17.6669242">
        <ele>31.3801</ele>
        <time>2013-05-22T17:13:44Z</time>
      </trkpt>
      <trkpt lat="59.9475586" lon="17.6668945">
        <ele>31.3801</ele>
        <time>2013-05-22T17:13:45Z</time>
      </trkpt>
      <trkpt lat="59.9475028" lon="17.6668661">
        <ele>31.8607</ele>
        <time>2013-05-22T17:13:46Z</time>
      </trkpt>
      <trkpt lat="59.9474467" lon="17.6668406">
        <ele>31.8607</ele>
        <time>2013-05-22T17:13:47Z</time>
      </trkpt>
      <trkpt lat="59.9473903" lon="17.6668163">
        <ele>31.8607</ele>
        <time>2013-05-22T17:13:48Z</time>
      </trkpt>
      <trkpt lat="59.9473338" lon="17.6667908">
        <ele>31.8607</ele>
        <time>2013-05-22T17:13:49Z</time>
      </trkpt>
      <trkpt lat="59.9472778" lon="17.6667636">
        <ele>31.8607</ele>
        <time>2013-05-22T17:13:50Z</time>
      </trkpt>
      <trkpt lat="59.947221" lon="17.6667379">
        <ele>31.8607</ele>
        <time>2013-05-22T17:13:51Z</time>
      </trkpt>
      <trkpt lat="59.9471634" lon="17.6667126">
        <ele>31.8607</ele>
        <time>2013-05-22T17:13:52Z</time>
      </trkpt>
      <trkpt lat="59.9471057" lon="17.6666848">
        <ele>31.8607</ele>
        <time>2013-05-22T17:13:53Z</time>
      </trkpt>
      <trkpt lat="59.9470475" lon="17.6666563">
        <ele>31.8607</ele>
        <time>2013-05-22T17:13:54Z</time>
      </trkpt>
      <trkpt lat="59.9469893" lon="17.6666289">
        <ele>31.8607</ele>
        <time>2013-05-22T17:13:55Z</time>
      </trkpt>
      <trkpt lat="59.9469309" lon="17.6666037">
        <ele>31.8607</ele>
        <time>2013-05-22T17:13:56Z</time>
      </trkpt>
      <trkpt lat="59.9468729" lon="17.666579">
        <ele>31.8607</ele>
        <time>2013-05-22T17:13:57Z</time>
      </trkpt>
      <trkpt lat="59.9468149" lon="17.6665545">
        <ele>31.8607</ele>
        <time>2013-05-22T17:13:58Z</time>
      </trkpt>
      <trkpt lat="59.9467568" lon="17.6665361">
        <ele>31.8607</ele>
        <time>2013-05-22T17:13:59Z</time>
      </trkpt>
      <trkpt lat="59.9466987" lon="17.6665283">
        <ele>31.8607</ele>
        <time>2013-05-22T17:14:00Z</time>
      </trkpt>
      <trkpt lat="59.9466403" lon="17.6665273">
        <ele>32.3416</ele>
        <time>2013-05-22T17:14:01Z</time>
      </trkpt>
      <trkpt lat="59.9465821" lon="17.6665252">
        <ele>32.3416</ele>
        <time>2013-05-22T17:14:02Z</time>
      </trkpt>
      <trkpt lat="59.9465238" lon="17.6665152">
        <ele>32.3416</ele>
        <time>2013-05-22T17:14:03Z</time>
      </trkpt>
      <trkpt lat="59.9464658" lon="17.6664957">
        <ele>32.3416</ele>
        <time>2013-05-22T17:14:04Z</time>
      </trkpt>
      <trkpt lat="59.9464085" lon="17.6664706">
        <ele>32.3416</ele>
        <time>2013-05-22T17:14:05Z</time>
      </trkpt>
      <trkpt lat="59.9463522" lon="17.6664382">
        <ele>32.3416</ele>
        <time>2013-05-22T17:14:06Z</time>
      </trkpt>
      <trkpt lat="59.9462976" lon="17.6663965">
        <ele>32.3416</ele>
        <time>2013-05-22T17:14:07Z</time>
      </trkpt>
      <trkpt lat="59.9462434" lon="17.6663528">
        <ele>32.3416</ele>
        <time>2013-05-22T17:14:08Z</time>
      </trkpt>
      <trkpt lat="59.9461884" lon="17.6663168">
        <ele>32.3416</ele>
        <time>2013-05-22T17:14:09Z</time>
      </trkpt>
      <trkpt lat="59.9461321" lon="17.6662895">
        <ele>32.3416</ele>
        <time>2013-05-22T17:14:10Z</time>
      </trkpt>
      <trkpt lat="59.9460757" lon="17.6662672">
        <ele>32.3416</ele>
        <time>2013-05-22T17:14:11Z</time>
      </trkpt>
      <trkpt lat="59.9460201" lon="17.6662471">
        <ele>32.3416</ele>
        <time>2013-05-22T17:14:12Z</time>
      </trkpt>
      <trkpt lat="59.9459651" lon="17.6662289">
        <ele>32.8223</ele>
        <time>2013-05-22T17:14:13Z</time>
      </trkpt>
      <trkpt lat="59.9459103" lon="17.6662108">
        <ele>32.8223</ele>
        <time>2013-05-22T17:14:14Z</time>
      </trkpt>
      <trkpt lat="59.9458553" lon="17.6661916">
        <ele>32.8223</ele>
        <time>2013-05-22T17:14:15Z</time>
      </trkpt>
      <trkpt lat="59.9457996" lon="17.6661712">
        <ele>32.8223</ele>
        <time>2013-05-22T17:14:16Z</time>
      </trkpt>
      <trkpt lat="59.9457444" lon="17.6661497">
        <ele>32.8223</ele>
        <time>2013-05-22T17:14:17Z</time>
      </trkpt>
      <trkpt lat="59.9456892" lon="17.6661283">
        <ele>32.8223</ele>
        <time>2013-05-22T17:14:18Z</time>
      </trkpt>
      <trkpt lat="59.9456341" lon="17.6661056">
        <ele>32.8223</ele>
        <time>2013-05-22T17:14:19Z</time>
      </trkpt>
      <trkpt lat="59.9455792" lon="17.6660812">
        <ele>32.8223</ele>
        <time>2013-05-22T17:14:20Z</time>
      </trkpt>
      <trkpt lat="59.9455239" lon="17.6660585">
        <ele>32.8223</ele>
        <time>2013-05-22T17:14:21Z</time>
      </trkpt>
      <trkpt lat="59.9454681" lon="17.6660386">
        <ele>32.8223</ele>
        <time>2013-05-22T17:14:22Z</time>
      </trkpt>
      <trkpt lat="59.9454123" lon="17.6660191">
        <ele>32.8223</ele>
        <time>2013-05-22T17:14:23Z</time>
      </trkpt>
      <trkpt lat="59.9453561" lon="17.6659993">
        <ele>32.8223</ele>
        <time>2013-05-22T17:14:24Z</time>
      </trkpt>
      <trkpt lat="59.9453002" lon="17.6659788">
        <ele>32.8223</ele>
        <time>2013-05-22T17:14:25Z</time>
      </trkpt>
      <trkpt lat="59.945245" lon="17.6659578">
        <ele>32.8223</ele>
        <time>2013-05-22T17:14:26Z</time>
      </trkpt>
      <trkpt lat="59.9451903" lon="17.6659363">
        <ele>33.3029</ele>
        <time>2013-05-22T17:14:27Z</time>
      </trkpt>
      <trkpt lat="59.9451362" lon="17.6659154">
        <ele>33.3029</ele>
        <time>2013-05-22T17:14:28Z</time>
      </trkpt>
      <trkpt lat="59.9450827" lon="17.6658939">
        <ele>33.3029</ele>
        <time>2013-05-22T17:14:29Z</time>
      </trkpt>
      <trkpt lat="59.9450298" lon="17.6658723">
        <ele>33.3029</ele>
        <time>2013-05-22T17:14:30Z</time>
      </trkpt>
      <trkpt lat="59.9449773" lon="17.6658518">
        <ele>33.3029</ele>
        <time>2013-05-22T17:14:31Z</time>
      </trkpt>
      <trkpt lat="59.9449246" lon="17.6658335">
        <ele>33.3029</ele>
        <time>2013-05-22T17:14:32Z</time>
      </trkpt>
      <trkpt lat="59.9448723" lon="17.6658151">
        <ele>33.3029</ele>
        <time>2013-05-22T17:14:33Z</time>
      </trkpt>
      <trkpt lat="59.9448199" lon="17.6657959">
        <ele>33.3029</ele>
        <time>2013-05-22T17:14:34Z</time>
      </trkpt>
      <trkpt lat="59.9447677" lon="17.6657766">
        <ele>33.3029</ele>
        <time>2013-05-22T17:14:35Z</time>
      </trkpt>
      <trkpt lat="59.9447154" lon="17.6657573">
        <ele>33.3029</ele>
        <time>2013-05-22T17:14:36Z</time>
      </trkpt>
      <trkpt lat="59.944663" lon="17.6657364">
        <ele>33.3029</ele>
        <time>2013-05-22T17:14:37Z</time>
      </trkpt>
      <trkpt lat="59.9446106" lon="17.6657144">
        <ele>33.3029</ele>
        <time>2013-05-22T17:14:38Z</time>
      </trkpt>
      <trkpt lat="59.9445581" lon="17.6656923">
        <ele>33.3029</ele>
        <time>2013-05-22T17:14:39Z</time>
      </trkpt>
      <trkpt lat="59.9445056" lon="17.6656715">
        <ele>33.3029</ele>
        <time>2013-05-22T17:14:40Z</time>
      </trkpt>
      <trkpt lat="59.9444537" lon="17.6656523">
        <ele>33.7834</ele>
        <time>2013-05-22T17:14:41Z</time>
      </trkpt>
      <trkpt lat="59.9444017" lon="17.6656341">
        <ele>33.7834</ele>
        <time>2013-05-22T17:14:42Z</time>
      </trkpt>
      <trkpt lat="59.9443496" lon="17.665614">
        <ele>33.7834</ele>
        <time>2013-05-22T17:14:43Z</time>
      </trkpt>
      <trkpt lat="59.9442976" lon="17.6655929">
        <ele>33.7834</ele>
        <time>2013-05-22T17:14:44Z</time>
      </trkpt>
      <trkpt lat="59.9442444" lon="17.6655721">
        <ele>33.7834</ele>
        <time>2013-05-22T17:14:45Z</time>
      </trkpt>
      <trkpt lat="59.9441905" lon="17.6655499">
        <ele>33.7834</ele>
        <time>2013-05-22T17:14:46Z</time>
      </trkpt>
      <trkpt lat="59.9441365" lon="17.6655258">
        <ele>33.7834</ele>
        <time>2013-05-22T17:14:47Z</time>
      </trkpt>
      <trkpt lat="59.9440829" lon="17.6654986">
        <ele>34.2642</ele>
        <time>2013-05-22T17:14:48Z</time>
      </trkpt>
      <trkpt lat="59.94403" lon="17.6654714">
        <ele>34.2642</ele>
        <time>2013-05-22T17:14:49Z</time>
      </trkpt>
      <trkpt lat="59.9439775" lon="17.6654452">
        <ele>34.2642</ele>
        <time>2013-05-22T17:14:50Z</time>
      </trkpt>
      <trkpt lat="59.9439256" lon="17.6654181">
        <ele>34.2642</ele>
        <time>2013-05-22T17:14:51Z</time>
      </trkpt>
      <trkpt lat="59.9438746" lon="17.6653895">
        <ele>34.2642</ele>
        <time>2013-05-22T17:14:52Z</time>
      </trkpt>
      <trkpt lat="59.9438238" lon="17.6653607">
        <ele>34.2642</ele>
        <time>2013-05-22T17:14:53Z</time>
      </trkpt>
      <trkpt lat="59.943773" lon="17.6653317">
        <ele>34.7449</ele>
        <time>2013-05-22T17:14:54Z</time>
      </trkpt>
      <trkpt lat="59.9437228" lon="17.6653015">
        <ele>34.7449</ele>
        <time>2013-05-22T17:14:55Z</time>
      </trkpt>
      <trkpt lat="59.9436731" lon="17.665269">
        <ele>34.7449</ele>
        <time>2013-05-22T17:14:56Z</time>
      </trkpt>
      <trkpt lat="59.9436244" lon="17.6652342">
        <ele>34.7449</ele>
        <time>2013-05-22T17:14:57Z</time>
      </trkpt>
      <trkpt lat="59.9435762" lon="17.6651996">
        <ele>34.7449</ele>
        <time>2013-05-22T17:14:58Z</time>
      </trkpt>
      <trkpt lat="59.9435285" lon="17.6651668">
        <ele>34.7449</ele>
        <time>2013-05-22T17:14:59Z</time>
      </trkpt>
      <trkpt lat="59.9434813" lon="17.6651339">
        <ele>35.2255</ele>
        <time>2013-05-22T17:15:00Z</time>
      </trkpt>
      <trkpt lat="59.9434353" lon="17.6650986">
        <ele>35.2255</ele>
        <time>2013-05-22T17:15:01Z</time>
      </trkpt>
      <trkpt lat="59.9433898" lon="17.6650623">
        <ele>35.2255</ele>
        <time>2013-05-22T17:15:02Z</time>
      </trkpt>
      <trkpt lat="59.9433442" lon="17.6650275">
        <ele>35.2255</ele>
        <time>2013-05-22T17:15:03Z</time>
      </trkpt>
      <trkpt lat="59.9432991" lon="17.6649917">
        <ele>35.2255</ele>
        <time>2013-05-22T17:15:04Z</time>
      </trkpt>
      <trkpt lat="59.9432548" lon="17.6649536">
        <ele>35.2255</ele>
        <time>2013-05-22T17:15:05Z</time>
      </trkpt>
      <trkpt lat="59.9432105" lon="17.6649152">
        <ele>35.2255</ele>
        <time>2013-05-22T17:15:06Z</time>
      </trkpt>
      <trkpt lat="59.9431653" lon="17.664878">
        <ele>35.2255</ele>
        <time>2013-05-22T17:15:07Z</time>
      </trkpt>
      <trkpt lat="59.9431196" lon="17.6648391">
        <ele>35.7061</ele>
        <time>2013-05-22T17:15:08Z</time>
      </trkpt>
      <trkpt lat="59.9430738" lon="17.6647965">
        <ele>35.7061</ele>
        <time>2013-05-22T17:15:09Z</time>
      </trkpt>
      <trkpt lat="59.9430287" lon="17.6647525">
        <ele>35.7061</ele>
        <time>2013-05-22T17:15:10Z</time>
      </trkpt>
      <trkpt lat="59.9429831" lon="17.664708">
        <ele>35.7061</ele>
        <time>2013-05-22T17:15:11Z</time>
      </trkpt>
      <trkpt lat="59.9429378" lon="17.664661">
        <ele>35.7061</ele>
        <time>2013-05-22T17:15:12Z</time>
      </trkpt>
      <trkpt lat="59.9428927" lon="17.6646136">
        <ele>35.7061</ele>
        <time>2013-05-22T17:15:13Z</time>
      </trkpt>
      <trkpt lat="59.9428472" lon="17.6645667">
        <ele>35.7061</ele>
        <time>2013-05-22T17:15:14Z</time>
      </trkpt>
      <trkpt lat="59.9428018" lon="17.6645191">
        <ele>35.7061</ele>
        <time>2013-05-22T17:15:15Z</time>
      </trkpt>
      <trkpt lat="59.9427566" lon="17.6644714">
        <ele>35.7061</ele>
        <time>2013-05-22T17:15:16Z</time>
      </trkpt>
      <trkpt lat="59.9427114" lon="17.6644224">
        <ele>36.1868</ele>
        <time>2013-05-22T17:15:17Z</time>
      </trkpt>
      <trkpt lat="59.9426669" lon="17.6643713">
        <ele>36.1868</ele>
        <time>2013-05-22T17:15:18Z</time>
      </trkpt>
      <trkpt lat="59.9426228" lon="17.6643188">
        <ele>36.1868</ele>
        <time>2013-05-22T17:15:19Z</time>
      </trkpt>
      <trkpt lat="59.9425793" lon="17.6642657">
        <ele>36.1868</ele>
        <time>2013-05-22T17:15:20Z</time>
      </trkpt>
      <trkpt lat="59.942536" lon="17.6642137">
        <ele>36.1868</ele>
        <time>2013-05-22T17:15:21Z</time>
      </trkpt>
      <trkpt lat="59.9424936" lon="17.6641622">
        <ele>36.1868</ele>
        <time>2013-05-22T17:15:22Z</time>
      </trkpt>
      <trkpt lat="59.9424521" lon="17.6641109">
        <ele>36.6675</ele>
        <time>2013-05-22T17:15:23Z</time>
      </trkpt>
      <trkpt lat="59.9424111" lon="17.6640588">
        <ele>36.6675</ele>
        <time>2013-05-22T17:15:24Z</time>
      </trkpt>
      <trkpt lat="59.9423704" lon="17.6640049">
        <ele>36.6675</ele>
        <time>2013-05-22T17:15:25Z</time>
      </trkpt>
      <trkpt lat="59.9423298" lon="17.6639517">
        <ele>36.6675</ele>
        <time>2013-05-22T17:15:26Z</time>
      </trkpt>
      <trkpt lat="59.9422889" lon="17.6638979">
        <ele>36.6675</ele>
        <time>2013-05-22T17:15:27Z</time>
      </trkpt>
      <trkpt lat="59.9422486" lon="17.6638404">
        <ele>36.6675</ele>
        <time>2013-05-22T17:15:28Z</time>
      </trkpt>
      <trkpt lat="59.9422087" lon="17.6637803">
        <ele>36.6675</ele>
        <time>2013-05-22T17:15:29Z</time>
      </trkpt>
      <trkpt lat="59.9421682" lon="17.6637222">
        <ele>36.6675</ele>
        <time>2013-05-22T17:15:30Z</time>
      </trkpt>
      <trkpt lat="59.9421272" lon="17.6636644">
        <ele>36.6675</ele>
        <time>2013-05-22T17:15:31Z</time>
      </trkpt>
      <trkpt lat="59.9420855" lon="17.6636052">
        <ele>36.6675</ele>
        <time>2013-05-22T17:15:32Z</time>
      </trkpt>
      <trkpt lat="59.9420442" lon="17.6635421">
        <ele>36.6675</ele>
        <time>2013-05-22T17:15:33Z</time>
      </trkpt>
      <trkpt lat="59.9420035" lon="17.6634761">
        <ele>36.6675</ele>
        <time>2013-05-22T17:15:34Z</time>
      </trkpt>
      <trkpt lat="59.9419626" lon="17.6634105">
        <ele>36.6675</ele>
        <time>2013-05-22T17:15:35Z</time>
      </trkpt>
      <trkpt lat="59.941922" lon="17.6633456">
        <ele>36.6675</ele>
        <time>2013-05-22T17:15:36Z</time>
      </trkpt>
      <trkpt lat="59.9418822" lon="17.6632788">
        <ele>36.6675</ele>
        <time>2013-05-22T17:15:37Z</time>
      </trkpt>
      <trkpt lat="59.9418427" lon="17.6632101">
        <ele>36.6675</ele>
        <time>2013-05-22T17:15:38Z</time>
      </trkpt>
      <trkpt lat="59.9418026" lon="17.663141">
        <ele>36.6675</ele>
        <time>2013-05-22T17:15:39Z</time>
      </trkpt>
      <trkpt lat="59.941763" lon="17.6630705">
        <ele>36.6675</ele>
        <time>2013-05-22T17:15:40Z</time>
      </trkpt>
      <trkpt lat="59.9417234" lon="17.6629982">
        <ele>36.6675</ele>
        <time>2013-05-22T17:15:41Z</time>
      </trkpt>
      <trkpt lat="59.9416833" lon="17.6629256">
        <ele>36.6675</ele>
        <time>2013-05-22T17:15:42Z</time>
      </trkpt>
      <trkpt lat="59.9416426" lon="17.6628534">
        <ele>36.6675</ele>
        <time>2013-05-22T17:15:43Z</time>
      </trkpt>
      <trkpt lat="59.9416015" lon="17.6627815">
        <ele>36.6675</ele>
        <time>2013-05-22T17:15:44Z</time>
      </trkpt>
      <trkpt lat="59.9415601" lon="17.6627094">
        <ele>36.6675</ele>
        <time>2013-05-22T17:15:45Z</time>
      </trkpt>
      <trkpt lat="59.9415181" lon="17.6626408">
        <ele>36.6675</ele>
        <time>2013-05-22T17:15:46Z</time>
      </trkpt>
      <trkpt lat="59.9414739" lon="17.662577">
        <ele>36.1868</ele>
        <time>2013-05-22T17:15:47Z</time>
      </trkpt>
      <trkpt lat="59.9414279" lon="17.6625158">
        <ele>36.1868</ele>
        <time>2013-05-22T17:15:48Z</time>
      </trkpt>
      <trkpt lat="59.9413798" lon="17.6624579">
        <ele>36.1868</ele>
        <time>2013-05-22T17:15:49Z</time>
      </trkpt>
      <trkpt lat="59.9413301" lon="17.6624044">
        <ele>36.1868</ele>
        <time>2013-05-22T17:15:50Z</time>
      </trkpt>
      <trkpt lat="59.9412788" lon="17.6623547">
        <ele>36.1868</ele>
        <time>2013-05-22T17:15:51Z</time>
      </trkpt>
      <trkpt lat="59.9412265" lon="17.6623086">
        <ele>36.1868</ele>
        <time>2013-05-22T17:15:52Z</time>
      </trkpt>
      <trkpt lat="59.941173" lon="17.662267">
        <ele>36.1868</ele>
        <time>2013-05-22T17:15:53Z</time>
      </trkpt>
      <trkpt lat="59.941118" lon="17.662231">
        <ele>36.1868</ele>
        <time>2013-05-22T17:15:54Z</time>
      </trkpt>
      <trkpt lat="59.9410614" lon="17.6622014">
        <ele>36.1868</ele>
        <time>2013-05-22T17:15:55Z</time>
      </trkpt>
      <trkpt lat="59.9410042" lon="17.6621765">
        <ele>36.1868</ele>
        <time>2013-05-22T17:15:56Z</time>
      </trkpt>
      <trkpt lat="59.9409466" lon="17.6621521">
        <ele>35.7061</ele>
        <time>2013-05-22T17:15:57Z</time>
      </trkpt>
      <trkpt lat="59.9408882" lon="17.6621295">
        <ele>35.7061</ele>
        <time>2013-05-22T17:15:58Z</time>
      </trkpt>
      <trkpt lat="59.9408292" lon="17.6621157">
        <ele>35.7061</ele>
        <time>2013-05-22T17:15:59Z</time>
      </trkpt>
      <trkpt lat="59.9407695" lon="17.662108">
        <ele>35.7061</ele>
        <time>2013-05-22T17:16:00Z</time>
      </trkpt>
      <trkpt lat="59.9407086" lon="17.6620966">
        <ele>35.7061</ele>
        <time>2013-05-22T17:16:01Z</time>
      </trkpt>
      <trkpt lat="59.9406479" lon="17.6620708">
        <ele>35.7061</ele>
        <time>2013-05-22T17:16:02Z</time>
      </trkpt>
      <trkpt lat="59.9405893" lon="17.6620247">
        <ele>35.7061</ele>
        <time>2013-05-22T17:16:03Z</time>
      </trkpt>
      <trkpt lat="59.9405344" lon="17.6619567">
        <ele>35.2255</ele>
        <time>2013-05-22T17:16:04Z</time>
      </trkpt>
      <trkpt lat="59.9404863" lon="17.6618548">
        <ele>35.2255</ele>
        <time>2013-05-22T17:16:05Z</time>
      </trkpt>
      <trkpt lat="59.9404493" lon="17.6617388">
        <ele>34.7449</ele>
        <time>2013-05-22T17:16:06Z</time>
      </trkpt>
      <trkpt lat="59.9404235" lon="17.6616104">
        <ele>34.7449</ele>
        <time>2013-05-22T17:16:07Z</time>
      </trkpt>
      <trkpt lat="59.9404085" lon="17.6614754">
        <ele>34.7449</ele>
        <time>2013-05-22T17:16:08Z</time>
      </trkpt>
      <trkpt lat="59.9404048" lon="17.6613371">
        <ele>34.2642</ele>
        <time>2013-05-22T17:16:09Z</time>
      </trkpt>
      <trkpt lat="59.9404002" lon="17.6611792">
        <ele>34.2642</ele>
        <time>2013-05-22T17:16:10Z</time>
      </trkpt>
      <trkpt lat="59.9404087" lon="17.6610363">
        <ele>34.2642</ele>
        <time>2013-05-22T17:16:11Z</time>
      </trkpt>
      <trkpt lat="59.9404294" lon="17.6609006">
        <ele>34.2642</ele>
        <time>2013-05-22T17:16:12Z</time>
      </trkpt>
      <trkpt lat="59.9404613" lon="17.660772">
        <ele>34.2642</ele>
        <time>2013-05-22T17:16:13Z</time>
      </trkpt>
      <trkpt lat="59.9404949" lon="17.6606489">
        <ele>34.7449</ele>
        <time>2013-05-22T17:16:14Z</time>
      </trkpt>
      <trkpt lat="59.9405239" lon="17.6605263">
        <ele>34.7449</ele>
        <time>2013-05-22T17:16:15Z</time>
      </trkpt>
      <trkpt lat="59.9405413" lon="17.6604021">
        <ele>34.7449</ele>
        <time>2013-05-22T17:16:16Z</time>
      </trkpt>
      <trkpt lat="59.9405535" lon="17.6603112">
        <ele>34.7449</ele>
        <time>2013-05-22T17:16:17Z</time>
      </trkpt>
      <trkpt lat="59.9405514" lon="17.6601639">
        <ele>34.7449</ele>
        <time>2013-05-22T17:16:18Z</time>
      </trkpt>
      <trkpt lat="59.9405313" lon="17.660044">
        <ele>34.7449</ele>
        <time>2013-05-22T17:16:19Z</time>
      </trkpt>
      <trkpt lat="59.9404951" lon="17.6599553">
        <ele>35.2255</ele>
        <time>2013-05-22T17:16:20Z</time>
      </trkpt>
      <trkpt lat="59.9404551" lon="17.6598577">
        <ele>34.7449</ele>
        <time>2013-05-22T17:16:21Z</time>
      </trkpt>
      <trkpt lat="59.9404225" lon="17.6597632">
        <ele>34.7449</ele>
        <time>2013-05-22T17:16:22Z</time>
      </trkpt>
      <trkpt lat="59.9403946" lon="17.6596336">
        <ele>35.2255</ele>
        <time>2013-05-22T17:16:23Z</time>
      </trkpt>
      <trkpt lat="59.9403654" lon="17.6595114">
        <ele>34.7449</ele>
        <time>2013-05-22T17:16:24Z</time>
      </trkpt>
      <trkpt lat="59.9403434" lon="17.6593835">
        <ele>34.7449</ele>
        <time>2013-05-22T17:16:25Z</time>
      </trkpt>
      <trkpt lat="59.940321" lon="17.6592502">
        <ele>34.7449</ele>
        <time>2013-05-22T17:16:26Z</time>
      </trkpt>
      <trkpt lat="59.9402987" lon="17.6591151">
        <ele>34.2642</ele>
        <time>2013-05-22T17:16:27Z</time>
      </trkpt>
      <trkpt lat="59.9402749" lon="17.6589786">
        <ele>34.2642</ele>
        <time>2013-05-22T17:16:28Z</time>
      </trkpt>
      <trkpt lat="59.9402484" lon="17.6588422">
        <ele>34.2642</ele>
        <time>2013-05-22T17:16:29Z</time>
      </trkpt>
      <trkpt lat="59.94022" lon="17.6587048">
        <ele>34.2642</ele>
        <time>2013-05-22T17:16:30Z</time>
      </trkpt>
      <trkpt lat="59.9401904" lon="17.6585692">
        <ele>34.2642</ele>
        <time>2013-05-22T17:16:31Z</time>
      </trkpt>
      <trkpt lat="59.9401593" lon="17.6584358">
        <ele>34.7449</ele>
        <time>2013-05-22T17:16:32Z</time>
      </trkpt>
      <trkpt lat="59.9401283" lon="17.6583044">
        <ele>34.7449</ele>
        <time>2013-05-22T17:16:33Z</time>
      </trkpt>
      <trkpt lat="59.9400984" lon="17.6581743">
        <ele>34.7449</ele>
        <time>2013-05-22T17:16:34Z</time>
      </trkpt>
      <trkpt lat="59.9400691" lon="17.6580459">
        <ele>35.2255</ele>
        <time>2013-05-22T17:16:35Z</time>
      </trkpt>
      <trkpt lat="59.9400408" lon="17.6579188">
        <ele>35.2255</ele>
        <time>2013-05-22T17:16:36Z</time>
      </trkpt>
      <trkpt lat="59.9400144" lon="17.6577929">
        <ele>35.7061</ele>
        <time>2013-05-22T17:16:37Z</time>
      </trkpt>
      <trkpt lat="59.9399888" lon="17.6576684">
        <ele>35.7061</ele>
        <time>2013-05-22T17:16:38Z</time>
      </trkpt>
      <trkpt lat="59.9399631" lon="17.6575446">
        <ele>35.7061</ele>
        <time>2013-05-22T17:16:39Z</time>
      </trkpt>
      <trkpt lat="59.9399376" lon="17.6574212">
        <ele>36.1868</ele>
        <time>2013-05-22T17:16:40Z</time>
      </trkpt>
      <trkpt lat="59.9399121" lon="17.6572985">
        <ele>36.1868</ele>
        <time>2013-05-22T17:16:41Z</time>
      </trkpt>
      <trkpt lat="59.9398865" lon="17.6571767">
        <ele>36.6675</ele>
        <time>2013-05-22T17:16:42Z</time>
      </trkpt>
      <trkpt lat="59.939861" lon="17.6570559">
        <ele>36.6675</ele>
        <time>2013-05-22T17:16:43Z</time>
      </trkpt>
      <trkpt lat="59.939836" lon="17.6569352">
        <ele>36.6675</ele>
        <time>2013-05-22T17:16:44Z</time>
      </trkpt>
      <trkpt lat="59.9398114" lon="17.6568152">
        <ele>37.1481</ele>
        <time>2013-05-22T17:16:45Z</time>
      </trkpt>
      <trkpt lat="59.9397865" lon="17.6566956">
        <ele>37.1481</ele>
        <time>2013-05-22T17:16:46Z</time>
      </trkpt>
      <trkpt lat="59.9397621" lon="17.6565748">
        <ele>37.1481</ele>
        <time>2013-05-22T17:16:47Z</time>
      </trkpt>
      <trkpt lat="59.9397361" lon="17.6564519">
        <ele>37.6287</ele>
        <time>2013-05-22T17:16:48Z</time>
      </trkpt>
      <trkpt lat="59.9397113" lon="17.6563292">
        <ele>37.6287</ele>
        <time>2013-05-22T17:16:49Z</time>
      </trkpt>
      <trkpt lat="59.9396873" lon="17.656205">
        <ele>37.6287</ele>
        <time>2013-05-22T17:16:50Z</time>
      </trkpt>
      <trkpt lat="59.9396646" lon="17.6560821">
        <ele>37.6287</ele>
        <time>2013-05-22T17:16:51Z</time>
      </trkpt>
      <trkpt lat="59.9396419" lon="17.6559609">
        <ele>37.6287</ele>
        <time>2013-05-22T17:16:52Z</time>
      </trkpt>
      <trkpt lat="59.9396197" lon="17.6558408">
        <ele>37.6287</ele>
        <time>2013-05-22T17:16:53Z</time>
      </trkpt>
      <trkpt lat="59.9395979" lon="17.6557212">
        <ele>37.6287</ele>
        <time>2013-05-22T17:16:54Z</time>
      </trkpt>
      <trkpt lat="59.9395754" lon="17.655602">
        <ele>37.6287</ele>
        <time>2013-05-22T17:16:55Z</time>
      </trkpt>
      <trkpt lat="59.9395516" lon="17.6554842">
        <ele>37.6287</ele>
        <time>2013-05-22T17:16:56Z</time>
      </trkpt>
      <trkpt lat="59.9395272" lon="17.6553668">
        <ele>37.6287</ele>
        <time>2013-05-22T17:16:57Z</time>
      </trkpt>
      <trkpt lat="59.9395024" lon="17.6552487">
        <ele>37.6287</ele>
        <time>2013-05-22T17:16:58Z</time>
      </trkpt>
      <trkpt lat="59.9394772" lon="17.6551303">
        <ele>37.6287</ele>
        <time>2013-05-22T17:16:59Z</time>
      </trkpt>
      <trkpt lat="59.9394523" lon="17.6550112">
        <ele>37.6287</ele>
        <time>2013-05-22T17:17:00Z</time>
      </trkpt>
      <trkpt lat="59.939428" lon="17.654891">
        <ele>37.6287</ele>
        <time>2013-05-22T17:17:01Z</time>
      </trkpt>
      <trkpt lat="59.9394048" lon="17.6547708">
        <ele>37.6287</ele>
        <time>2013-05-22T17:17:02Z</time>
      </trkpt>
      <trkpt lat="59.9393813" lon="17.6546513">
        <ele>37.6287</ele>
        <time>2013-05-22T17:17:03Z</time>
      </trkpt>
      <trkpt lat="59.939357" lon="17.6545323">
        <ele>37.6287</ele>
        <time>2013-05-22T17:17:04Z</time>
      </trkpt>
      <trkpt lat="59.9393315" lon="17.6544124">
        <ele>37.6287</ele>
        <time>2013-05-22T17:17:05Z</time>
      </trkpt>
      <trkpt lat="59.9393053" lon="17.654293">
        <ele>37.6287</ele>
        <time>2013-05-22T17:17:06Z</time>
      </trkpt>
      <trkpt lat="59.9392784" lon="17.6541737">
        <ele>37.6287</ele>
        <time>2013-05-22T17:17:07Z</time>
      </trkpt>
      <trkpt lat="59.9392518" lon="17.6540524">
        <ele>37.6287</ele>
        <time>2013-05-22T17:17:08Z</time>
      </trkpt>
      <trkpt lat="59.9392254" lon="17.6539302">
        <ele>37.6287</ele>
        <time>2013-05-22T17:17:09Z</time>
      </trkpt>
      <trkpt lat="59.9391975" lon="17.6538089">
        <ele>37.6287</ele>
        <time>2013-05-22T17:17:10Z</time>
      </trkpt>
      <trkpt lat="59.9391682" lon="17.6536869">
        <ele>37.1481</ele>
        <time>2013-05-22T17:17:11Z</time>
      </trkpt>
      <trkpt lat="59.939141" lon="17.6535632">
        <ele>37.1481</ele>
        <time>2013-05-22T17:17:12Z</time>
      </trkpt>
      <trkpt lat="59.939115" lon="17.6534385">
        <ele>37.6287</ele>
        <time>2013-05-22T17:17:13Z</time>
      </trkpt>
      <trkpt lat="59.9390891" lon="17.6533132">
        <ele>37.6287</ele>
        <time>2013-05-22T17:17:14Z</time>
      </trkpt>
      <trkpt lat="59.9390633" lon="17.6531874">
        <ele>37.6287</ele>
        <time>2013-05-22T17:17:15Z</time>
      </trkpt>
      <trkpt lat="59.9390359" lon="17.6530628">
        <ele>37.6287</ele>
        <time>2013-05-22T17:17:16Z</time>
      </trkpt>
      <trkpt lat="59.9390069" lon="17.65294">
        <ele>37.6287</ele>
        <time>2013-05-22T17:17:17Z</time>
      </trkpt>
      <trkpt lat="59.9389763" lon="17.6528187">
        <ele>37.6287</ele>
        <time>2013-05-22T17:17:18Z</time>
      </trkpt>
      <trkpt lat="59.9389455" lon="17.6526973">
        <ele>37.6287</ele>
        <time>2013-05-22T17:17:19Z</time>
      </trkpt>
      <trkpt lat="59.9389149" lon="17.6525762">
        <ele>37.1481</ele>
        <time>2013-05-22T17:17:20Z</time>
      </trkpt>
      <trkpt lat="59.9388834" lon="17.6524565">
        <ele>37.1481</ele>
        <time>2013-05-22T17:17:21Z</time>
      </trkpt>
      <trkpt lat="59.9388509" lon="17.6523381">
        <ele>37.1481</ele>
        <time>2013-05-22T17:17:22Z</time>
      </trkpt>
      <trkpt lat="59.9388179" lon="17.6522198">
        <ele>37.1481</ele>
        <time>2013-05-22T17:17:23Z</time>
      </trkpt>
      <trkpt lat="59.9387842" lon="17.6521017">
        <ele>37.1481</ele>
        <time>2013-05-22T17:17:24Z</time>
      </trkpt>
      <trkpt lat="59.9387497" lon="17.6519845">
        <ele>37.1481</ele>
        <time>2013-05-22T17:17:25Z</time>
      </trkpt>
      <trkpt lat="59.9387151" lon="17.6518672">
        <ele>37.1481</ele>
        <time>2013-05-22T17:17:26Z</time>
      </trkpt>
      <trkpt lat="59.9386806" lon="17.6517501">
        <ele>37.1481</ele>
        <time>2013-05-22T17:17:27Z</time>
      </trkpt>
      <trkpt lat="59.9386456" lon="17.651634">
        <ele>37.1481</ele>
        <time>2013-05-22T17:17:28Z</time>
      </trkpt>
      <trkpt lat="59.9386093" lon="17.651519">
        <ele>36.6675</ele>
        <time>2013-05-22T17:17:29Z</time>
      </trkpt>
      <trkpt lat="59.9385715" lon="17.6514066">
        <ele>36.6675</ele>
        <time>2013-05-22T17:17:30Z</time>
      </trkpt>
      <trkpt lat="59.9385322" lon="17.6512957">
        <ele>36.6675</ele>
        <time>2013-05-22T17:17:31Z</time>
      </trkpt>
      <trkpt lat="59.9384918" lon="17.6511845">
        <ele>36.6675</ele>
        <time>2013-05-22T17:17:32Z</time>
      </trkpt>
      <trkpt lat="59.9384503" lon="17.6510734">
        <ele>36.6675</ele>
        <time>2013-05-22T17:17:33Z</time>
      </trkpt>
      <trkpt lat="59.9384059" lon="17.6509656">
        <ele>36.6675</ele>
        <time>2013-05-22T17:17:34Z</time>
      </trkpt>
      <trkpt lat="59.9383591" lon="17.6508611">
        <ele>36.6675</ele>
        <time>2013-05-22T17:17:35Z</time>
      </trkpt>
      <trkpt lat="59.9383117" lon="17.6507565">
        <ele>36.6675</ele>
        <time>2013-05-22T17:17:36Z</time>
      </trkpt>
      <trkpt lat="59.9382672" lon="17.650649">
        <ele>36.6675</ele>
        <time>2013-05-22T17:17:37Z</time>
      </trkpt>
      <trkpt lat="59.9382256" lon="17.6505382">
        <ele>36.6675</ele>
        <time>2013-05-22T17:17:38Z</time>
      </trkpt>
      <trkpt lat="59.9381859" lon="17.6504249">
        <ele>36.6675</ele>
        <time>2013-05-22T17:17:39Z</time>
      </trkpt>
      <trkpt lat="59.9381478" lon="17.6503109">
        <ele>36.6675</ele>
        <time>2013-05-22T17:17:40Z</time>
      </trkpt>
      <trkpt lat="59.93811" lon="17.6501989">
        <ele>36.6675</ele>
        <time>2013-05-22T17:17:41Z</time>
      </trkpt>
      <trkpt lat="59.9380703" lon="17.6500923">
        <ele>36.6675</ele>
        <time>2013-05-22T17:17:42Z</time>
      </trkpt>
      <trkpt lat="59.9380298" lon="17.6499907">
        <ele>36.6675</ele>
        <time>2013-05-22T17:17:43Z</time>
      </trkpt>
      <trkpt lat="59.93799" lon="17.6498925">
        <ele>36.6675</ele>
        <time>2013-05-22T17:17:44Z</time>
      </trkpt>
      <trkpt lat="59.9379499" lon="17.6497977">
        <ele>37.1481</ele>
        <time>2013-05-22T17:17:45Z</time>
      </trkpt>
      <trkpt lat="59.9379095" lon="17.6497042">
        <ele>37.1481</ele>
        <time>2013-05-22T17:17:46Z</time>
      </trkpt>
      <trkpt lat="59.9378703" lon="17.6496086">
        <ele>37.1481</ele>
        <time>2013-05-22T17:17:47Z</time>
      </trkpt>
      <trkpt lat="59.9378328" lon="17.6495103">
        <ele>37.1481</ele>
        <time>2013-05-22T17:17:48Z</time>
      </trkpt>
      <trkpt lat="59.9377995" lon="17.6494055">
        <ele>37.1481</ele>
        <time>2013-05-22T17:17:49Z</time>
      </trkpt>
      <trkpt lat="59.9377657" lon="17.6493024">
        <ele>37.1481</ele>
        <time>2013-05-22T17:17:50Z</time>
      </trkpt>
      <trkpt lat="59.9377268" lon="17.6492071">
        <ele>37.6287</ele>
        <time>2013-05-22T17:17:51Z</time>
      </trkpt>
      <trkpt lat="59.9376864" lon="17.6491196">
        <ele>37.6287</ele>
        <time>2013-05-22T17:17:52Z</time>
      </trkpt>
      <trkpt lat="59.937644" lon="17.6490419">
        <ele>37.6287</ele>
        <time>2013-05-22T17:17:53Z</time>
      </trkpt>
      <trkpt lat="59.9376004" lon="17.6489683">
        <ele>37.6287</ele>
        <time>2013-05-22T17:17:54Z</time>
      </trkpt>
      <trkpt lat="59.9375563" lon="17.6488963">
        <ele>37.6287</ele>
        <time>2013-05-22T17:17:55Z</time>
      </trkpt>
      <trkpt lat="59.9375116" lon="17.6488253">
        <ele>37.6287</ele>
        <time>2013-05-22T17:17:56Z</time>
      </trkpt>
      <trkpt lat="59.9374672" lon="17.6487534">
        <ele>37.6287</ele>
        <time>2013-05-22T17:17:57Z</time>
      </trkpt>
      <trkpt lat="59.9374223" lon="17.6486829">
        <ele>37.6287</ele>
        <time>2013-05-22T17:17:58Z</time>
      </trkpt>
      <trkpt lat="59.9373767" lon="17.6486145">
        <ele>37.6287</ele>
        <time>2013-05-22T17:17:59Z</time>
      </trkpt>
      <trkpt lat="59.9373303" lon="17.6485477">
        <ele>37.6287</ele>
        <time>2013-05-22T17:18:00Z</time>
      </trkpt>
      <trkpt lat="59.9372835" lon="17.6484819">
        <ele>37.6287</ele>
        <time>2013-05-22T17:18:01Z</time>
      </trkpt>
      <trkpt lat="59.9372376" lon="17.6484182">
        <ele>37.6287</ele>
        <time>2013-05-22T17:18:02Z</time>
      </trkpt>
      <trkpt lat="59.9371932" lon="17.648355">
        <ele>37.6287</ele>
        <time>2013-05-22T17:18:03Z</time>
      </trkpt>
      <trkpt lat="59.9371529" lon="17.6482856">
        <ele>37.6287</ele>
        <time>2013-05-22T17:18:04Z</time>
      </trkpt>
      <trkpt lat="59.9371182" lon="17.6482052">
        <ele>37.6287</ele>
        <time>2013-05-22T17:18:05Z</time>
      </trkpt>
      <trkpt lat="59.9370849" lon="17.6481181">
        <ele>37.6287</ele>
        <time>2013-05-22T17:18:06Z</time>
      </trkpt>
      <trkpt lat="59.9370462" lon="17.6480333">
        <ele>37.6287</ele>
        <time>2013-05-22T17:18:07Z</time>
      </trkpt>
      <trkpt lat="59.9370009" lon="17.6479556">
        <ele>37.6287</ele>
        <time>2013-05-22T17:18:08Z</time>
      </trkpt>
      <trkpt lat="59.9369503" lon="17.6478867">
        <ele>37.6287</ele>
        <time>2013-05-22T17:18:09Z</time>
      </trkpt>
      <trkpt lat="59.9368986" lon="17.6478226">
        <ele>38.1094</ele>
        <time>2013-05-22T17:18:10Z</time>
      </trkpt>
      <trkpt lat="59.9368458" lon="17.6477556">
        <ele>38.1094</ele>
        <time>2013-05-22T17:18:11Z</time>
      </trkpt>
      <trkpt lat="59.9367919" lon="17.6476873">
        <ele>38.1094</ele>
        <time>2013-05-22T17:18:12Z</time>
      </trkpt>
      <trkpt lat="59.9367374" lon="17.6476208">
        <ele>38.1094</ele>
        <time>2013-05-22T17:18:13Z</time>
      </trkpt>
      <trkpt lat="59.9366834" lon="17.6475542">
        <ele>38.1094</ele>
        <time>2013-05-22T17:18:14Z</time>
      </trkpt>
      <trkpt lat="59.9366296" lon="17.6474873">
        <ele>38.1094</ele>
        <time>2013-05-22T17:18:15Z</time>
      </trkpt>
      <trkpt lat="59.9365762" lon="17.6474206">
        <ele>38.1094</ele>
        <time>2013-05-22T17:18:16Z</time>
      </trkpt>
      <trkpt lat="59.9365228" lon="17.6473552">
        <ele>38.5901</ele>
        <time>2013-05-22T17:18:17Z</time>
      </trkpt>
      <trkpt lat="59.9364697" lon="17.6472905">
        <ele>38.5901</ele>
        <time>2013-05-22T17:18:18Z</time>
      </trkpt>
      <trkpt lat="59.9364171" lon="17.6472247">
        <ele>38.5901</ele>
        <time>2013-05-22T17:18:19Z</time>
      </trkpt>
      <trkpt lat="59.936365" lon="17.6471608">
        <ele>38.5901</ele>
        <time>2013-05-22T17:18:20Z</time>
      </trkpt>
      <trkpt lat="59.9363185" lon="17.6470922">
        <ele>38.5901</ele>
        <time>2013-05-22T17:18:21Z</time>
      </trkpt>
      <trkpt lat="59.9362886" lon="17.6470048">
        <ele>38.5901</ele>
        <time>2013-05-22T17:18:22Z</time>
      </trkpt>
      <trkpt lat="59.9362663" lon="17.6469103">
        <ele>38.5901</ele>
        <time>2013-05-22T17:18:23Z</time>
      </trkpt>
      <trkpt lat="59.9362334" lon="17.6468327">
        <ele>38.5901</ele>
        <time>2013-05-22T17:18:24Z</time>
      </trkpt>
      <trkpt lat="59.9361903" lon="17.6467728">
        <ele>38.5901</ele>
        <time>2013-05-22T17:18:25Z</time>
      </trkpt>
      <trkpt lat="59.9361434" lon="17.6467184">
        <ele>38.5901</ele>
        <time>2013-05-22T17:18:26Z</time>
      </trkpt>
      <trkpt lat="59.9360964" lon="17.6466626">
        <ele>39.0707</ele>
        <time>2013-05-22T17:18:27Z</time>
      </trkpt>
      <trkpt lat="59.9360504" lon="17.6466058">
        <ele>39.0707</ele>
        <time>2013-05-22T17:18:28Z</time>
      </trkpt>
      <trkpt lat="59.9360063" lon="17.646546">
        <ele>39.0707</ele>
        <time>2013-05-22T17:18:29Z</time>
      </trkpt>
      <trkpt lat="59.9359635" lon="17.6464884">
        <ele>39.5513</ele>
        <time>2013-05-22T17:18:30Z</time>
      </trkpt>
      <trkpt lat="59.9359177" lon="17.6464326">
        <ele>39.0707</ele>
        <time>2013-05-22T17:18:31Z</time>
      </trkpt>
      <trkpt lat="59.9358697" lon="17.6463762">
        <ele>39.0707</ele>
        <time>2013-05-22T17:18:32Z</time>
      </trkpt>
      <trkpt lat="59.93582" lon="17.6463175">
        <ele>39.0707</ele>
        <time>2013-05-22T17:18:33Z</time>
      </trkpt>
      <trkpt lat="59.9357698" lon="17.6462534">
        <ele>39.0707</ele>
        <time>2013-05-22T17:18:34Z</time>
      </trkpt>
      <trkpt lat="59.935719" lon="17.6461853">
        <ele>39.0707</ele>
        <time>2013-05-22T17:18:35Z</time>
      </trkpt>
      <trkpt lat="59.9356657" lon="17.6461177">
        <ele>39.0707</ele>
        <time>2013-05-22T17:18:36Z</time>
      </trkpt>
      <trkpt lat="59.9356105" lon="17.6460524">
        <ele>39.0707</ele>
        <time>2013-05-22T17:18:37Z</time>
      </trkpt>
      <trkpt lat="59.9355548" lon="17.6459875">
        <ele>38.5901</ele>
        <time>2013-05-22T17:18:38Z</time>
      </trkpt>
      <trkpt lat="59.9354983" lon="17.6459234">
        <ele>38.5901</ele>
        <time>2013-05-22T17:18:39Z</time>
      </trkpt>
      <trkpt lat="59.9354402" lon="17.6458643">
        <ele>38.5901</ele>
        <time>2013-05-22T17:18:40Z</time>
      </trkpt>
      <trkpt lat="59.9353816" lon="17.6458084">
        <ele>39.0707</ele>
        <time>2013-05-22T17:18:41Z</time>
      </trkpt>
      <trkpt lat="59.9353243" lon="17.645749">
        <ele>39.0707</ele>
        <time>2013-05-22T17:18:42Z</time>
      </trkpt>
      <trkpt lat="59.9352688" lon="17.645684">
        <ele>39.0707</ele>
        <time>2013-05-22T17:18:43Z</time>
      </trkpt>
      <trkpt lat="59.9352141" lon="17.6456152">
        <ele>39.0707</ele>
        <time>2013-05-22T17:18:44Z</time>
      </trkpt>
      <trkpt lat="59.9351596" lon="17.6455462">
        <ele>39.0707</ele>
        <time>2013-05-22T17:18:45Z</time>
      </trkpt>
      <trkpt lat="59.9351057" lon="17.645479">
        <ele>39.0707</ele>
        <time>2013-05-22T17:18:46Z</time>
      </trkpt>
      <trkpt lat="59.9350517" lon="17.6454142">
        <ele>39.0707</ele>
        <time>2013-05-22T17:18:47Z</time>
      </trkpt>
      <trkpt lat="59.9349964" lon="17.6453562">
        <ele>39.0707</ele>
        <time>2013-05-22T17:18:48Z</time>
      </trkpt>
      <trkpt lat="59.9349409" lon="17.6453021">
        <ele>39.5513</ele>
        <time>2013-05-22T17:18:49Z</time>
      </trkpt>
      <trkpt lat="59.9348861" lon="17.6452467">
        <ele>39.5513</ele>
        <time>2013-05-22T17:18:50Z</time>
      </trkpt>
      <trkpt lat="59.934832" lon="17.6451884">
        <ele>39.5513</ele>
        <time>2013-05-22T17:18:51Z</time>
      </trkpt>
      <trkpt lat="59.9347777" lon="17.6451265">
        <ele>39.5513</ele>
        <time>2013-05-22T17:18:52Z</time>
      </trkpt>
      <trkpt lat="59.9347237" lon="17.645062">
        <ele>39.5513</ele>
        <time>2013-05-22T17:18:53Z</time>
      </trkpt>
      <trkpt lat="59.9346701" lon="17.644995">
        <ele>39.0707</ele>
        <time>2013-05-22T17:18:54Z</time>
      </trkpt>
      <trkpt lat="59.9346165" lon="17.6449257">
        <ele>39.0707</ele>
        <time>2013-05-22T17:18:55Z</time>
      </trkpt>
      <trkpt lat="59.9345629" lon="17.6448554">
        <ele>39.0707</ele>
        <time>2013-05-22T17:18:56Z</time>
      </trkpt>
      <trkpt lat="59.93451" lon="17.6447841">
        <ele>39.0707</ele>
        <time>2013-05-22T17:18:57Z</time>
      </trkpt>
      <trkpt lat="59.9344593" lon="17.6447056">
        <ele>38.5901</ele>
        <time>2013-05-22T17:18:58Z</time>
      </trkpt>
      <trkpt lat="59.9344117" lon="17.644618">
        <ele>38.1094</ele>
        <time>2013-05-22T17:18:59Z</time>
      </trkpt>
      <trkpt lat="59.9343618" lon="17.6445268">
        <ele>37.6287</ele>
        <time>2013-05-22T17:19:00Z</time>
      </trkpt>
      <trkpt lat="59.9343058" lon="17.6444378">
        <ele>37.1481</ele>
        <time>2013-05-22T17:19:01Z</time>
      </trkpt>
      <trkpt lat="59.9342453" lon="17.6443539">
        <ele>37.1481</ele>
        <time>2013-05-22T17:19:02Z</time>
      </trkpt>
      <trkpt lat="59.934184" lon="17.6442736">
        <ele>36.6675</ele>
        <time>2013-05-22T17:19:03Z</time>
      </trkpt>
      <trkpt lat="59.9341234" lon="17.6441943">
        <ele>36.6675</ele>
        <time>2013-05-22T17:19:04Z</time>
      </trkpt>
      <trkpt lat="59.9340638" lon="17.6441155">
        <ele>36.6675</ele>
        <time>2013-05-22T17:19:05Z</time>
      </trkpt>
      <trkpt lat="59.9340049" lon="17.6440368">
        <ele>36.6675</ele>
        <time>2013-05-22T17:19:06Z</time>
      </trkpt>
      <trkpt lat="59.9339459" lon="17.6439611">
        <ele>36.1868</ele>
        <time>2013-05-22T17:19:07Z</time>
      </trkpt>
      <trkpt lat="59.9338858" lon="17.6438909">
        <ele>36.1868</ele>
        <time>2013-05-22T17:19:08Z</time>
      </trkpt>
      <trkpt lat="59.9338236" lon="17.643829">
        <ele>36.1868</ele>
        <time>2013-05-22T17:19:09Z</time>
      </trkpt>
      <trkpt lat="59.9337599" lon="17.6437736">
        <ele>36.1868</ele>
        <time>2013-05-22T17:19:10Z</time>
      </trkpt>
      <trkpt lat="59.9336957" lon="17.6437168">
        <ele>35.7061</ele>
        <time>2013-05-22T17:19:11Z</time>
      </trkpt>
      <trkpt lat="59.9336313" lon="17.6436535">
        <ele>35.7061</ele>
        <time>2013-05-22T17:19:12Z</time>
      </trkpt>
      <trkpt lat="59.933567" lon="17.6435825">
        <ele>35.2255</ele>
        <time>2013-05-22T17:19:13Z</time>
      </trkpt>
      <trkpt lat="59.9335024" lon="17.6435073">
        <ele>34.7449</ele>
        <time>2013-05-22T17:19:14Z</time>
      </trkpt>
      <trkpt lat="59.9334373" lon="17.6434275">
        <ele>34.2642</ele>
        <time>2013-05-22T17:19:15Z</time>
      </trkpt>
      <trkpt lat="59.9333727" lon="17.6433396">
        <ele>33.7834</ele>
        <time>2013-05-22T17:19:16Z</time>
      </trkpt>
      <trkpt lat="59.9333087" lon="17.6432402">
        <ele>33.3029</ele>
        <time>2013-05-22T17:19:17Z</time>
      </trkpt>
      <trkpt lat="59.9332444" lon="17.6431317">
        <ele>32.3416</ele>
        <time>2013-05-22T17:19:18Z</time>
      </trkpt>
      <trkpt lat="59.9331766" lon="17.6430215">
        <ele>31.8607</ele>
        <time>2013-05-22T17:19:19Z</time>
      </trkpt>
      <trkpt lat="59.9331049" lon="17.6429143">
        <ele>31.3801</ele>
        <time>2013-05-22T17:19:20Z</time>
      </trkpt>
      <trkpt lat="59.9330303" lon="17.6428116">
        <ele>30.8995</ele>
        <time>2013-05-22T17:19:21Z</time>
      </trkpt>
      <trkpt lat="59.932954" lon="17.6427114">
        <ele>30.4188</ele>
        <time>2013-05-22T17:19:22Z</time>
      </trkpt>
      <trkpt lat="59.9328797" lon="17.6426075">
        <ele>30.4188</ele>
        <time>2013-05-22T17:19:23Z</time>
      </trkpt>
      <trkpt lat="59.9328103" lon="17.6424933">
        <ele>29.9381</ele>
        <time>2013-05-22T17:19:24Z</time>
      </trkpt>
      <trkpt lat="59.9327445" lon="17.6423741">
        <ele>29.9381</ele>
        <time>2013-05-22T17:19:25Z</time>
      </trkpt>
      <trkpt lat="59.9326765" lon="17.6422627">
        <ele>29.4575</ele>
        <time>2013-05-22T17:19:26Z</time>
      </trkpt>
      <trkpt lat="59.9326036" lon="17.6421662">
        <ele>29.4575</ele>
        <time>2013-05-22T17:19:27Z</time>
      </trkpt>
      <trkpt lat="59.9325281" lon="17.6420806">
        <ele>28.9769</ele>
        <time>2013-05-22T17:19:28Z</time>
      </trkpt>
      <trkpt lat="59.9324519" lon="17.6420005">
        <ele>28.9769</ele>
        <time>2013-05-22T17:19:29Z</time>
      </trkpt>
      <trkpt lat="59.9323752" lon="17.6419261">
        <ele>28.9769</ele>
        <time>2013-05-22T17:19:30Z</time>
      </trkpt>
      <trkpt lat="59.9322985" lon="17.6418577">
        <ele>28.9769</ele>
        <time>2013-05-22T17:19:31Z</time>
      </trkpt>
      <trkpt lat="59.9322228" lon="17.6417918">
        <ele>28.9769</ele>
        <time>2013-05-22T17:19:32Z</time>
      </trkpt>
      <trkpt lat="59.9321494" lon="17.6417248">
        <ele>29.4575</ele>
        <time>2013-05-22T17:19:33Z</time>
      </trkpt>
      <trkpt lat="59.9320793" lon="17.6416569">
        <ele>29.4575</ele>
        <time>2013-05-22T17:19:34Z</time>
      </trkpt>
      <trkpt lat="59.9320121" lon="17.6415934">
        <ele>29.4575</ele>
        <time>2013-05-22T17:19:35Z</time>
      </trkpt>
      <trkpt lat="59.9319439" lon="17.64154">
        <ele>29.4575</ele>
        <time>2013-05-22T17:19:36Z</time>
      </trkpt>
      <trkpt lat="59.9318723" lon="17.6414932">
        <ele>28.9769</ele>
        <time>2013-05-22T17:19:37Z</time>
      </trkpt>
      <trkpt lat="59.9317987" lon="17.6414452">
        <ele>28.9769</ele>
        <time>2013-05-22T17:19:38Z</time>
      </trkpt>
      <trkpt lat="59.9317246" lon="17.6413945">
        <ele>28.9769</ele>
        <time>2013-05-22T17:19:39Z</time>
      </trkpt>
      <trkpt lat="59.9316514" lon="17.6413421">
        <ele>28.9769</ele>
        <time>2013-05-22T17:19:40Z</time>
      </trkpt>
      <trkpt lat="59.9315791" lon="17.6412868">
        <ele>28.9769</ele>
        <time>2013-05-22T17:19:41Z</time>
      </trkpt>
      <trkpt lat="59.9315074" lon="17.6412329">
        <ele>28.9769</ele>
        <time>2013-05-22T17:19:42Z</time>
      </trkpt>
      <trkpt lat="59.9314352" lon="17.6411831">
        <ele>28.9769</ele>
        <time>2013-05-22T17:19:43Z</time>
      </trkpt>
      <trkpt lat="59.9313636" lon="17.6411339">
        <ele>28.9769</ele>
        <time>2013-05-22T17:19:44Z</time>
      </trkpt>
      <trkpt lat="59.9312921" lon="17.6410836">
        <ele>28.4962</ele>
        <time>2013-05-22T17:19:45Z</time>
      </trkpt>
      <trkpt lat="59.9312179" lon="17.6410302">
        <ele>28.0155</ele>
        <time>2013-05-22T17:19:46Z</time>
      </trkpt>
      <trkpt lat="59.9311403" lon="17.6409728">
        <ele>27.5349</ele>
        <time>2013-05-22T17:19:47Z</time>
      </trkpt>
      <trkpt lat="59.9310595" lon="17.6409153">
        <ele>27.0543</ele>
        <time>2013-05-22T17:19:48Z</time>
      </trkpt>
      <trkpt lat="59.930978" lon="17.6408623">
        <ele>27.0543</ele>
        <time>2013-05-22T17:19:49Z</time>
      </trkpt>
      <trkpt lat="59.9308975" lon="17.64082">
        <ele>27.0543</ele>
        <time>2013-05-22T17:19:50Z</time>
      </trkpt>
      <trkpt lat="59.9308182" lon="17.6407936">
        <ele>27.0543</ele>
        <time>2013-05-22T17:19:51Z</time>
      </trkpt>
      <trkpt lat="59.9307414" lon="17.6407831">
        <ele>27.0543</ele>
        <time>2013-05-22T17:19:52Z</time>
      </trkpt>
      <trkpt lat="59.9306675" lon="17.6407843">
        <ele>26.5736</ele>
        <time>2013-05-22T17:19:53Z</time>
      </trkpt>
      <trkpt lat="59.9305949" lon="17.6407944">
        <ele>26.5736</ele>
        <time>2013-05-22T17:19:54Z</time>
      </trkpt>
      <trkpt lat="59.9305216" lon="17.6408089">
        <ele>26.0929</ele>
        <time>2013-05-22T17:19:55Z</time>
      </trkpt>
      <trkpt lat="59.9304468" lon="17.6408188">
        <ele>26.0929</ele>
        <time>2013-05-22T17:19:56Z</time>
      </trkpt>
      <trkpt lat="59.930371" lon="17.640819">
        <ele>25.6123</ele>
        <time>2013-05-22T17:19:57Z</time>
      </trkpt>
      <trkpt lat="59.9302944" lon="17.6408133">
        <ele>25.6123</ele>
        <time>2013-05-22T17:19:58Z</time>
      </trkpt>
      <trkpt lat="59.9302178" lon="17.640808">
        <ele>25.6123</ele>
        <time>2013-05-22T17:19:59Z</time>
      </trkpt>
      <trkpt lat="59.9301411" lon="17.6408059">
        <ele>25.6123</ele>
        <time>2013-05-22T17:20:00Z</time>
      </trkpt>
      <trkpt lat="59.9300649" lon="17.6408066">
        <ele>25.6123</ele>
        <time>2013-05-22T17:20:01Z</time>
      </trkpt>
      <trkpt lat="59.9299897" lon="17.6408075">
        <ele>25.6123</ele>
        <time>2013-05-22T17:20:02Z</time>
      </trkpt>
      <trkpt lat="59.9299153" lon="17.6408079">
        <ele>25.6123</ele>
        <time>2013-05-22T17:20:03Z</time>
      </trkpt>
      <trkpt lat="59.9298432" lon="17.64081">
        <ele>25.6123</ele>
        <time>2013-05-22T17:20:04Z</time>
      </trkpt>
      <trkpt lat="59.9297738" lon="17.6408158">
        <ele>25.6123</ele>
        <time>2013-05-22T17:20:05Z</time>
      </trkpt>
      <trkpt lat="59.9297065" lon="17.6408283">
        <ele>25.6123</ele>
        <time>2013-05-22T17:20:06Z</time>
      </trkpt>
      <trkpt lat="59.9296386" lon="17.6408453">
        <ele>25.6123</ele>
        <time>2013-05-22T17:20:07Z</time>
      </trkpt>
      <trkpt lat="59.9295697" lon="17.6408613">
        <ele>25.1317</ele>
        <time>2013-05-22T17:20:08Z</time>
      </trkpt>
      <trkpt lat="59.9295007" lon="17.640876">
        <ele>25.1317</ele>
        <time>2013-05-22T17:20:09Z</time>
      </trkpt>
      <trkpt lat="59.9294324" lon="17.6408888">
        <ele>25.1317</ele>
        <time>2013-05-22T17:20:10Z</time>
      </trkpt>
      <trkpt lat="59.9293646" lon="17.6408975">
        <ele>25.1317</ele>
        <time>2013-05-22T17:20:11Z</time>
      </trkpt>
      <trkpt lat="59.9292971" lon="17.640904">
        <ele>25.1317</ele>
        <time>2013-05-22T17:20:12Z</time>
      </trkpt>
      <trkpt lat="59.9292298" lon="17.6409086">
        <ele>25.1317</ele>
        <time>2013-05-22T17:20:13Z</time>
      </trkpt>
      <trkpt lat="59.9291626" lon="17.6409106">
        <ele>25.1317</ele>
        <time>2013-05-22T17:20:14Z</time>
      </trkpt>
      <trkpt lat="59.9290957" lon="17.6409122">
        <ele>25.1317</ele>
        <time>2013-05-22T17:20:15Z</time>
      </trkpt>
      <trkpt lat="59.9290295" lon="17.6409156">
        <ele>25.1317</ele>
        <time>2013-05-22T17:20:16Z</time>
      </trkpt>
      <trkpt lat="59.9289638" lon="17.6409211">
        <ele>25.1317</ele>
        <time>2013-05-22T17:20:17Z</time>
      </trkpt>
      <trkpt lat="59.9288988" lon="17.6409291">
        <ele>25.1317</ele>
        <time>2013-05-22T17:20:18Z</time>
      </trkpt>
      <trkpt lat="59.9288343" lon="17.6409408">
        <ele>25.1317</ele>
        <time>2013-05-22T17:20:19Z</time>
      </trkpt>
      <trkpt lat="59.9287709" lon="17.6409571">
        <ele>25.1317</ele>
        <time>2013-05-22T17:20:20Z</time>
      </trkpt>
      <trkpt lat="59.9287082" lon="17.6409754">
        <ele>25.6123</ele>
        <time>2013-05-22T17:20:21Z</time>
      </trkpt>
      <trkpt lat="59.9286462" lon="17.6409928">
        <ele>25.6123</ele>
        <time>2013-05-22T17:20:22Z</time>
      </trkpt>
      <trkpt lat="59.9285849" lon="17.6410115">
        <ele>25.6123</ele>
        <time>2013-05-22T17:20:23Z</time>
      </trkpt>
      <trkpt lat="59.9285232" lon="17.641028">
        <ele>25.6123</ele>
        <time>2013-05-22T17:20:24Z</time>
      </trkpt>
      <trkpt lat="59.9284607" lon="17.6410371">
        <ele>25.6123</ele>
        <time>2013-05-22T17:20:25Z</time>
      </trkpt>
      <trkpt lat="59.9283971" lon="17.6410389">
        <ele>25.1317</ele>
        <time>2013-05-22T17:20:26Z</time>
      </trkpt>
      <trkpt lat="59.9283333" lon="17.6410407">
        <ele>25.1317</ele>
        <time>2013-05-22T17:20:27Z</time>
      </trkpt>
      <trkpt lat="59.9282695" lon="17.6410479">
        <ele>25.1317</ele>
        <time>2013-05-22T17:20:28Z</time>
      </trkpt>
      <trkpt lat="59.9282063" lon="17.6410582">
        <ele>25.1317</ele>
        <time>2013-05-22T17:20:29Z</time>
      </trkpt>
      <trkpt lat="59.9281436" lon="17.6410705">
        <ele>25.1317</ele>
        <time>2013-05-22T17:20:30Z</time>
      </trkpt>
      <trkpt lat="59.9280815" lon="17.6410842">
        <ele>25.1317</ele>
        <time>2013-05-22T17:20:31Z</time>
      </trkpt>
      <trkpt lat="59.9280187" lon="17.6410993">
        <ele>25.1317</ele>
        <time>2013-05-22T17:20:32Z</time>
      </trkpt>
      <trkpt lat="59.9279551" lon="17.6411118">
        <ele>25.1317</ele>
        <time>2013-05-22T17:20:33Z</time>
      </trkpt>
      <trkpt lat="59.9278913" lon="17.6411199">
        <ele>25.1317</ele>
        <time>2013-05-22T17:20:34Z</time>
      </trkpt>
      <trkpt lat="59.9278274" lon="17.6411266">
        <ele>25.1317</ele>
        <time>2013-05-22T17:20:35Z</time>
      </trkpt>
      <trkpt lat="59.9277637" lon="17.6411332">
        <ele>25.1317</ele>
        <time>2013-05-22T17:20:36Z</time>
      </trkpt>
      <trkpt lat="59.9277001" lon="17.6411381">
        <ele>25.1317</ele>
        <time>2013-05-22T17:20:37Z</time>
      </trkpt>
      <trkpt lat="59.9276366" lon="17.6411428">
        <ele>25.1317</ele>
        <time>2013-05-22T17:20:38Z</time>
      </trkpt>
      <trkpt lat="59.9275738" lon="17.64115">
        <ele>25.1317</ele>
        <time>2013-05-22T17:20:39Z</time>
      </trkpt>
      <trkpt lat="59.9275115" lon="17.6411577">
        <ele>25.1317</ele>
        <time>2013-05-22T17:20:40Z</time>
      </trkpt>
      <trkpt lat="59.9274498" lon="17.6411655">
        <ele>25.6123</ele>
        <time>2013-05-22T17:20:41Z</time>
      </trkpt>
      <trkpt lat="59.9273879" lon="17.6411675">
        <ele>25.6123</ele>
        <time>2013-05-22T17:20:42Z</time>
      </trkpt>
      <trkpt lat="59.9273268" lon="17.6411655">
        <ele>25.6123</ele>
        <time>2013-05-22T17:20:43Z</time>
      </trkpt>
      <trkpt lat="59.9272664" lon="17.6411634">
        <ele>25.6123</ele>
        <time>2013-05-22T17:20:44Z</time>
      </trkpt>
      <trkpt lat="59.927206" lon="17.6411603">
        <ele>25.6123</ele>
        <time>2013-05-22T17:20:45Z</time>
      </trkpt>
      <trkpt lat="59.9271457" lon="17.6411612">
        <ele>25.6123</ele>
        <time>2013-05-22T17:20:46Z</time>
      </trkpt>
      <trkpt lat="59.9270854" lon="17.6411656">
        <ele>25.6123</ele>
        <time>2013-05-22T17:20:47Z</time>
      </trkpt>
      <trkpt lat="59.9270256" lon="17.6411718">
        <ele>25.6123</ele>
        <time>2013-05-22T17:20:48Z</time>
      </trkpt>
      <trkpt lat="59.9269657" lon="17.6411793">
        <ele>25.6123</ele>
        <time>2013-05-22T17:20:49Z</time>
      </trkpt>
      <trkpt lat="59.9269061" lon="17.6411878">
        <ele>25.6123</ele>
        <time>2013-05-22T17:20:50Z</time>
      </trkpt>
      <trkpt lat="59.9268464" lon="17.641196">
        <ele>25.6123</ele>
        <time>2013-05-22T17:20:51Z</time>
      </trkpt>
      <trkpt lat="59.9267866" lon="17.6412045">
        <ele>25.6123</ele>
        <time>2013-05-22T17:20:52Z</time>
      </trkpt>
      <trkpt lat="59.9267275" lon="17.6412151">
        <ele>25.6123</ele>
        <time>2013-05-22T17:20:53Z</time>
      </trkpt>
      <trkpt lat="59.9266692" lon="17.6412245">
        <ele>25.6123</ele>
        <time>2013-05-22T17:20:54Z</time>
      </trkpt>
      <trkpt lat="59.9266106" lon="17.6412283">
        <ele>25.6123</ele>
        <time>2013-05-22T17:20:55Z</time>
      </trkpt>
      <trkpt lat="59.9265518" lon="17.6412311">
        <ele>25.6123</ele>
        <time>2013-05-22T17:20:56Z</time>
      </trkpt>
      <trkpt lat="59.9264926" lon="17.6412379">
        <ele>25.6123</ele>
        <time>2013-05-22T17:20:57Z</time>
      </trkpt>
      <trkpt lat="59.9264332" lon="17.6412463">
        <ele>25.6123</ele>
        <time>2013-05-22T17:20:58Z</time>
      </trkpt>
      <trkpt lat="59.9263739" lon="17.6412536">
        <ele>25.6123</ele>
        <time>2013-05-22T17:20:59Z</time>
      </trkpt>
      <trkpt lat="59.9263152" lon="17.6412609">
        <ele>25.6123</ele>
        <time>2013-05-22T17:21:00Z</time>
      </trkpt>
      <trkpt lat="59.9262574" lon="17.6412697">
        <ele>25.6123</ele>
        <time>2013-05-22T17:21:01Z</time>
      </trkpt>
      <trkpt lat="59.9262" lon="17.6412784">
        <ele>25.6123</ele>
        <time>2013-05-22T17:21:02Z</time>
      </trkpt>
      <trkpt lat="59.926143" lon="17.6412848">
        <ele>25.6123</ele>
        <time>2013-05-22T17:21:03Z</time>
      </trkpt>
      <trkpt lat="59.9260866" lon="17.6412914">
        <ele>25.6123</ele>
        <time>2013-05-22T17:21:04Z</time>
      </trkpt>
      <trkpt lat="59.9260307" lon="17.6412996">
        <ele>25.6123</ele>
        <time>2013-05-22T17:21:05Z</time>
      </trkpt>
      <trkpt lat="59.9259754" lon="17.6413075">
        <ele>25.6123</ele>
        <time>2013-05-22T17:21:06Z</time>
      </trkpt>
      <trkpt lat="59.9259208" lon="17.6413147">
        <ele>25.6123</ele>
        <time>2013-05-22T17:21:07Z</time>
      </trkpt>
      <trkpt lat="59.9258666" lon="17.6413221">
        <ele>26.0929</ele>
        <time>2013-05-22T17:21:08Z</time>
      </trkpt>
      <trkpt lat="59.9258129" lon="17.6413292">
        <ele>26.0929</ele>
        <time>2013-05-22T17:21:09Z</time>
      </trkpt>
      <trkpt lat="59.9257597" lon="17.6413357">
        <ele>26.0929</ele>
        <time>2013-05-22T17:21:10Z</time>
      </trkpt>
      <trkpt lat="59.9257072" lon="17.6413433">
        <ele>26.0929</ele>
        <time>2013-05-22T17:21:11Z</time>
      </trkpt>
      <trkpt lat="59.9256554" lon="17.6413519">
        <ele>26.0929</ele>
        <time>2013-05-22T17:21:12Z</time>
      </trkpt>
      <trkpt lat="59.9256038" lon="17.6413608">
        <ele>26.5736</ele>
        <time>2013-05-22T17:21:13Z</time>
      </trkpt>
      <trkpt lat="59.9255523" lon="17.6413691">
        <ele>26.5736</ele>
        <time>2013-05-22T17:21:14Z</time>
      </trkpt>
      <trkpt lat="59.9255006" lon="17.6413764">
        <ele>26.5736</ele>
        <time>2013-05-22T17:21:15Z</time>
      </trkpt>
      <trkpt lat="59.9254491" lon="17.6413816">
        <ele>26.5736</ele>
        <time>2013-05-22T17:21:16Z</time>
      </trkpt>
      <trkpt lat="59.9253982" lon="17.6413862">
        <ele>26.5736</ele>
        <time>2013-05-22T17:21:17Z</time>
      </trkpt>
      <trkpt lat="59.9253478" lon="17.6413912">
        <ele>26.5736</ele>
        <time>2013-05-22T17:21:18Z</time>
      </trkpt>
      <trkpt lat="59.9252976" lon="17.6413958">
        <ele>26.5736</ele>
        <time>2013-05-22T17:21:19Z</time>
      </trkpt>
      <trkpt lat="59.9252469" lon="17.6413997">
        <ele>27.0543</ele>
        <time>2013-05-22T17:21:20Z</time>
      </trkpt>
      <trkpt lat="59.9251952" lon="17.6414029">
        <ele>27.0543</ele>
        <time>2013-05-22T17:21:21Z</time>
      </trkpt>
      <trkpt lat="59.9251423" lon="17.6414042">
        <ele>27.0543</ele>
        <time>2013-05-22T17:21:22Z</time>
      </trkpt>
      <trkpt lat="59.9250888" lon="17.6414041">
        <ele>27.0543</ele>
        <time>2013-05-22T17:21:23Z</time>
      </trkpt>
      <trkpt lat="59.9250349" lon="17.6414042">
        <ele>27.0543</ele>
        <time>2013-05-22T17:21:24Z</time>
      </trkpt>
      <trkpt lat="59.9249803" lon="17.6414043">
        <ele>27.0543</ele>
        <time>2013-05-22T17:21:25Z</time>
      </trkpt>
      <trkpt lat="59.9249252" lon="17.6414068">
        <ele>27.0543</ele>
        <time>2013-05-22T17:21:26Z</time>
      </trkpt>
      <trkpt lat="59.9248693" lon="17.6414114">
        <ele>27.0543</ele>
        <time>2013-05-22T17:21:27Z</time>
      </trkpt>
      <trkpt lat="59.9248133" lon="17.6414186">
        <ele>27.0543</ele>
        <time>2013-05-22T17:21:28Z</time>
      </trkpt>
      <trkpt lat="59.9247575" lon="17.6414297">
        <ele>27.0543</ele>
        <time>2013-05-22T17:21:29Z</time>
      </trkpt>
      <trkpt lat="59.924702" lon="17.6414436">
        <ele>27.0543</ele>
        <time>2013-05-22T17:21:30Z</time>
      </trkpt>
      <trkpt lat="59.9246463" lon="17.6414583">
        <ele>27.0543</ele>
        <time>2013-05-22T17:21:31Z</time>
      </trkpt>
      <trkpt lat="59.9245906" lon="17.6414735">
        <ele>27.0543</ele>
        <time>2013-05-22T17:21:32Z</time>
      </trkpt>
      <trkpt lat="59.9245351" lon="17.6414855">
        <ele>27.0543</ele>
        <time>2013-05-22T17:21:33Z</time>
      </trkpt>
      <trkpt lat="59.9244795" lon="17.6414933">
        <ele>27.0543</ele>
        <time>2013-05-22T17:21:34Z</time>
      </trkpt>
      <trkpt lat="59.9244237" lon="17.6414997">
        <ele>27.0543</ele>
        <time>2013-05-22T17:21:35Z</time>
      </trkpt>
      <trkpt lat="59.9243679" lon="17.6415074">
        <ele>27.0543</ele>
        <time>2013-05-22T17:21:36Z</time>
      </trkpt>
      <trkpt lat="59.9243119" lon="17.6415145">
        <ele>27.0543</ele>
        <time>2013-05-22T17:21:37Z</time>
      </trkpt>
      <trkpt lat="59.9242554" lon="17.6415186">
        <ele>27.0543</ele>
        <time>2013-05-22T17:21:38Z</time>
      </trkpt>
      <trkpt lat="59.924199" lon="17.6415202">
        <ele>27.0543</ele>
        <time>2013-05-22T17:21:39Z</time>
      </trkpt>
      <trkpt lat="59.9241429" lon="17.6415215">
        <ele>27.0543</ele>
        <time>2013-05-22T17:21:40Z</time>
      </trkpt>
      <trkpt lat="59.9240872" lon="17.6415236">
        <ele>27.0543</ele>
        <time>2013-05-22T17:21:41Z</time>
      </trkpt>
      <trkpt lat="59.9240327" lon="17.6415285">
        <ele>27.0543</ele>
        <time>2013-05-22T17:21:42Z</time>
      </trkpt>
      <trkpt lat="59.9239788" lon="17.641536">
        <ele>27.0543</ele>
        <time>2013-05-22T17:21:43Z</time>
      </trkpt>
      <trkpt lat="59.9239255" lon="17.6415437">
        <ele>27.5349</ele>
        <time>2013-05-22T17:21:44Z</time>
      </trkpt>
      <trkpt lat="59.9238728" lon="17.6415499">
        <ele>27.5349</ele>
        <time>2013-05-22T17:21:45Z</time>
      </trkpt>
      <trkpt lat="59.9238209" lon="17.6415545">
        <ele>27.5349</ele>
        <time>2013-05-22T17:21:46Z</time>
      </trkpt>
      <trkpt lat="59.9237696" lon="17.6415606">
        <ele>27.5349</ele>
        <time>2013-05-22T17:21:47Z</time>
      </trkpt>
      <trkpt lat="59.9237189" lon="17.641569">
        <ele>27.5349</ele>
        <time>2013-05-22T17:21:48Z</time>
      </trkpt>
      <trkpt lat="59.9236691" lon="17.6415771">
        <ele>27.5349</ele>
        <time>2013-05-22T17:21:49Z</time>
      </trkpt>
      <trkpt lat="59.9236204" lon="17.6415835">
        <ele>28.0155</ele>
        <time>2013-05-22T17:21:50Z</time>
      </trkpt>
      <trkpt lat="59.9235725" lon="17.6415898">
        <ele>28.0155</ele>
        <time>2013-05-22T17:21:51Z</time>
      </trkpt>
      <trkpt lat="59.9235246" lon="17.6415971">
        <ele>28.0155</ele>
        <time>2013-05-22T17:21:52Z</time>
      </trkpt>
      <trkpt lat="59.9234769" lon="17.6416041">
        <ele>28.4962</ele>
        <time>2013-05-22T17:21:53Z</time>
      </trkpt>
      <trkpt lat="59.9234295" lon="17.641611">
        <ele>28.4962</ele>
        <time>2013-05-22T17:21:54Z</time>
      </trkpt>
      <trkpt lat="59.9233826" lon="17.6416183">
        <ele>28.9769</ele>
        <time>2013-05-22T17:21:55Z</time>
      </trkpt>
      <trkpt lat="59.923336" lon="17.6416256">
        <ele>28.9769</ele>
        <time>2013-05-22T17:21:56Z</time>
      </trkpt>
      <trkpt lat="59.9232894" lon="17.6416332">
        <ele>28.9769</ele>
        <time>2013-05-22T17:21:57Z</time>
      </trkpt>
      <trkpt lat="59.9232423" lon="17.64164">
        <ele>28.9769</ele>
        <time>2013-05-22T17:21:58Z</time>
      </trkpt>
      <trkpt lat="59.9231952" lon="17.6416473">
        <ele>28.9769</ele>
        <time>2013-05-22T17:21:59Z</time>
      </trkpt>
      <trkpt lat="59.9231483" lon="17.6416548">
        <ele>29.4575</ele>
        <time>2013-05-22T17:22:00Z</time>
      </trkpt>
      <trkpt lat="59.9231013" lon="17.6416617">
        <ele>29.4575</ele>
        <time>2013-05-22T17:22:01Z</time>
      </trkpt>
      <trkpt lat="59.9230542" lon="17.641668">
        <ele>29.4575</ele>
        <time>2013-05-22T17:22:02Z</time>
      </trkpt>
      <trkpt lat="59.9230068" lon="17.6416737">
        <ele>29.4575</ele>
        <time>2013-05-22T17:22:03Z</time>
      </trkpt>
      <trkpt lat="59.9229589" lon="17.6416784">
        <ele>29.4575</ele>
        <time>2013-05-22T17:22:04Z</time>
      </trkpt>
      <trkpt lat="59.9229107" lon="17.6416825">
        <ele>29.4575</ele>
        <time>2013-05-22T17:22:05Z</time>
      </trkpt>
      <trkpt lat="59.9228625" lon="17.6416862">
        <ele>29.4575</ele>
        <time>2013-05-22T17:22:06Z</time>
      </trkpt>
      <trkpt lat="59.9228143" lon="17.6416918">
        <ele>29.9381</ele>
        <time>2013-05-22T17:22:07Z</time>
      </trkpt>
      <trkpt lat="59.9227661" lon="17.6416983">
        <ele>29.9381</ele>
        <time>2013-05-22T17:22:08Z</time>
      </trkpt>
      <trkpt lat="59.9227189" lon="17.6417011">
        <ele>29.9381</ele>
        <time>2013-05-22T17:22:09Z</time>
      </trkpt>
      <trkpt lat="59.9226717" lon="17.6417052">
        <ele>29.9381</ele>
        <time>2013-05-22T17:22:10Z</time>
      </trkpt>
      <trkpt lat="59.922623" lon="17.6417136">
        <ele>29.9381</ele>
        <time>2013-05-22T17:22:11Z</time>
      </trkpt>
      <trkpt lat="59.9225733" lon="17.6417229">
        <ele>29.9381</ele>
        <time>2013-05-22T17:22:12Z</time>
      </trkpt>
      <trkpt lat="59.9225228" lon="17.6417326">
        <ele>30.4188</ele>
        <time>2013-05-22T17:22:13Z</time>
      </trkpt>
      <trkpt lat="59.9224717" lon="17.6417411">
        <ele>30.4188</ele>
        <time>2013-05-22T17:22:14Z</time>
      </trkpt>
      <trkpt lat="59.9224201" lon="17.6417477">
        <ele>30.4188</ele>
        <time>2013-05-22T17:22:15Z</time>
      </trkpt>
      <trkpt lat="59.9223682" lon="17.641753">
        <ele>30.4188</ele>
        <time>2013-05-22T17:22:16Z</time>
      </trkpt>
      <trkpt lat="59.9223158" lon="17.6417587">
        <ele>30.4188</ele>
        <time>2013-05-22T17:22:17Z</time>
      </trkpt>
      <trkpt lat="59.9222633" lon="17.6417643">
        <ele>30.4188</ele>
        <time>2013-05-22T17:22:18Z</time>
      </trkpt>
      <trkpt lat="59.9222108" lon="17.641769">
        <ele>30.4188</ele>
        <time>2013-05-22T17:22:19Z</time>
      </trkpt>
      <trkpt lat="59.9221575" lon="17.6417731">
        <ele>29.9381</ele>
        <time>2013-05-22T17:22:20Z</time>
      </trkpt>
      <trkpt lat="59.9221036" lon="17.6417793">
        <ele>29.9381</ele>
        <time>2013-05-22T17:22:21Z</time>
      </trkpt>
      <trkpt lat="59.9220498" lon="17.6417866">
        <ele>29.9381</ele>
        <time>2013-05-22T17:22:22Z</time>
      </trkpt>
      <trkpt lat="59.9219954" lon="17.6417937">
        <ele>29.9381</ele>
        <time>2013-05-22T17:22:23Z</time>
      </trkpt>
      <trkpt lat="59.921941" lon="17.6418001">
        <ele>29.9381</ele>
        <time>2013-05-22T17:22:24Z</time>
      </trkpt>
      <trkpt lat="59.9218866" lon="17.6418062">
        <ele>29.9381</ele>
        <time>2013-05-22T17:22:25Z</time>
      </trkpt>
      <trkpt lat="59.9218328" lon="17.641813">
        <ele>30.4188</ele>
        <time>2013-05-22T17:22:26Z</time>
      </trkpt>
      <trkpt lat="59.9217804" lon="17.6418224">
        <ele>30.4188</ele>
        <time>2013-05-22T17:22:27Z</time>
      </trkpt>
      <trkpt lat="59.9217281" lon="17.6418343">
        <ele>30.4188</ele>
        <time>2013-05-22T17:22:28Z</time>
      </trkpt>
      <trkpt lat="59.9216759" lon="17.6418457">
        <ele>30.4188</ele>
        <time>2013-05-22T17:22:29Z</time>
      </trkpt>
      <trkpt lat="59.9216243" lon="17.6418554">
        <ele>30.4188</ele>
        <time>2013-05-22T17:22:30Z</time>
      </trkpt>
      <trkpt lat="59.9215736" lon="17.6418617">
        <ele>29.9381</ele>
        <time>2013-05-22T17:22:31Z</time>
      </trkpt>
      <trkpt lat="59.9215222" lon="17.6418688">
        <ele>29.9381</ele>
        <time>2013-05-22T17:22:32Z</time>
      </trkpt>
      <trkpt lat="59.921469" lon="17.6418753">
        <ele>29.9381</ele>
        <time>2013-05-22T17:22:33Z</time>
      </trkpt>
      <trkpt lat="59.921415" lon="17.6418788">
        <ele>29.4575</ele>
        <time>2013-05-22T17:22:34Z</time>
      </trkpt>
      <trkpt lat="59.9213598" lon="17.6418824">
        <ele>28.9769</ele>
        <time>2013-05-22T17:22:35Z</time>
      </trkpt>
      <trkpt lat="59.9213027" lon="17.6418871">
        <ele>28.4962</ele>
        <time>2013-05-22T17:22:36Z</time>
      </trkpt>
      <trkpt lat="59.9212433" lon="17.6418949">
        <ele>28.4962</ele>
        <time>2013-05-22T17:22:37Z</time>
      </trkpt>
      <trkpt lat="59.9211827" lon="17.6419041">
        <ele>28.4962</ele>
        <time>2013-05-22T17:22:38Z</time>
      </trkpt>
      <trkpt lat="59.9211216" lon="17.6419109">
        <ele>28.0155</ele>
        <time>2013-05-22T17:22:39Z</time>
      </trkpt>
      <trkpt lat="59.9210608" lon="17.6419156">
        <ele>28.0155</ele>
        <time>2013-05-22T17:22:40Z</time>
      </trkpt>
      <trkpt lat="59.9210009" lon="17.6419191">
        <ele>28.0155</ele>
        <time>2013-05-22T17:22:41Z</time>
      </trkpt>
      <trkpt lat="59.9209417" lon="17.6419203">
        <ele>27.5349</ele>
        <time>2013-05-22T17:22:42Z</time>
      </trkpt>
      <trkpt lat="59.9208823" lon="17.6419178">
        <ele>27.5349</ele>
        <time>2013-05-22T17:22:43Z</time>
      </trkpt>
      <trkpt lat="59.9208225" lon="17.6419123">
        <ele>27.5349</ele>
        <time>2013-05-22T17:22:44Z</time>
      </trkpt>
      <trkpt lat="59.9207625" lon="17.6419052">
        <ele>27.5349</ele>
        <time>2013-05-22T17:22:45Z</time>
      </trkpt>
      <trkpt lat="59.9207023" lon="17.6419027">
        <ele>27.0543</ele>
        <time>2013-05-22T17:22:46Z</time>
      </trkpt>
      <trkpt lat="59.9206417" lon="17.6419032">
        <ele>27.0543</ele>
        <time>2013-05-22T17:22:47Z</time>
      </trkpt>
      <trkpt lat="59.9205807" lon="17.6419058">
        <ele>27.0543</ele>
        <time>2013-05-22T17:22:48Z</time>
      </trkpt>
      <trkpt lat="59.9205201" lon="17.6419077">
        <ele>27.0543</ele>
        <time>2013-05-22T17:22:49Z</time>
      </trkpt>
      <trkpt lat="59.9204605" lon="17.641909">
        <ele>27.0543</ele>
        <time>2013-05-22T17:22:50Z</time>
      </trkpt>
      <trkpt lat="59.9204015" lon="17.641913">
        <ele>27.0543</ele>
        <time>2013-05-22T17:22:51Z</time>
      </trkpt>
      <trkpt lat="59.9203439" lon="17.6419135">
        <ele>27.5349</ele>
        <time>2013-05-22T17:22:52Z</time>
      </trkpt>
      <trkpt lat="59.9202866" lon="17.6419129">
        <ele>27.5349</ele>
        <time>2013-05-22T17:22:53Z</time>
      </trkpt>
      <trkpt lat="59.9202298" lon="17.6419164">
        <ele>27.5349</ele>
        <time>2013-05-22T17:22:54Z</time>
      </trkpt>
      <trkpt lat="59.9201742" lon="17.6419177">
        <ele>27.5349</ele>
        <time>2013-05-22T17:22:55Z</time>
      </trkpt>
      <trkpt lat="59.9201191" lon="17.6419203">
        <ele>27.5349</ele>
        <time>2013-05-22T17:22:56Z</time>
      </trkpt>
      <trkpt lat="59.9200627" lon="17.6419249">
        <ele>27.5349</ele>
        <time>2013-05-22T17:22:57Z</time>
      </trkpt>
      <trkpt lat="59.9200055" lon="17.6419315">
        <ele>27.5349</ele>
        <time>2013-05-22T17:22:58Z</time>
      </trkpt>
      <trkpt lat="59.9199482" lon="17.6419405">
        <ele>27.5349</ele>
        <time>2013-05-22T17:22:59Z</time>
      </trkpt>
      <trkpt lat="59.9198917" lon="17.6419537">
        <ele>28.0155</ele>
        <time>2013-05-22T17:23:00Z</time>
      </trkpt>
      <trkpt lat="59.9198359" lon="17.6419699">
        <ele>28.0155</ele>
        <time>2013-05-22T17:23:01Z</time>
      </trkpt>
      <trkpt lat="59.9197804" lon="17.6419859">
        <ele>28.0155</ele>
        <time>2013-05-22T17:23:02Z</time>
      </trkpt>
      <trkpt lat="59.9197248" lon="17.6420006">
        <ele>28.0155</ele>
        <time>2013-05-22T17:23:03Z</time>
      </trkpt>
      <trkpt lat="59.9196685" lon="17.6420141">
        <ele>28.0155</ele>
        <time>2013-05-22T17:23:04Z</time>
      </trkpt>
      <trkpt lat="59.9196119" lon="17.6420239">
        <ele>28.0155</ele>
        <time>2013-05-22T17:23:05Z</time>
      </trkpt>
      <trkpt lat="59.919555" lon="17.64203">
        <ele>28.0155</ele>
        <time>2013-05-22T17:23:06Z</time>
      </trkpt>
      <trkpt lat="59.9194981" lon="17.6420353">
        <ele>28.0155</ele>
        <time>2013-05-22T17:23:07Z</time>
      </trkpt>
      <trkpt lat="59.9194414" lon="17.642042">
        <ele>28.0155</ele>
        <time>2013-05-22T17:23:08Z</time>
      </trkpt>
      <trkpt lat="59.9193847" lon="17.6420482">
        <ele>28.0155</ele>
        <time>2013-05-22T17:23:09Z</time>
      </trkpt>
      <trkpt lat="59.9193282" lon="17.6420535">
        <ele>28.0155</ele>
        <time>2013-05-22T17:23:10Z</time>
      </trkpt>
      <trkpt lat="59.9192718" lon="17.6420591">
        <ele>28.0155</ele>
        <time>2013-05-22T17:23:11Z</time>
      </trkpt>
      <trkpt lat="59.9192157" lon="17.6420648">
        <ele>28.4962</ele>
        <time>2013-05-22T17:23:12Z</time>
      </trkpt>
      <trkpt lat="59.9191598" lon="17.642072">
        <ele>28.4962</ele>
        <time>2013-05-22T17:23:13Z</time>
      </trkpt>
      <trkpt lat="59.9191043" lon="17.6420804">
        <ele>28.4962</ele>
        <time>2013-05-22T17:23:14Z</time>
      </trkpt>
      <trkpt lat="59.9190484" lon="17.6420891">
        <ele>28.4962</ele>
        <time>2013-05-22T17:23:15Z</time>
      </trkpt>
      <trkpt lat="59.918992" lon="17.6420969">
        <ele>28.4962</ele>
        <time>2013-05-22T17:23:16Z</time>
      </trkpt>
      <trkpt lat="59.9189345" lon="17.6421042">
        <ele>28.4962</ele>
        <time>2013-05-22T17:23:17Z</time>
      </trkpt>
      <trkpt lat="59.9188763" lon="17.6421119">
        <ele>28.4962</ele>
        <time>2013-05-22T17:23:18Z</time>
      </trkpt>
      <trkpt lat="59.9188174" lon="17.6421206">
        <ele>28.4962</ele>
        <time>2013-05-22T17:23:19Z</time>
      </trkpt>
      <trkpt lat="59.9187588" lon="17.6421317">
        <ele>28.4962</ele>
        <time>2013-05-22T17:23:20Z</time>
      </trkpt>
      <trkpt lat="59.9187015" lon="17.64214">
        <ele>28.0155</ele>
        <time>2013-05-22T17:23:21Z</time>
      </trkpt>
      <trkpt lat="59.9186452" lon="17.642148">
        <ele>28.0155</ele>
        <time>2013-05-22T17:23:22Z</time>
      </trkpt>
      <trkpt lat="59.9185884" lon="17.6421566">
        <ele>28.0155</ele>
        <time>2013-05-22T17:23:23Z</time>
      </trkpt>
      <trkpt lat="59.9185308" lon="17.6421627">
        <ele>28.0155</ele>
        <time>2013-05-22T17:23:24Z</time>
      </trkpt>
      <trkpt lat="59.9184723" lon="17.6421698">
        <ele>28.0155</ele>
        <time>2013-05-22T17:23:25Z</time>
      </trkpt>
      <trkpt lat="59.9184133" lon="17.6421787">
        <ele>28.0155</ele>
        <time>2013-05-22T17:23:26Z</time>
      </trkpt>
      <trkpt lat="59.918353" lon="17.6421884">
        <ele>28.0155</ele>
        <time>2013-05-22T17:23:27Z</time>
      </trkpt>
      <trkpt lat="59.9182906" lon="17.6421949">
        <ele>27.5349</ele>
        <time>2013-05-22T17:23:28Z</time>
      </trkpt>
      <trkpt lat="59.9182263" lon="17.6421996">
        <ele>27.5349</ele>
        <time>2013-05-22T17:23:29Z</time>
      </trkpt>
      <trkpt lat="59.91816" lon="17.6422058">
        <ele>27.0543</ele>
        <time>2013-05-22T17:23:30Z</time>
      </trkpt>
      <trkpt lat="59.9180921" lon="17.6422114">
        <ele>27.0543</ele>
        <time>2013-05-22T17:23:31Z</time>
      </trkpt>
      <trkpt lat="59.9180228" lon="17.6422156">
        <ele>26.5736</ele>
        <time>2013-05-22T17:23:32Z</time>
      </trkpt>
      <trkpt lat="59.9179522" lon="17.6422221">
        <ele>26.5736</ele>
        <time>2013-05-22T17:23:33Z</time>
      </trkpt>
      <trkpt lat="59.9178808" lon="17.64223">
        <ele>26.0929</ele>
        <time>2013-05-22T17:23:34Z</time>
      </trkpt>
      <trkpt lat="59.9178097" lon="17.6422352">
        <ele>26.0929</ele>
        <time>2013-05-22T17:23:35Z</time>
      </trkpt>
      <trkpt lat="59.9177393" lon="17.6422381">
        <ele>26.0929</ele>
        <time>2013-05-22T17:23:36Z</time>
      </trkpt>
      <trkpt lat="59.9176695" lon="17.6422399">
        <ele>26.0929</ele>
        <time>2013-05-22T17:23:37Z</time>
      </trkpt>
      <trkpt lat="59.9176001" lon="17.6422399">
        <ele>26.0929</ele>
        <time>2013-05-22T17:23:38Z</time>
      </trkpt>
      <trkpt lat="59.9175313" lon="17.6422404">
        <ele>25.6123</ele>
        <time>2013-05-22T17:23:39Z</time>
      </trkpt>
      <trkpt lat="59.9174633" lon="17.6422438">
        <ele>25.6123</ele>
        <time>2013-05-22T17:23:40Z</time>
      </trkpt>
      <trkpt lat="59.9173963" lon="17.6422482">
        <ele>25.6123</ele>
        <time>2013-05-22T17:23:41Z</time>
      </trkpt>
      <trkpt lat="59.9173301" lon="17.6422496">
        <ele>25.6123</ele>
        <time>2013-05-22T17:23:42Z</time>
      </trkpt>
      <trkpt lat="59.9172648" lon="17.6422456">
        <ele>25.6123</ele>
        <time>2013-05-22T17:23:43Z</time>
      </trkpt>
      <trkpt lat="59.9172007" lon="17.6422429">
        <ele>25.6123</ele>
        <time>2013-05-22T17:23:44Z</time>
      </trkpt>
      <trkpt lat="59.9171386" lon="17.6422522">
        <ele>25.6123</ele>
        <time>2013-05-22T17:23:45Z</time>
      </trkpt>
      <trkpt lat="59.9170791" lon="17.6422723">
        <ele>26.0929</ele>
        <time>2013-05-22T17:23:46Z</time>
      </trkpt>
      <trkpt lat="59.9170219" lon="17.6422926">
        <ele>26.0929</ele>
        <time>2013-05-22T17:23:47Z</time>
      </trkpt>
      <trkpt lat="59.9169656" lon="17.6423084">
        <ele>26.0929</ele>
        <time>2013-05-22T17:23:48Z</time>
      </trkpt>
      <trkpt lat="59.9169104" lon="17.6423207">
        <ele>26.5736</ele>
        <time>2013-05-22T17:23:49Z</time>
      </trkpt>
      <trkpt lat="59.916856" lon="17.64233">
        <ele>26.5736</ele>
        <time>2013-05-22T17:23:50Z</time>
      </trkpt>
      <trkpt lat="59.9168023" lon="17.6423376">
        <ele>26.5736</ele>
        <time>2013-05-22T17:23:51Z</time>
      </trkpt>
      <trkpt lat="59.9167496" lon="17.642344">
        <ele>26.5736</ele>
        <time>2013-05-22T17:23:52Z</time>
      </trkpt>
      <trkpt lat="59.9166978" lon="17.64235">
        <ele>27.0543</ele>
        <time>2013-05-22T17:23:53Z</time>
      </trkpt>
      <trkpt lat="59.9166469" lon="17.6423578">
        <ele>27.0543</ele>
        <time>2013-05-22T17:23:54Z</time>
      </trkpt>
      <trkpt lat="59.916597" lon="17.6423664">
        <ele>27.0543</ele>
        <time>2013-05-22T17:23:55Z</time>
      </trkpt>
      <trkpt lat="59.9165471" lon="17.6423728">
        <ele>27.0543</ele>
        <time>2013-05-22T17:23:56Z</time>
      </trkpt>
      <trkpt lat="59.9164975" lon="17.6423782">
        <ele>27.5349</ele>
        <time>2013-05-22T17:23:57Z</time>
      </trkpt>
      <trkpt lat="59.9164475" lon="17.642385">
        <ele>27.5349</ele>
        <time>2013-05-22T17:23:58Z</time>
      </trkpt>
      <trkpt lat="59.9163972" lon="17.6423937">
        <ele>27.5349</ele>
        <time>2013-05-22T17:23:59Z</time>
      </trkpt>
      <trkpt lat="59.9163465" lon="17.6424041">
        <ele>27.5349</ele>
        <time>2013-05-22T17:24:00Z</time>
      </trkpt>
      <trkpt lat="59.9162961" lon="17.6424142">
        <ele>27.5349</ele>
        <time>2013-05-22T17:24:01Z</time>
      </trkpt>
      <trkpt lat="59.916245" lon="17.6424228">
        <ele>27.5349</ele>
        <time>2013-05-22T17:24:02Z</time>
      </trkpt>
      <trkpt lat="59.9161926" lon="17.6424275">
        <ele>27.5349</ele>
        <time>2013-05-22T17:24:03Z</time>
      </trkpt>
      <trkpt lat="59.9161388" lon="17.6424289">
        <ele>27.5349</ele>
        <time>2013-05-22T17:24:04Z</time>
      </trkpt>
      <trkpt lat="59.9160843" lon="17.6424303">
        <ele>27.5349</ele>
        <time>2013-05-22T17:24:05Z</time>
      </trkpt>
      <trkpt lat="59.9160283" lon="17.6424305">
        <ele>27.5349</ele>
        <time>2013-05-22T17:24:06Z</time>
      </trkpt>
      <trkpt lat="59.9159714" lon="17.6424294">
        <ele>27.0543</ele>
        <time>2013-05-22T17:24:07Z</time>
      </trkpt>
      <trkpt lat="59.9159143" lon="17.6424287">
        <ele>27.0543</ele>
        <time>2013-05-22T17:24:08Z</time>
      </trkpt>
      <trkpt lat="59.9158564" lon="17.6424299">
        <ele>27.0543</ele>
        <time>2013-05-22T17:24:09Z</time>
      </trkpt>
      <trkpt lat="59.9157974" lon="17.6424313">
        <ele>27.0543</ele>
        <time>2013-05-22T17:24:10Z</time>
      </trkpt>
      <trkpt lat="59.9157378" lon="17.642433">
        <ele>27.0543</ele>
        <time>2013-05-22T17:24:11Z</time>
      </trkpt>
      <trkpt lat="59.9156781" lon="17.6424366">
        <ele>27.0543</ele>
        <time>2013-05-22T17:24:12Z</time>
      </trkpt>
      <trkpt lat="59.915618" lon="17.642444">
        <ele>27.0543</ele>
        <time>2013-05-22T17:24:13Z</time>
      </trkpt>
      <trkpt lat="59.915557" lon="17.6424574">
        <ele>27.0543</ele>
        <time>2013-05-22T17:24:14Z</time>
      </trkpt>
      <trkpt lat="59.9154949" lon="17.6424726">
        <ele>27.0543</ele>
        <time>2013-05-22T17:24:15Z</time>
      </trkpt>
      <trkpt lat="59.9154322" lon="17.6424875">
        <ele>27.0543</ele>
        <time>2013-05-22T17:24:16Z</time>
      </trkpt>
      <trkpt lat="59.9153694" lon="17.6425061">
        <ele>27.0543</ele>
        <time>2013-05-22T17:24:17Z</time>
      </trkpt>
      <trkpt lat="59.9153077" lon="17.6425349">
        <ele>27.0543</ele>
        <time>2013-05-22T17:24:18Z</time>
      </trkpt>
      <trkpt lat="59.9152507" lon="17.642574">
        <ele>27.0543</ele>
        <time>2013-05-22T17:24:19Z</time>
      </trkpt>
      <trkpt lat="59.9152" lon="17.6426133">
        <ele>27.5349</ele>
        <time>2013-05-22T17:24:20Z</time>
      </trkpt>
      <trkpt lat="59.9151535" lon="17.6426456">
        <ele>28.0155</ele>
        <time>2013-05-22T17:24:21Z</time>
      </trkpt>
      <trkpt lat="59.9151083" lon="17.6426703">
        <ele>28.0155</ele>
        <time>2013-05-22T17:24:22Z</time>
      </trkpt>
      <trkpt lat="59.9150611" lon="17.6426841">
        <ele>28.0155</ele>
        <time>2013-05-22T17:24:23Z</time>
      </trkpt>
      <trkpt lat="59.915012" lon="17.642688">
        <ele>28.0155</ele>
        <time>2013-05-22T17:24:24Z</time>
      </trkpt>
      <trkpt lat="59.9149624" lon="17.6426906">
        <ele>28.0155</ele>
        <time>2013-05-22T17:24:25Z</time>
      </trkpt>
      <trkpt lat="59.9149132" lon="17.6426962">
        <ele>28.0155</ele>
        <time>2013-05-22T17:24:26Z</time>
      </trkpt>
      <trkpt lat="59.9148642" lon="17.6427045">
        <ele>28.4962</ele>
        <time>2013-05-22T17:24:27Z</time>
      </trkpt>
      <trkpt lat="59.9148148" lon="17.642715">
        <ele>28.4962</ele>
        <time>2013-05-22T17:24:28Z</time>
      </trkpt>
      <trkpt lat="59.9147655" lon="17.6427273">
        <ele>28.4962</ele>
        <time>2013-05-22T17:24:29Z</time>
      </trkpt>
      <trkpt lat="59.9147158" lon="17.6427386">
        <ele>28.4962</ele>
        <time>2013-05-22T17:24:30Z</time>
      </trkpt>
      <trkpt lat="59.9146664" lon="17.6427483">
        <ele>28.9769</ele>
        <time>2013-05-22T17:24:31Z</time>
      </trkpt>
      <trkpt lat="59.9146169" lon="17.6427592">
        <ele>28.9769</ele>
        <time>2013-05-22T17:24:32Z</time>
      </trkpt>
      <trkpt lat="59.9145672" lon="17.6427703">
        <ele>28.9769</ele>
        <time>2013-05-22T17:24:33Z</time>
      </trkpt>
      <trkpt lat="59.9145174" lon="17.6427774">
        <ele>29.4575</ele>
        <time>2013-05-22T17:24:34Z</time>
      </trkpt>
      <trkpt lat="59.9144678" lon="17.6427787">
        <ele>28.9769</ele>
        <time>2013-05-22T17:24:35Z</time>
      </trkpt>
      <trkpt lat="59.9144184" lon="17.6427838">
        <ele>28.9769</ele>
        <time>2013-05-22T17:24:36Z</time>
      </trkpt>
      <trkpt lat="59.9143687" lon="17.6427936">
        <ele>28.9769</ele>
        <time>2013-05-22T17:24:37Z</time>
      </trkpt>
      <trkpt lat="59.914318" lon="17.6428041">
        <ele>29.4575</ele>
        <time>2013-05-22T17:24:38Z</time>
      </trkpt>
      <trkpt lat="59.9142672" lon="17.6428136">
        <ele>29.4575</ele>
        <time>2013-05-22T17:24:39Z</time>
      </trkpt>
      <trkpt lat="59.9142168" lon="17.6428227">
        <ele>29.4575</ele>
        <time>2013-05-22T17:24:40Z</time>
      </trkpt>
      <trkpt lat="59.9141667" lon="17.6428339">
        <ele>29.9381</ele>
        <time>2013-05-22T17:24:41Z</time>
      </trkpt>
      <trkpt lat="59.9141166" lon="17.6428495">
        <ele>29.9381</ele>
        <time>2013-05-22T17:24:42Z</time>
      </trkpt>
      <trkpt lat="59.9140667" lon="17.6428636">
        <ele>30.4188</ele>
        <time>2013-05-22T17:24:43Z</time>
      </trkpt>
      <trkpt lat="59.9140164" lon="17.6428738">
        <ele>30.4188</ele>
        <time>2013-05-22T17:24:44Z</time>
      </trkpt>
      <trkpt lat="59.9139657" lon="17.6428794">
        <ele>30.4188</ele>
        <time>2013-05-22T17:24:45Z</time>
      </trkpt>
      <trkpt lat="59.9139149" lon="17.6428838">
        <ele>30.4188</ele>
        <time>2013-05-22T17:24:46Z</time>
      </trkpt>
      <trkpt lat="59.913864" lon="17.6428899">
        <ele>30.4188</ele>
        <time>2013-05-22T17:24:47Z</time>
      </trkpt>
      <trkpt lat="59.913813" lon="17.6428987">
        <ele>30.4188</ele>
        <time>2013-05-22T17:24:48Z</time>
      </trkpt>
      <trkpt lat="59.9137626" lon="17.6429087">
        <ele>30.4188</ele>
        <time>2013-05-22T17:24:49Z</time>
      </trkpt>
      <trkpt lat="59.9137125" lon="17.6429196">
        <ele>30.4188</ele>
        <time>2013-05-22T17:24:50Z</time>
      </trkpt>
      <trkpt lat="59.9136622" lon="17.6429305">
        <ele>30.8995</ele>
        <time>2013-05-22T17:24:51Z</time>
      </trkpt>
      <trkpt lat="59.9136114" lon="17.6429413">
        <ele>30.8995</ele>
        <time>2013-05-22T17:24:52Z</time>
      </trkpt>
      <trkpt lat="59.91356" lon="17.6429516">
        <ele>30.8995</ele>
        <time>2013-05-22T17:24:53Z</time>
      </trkpt>
      <trkpt lat="59.9135076" lon="17.6429626">
        <ele>30.8995</ele>
        <time>2013-05-22T17:24:54Z</time>
      </trkpt>
      <trkpt lat="59.9134543" lon="17.6429723">
        <ele>31.3801</ele>
        <time>2013-05-22T17:24:55Z</time>
      </trkpt>
      <trkpt lat="59.9134004" lon="17.6429823">
        <ele>31.3801</ele>
        <time>2013-05-22T17:24:56Z</time>
      </trkpt>
      <trkpt lat="59.9133458" lon="17.6429977">
        <ele>31.3801</ele>
        <time>2013-05-22T17:24:57Z</time>
      </trkpt>
      <trkpt lat="59.9132916" lon="17.6430154">
        <ele>31.3801</ele>
        <time>2013-05-22T17:24:58Z</time>
      </trkpt>
      <trkpt lat="59.9132372" lon="17.6430319">
        <ele>31.3801</ele>
        <time>2013-05-22T17:24:59Z</time>
      </trkpt>
      <trkpt lat="59.9131815" lon="17.6430442">
        <ele>31.3801</ele>
        <time>2013-05-22T17:25:00Z</time>
      </trkpt>
      <trkpt lat="59.9131265" lon="17.6430515">
        <ele>31.3801</ele>
        <time>2013-05-22T17:25:01Z</time>
      </trkpt>
      <trkpt lat="59.9130728" lon="17.6430636">
        <ele>31.3801</ele>
        <time>2013-05-22T17:25:02Z</time>
      </trkpt>
      <trkpt lat="59.9130189" lon="17.6430758">
        <ele>31.3801</ele>
        <time>2013-05-22T17:25:03Z</time>
      </trkpt>
      <trkpt lat="59.9129654" lon="17.6430853">
        <ele>31.3801</ele>
        <time>2013-05-22T17:25:04Z</time>
      </trkpt>
      <trkpt lat="59.9129115" lon="17.6430959">
        <ele>31.3801</ele>
        <time>2013-05-22T17:25:05Z</time>
      </trkpt>
      <trkpt lat="59.9128575" lon="17.6431043">
        <ele>31.3801</ele>
        <time>2013-05-22T17:25:06Z</time>
      </trkpt>
      <trkpt lat="59.9128039" lon="17.6431091">
        <ele>31.3801</ele>
        <time>2013-05-22T17:25:07Z</time>
      </trkpt>
      <trkpt lat="59.9127499" lon="17.6431089">
        <ele>31.3801</ele>
        <time>2013-05-22T17:25:08Z</time>
      </trkpt>
      <trkpt lat="59.9126938" lon="17.6430935">
        <ele>30.8995</ele>
        <time>2013-05-22T17:25:09Z</time>
      </trkpt>
      <trkpt lat="59.9126337" lon="17.6430667">
        <ele>29.9381</ele>
        <time>2013-05-22T17:25:10Z</time>
      </trkpt>
      <trkpt lat="59.9125692" lon="17.6430434">
        <ele>29.4575</ele>
        <time>2013-05-22T17:25:11Z</time>
      </trkpt>
      <trkpt lat="59.9125038" lon="17.6430341">
        <ele>29.4575</ele>
        <time>2013-05-22T17:25:12Z</time>
      </trkpt>
      <trkpt lat="59.9124394" lon="17.6430376">
        <ele>29.4575</ele>
        <time>2013-05-22T17:25:13Z</time>
      </trkpt>
      <trkpt lat="59.9123765" lon="17.6430472">
        <ele>29.4575</ele>
        <time>2013-05-22T17:25:14Z</time>
      </trkpt>
      <trkpt lat="59.9123158" lon="17.643059">
        <ele>29.4575</ele>
        <time>2013-05-22T17:25:15Z</time>
      </trkpt>
      <trkpt lat="59.9122574" lon="17.6430701">
        <ele>29.4575</ele>
        <time>2013-05-22T17:25:16Z</time>
      </trkpt>
      <trkpt lat="59.9122019" lon="17.6430832">
        <ele>29.4575</ele>
        <time>2013-05-22T17:25:17Z</time>
      </trkpt>
      <trkpt lat="59.9121449" lon="17.6431162">
        <ele>29.9381</ele>
        <time>2013-05-22T17:25:18Z</time>
      </trkpt>
      <trkpt lat="59.9120962" lon="17.6431382">
        <ele>29.9381</ele>
        <time>2013-05-22T17:25:19Z</time>
      </trkpt>
      <trkpt lat="59.9120541" lon="17.6431624">
        <ele>30.4188</ele>
        <time>2013-05-22T17:25:20Z</time>
      </trkpt>
      <trkpt lat="59.9120165" lon="17.6431805">
        <ele>30.4188</ele>
        <time>2013-05-22T17:25:21Z</time>
      </trkpt>
      <trkpt lat="59.9119806" lon="17.6431852">
        <ele>30.4188</ele>
        <time>2013-05-22T17:25:22Z</time>
      </trkpt>
      <trkpt lat="59.9119434" lon="17.6431959">
        <ele>30.4188</ele>
        <time>2013-05-22T17:25:23Z</time>
      </trkpt>
      <trkpt lat="59.9119064" lon="17.643208">
        <ele>30.4188</ele>
        <time>2013-05-22T17:25:24Z</time>
      </trkpt>
      <trkpt lat="59.9118683" lon="17.6432167">
        <ele>30.8995</ele>
        <time>2013-05-22T17:25:25Z</time>
      </trkpt>
      <trkpt lat="59.9118288" lon="17.6432246">
        <ele>30.4188</ele>
        <time>2013-05-22T17:25:26Z</time>
      </trkpt>
      <trkpt lat="59.9117859" lon="17.6432325">
        <ele>30.4188</ele>
        <time>2013-05-22T17:25:27Z</time>
      </trkpt>
      <trkpt lat="59.9117414" lon="17.6432405">
        <ele>30.4188</ele>
        <time>2013-05-22T17:25:28Z</time>
      </trkpt>
      <trkpt lat="59.911694" lon="17.6432474">
        <ele>30.4188</ele>
        <time>2013-05-22T17:25:29Z</time>
      </trkpt>
      <trkpt lat="59.9116456" lon="17.6432567">
        <ele>30.4188</ele>
        <time>2013-05-22T17:25:30Z</time>
      </trkpt>
      <trkpt lat="59.9115972" lon="17.6432669">
        <ele>30.8995</ele>
        <time>2013-05-22T17:25:31Z</time>
      </trkpt>
      <trkpt lat="59.9115493" lon="17.6432715">
        <ele>30.8995</ele>
        <time>2013-05-22T17:25:32Z</time>
      </trkpt>
      <trkpt lat="59.9115031" lon="17.6432734">
        <ele>30.8995</ele>
        <time>2013-05-22T17:25:33Z</time>
      </trkpt>
      <trkpt lat="59.9114601" lon="17.6432809">
        <ele>30.8995</ele>
        <time>2013-05-22T17:25:34Z</time>
      </trkpt>
      <trkpt lat="59.9114206" lon="17.643294">
        <ele>30.8995</ele>
        <time>2013-05-22T17:25:35Z</time>
      </trkpt>
      <trkpt lat="59.9113844" lon="17.6433105">
        <ele>31.3801</ele>
        <time>2013-05-22T17:25:36Z</time>
      </trkpt>
      <trkpt lat="59.9113533" lon="17.6433261">
        <ele>31.3801</ele>
        <time>2013-05-22T17:25:37Z</time>
      </trkpt>
      <trkpt lat="59.911333" lon="17.6433433">
        <ele>31.3801</ele>
        <time>2013-05-22T17:25:38Z</time>
      </trkpt>
      <trkpt lat="59.9113239" lon="17.6433586">
        <ele>31.3801</ele>
        <time>2013-05-22T17:25:39Z</time>
      </trkpt>
      <trkpt lat="59.9113212" lon="17.6433634">
        <ele>31.3801</ele>
        <time>2013-05-22T17:25:40Z</time>
      </trkpt>
      <trkpt lat="59.9113207" lon="17.6433632">
        <ele>31.3801</ele>
        <time>2013-05-22T17:25:41Z</time>
      </trkpt>
      <trkpt lat="59.9112984" lon="17.6434634">
        <ele>30.8995</ele>
        <time>2013-05-22T17:26:01Z</time>
      </trkpt>
      <trkpt lat="59.9112869" lon="17.6434981">
        <ele>29.9381</ele>
        <time>2013-05-22T17:26:02Z</time>
      </trkpt>
      <trkpt lat="59.911271" lon="17.6435277">
        <ele>29.4575</ele>
        <time>2013-05-22T17:26:03Z</time>
      </trkpt>
      <trkpt lat="59.9112496" lon="17.6435519">
        <ele>29.4575</ele>
        <time>2013-05-22T17:26:04Z</time>
      </trkpt>
      <trkpt lat="59.9112219" lon="17.6435622">
        <ele>28.9769</ele>
        <time>2013-05-22T17:26:05Z</time>
      </trkpt>
      <trkpt lat="59.9111943" lon="17.6435694">
        <ele>28.4962</ele>
        <time>2013-05-22T17:26:06Z</time>
      </trkpt>
      <trkpt lat="59.9111627" lon="17.6435727">
        <ele>28.0155</ele>
        <time>2013-05-22T17:26:07Z</time>
      </trkpt>
      <trkpt lat="59.911127" lon="17.6435723">
        <ele>27.5349</ele>
        <time>2013-05-22T17:26:08Z</time>
      </trkpt>
      <trkpt lat="59.9110881" lon="17.6435713">
        <ele>27.0543</ele>
        <time>2013-05-22T17:26:09Z</time>
      </trkpt>
      <trkpt lat="59.9110466" lon="17.643572">
        <ele>26.5736</ele>
        <time>2013-05-22T17:26:10Z</time>
      </trkpt>
      <trkpt lat="59.9110026" lon="17.6435753">
        <ele>26.0929</ele>
        <time>2013-05-22T17:26:11Z</time>
      </trkpt>
      <trkpt lat="59.9109575" lon="17.6435784">
        <ele>25.6123</ele>
        <time>2013-05-22T17:26:12Z</time>
      </trkpt>
      <trkpt lat="59.9109105" lon="17.6435824">
        <ele>25.1317</ele>
        <time>2013-05-22T17:26:13Z</time>
      </trkpt>
      <trkpt lat="59.9108619" lon="17.6435881">
        <ele>25.1317</ele>
        <time>2013-05-22T17:26:14Z</time>
      </trkpt>
      <trkpt lat="59.9108114" lon="17.6435945">
        <ele>25.6123</ele>
        <time>2013-05-22T17:26:15Z</time>
      </trkpt>
      <trkpt lat="59.9107592" lon="17.6436012">
        <ele>25.6123</ele>
        <time>2013-05-22T17:26:16Z</time>
      </trkpt>
      <trkpt lat="59.9107068" lon="17.6436084">
        <ele>25.1317</ele>
        <time>2013-05-22T17:26:17Z</time>
      </trkpt>
      <trkpt lat="59.9106546" lon="17.6436158">
        <ele>25.1317</ele>
        <time>2013-05-22T17:26:18Z</time>
      </trkpt>
      <trkpt lat="59.9106022" lon="17.6436229">
        <ele>25.1317</ele>
        <time>2013-05-22T17:26:19Z</time>
      </trkpt>
      <trkpt lat="59.9105492" lon="17.6436259">
        <ele>25.1317</ele>
        <time>2013-05-22T17:26:20Z</time>
      </trkpt>
      <trkpt lat="59.910495" lon="17.6436162">
        <ele>24.651</ele>
        <time>2013-05-22T17:26:21Z</time>
      </trkpt>
      <trkpt lat="59.9104397" lon="17.6436027">
        <ele>24.651</ele>
        <time>2013-05-22T17:26:22Z</time>
      </trkpt>
      <trkpt lat="59.9103863" lon="17.6435919">
        <ele>25.1317</ele>
        <time>2013-05-22T17:26:23Z</time>
      </trkpt>
      <trkpt lat="59.9103333" lon="17.6435898">
        <ele>25.1317</ele>
        <time>2013-05-22T17:26:24Z</time>
      </trkpt>
      <trkpt lat="59.9102794" lon="17.6435929">
        <ele>25.1317</ele>
        <time>2013-05-22T17:26:25Z</time>
      </trkpt>
      <trkpt lat="59.9102253" lon="17.6435972">
        <ele>25.1317</ele>
        <time>2013-05-22T17:26:26Z</time>
      </trkpt>
      <trkpt lat="59.9101708" lon="17.6436">
        <ele>25.1317</ele>
        <time>2013-05-22T17:26:27Z</time>
      </trkpt>
      <trkpt lat="59.9101157" lon="17.6435972">
        <ele>24.651</ele>
        <time>2013-05-22T17:26:28Z</time>
      </trkpt>
      <trkpt lat="59.9100562" lon="17.6435849">
        <ele>24.1703</ele>
        <time>2013-05-22T17:26:29Z</time>
      </trkpt>
      <trkpt lat="59.9099905" lon="17.6435613">
        <ele>24.1703</ele>
        <time>2013-05-22T17:26:30Z</time>
      </trkpt>
      <trkpt lat="59.9099225" lon="17.6435365">
        <ele>23.6896</ele>
        <time>2013-05-22T17:26:31Z</time>
      </trkpt>
      <trkpt lat="59.9098537" lon="17.6435213">
        <ele>23.6896</ele>
        <time>2013-05-22T17:26:32Z</time>
      </trkpt>
      <trkpt lat="59.9097843" lon="17.6435204">
        <ele>23.6896</ele>
        <time>2013-05-22T17:26:33Z</time>
      </trkpt>
      <trkpt lat="59.9097148" lon="17.6435288">
        <ele>23.209</ele>
        <time>2013-05-22T17:26:34Z</time>
      </trkpt>
      <trkpt lat="59.909645" lon="17.6435422">
        <ele>23.209</ele>
        <time>2013-05-22T17:26:35Z</time>
      </trkpt>
      <trkpt lat="59.9095766" lon="17.6435577">
        <ele>23.209</ele>
        <time>2013-05-22T17:26:36Z</time>
      </trkpt>
      <trkpt lat="59.9095094" lon="17.6435749">
        <ele>22.7283</ele>
        <time>2013-05-22T17:26:37Z</time>
      </trkpt>
      <trkpt lat="59.909443" lon="17.6435908">
        <ele>22.7283</ele>
        <time>2013-05-22T17:26:38Z</time>
      </trkpt>
      <trkpt lat="59.9093772" lon="17.6436028">
        <ele>22.7283</ele>
        <time>2013-05-22T17:26:39Z</time>
      </trkpt>
      <trkpt lat="59.9093124" lon="17.6436142">
        <ele>22.7283</ele>
        <time>2013-05-22T17:26:40Z</time>
      </trkpt>
      <trkpt lat="59.9092481" lon="17.6436255">
        <ele>22.7283</ele>
        <time>2013-05-22T17:26:41Z</time>
      </trkpt>
      <trkpt lat="59.9091845" lon="17.6436344">
        <ele>22.2476</ele>
        <time>2013-05-22T17:26:42Z</time>
      </trkpt>
      <trkpt lat="59.9091216" lon="17.6436414">
        <ele>22.2476</ele>
        <time>2013-05-22T17:26:43Z</time>
      </trkpt>
      <trkpt lat="59.9090589" lon="17.6436484">
        <ele>22.2476</ele>
        <time>2013-05-22T17:26:44Z</time>
      </trkpt>
      <trkpt lat="59.9089963" lon="17.6436546">
        <ele>22.2476</ele>
        <time>2013-05-22T17:26:45Z</time>
      </trkpt>
      <trkpt lat="59.9089338" lon="17.6436592">
        <ele>22.2476</ele>
        <time>2013-05-22T17:26:46Z</time>
      </trkpt>
      <trkpt lat="59.9088716" lon="17.643664">
        <ele>22.2476</ele>
        <time>2013-05-22T17:26:47Z</time>
      </trkpt>
      <trkpt lat="59.9088101" lon="17.6436691">
        <ele>22.2476</ele>
        <time>2013-05-22T17:26:48Z</time>
      </trkpt>
      <trkpt lat="59.9087499" lon="17.6436737">
        <ele>22.2476</ele>
        <time>2013-05-22T17:26:49Z</time>
      </trkpt>
      <trkpt lat="59.9086898" lon="17.6436773">
        <ele>22.2476</ele>
        <time>2013-05-22T17:26:50Z</time>
      </trkpt>
      <trkpt lat="59.9086302" lon="17.6436799">
        <ele>21.767</ele>
        <time>2013-05-22T17:26:51Z</time>
      </trkpt>
      <trkpt lat="59.9085721" lon="17.6436815">
        <ele>21.767</ele>
        <time>2013-05-22T17:26:52Z</time>
      </trkpt>
      <trkpt lat="59.9085145" lon="17.643682">
        <ele>21.767</ele>
        <time>2013-05-22T17:26:53Z</time>
      </trkpt>
      <trkpt lat="59.9084581" lon="17.6436793">
        <ele>22.2476</ele>
        <time>2013-05-22T17:26:54Z</time>
      </trkpt>
      <trkpt lat="59.9084026" lon="17.6436754">
        <ele>22.2476</ele>
        <time>2013-05-22T17:26:55Z</time>
      </trkpt>
      <trkpt lat="59.9083478" lon="17.6436715">
        <ele>22.2476</ele>
        <time>2013-05-22T17:26:56Z</time>
      </trkpt>
      <trkpt lat="59.9082929" lon="17.6436669">
        <ele>21.767</ele>
        <time>2013-05-22T17:26:57Z</time>
      </trkpt>
      <trkpt lat="59.9082373" lon="17.6436618">
        <ele>21.767</ele>
        <time>2013-05-22T17:26:58Z</time>
      </trkpt>
      <trkpt lat="59.9081807" lon="17.6436546">
        <ele>21.767</ele>
        <time>2013-05-22T17:26:59Z</time>
      </trkpt>
      <trkpt lat="59.9081235" lon="17.6436458">
        <ele>21.767</ele>
        <time>2013-05-22T17:27:00Z</time>
      </trkpt>
      <trkpt lat="59.9080655" lon="17.6436369">
        <ele>21.767</ele>
        <time>2013-05-22T17:27:01Z</time>
      </trkpt>
      <trkpt lat="59.9080068" lon="17.6436302">
        <ele>21.767</ele>
        <time>2013-05-22T17:27:02Z</time>
      </trkpt>
      <trkpt lat="59.9079475" lon="17.6436248">
        <ele>21.767</ele>
        <time>2013-05-22T17:27:03Z</time>
      </trkpt>
      <trkpt lat="59.9078874" lon="17.6436163">
        <ele>21.767</ele>
        <time>2013-05-22T17:27:04Z</time>
      </trkpt>
      <trkpt lat="59.9078262" lon="17.6436049">
        <ele>21.2864</ele>
        <time>2013-05-22T17:27:05Z</time>
      </trkpt>
      <trkpt lat="59.9077646" lon="17.6435929">
        <ele>21.2864</ele>
        <time>2013-05-22T17:27:06Z</time>
      </trkpt>
      <trkpt lat="59.9077031" lon="17.643582">
        <ele>21.2864</ele>
        <time>2013-05-22T17:27:07Z</time>
      </trkpt>
      <trkpt lat="59.9076408" lon="17.6435731">
        <ele>21.2864</ele>
        <time>2013-05-22T17:27:08Z</time>
      </trkpt>
      <trkpt lat="59.9075776" lon="17.6435635">
        <ele>20.8057</ele>
        <time>2013-05-22T17:27:09Z</time>
      </trkpt>
      <trkpt lat="59.9075138" lon="17.6435509">
        <ele>20.8057</ele>
        <time>2013-05-22T17:27:10Z</time>
      </trkpt>
      <trkpt lat="59.9074495" lon="17.6435373">
        <ele>20.8057</ele>
        <time>2013-05-22T17:27:11Z</time>
      </trkpt>
      <trkpt lat="59.9073845" lon="17.6435245">
        <ele>20.8057</ele>
        <time>2013-05-22T17:27:12Z</time>
      </trkpt>
      <trkpt lat="59.9073195" lon="17.6435126">
        <ele>20.8057</ele>
        <time>2013-05-22T17:27:13Z</time>
      </trkpt>
      <trkpt lat="59.9072545" lon="17.6435005">
        <ele>20.8057</ele>
        <time>2013-05-22T17:27:14Z</time>
      </trkpt>
      <trkpt lat="59.9071896" lon="17.6434888">
        <ele>20.8057</ele>
        <time>2013-05-22T17:27:15Z</time>
      </trkpt>
      <trkpt lat="59.9071248" lon="17.6434764">
        <ele>20.8057</ele>
        <time>2013-05-22T17:27:16Z</time>
      </trkpt>
      <trkpt lat="59.9070597" lon="17.6434618">
        <ele>20.8057</ele>
        <time>2013-05-22T17:27:17Z</time>
      </trkpt>
      <trkpt lat="59.9069942" lon="17.6434457">
        <ele>20.8057</ele>
        <time>2013-05-22T17:27:18Z</time>
      </trkpt>
      <trkpt lat="59.9069281" lon="17.6434281">
        <ele>20.8057</ele>
        <time>2013-05-22T17:27:19Z</time>
      </trkpt>
      <trkpt lat="59.9068622" lon="17.6434121">
        <ele>20.8057</ele>
        <time>2013-05-22T17:27:20Z</time>
      </trkpt>
      <trkpt lat="59.9067966" lon="17.6433976">
        <ele>20.8057</ele>
        <time>2013-05-22T17:27:21Z</time>
      </trkpt>
      <trkpt lat="59.9067317" lon="17.643381">
        <ele>20.8057</ele>
        <time>2013-05-22T17:27:22Z</time>
      </trkpt>
      <trkpt lat="59.9066669" lon="17.6433637">
        <ele>20.8057</ele>
        <time>2013-05-22T17:27:23Z</time>
      </trkpt>
      <trkpt lat="59.9066011" lon="17.6433456">
        <ele>20.325</ele>
        <time>2013-05-22T17:27:24Z</time>
      </trkpt>
      <trkpt lat="59.9065348" lon="17.6433245">
        <ele>20.325</ele>
        <time>2013-05-22T17:27:25Z</time>
      </trkpt>
      <trkpt lat="59.9064685" lon="17.6433011">
        <ele>20.325</ele>
        <time>2013-05-22T17:27:26Z</time>
      </trkpt>
      <trkpt lat="59.9064023" lon="17.6432772">
        <ele>20.325</ele>
        <time>2013-05-22T17:27:27Z</time>
      </trkpt>
      <trkpt lat="59.906336" lon="17.6432529">
        <ele>19.8444</ele>
        <time>2013-05-22T17:27:28Z</time>
      </trkpt>
      <trkpt lat="59.90627" lon="17.6432275">
        <ele>19.8444</ele>
        <time>2013-05-22T17:27:29Z</time>
      </trkpt>
      <trkpt lat="59.9062043" lon="17.6432004">
        <ele>19.8444</ele>
        <time>2013-05-22T17:27:30Z</time>
      </trkpt>
      <trkpt lat="59.9061391" lon="17.6431721">
        <ele>19.3638</ele>
        <time>2013-05-22T17:27:31Z</time>
      </trkpt>
      <trkpt lat="59.9060737" lon="17.6431396">
        <ele>19.3638</ele>
        <time>2013-05-22T17:27:32Z</time>
      </trkpt>
      <trkpt lat="59.9060076" lon="17.6431033">
        <ele>19.3638</ele>
        <time>2013-05-22T17:27:33Z</time>
      </trkpt>
      <trkpt lat="59.9059407" lon="17.6430675">
        <ele>18.8831</ele>
        <time>2013-05-22T17:27:34Z</time>
      </trkpt>
      <trkpt lat="59.9058723" lon="17.6430324">
        <ele>18.8831</ele>
        <time>2013-05-22T17:27:35Z</time>
      </trkpt>
      <trkpt lat="59.9058028" lon="17.6429975">
        <ele>18.4023</ele>
        <time>2013-05-22T17:27:36Z</time>
      </trkpt>
      <trkpt lat="59.9057323" lon="17.6429652">
        <ele>18.4023</ele>
        <time>2013-05-22T17:27:37Z</time>
      </trkpt>
      <trkpt lat="59.9056623" lon="17.6429383">
        <ele>18.4023</ele>
        <time>2013-05-22T17:27:38Z</time>
      </trkpt>
      <trkpt lat="59.9055943" lon="17.6429169">
        <ele>18.4023</ele>
        <time>2013-05-22T17:27:39Z</time>
      </trkpt>
      <trkpt lat="59.9055278" lon="17.642912">
        <ele>18.4023</ele>
        <time>2013-05-22T17:27:40Z</time>
      </trkpt>
      <trkpt lat="59.9054629" lon="17.6429164">
        <ele>18.8831</ele>
        <time>2013-05-22T17:27:41Z</time>
      </trkpt>
      <trkpt lat="59.905399" lon="17.6429089">
        <ele>18.8831</ele>
        <time>2013-05-22T17:27:42Z</time>
      </trkpt>
      <trkpt lat="59.9053373" lon="17.642888">
        <ele>18.8831</ele>
        <time>2013-05-22T17:27:43Z</time>
      </trkpt>
      <trkpt lat="59.9052793" lon="17.6428631">
        <ele>18.4023</ele>
        <time>2013-05-22T17:27:44Z</time>
      </trkpt>
      <trkpt lat="59.9052258" lon="17.6428476">
        <ele>18.4023</ele>
        <time>2013-05-22T17:27:45Z</time>
      </trkpt>
      <trkpt lat="59.9051757" lon="17.6428535">
        <ele>18.4023</ele>
        <time>2013-05-22T17:27:46Z</time>
      </trkpt>
      <trkpt lat="59.9051264" lon="17.6428594">
        <ele>18.4023</ele>
        <time>2013-05-22T17:27:47Z</time>
      </trkpt>
      <trkpt lat="59.9050762" lon="17.642846">
        <ele>18.4023</ele>
        <time>2013-05-22T17:27:48Z</time>
      </trkpt>
      <trkpt lat="59.9050243" lon="17.642822">
        <ele>18.4023</ele>
        <time>2013-05-22T17:27:49Z</time>
      </trkpt>
      <trkpt lat="59.904971" lon="17.6427947">
        <ele>18.4023</ele>
        <time>2013-05-22T17:27:50Z</time>
      </trkpt>
      <trkpt lat="59.904916" lon="17.6427668">
        <ele>17.9218</ele>
        <time>2013-05-22T17:27:51Z</time>
      </trkpt>
      <trkpt lat="59.9048601" lon="17.6427356">
        <ele>17.9218</ele>
        <time>2013-05-22T17:27:52Z</time>
      </trkpt>
      <trkpt lat="59.9048031" lon="17.6427038">
        <ele>17.9218</ele>
        <time>2013-05-22T17:27:53Z</time>
      </trkpt>
      <trkpt lat="59.9047452" lon="17.6426724">
        <ele>17.4412</ele>
        <time>2013-05-22T17:27:54Z</time>
      </trkpt>
      <trkpt lat="59.9046861" lon="17.6426438">
        <ele>17.4412</ele>
        <time>2013-05-22T17:27:55Z</time>
      </trkpt>
      <trkpt lat="59.9046263" lon="17.6426159">
        <ele>17.4412</ele>
        <time>2013-05-22T17:27:56Z</time>
      </trkpt>
      <trkpt lat="59.9045665" lon="17.6425869">
        <ele>17.4412</ele>
        <time>2013-05-22T17:27:57Z</time>
      </trkpt>
      <trkpt lat="59.9045073" lon="17.6425559">
        <ele>17.4412</ele>
        <time>2013-05-22T17:27:58Z</time>
      </trkpt>
      <trkpt lat="59.9044473" lon="17.6425254">
        <ele>17.4412</ele>
        <time>2013-05-22T17:27:59Z</time>
      </trkpt>
      <trkpt lat="59.9043867" lon="17.6424969">
        <ele>17.4412</ele>
        <time>2013-05-22T17:28:00Z</time>
      </trkpt>
      <trkpt lat="59.904325" lon="17.6424682">
        <ele>17.4412</ele>
        <time>2013-05-22T17:28:01Z</time>
      </trkpt>
      <trkpt lat="59.9042634" lon="17.6424376">
        <ele>17.9218</ele>
        <time>2013-05-22T17:28:02Z</time>
      </trkpt>
      <trkpt lat="59.9042016" lon="17.6424059">
        <ele>17.9218</ele>
        <time>2013-05-22T17:28:03Z</time>
      </trkpt>
      <trkpt lat="59.9041396" lon="17.6423751">
        <ele>17.9218</ele>
        <time>2013-05-22T17:28:04Z</time>
      </trkpt>
      <trkpt lat="59.9040783" lon="17.6423465">
        <ele>17.9218</ele>
        <time>2013-05-22T17:28:05Z</time>
      </trkpt>
      <trkpt lat="59.9040178" lon="17.6423189">
        <ele>18.4023</ele>
        <time>2013-05-22T17:28:06Z</time>
      </trkpt>
      <trkpt lat="59.9039587" lon="17.6422905">
        <ele>18.4023</ele>
        <time>2013-05-22T17:28:07Z</time>
      </trkpt>
      <trkpt lat="59.9039004" lon="17.6422611">
        <ele>18.4023</ele>
        <time>2013-05-22T17:28:08Z</time>
      </trkpt>
      <trkpt lat="59.9038429" lon="17.6422288">
        <ele>18.4023</ele>
        <time>2013-05-22T17:28:09Z</time>
      </trkpt>
      <trkpt lat="59.9037858" lon="17.6421974">
        <ele>18.4023</ele>
        <time>2013-05-22T17:28:10Z</time>
      </trkpt>
      <trkpt lat="59.9037286" lon="17.642171">
        <ele>18.4023</ele>
        <time>2013-05-22T17:28:11Z</time>
      </trkpt>
      <trkpt lat="59.9036713" lon="17.6421451">
        <ele>18.4023</ele>
        <time>2013-05-22T17:28:12Z</time>
      </trkpt>
      <trkpt lat="59.9036133" lon="17.6421187">
        <ele>18.4023</ele>
        <time>2013-05-22T17:28:13Z</time>
      </trkpt>
      <trkpt lat="59.9035547" lon="17.6420921">
        <ele>18.4023</ele>
        <time>2013-05-22T17:28:14Z</time>
      </trkpt>
      <trkpt lat="59.9034953" lon="17.6420632">
        <ele>18.4023</ele>
        <time>2013-05-22T17:28:15Z</time>
      </trkpt>
      <trkpt lat="59.9034357" lon="17.6420322">
        <ele>18.4023</ele>
        <time>2013-05-22T17:28:16Z</time>
      </trkpt>
      <trkpt lat="59.9033764" lon="17.6420014">
        <ele>18.4023</ele>
        <time>2013-05-22T17:28:17Z</time>
      </trkpt>
      <trkpt lat="59.9033171" lon="17.6419721">
        <ele>18.4023</ele>
        <time>2013-05-22T17:28:18Z</time>
      </trkpt>
      <trkpt lat="59.9032579" lon="17.6419437">
        <ele>18.4023</ele>
        <time>2013-05-22T17:28:19Z</time>
      </trkpt>
      <trkpt lat="59.9031985" lon="17.6419157">
        <ele>18.4023</ele>
        <time>2013-05-22T17:28:20Z</time>
      </trkpt>
      <trkpt lat="59.9031397" lon="17.6418879">
        <ele>18.8831</ele>
        <time>2013-05-22T17:28:21Z</time>
      </trkpt>
      <trkpt lat="59.9030811" lon="17.6418605">
        <ele>18.8831</ele>
        <time>2013-05-22T17:28:22Z</time>
      </trkpt>
      <trkpt lat="59.9030227" lon="17.6418321">
        <ele>18.8831</ele>
        <time>2013-05-22T17:28:23Z</time>
      </trkpt>
      <trkpt lat="59.9029647" lon="17.6418017">
        <ele>18.8831</ele>
        <time>2013-05-22T17:28:24Z</time>
      </trkpt>
      <trkpt lat="59.9029072" lon="17.6417688">
        <ele>18.8831</ele>
        <time>2013-05-22T17:28:25Z</time>
      </trkpt>
      <trkpt lat="59.9028504" lon="17.6417351">
        <ele>18.8831</ele>
        <time>2013-05-22T17:28:26Z</time>
      </trkpt>
      <trkpt lat="59.9027943" lon="17.6417013">
        <ele>19.3638</ele>
        <time>2013-05-22T17:28:27Z</time>
      </trkpt>
      <trkpt lat="59.9027388" lon="17.6416675">
        <ele>19.3638</ele>
        <time>2013-05-22T17:28:28Z</time>
      </trkpt>
      <trkpt lat="59.9026839" lon="17.6416348">
        <ele>19.3638</ele>
        <time>2013-05-22T17:28:29Z</time>
      </trkpt>
      <trkpt lat="59.9026295" lon="17.6416023">
        <ele>19.3638</ele>
        <time>2013-05-22T17:28:30Z</time>
      </trkpt>
      <trkpt lat="59.9025753" lon="17.6415675">
        <ele>19.3638</ele>
        <time>2013-05-22T17:28:31Z</time>
      </trkpt>
      <trkpt lat="59.9025212" lon="17.641531">
        <ele>19.3638</ele>
        <time>2013-05-22T17:28:32Z</time>
      </trkpt>
      <trkpt lat="59.9024667" lon="17.6414953">
        <ele>19.8444</ele>
        <time>2013-05-22T17:28:33Z</time>
      </trkpt>
      <trkpt lat="59.902412" lon="17.6414597">
        <ele>19.8444</ele>
        <time>2013-05-22T17:28:34Z</time>
      </trkpt>
      <trkpt lat="59.9023575" lon="17.6414222">
        <ele>19.8444</ele>
        <time>2013-05-22T17:28:35Z</time>
      </trkpt>
      <trkpt lat="59.9023023" lon="17.641384">
        <ele>19.8444</ele>
        <time>2013-05-22T17:28:36Z</time>
      </trkpt>
      <trkpt lat="59.9022468" lon="17.6413458">
        <ele>19.8444</ele>
        <time>2013-05-22T17:28:37Z</time>
      </trkpt>
      <trkpt lat="59.9021914" lon="17.6413059">
        <ele>19.8444</ele>
        <time>2013-05-22T17:28:38Z</time>
      </trkpt>
      <trkpt lat="59.9021364" lon="17.6412658">
        <ele>20.325</ele>
        <time>2013-05-22T17:28:39Z</time>
      </trkpt>
      <trkpt lat="59.9020816" lon="17.6412249">
        <ele>20.325</ele>
        <time>2013-05-22T17:28:40Z</time>
      </trkpt>
      <trkpt lat="59.9020272" lon="17.6411814">
        <ele>20.325</ele>
        <time>2013-05-22T17:28:41Z</time>
      </trkpt>
      <trkpt lat="59.9019727" lon="17.6411369">
        <ele>20.325</ele>
        <time>2013-05-22T17:28:42Z</time>
      </trkpt>
      <trkpt lat="59.9019177" lon="17.641093">
        <ele>20.325</ele>
        <time>2013-05-22T17:28:43Z</time>
      </trkpt>
      <trkpt lat="59.9018622" lon="17.6410491">
        <ele>20.325</ele>
        <time>2013-05-22T17:28:44Z</time>
      </trkpt>
      <trkpt lat="59.9018069" lon="17.641004">
        <ele>20.325</ele>
        <time>2013-05-22T17:28:45Z</time>
      </trkpt>
      <trkpt lat="59.9017521" lon="17.6409587">
        <ele>20.8057</ele>
        <time>2013-05-22T17:28:46Z</time>
      </trkpt>
      <trkpt lat="59.9016975" lon="17.6409122">
        <ele>20.8057</ele>
        <time>2013-05-22T17:28:47Z</time>
      </trkpt>
      <trkpt lat="59.9016433" lon="17.6408645">
        <ele>20.8057</ele>
        <time>2013-05-22T17:28:48Z</time>
      </trkpt>
      <trkpt lat="59.9015893" lon="17.6408164">
        <ele>20.8057</ele>
        <time>2013-05-22T17:28:49Z</time>
      </trkpt>
      <trkpt lat="59.901535" lon="17.6407685">
        <ele>20.8057</ele>
        <time>2013-05-22T17:28:50Z</time>
      </trkpt>
      <trkpt lat="59.901481" lon="17.6407193">
        <ele>20.8057</ele>
        <time>2013-05-22T17:28:51Z</time>
      </trkpt>
      <trkpt lat="59.9014269" lon="17.6406681">
        <ele>21.2864</ele>
        <time>2013-05-22T17:28:52Z</time>
      </trkpt>
      <trkpt lat="59.9013734" lon="17.6406162">
        <ele>21.2864</ele>
        <time>2013-05-22T17:28:53Z</time>
      </trkpt>
      <trkpt lat="59.90132" lon="17.6405647">
        <ele>21.2864</ele>
        <time>2013-05-22T17:28:54Z</time>
      </trkpt>
      <trkpt lat="59.901267" lon="17.6405133">
        <ele>21.2864</ele>
        <time>2013-05-22T17:28:55Z</time>
      </trkpt>
      <trkpt lat="59.9012144" lon="17.6404606">
        <ele>21.2864</ele>
        <time>2013-05-22T17:28:56Z</time>
      </trkpt>
      <trkpt lat="59.9011626" lon="17.6404082">
        <ele>21.2864</ele>
        <time>2013-05-22T17:28:57Z</time>
      </trkpt>
      <trkpt lat="59.9011109" lon="17.6403573">
        <ele>21.2864</ele>
        <time>2013-05-22T17:28:58Z</time>
      </trkpt>
      <trkpt lat="59.9010594" lon="17.640307">
        <ele>21.767</ele>
        <time>2013-05-22T17:28:59Z</time>
      </trkpt>
      <trkpt lat="59.9010078" lon="17.6402569">
        <ele>21.767</ele>
        <time>2013-05-22T17:29:00Z</time>
      </trkpt>
      <trkpt lat="59.9009564" lon="17.6402065">
        <ele>21.767</ele>
        <time>2013-05-22T17:29:01Z</time>
      </trkpt>
      <trkpt lat="59.900905" lon="17.6401548">
        <ele>21.767</ele>
        <time>2013-05-22T17:29:02Z</time>
      </trkpt>
      <trkpt lat="59.9008538" lon="17.640103">
        <ele>21.767</ele>
        <time>2013-05-22T17:29:03Z</time>
      </trkpt>
      <trkpt lat="59.9008026" lon="17.6400528">
        <ele>21.767</ele>
        <time>2013-05-22T17:29:04Z</time>
      </trkpt>
      <trkpt lat="59.9007519" lon="17.6400013">
        <ele>21.767</ele>
        <time>2013-05-22T17:29:05Z</time>
      </trkpt>
      <trkpt lat="59.900702" lon="17.6399487">
        <ele>21.767</ele>
        <time>2013-05-22T17:29:06Z</time>
      </trkpt>
      <trkpt lat="59.9006517" lon="17.639899">
        <ele>21.767</ele>
        <time>2013-05-22T17:29:07Z</time>
      </trkpt>
      <trkpt lat="59.9006014" lon="17.6398512">
        <ele>21.767</ele>
        <time>2013-05-22T17:29:08Z</time>
      </trkpt>
      <trkpt lat="59.9005513" lon="17.639804">
        <ele>21.767</ele>
        <time>2013-05-22T17:29:09Z</time>
      </trkpt>
      <trkpt lat="59.9005011" lon="17.639756">
        <ele>21.767</ele>
        <time>2013-05-22T17:29:10Z</time>
      </trkpt>
      <trkpt lat="59.9004514" lon="17.6397057">
        <ele>21.767</ele>
        <time>2013-05-22T17:29:11Z</time>
      </trkpt>
      <trkpt lat="59.9004017" lon="17.6396548">
        <ele>21.767</ele>
        <time>2013-05-22T17:29:12Z</time>
      </trkpt>
      <trkpt lat="59.9003519" lon="17.6396057">
        <ele>21.767</ele>
        <time>2013-05-22T17:29:13Z</time>
      </trkpt>
      <trkpt lat="59.9003021" lon="17.639556">
        <ele>21.767</ele>
        <time>2013-05-22T17:29:14Z</time>
      </trkpt>
      <trkpt lat="59.900252" lon="17.6395049">
        <ele>21.767</ele>
        <time>2013-05-22T17:29:15Z</time>
      </trkpt>
      <trkpt lat="59.9002025" lon="17.6394533">
        <ele>21.767</ele>
        <time>2013-05-22T17:29:16Z</time>
      </trkpt>
      <trkpt lat="59.9001519" lon="17.639407">
        <ele>22.2476</ele>
        <time>2013-05-22T17:29:17Z</time>
      </trkpt>
      <trkpt lat="59.9000971" lon="17.6393539">
        <ele>22.2476</ele>
        <time>2013-05-22T17:29:18Z</time>
      </trkpt>
      <trkpt lat="59.9000429" lon="17.6392956">
        <ele>22.2476</ele>
        <time>2013-05-22T17:29:19Z</time>
      </trkpt>
      <trkpt lat="59.8999903" lon="17.6392427">
        <ele>22.2476</ele>
        <time>2013-05-22T17:29:20Z</time>
      </trkpt>
      <trkpt lat="59.899938" lon="17.6391907">
        <ele>22.2476</ele>
        <time>2013-05-22T17:29:21Z</time>
      </trkpt>
      <trkpt lat="59.8998852" lon="17.6391395">
        <ele>22.7283</ele>
        <time>2013-05-22T17:29:22Z</time>
      </trkpt>
      <trkpt lat="59.8998327" lon="17.6390878">
        <ele>22.7283</ele>
        <time>2013-05-22T17:29:23Z</time>
      </trkpt>
      <trkpt lat="59.8997795" lon="17.6390366">
        <ele>23.209</ele>
        <time>2013-05-22T17:29:24Z</time>
      </trkpt>
      <trkpt lat="59.8997244" lon="17.6389869">
        <ele>23.6896</ele>
        <time>2013-05-22T17:29:25Z</time>
      </trkpt>
      <trkpt lat="59.8996707" lon="17.6389365">
        <ele>24.1703</ele>
        <time>2013-05-22T17:29:26Z</time>
      </trkpt>
      <trkpt lat="59.8996178" lon="17.6388863">
        <ele>24.651</ele>
        <time>2013-05-22T17:29:27Z</time>
      </trkpt>
      <trkpt lat="59.8995653" lon="17.6388356">
        <ele>25.1317</ele>
        <time>2013-05-22T17:29:28Z</time>
      </trkpt>
      <trkpt lat="59.8995132" lon="17.6387843">
        <ele>25.6123</ele>
        <time>2013-05-22T17:29:29Z</time>
      </trkpt>
      <trkpt lat="59.8994619" lon="17.6387335">
        <ele>25.6123</ele>
        <time>2013-05-22T17:29:30Z</time>
      </trkpt>
      <trkpt lat="59.8994107" lon="17.6386844">
        <ele>26.5736</ele>
        <time>2013-05-22T17:29:31Z</time>
      </trkpt>
      <trkpt lat="59.8993612" lon="17.638636">
        <ele>26.5736</ele>
        <time>2013-05-22T17:29:32Z</time>
      </trkpt>
      <trkpt lat="59.899312" lon="17.638587">
        <ele>26.5736</ele>
        <time>2013-05-22T17:29:33Z</time>
      </trkpt>
      <trkpt lat="59.8992624" lon="17.6385397">
        <ele>26.5736</ele>
        <time>2013-05-22T17:29:34Z</time>
      </trkpt>
      <trkpt lat="59.8992139" lon="17.6384932">
        <ele>27.0543</ele>
        <time>2013-05-22T17:29:35Z</time>
      </trkpt>
      <trkpt lat="59.8991651" lon="17.6384465">
        <ele>27.0543</ele>
        <time>2013-05-22T17:29:36Z</time>
      </trkpt>
      <trkpt lat="59.8991149" lon="17.6383994">
        <ele>27.0543</ele>
        <time>2013-05-22T17:29:37Z</time>
      </trkpt>
      <trkpt lat="59.8990641" lon="17.6383517">
        <ele>27.0543</ele>
        <time>2013-05-22T17:29:38Z</time>
      </trkpt>
      <trkpt lat="59.8990137" lon="17.6383038">
        <ele>27.0543</ele>
        <time>2013-05-22T17:29:39Z</time>
      </trkpt>
      <trkpt lat="59.8989627" lon="17.6382604">
        <ele>27.0543</ele>
        <time>2013-05-22T17:29:40Z</time>
      </trkpt>
      <trkpt lat="59.8989103" lon="17.6382227">
        <ele>27.0543</ele>
        <time>2013-05-22T17:29:41Z</time>
      </trkpt>
      <trkpt lat="59.8988567" lon="17.6381935">
        <ele>27.0543</ele>
        <time>2013-05-22T17:29:42Z</time>
      </trkpt>
      <trkpt lat="59.8988016" lon="17.6381797">
        <ele>27.0543</ele>
        <time>2013-05-22T17:29:43Z</time>
      </trkpt>
      <trkpt lat="59.8987451" lon="17.638185">
        <ele>26.5736</ele>
        <time>2013-05-22T17:29:44Z</time>
      </trkpt>
      <trkpt lat="59.8986849" lon="17.6382013">
        <ele>27.0543</ele>
        <time>2013-05-22T17:29:45Z</time>
      </trkpt>
      <trkpt lat="59.8986238" lon="17.6382085">
        <ele>27.0543</ele>
        <time>2013-05-22T17:29:46Z</time>
      </trkpt>
      <trkpt lat="59.8985642" lon="17.6381916">
        <ele>27.0543</ele>
        <time>2013-05-22T17:29:47Z</time>
      </trkpt>
      <trkpt lat="59.8985063" lon="17.6381543">
        <ele>27.5349</ele>
        <time>2013-05-22T17:29:48Z</time>
      </trkpt>
      <trkpt lat="59.898449" lon="17.6381063">
        <ele>27.5349</ele>
        <time>2013-05-22T17:29:49Z</time>
      </trkpt>
      <trkpt lat="59.8983915" lon="17.6380562">
        <ele>27.5349</ele>
        <time>2013-05-22T17:29:50Z</time>
      </trkpt>
      <trkpt lat="59.8983333" lon="17.6380071">
        <ele>27.5349</ele>
        <time>2013-05-22T17:29:51Z</time>
      </trkpt>
      <trkpt lat="59.8982756" lon="17.6379581">
        <ele>27.5349</ele>
        <time>2013-05-22T17:29:52Z</time>
      </trkpt>
      <trkpt lat="59.898218" lon="17.6379088">
        <ele>27.5349</ele>
        <time>2013-05-22T17:29:53Z</time>
      </trkpt>
      <trkpt lat="59.8981607" lon="17.6378591">
        <ele>28.0155</ele>
        <time>2013-05-22T17:29:54Z</time>
      </trkpt>
      <trkpt lat="59.8981036" lon="17.6378074">
        <ele>28.0155</ele>
        <time>2013-05-22T17:29:55Z</time>
      </trkpt>
      <trkpt lat="59.8980465" lon="17.6377529">
        <ele>28.0155</ele>
        <time>2013-05-22T17:29:56Z</time>
      </trkpt>
      <trkpt lat="59.8979903" lon="17.6376919">
        <ele>28.0155</ele>
        <time>2013-05-22T17:29:57Z</time>
      </trkpt>
      <trkpt lat="59.8979374" lon="17.6376208">
        <ele>28.0155</ele>
        <time>2013-05-22T17:29:58Z</time>
      </trkpt>
      <trkpt lat="59.8978887" lon="17.6375419">
        <ele>28.0155</ele>
        <time>2013-05-22T17:29:59Z</time>
      </trkpt>
      <trkpt lat="59.8978437" lon="17.6374576">
        <ele>28.4962</ele>
        <time>2013-05-22T17:30:00Z</time>
      </trkpt>
      <trkpt lat="59.8978013" lon="17.6373721">
        <ele>28.4962</ele>
        <time>2013-05-22T17:30:01Z</time>
      </trkpt>
      <trkpt lat="59.8977599" lon="17.6372922">
        <ele>28.4962</ele>
        <time>2013-05-22T17:30:02Z</time>
      </trkpt>
      <trkpt lat="59.8977157" lon="17.637225">
        <ele>28.9769</ele>
        <time>2013-05-22T17:30:03Z</time>
      </trkpt>
      <trkpt lat="59.8976681" lon="17.6371727">
        <ele>28.9769</ele>
        <time>2013-05-22T17:30:04Z</time>
      </trkpt>
      <trkpt lat="59.8976188" lon="17.6371303">
        <ele>28.9769</ele>
        <time>2013-05-22T17:30:05Z</time>
      </trkpt>
      <trkpt lat="59.8975679" lon="17.637095">
        <ele>28.9769</ele>
        <time>2013-05-22T17:30:06Z</time>
      </trkpt>
      <trkpt lat="59.8975158" lon="17.6370629">
        <ele>28.9769</ele>
        <time>2013-05-22T17:30:07Z</time>
      </trkpt>
      <trkpt lat="59.8974631" lon="17.6370323">
        <ele>28.9769</ele>
        <time>2013-05-22T17:30:08Z</time>
      </trkpt>
      <trkpt lat="59.8974106" lon="17.6370019">
        <ele>28.9769</ele>
        <time>2013-05-22T17:30:09Z</time>
      </trkpt>
      <trkpt lat="59.8973578" lon="17.6369727">
        <ele>29.4575</ele>
        <time>2013-05-22T17:30:10Z</time>
      </trkpt>
      <trkpt lat="59.897305" lon="17.6369469">
        <ele>29.4575</ele>
        <time>2013-05-22T17:30:11Z</time>
      </trkpt>
      <trkpt lat="59.8972521" lon="17.6369235">
        <ele>29.4575</ele>
        <time>2013-05-22T17:30:12Z</time>
      </trkpt>
      <trkpt lat="59.8971984" lon="17.6369007">
        <ele>29.4575</ele>
        <time>2013-05-22T17:30:13Z</time>
      </trkpt>
      <trkpt lat="59.8971448" lon="17.6368765">
        <ele>29.4575</ele>
        <time>2013-05-22T17:30:14Z</time>
      </trkpt>
      <trkpt lat="59.8970913" lon="17.6368499">
        <ele>29.9381</ele>
        <time>2013-05-22T17:30:15Z</time>
      </trkpt>
      <trkpt lat="59.8970383" lon="17.6368199">
        <ele>29.9381</ele>
        <time>2013-05-22T17:30:16Z</time>
      </trkpt>
      <trkpt lat="59.8969863" lon="17.6367855">
        <ele>29.9381</ele>
        <time>2013-05-22T17:30:17Z</time>
      </trkpt>
      <trkpt lat="59.8969365" lon="17.6367447">
        <ele>29.9381</ele>
        <time>2013-05-22T17:30:18Z</time>
      </trkpt>
      <trkpt lat="59.8968881" lon="17.6367092">
        <ele>30.4188</ele>
        <time>2013-05-22T17:30:19Z</time>
      </trkpt>
      <trkpt lat="59.8968393" lon="17.6366841">
        <ele>30.4188</ele>
        <time>2013-05-22T17:30:20Z</time>
      </trkpt>
      <trkpt lat="59.8967912" lon="17.6366571">
        <ele>30.4188</ele>
        <time>2013-05-22T17:30:21Z</time>
      </trkpt>
      <trkpt lat="59.8967443" lon="17.6366278">
        <ele>30.4188</ele>
        <time>2013-05-22T17:30:22Z</time>
      </trkpt>
      <trkpt lat="59.8966972" lon="17.636603">
        <ele>30.4188</ele>
        <time>2013-05-22T17:30:23Z</time>
      </trkpt>
      <trkpt lat="59.8966497" lon="17.6365825">
        <ele>30.4188</ele>
        <time>2013-05-22T17:30:24Z</time>
      </trkpt>
      <trkpt lat="59.8966024" lon="17.6365649">
        <ele>30.4188</ele>
        <time>2013-05-22T17:30:25Z</time>
      </trkpt>
      <trkpt lat="59.8965543" lon="17.636553">
        <ele>30.4188</ele>
        <time>2013-05-22T17:30:26Z</time>
      </trkpt>
      <trkpt lat="59.8965045" lon="17.636541">
        <ele>30.4188</ele>
        <time>2013-05-22T17:30:27Z</time>
      </trkpt>
      <trkpt lat="59.8964542" lon="17.6365236">
        <ele>30.4188</ele>
        <time>2013-05-22T17:30:28Z</time>
      </trkpt>
      <trkpt lat="59.896404" lon="17.6365035">
        <ele>30.4188</ele>
        <time>2013-05-22T17:30:29Z</time>
      </trkpt>
      <trkpt lat="59.8963539" lon="17.6364832">
        <ele>30.4188</ele>
        <time>2013-05-22T17:30:30Z</time>
      </trkpt>
      <trkpt lat="59.8963032" lon="17.6364629">
        <ele>30.4188</ele>
        <time>2013-05-22T17:30:31Z</time>
      </trkpt>
      <trkpt lat="59.8962518" lon="17.6364426">
        <ele>30.4188</ele>
        <time>2013-05-22T17:30:32Z</time>
      </trkpt>
      <trkpt lat="59.8962" lon="17.6364219">
        <ele>30.4188</ele>
        <time>2013-05-22T17:30:33Z</time>
      </trkpt>
      <trkpt lat="59.8961488" lon="17.6364003">
        <ele>30.4188</ele>
        <time>2013-05-22T17:30:34Z</time>
      </trkpt>
      <trkpt lat="59.896097" lon="17.63638">
        <ele>30.4188</ele>
        <time>2013-05-22T17:30:35Z</time>
      </trkpt>
      <trkpt lat="59.8960449" lon="17.6363605">
        <ele>30.4188</ele>
        <time>2013-05-22T17:30:36Z</time>
      </trkpt>
      <trkpt lat="59.8959927" lon="17.636345">
        <ele>30.4188</ele>
        <time>2013-05-22T17:30:37Z</time>
      </trkpt>
      <trkpt lat="59.8959411" lon="17.6363395">
        <ele>30.4188</ele>
        <time>2013-05-22T17:30:38Z</time>
      </trkpt>
      <trkpt lat="59.8958899" lon="17.6363401">
        <ele>30.4188</ele>
        <time>2013-05-22T17:30:39Z</time>
      </trkpt>
      <trkpt lat="59.8958384" lon="17.6363434">
        <ele>30.4188</ele>
        <time>2013-05-22T17:30:40Z</time>
      </trkpt>
      <trkpt lat="59.895786" lon="17.6363501">
        <ele>30.4188</ele>
        <time>2013-05-22T17:30:41Z</time>
      </trkpt>
      <trkpt lat="59.8957322" lon="17.6363598">
        <ele>30.4188</ele>
        <time>2013-05-22T17:30:42Z</time>
      </trkpt>
      <trkpt lat="59.8956774" lon="17.6363729">
        <ele>30.4188</ele>
        <time>2013-05-22T17:30:43Z</time>
      </trkpt>
      <trkpt lat="59.8956217" lon="17.6363906">
        <ele>30.4188</ele>
        <time>2013-05-22T17:30:44Z</time>
      </trkpt>
      <trkpt lat="59.895565" lon="17.6364153">
        <ele>30.4188</ele>
        <time>2013-05-22T17:30:45Z</time>
      </trkpt>
      <trkpt lat="59.8955085" lon="17.6364458">
        <ele>30.4188</ele>
        <time>2013-05-22T17:30:46Z</time>
      </trkpt>
      <trkpt lat="59.8954527" lon="17.6364779">
        <ele>29.9381</ele>
        <time>2013-05-22T17:30:47Z</time>
      </trkpt>
      <trkpt lat="59.8953961" lon="17.6365126">
        <ele>29.9381</ele>
        <time>2013-05-22T17:30:48Z</time>
      </trkpt>
      <trkpt lat="59.8953387" lon="17.6365488">
        <ele>29.9381</ele>
        <time>2013-05-22T17:30:49Z</time>
      </trkpt>
      <trkpt lat="59.8952809" lon="17.6365851">
        <ele>29.9381</ele>
        <time>2013-05-22T17:30:50Z</time>
      </trkpt>
      <trkpt lat="59.895222" lon="17.6366216">
        <ele>29.4575</ele>
        <time>2013-05-22T17:30:51Z</time>
      </trkpt>
      <trkpt lat="59.8951623" lon="17.6366582">
        <ele>29.4575</ele>
        <time>2013-05-22T17:30:52Z</time>
      </trkpt>
      <trkpt lat="59.8951019" lon="17.6366966">
        <ele>29.4575</ele>
        <time>2013-05-22T17:30:53Z</time>
      </trkpt>
      <trkpt lat="59.8950412" lon="17.636739">
        <ele>29.4575</ele>
        <time>2013-05-22T17:30:54Z</time>
      </trkpt>
      <trkpt lat="59.8949792" lon="17.6367821">
        <ele>29.4575</ele>
        <time>2013-05-22T17:30:55Z</time>
      </trkpt>
      <trkpt lat="59.8949162" lon="17.636821">
        <ele>29.4575</ele>
        <time>2013-05-22T17:30:56Z</time>
      </trkpt>
      <trkpt lat="59.8948532" lon="17.6368558">
        <ele>28.9769</ele>
        <time>2013-05-22T17:30:57Z</time>
      </trkpt>
      <trkpt lat="59.89479" lon="17.6368894">
        <ele>28.9769</ele>
        <time>2013-05-22T17:30:58Z</time>
      </trkpt>
      <trkpt lat="59.8947277" lon="17.6369247">
        <ele>28.9769</ele>
        <time>2013-05-22T17:30:59Z</time>
      </trkpt>
      <trkpt lat="59.8946661" lon="17.6369648">
        <ele>28.9769</ele>
        <time>2013-05-22T17:31:00Z</time>
      </trkpt>
      <trkpt lat="59.8946041" lon="17.637008">
        <ele>28.9769</ele>
        <time>2013-05-22T17:31:01Z</time>
      </trkpt>
      <trkpt lat="59.8945414" lon="17.6370494">
        <ele>28.9769</ele>
        <time>2013-05-22T17:31:02Z</time>
      </trkpt>
      <trkpt lat="59.894479" lon="17.6370896">
        <ele>28.9769</ele>
        <time>2013-05-22T17:31:03Z</time>
      </trkpt>
      <trkpt lat="59.8944171" lon="17.6371287">
        <ele>28.4962</ele>
        <time>2013-05-22T17:31:04Z</time>
      </trkpt>
      <trkpt lat="59.8943555" lon="17.637166">
        <ele>28.4962</ele>
        <time>2013-05-22T17:31:05Z</time>
      </trkpt>
      <trkpt lat="59.8942938" lon="17.6372043">
        <ele>28.4962</ele>
        <time>2013-05-22T17:31:06Z</time>
      </trkpt>
      <trkpt lat="59.8942327" lon="17.6372451">
        <ele>28.4962</ele>
        <time>2013-05-22T17:31:07Z</time>
      </trkpt>
      <trkpt lat="59.8941718" lon="17.6372824">
        <ele>28.4962</ele>
        <time>2013-05-22T17:31:08Z</time>
      </trkpt>
      <trkpt lat="59.8941105" lon="17.6373193">
        <ele>28.0155</ele>
        <time>2013-05-22T17:31:09Z</time>
      </trkpt>
      <trkpt lat="59.8940497" lon="17.6373585">
        <ele>27.5349</ele>
        <time>2013-05-22T17:31:10Z</time>
      </trkpt>
      <trkpt lat="59.8939881" lon="17.6374012">
        <ele>27.5349</ele>
        <time>2013-05-22T17:31:11Z</time>
      </trkpt>
      <trkpt lat="59.8939263" lon="17.6374448">
        <ele>27.5349</ele>
        <time>2013-05-22T17:31:12Z</time>
      </trkpt>
      <trkpt lat="59.8938644" lon="17.6374918">
        <ele>27.5349</ele>
        <time>2013-05-22T17:31:13Z</time>
      </trkpt>
      <trkpt lat="59.8938015" lon="17.6375403">
        <ele>27.5349</ele>
        <time>2013-05-22T17:31:14Z</time>
      </trkpt>
      <trkpt lat="59.8937385" lon="17.6375867">
        <ele>27.5349</ele>
        <time>2013-05-22T17:31:15Z</time>
      </trkpt>
      <trkpt lat="59.8936764" lon="17.637634">
        <ele>27.5349</ele>
        <time>2013-05-22T17:31:16Z</time>
      </trkpt>
      <trkpt lat="59.8936152" lon="17.6376814">
        <ele>28.0155</ele>
        <time>2013-05-22T17:31:17Z</time>
      </trkpt>
      <trkpt lat="59.8935545" lon="17.6377244">
        <ele>28.0155</ele>
        <time>2013-05-22T17:31:18Z</time>
      </trkpt>
      <trkpt lat="59.893494" lon="17.6377642">
        <ele>28.0155</ele>
        <time>2013-05-22T17:31:19Z</time>
      </trkpt>
      <trkpt lat="59.8934352" lon="17.6378046">
        <ele>28.0155</ele>
        <time>2013-05-22T17:31:20Z</time>
      </trkpt>
      <trkpt lat="59.8933767" lon="17.6378462">
        <ele>28.0155</ele>
        <time>2013-05-22T17:31:21Z</time>
      </trkpt>
      <trkpt lat="59.8933179" lon="17.6378855">
        <ele>28.0155</ele>
        <time>2013-05-22T17:31:22Z</time>
      </trkpt>
      <trkpt lat="59.8932592" lon="17.6379224">
        <ele>27.5349</ele>
        <time>2013-05-22T17:31:23Z</time>
      </trkpt>
      <trkpt lat="59.8932006" lon="17.637957">
        <ele>27.5349</ele>
        <time>2013-05-22T17:31:24Z</time>
      </trkpt>
      <trkpt lat="59.8931422" lon="17.6379897">
        <ele>27.5349</ele>
        <time>2013-05-22T17:31:25Z</time>
      </trkpt>
      <trkpt lat="59.8930841" lon="17.6380198">
        <ele>27.0543</ele>
        <time>2013-05-22T17:31:26Z</time>
      </trkpt>
      <trkpt lat="59.8930257" lon="17.6380493">
        <ele>27.0543</ele>
        <time>2013-05-22T17:31:27Z</time>
      </trkpt>
      <trkpt lat="59.8929656" lon="17.638078">
        <ele>26.5736</ele>
        <time>2013-05-22T17:31:28Z</time>
      </trkpt>
      <trkpt lat="59.892904" lon="17.638101">
        <ele>26.5736</ele>
        <time>2013-05-22T17:31:29Z</time>
      </trkpt>
      <trkpt lat="59.8928418" lon="17.6381196">
        <ele>26.0929</ele>
        <time>2013-05-22T17:31:30Z</time>
      </trkpt>
      <trkpt lat="59.8927781" lon="17.6381268">
        <ele>25.6123</ele>
        <time>2013-05-22T17:31:31Z</time>
      </trkpt>
      <trkpt lat="59.892711" lon="17.6381221">
        <ele>25.6123</ele>
        <time>2013-05-22T17:31:32Z</time>
      </trkpt>
      <trkpt lat="59.8926422" lon="17.6381191">
        <ele>25.6123</ele>
        <time>2013-05-22T17:31:33Z</time>
      </trkpt>
      <trkpt lat="59.8925744" lon="17.6381186">
        <ele>26.0929</ele>
        <time>2013-05-22T17:31:34Z</time>
      </trkpt>
      <trkpt lat="59.8925076" lon="17.6381215">
        <ele>25.6123</ele>
        <time>2013-05-22T17:31:35Z</time>
      </trkpt>
      <trkpt lat="59.8924398" lon="17.6381334">
        <ele>25.6123</ele>
        <time>2013-05-22T17:31:36Z</time>
      </trkpt>
      <trkpt lat="59.8923709" lon="17.6381491">
        <ele>25.6123</ele>
        <time>2013-05-22T17:31:37Z</time>
      </trkpt>
      <trkpt lat="59.8923009" lon="17.6381629">
        <ele>25.6123</ele>
        <time>2013-05-22T17:31:38Z</time>
      </trkpt>
      <trkpt lat="59.8922296" lon="17.6381791">
        <ele>25.1317</ele>
        <time>2013-05-22T17:31:39Z</time>
      </trkpt>
      <trkpt lat="59.8921584" lon="17.6382098">
        <ele>25.1317</ele>
        <time>2013-05-22T17:31:40Z</time>
      </trkpt>
      <trkpt lat="59.8920918" lon="17.63826">
        <ele>25.1317</ele>
        <time>2013-05-22T17:31:41Z</time>
      </trkpt>
      <trkpt lat="59.892029" lon="17.6383184">
        <ele>24.651</ele>
        <time>2013-05-22T17:31:42Z</time>
      </trkpt>
      <trkpt lat="59.8919644" lon="17.638363">
        <ele>24.651</ele>
        <time>2013-05-22T17:31:43Z</time>
      </trkpt>
      <trkpt lat="59.8918973" lon="17.6383895">
        <ele>24.651</ele>
        <time>2013-05-22T17:31:44Z</time>
      </trkpt>
      <trkpt lat="59.8918304" lon="17.638403">
        <ele>24.1703</ele>
        <time>2013-05-22T17:31:45Z</time>
      </trkpt>
      <trkpt lat="59.8917637" lon="17.6384106">
        <ele>24.1703</ele>
        <time>2013-05-22T17:31:46Z</time>
      </trkpt>
      <trkpt lat="59.891697" lon="17.6384201">
        <ele>24.1703</ele>
        <time>2013-05-22T17:31:47Z</time>
      </trkpt>
      <trkpt lat="59.8916312" lon="17.6384304">
        <ele>24.1703</ele>
        <time>2013-05-22T17:31:48Z</time>
      </trkpt>
      <trkpt lat="59.8915671" lon="17.6384403">
        <ele>24.1703</ele>
        <time>2013-05-22T17:31:49Z</time>
      </trkpt>
      <trkpt lat="59.8915053" lon="17.6384595">
        <ele>23.6896</ele>
        <time>2013-05-22T17:31:50Z</time>
      </trkpt>
      <trkpt lat="59.8914443" lon="17.6384851">
        <ele>23.6896</ele>
        <time>2013-05-22T17:31:51Z</time>
      </trkpt>
      <trkpt lat="59.8913842" lon="17.6385029">
        <ele>23.6896</ele>
        <time>2013-05-22T17:31:52Z</time>
      </trkpt>
      <trkpt lat="59.891325" lon="17.6385118">
        <ele>23.6896</ele>
        <time>2013-05-22T17:31:53Z</time>
      </trkpt>
      <trkpt lat="59.8912675" lon="17.638518">
        <ele>23.6896</ele>
        <time>2013-05-22T17:31:54Z</time>
      </trkpt>
      <trkpt lat="59.8912111" lon="17.6385155">
        <ele>23.209</ele>
        <time>2013-05-22T17:31:55Z</time>
      </trkpt>
      <trkpt lat="59.8911551" lon="17.6385117">
        <ele>23.209</ele>
        <time>2013-05-22T17:31:56Z</time>
      </trkpt>
      <trkpt lat="59.8911055" lon="17.6385157">
        <ele>23.209</ele>
        <time>2013-05-22T17:31:57Z</time>
      </trkpt>
      <trkpt lat="59.891065" lon="17.6385277">
        <ele>23.209</ele>
        <time>2013-05-22T17:31:58Z</time>
      </trkpt>
      <trkpt lat="59.8910298" lon="17.6385465">
        <ele>23.209</ele>
        <time>2013-05-22T17:31:59Z</time>
      </trkpt>
      <trkpt lat="59.8909956" lon="17.638564">
        <ele>23.209</ele>
        <time>2013-05-22T17:32:00Z</time>
      </trkpt>
      <trkpt lat="59.8909649" lon="17.6385885">
        <ele>23.6896</ele>
        <time>2013-05-22T17:32:01Z</time>
      </trkpt>
      <trkpt lat="59.8909421" lon="17.6386277">
        <ele>23.6896</ele>
        <time>2013-05-22T17:32:02Z</time>
      </trkpt>
      <trkpt lat="59.8909257" lon="17.638674">
        <ele>23.6896</ele>
        <time>2013-05-22T17:32:03Z</time>
      </trkpt>
      <trkpt lat="59.890911" lon="17.6387206">
        <ele>23.6896</ele>
        <time>2013-05-22T17:32:04Z</time>
      </trkpt>
      <trkpt lat="59.8908962" lon="17.6387543">
        <ele>23.6896</ele>
        <time>2013-05-22T17:32:05Z</time>
      </trkpt>
      <trkpt lat="59.8908888" lon="17.6387683">
        <ele>23.6896</ele>
        <time>2013-05-22T17:32:06Z</time>
      </trkpt>
      <trkpt lat="59.8908864" lon="17.6387753">
        <ele>23.6896</ele>
        <time>2013-05-22T17:32:07Z</time>
      </trkpt>
      <trkpt lat="59.8908866" lon="17.638783">
        <ele>24.1703</ele>
        <time>2013-05-22T17:32:08Z</time>
      </trkpt>
      <trkpt lat="59.8908863" lon="17.6387937">
        <ele>25.1317</ele>
        <time>2013-05-22T17:32:09Z</time>
      </trkpt>
      <trkpt lat="59.8908847" lon="17.638798">
        <ele>25.6123</ele>
        <time>2013-05-22T17:32:10Z</time>
      </trkpt>
      <trkpt lat="59.8908837" lon="17.6388003">
        <ele>26.0929</ele>
        <time>2013-05-22T17:32:11Z</time>
      </trkpt>
      <trkpt lat="59.8908909" lon="17.6389804">
        <ele>34.7449</ele>
        <time>2013-05-22T17:32:30Z</time>
      </trkpt>
      <trkpt lat="59.8908835" lon="17.6390294">
        <ele>35.2255</ele>
        <time>2013-05-22T17:32:31Z</time>
      </trkpt>
      <trkpt lat="59.8908749" lon="17.6390851">
        <ele>35.2255</ele>
        <time>2013-05-22T17:32:32Z</time>
      </trkpt>
      <trkpt lat="59.8908662" lon="17.6391485">
        <ele>34.7449</ele>
        <time>2013-05-22T17:32:33Z</time>
      </trkpt>
      <trkpt lat="59.8908557" lon="17.6392212">
        <ele>34.7449</ele>
        <time>2013-05-22T17:32:34Z</time>
      </trkpt>
      <trkpt lat="59.8908454" lon="17.6392982">
        <ele>34.2642</ele>
        <time>2013-05-22T17:32:35Z</time>
      </trkpt>
      <trkpt lat="59.8908355" lon="17.6393789">
        <ele>33.7834</ele>
        <time>2013-05-22T17:32:36Z</time>
      </trkpt>
      <trkpt lat="59.8908196" lon="17.6394645">
        <ele>33.3029</ele>
        <time>2013-05-22T17:32:37Z</time>
      </trkpt>
      <trkpt lat="59.8908024" lon="17.6395545">
        <ele>32.8223</ele>
        <time>2013-05-22T17:32:38Z</time>
      </trkpt>
      <trkpt lat="59.8907836" lon="17.6396486">
        <ele>31.8607</ele>
        <time>2013-05-22T17:32:39Z</time>
      </trkpt>
      <trkpt lat="59.8907686" lon="17.6397432">
        <ele>31.3801</ele>
        <time>2013-05-22T17:32:40Z</time>
      </trkpt>
      <trkpt lat="59.890738" lon="17.6398632">
        <ele>30.8995</ele>
        <time>2013-05-22T17:32:41Z</time>
      </trkpt>
      <trkpt lat="59.8907125" lon="17.6399675">
        <ele>30.4188</ele>
        <time>2013-05-22T17:32:42Z</time>
      </trkpt>
      <trkpt lat="59.8906935" lon="17.6400673">
        <ele>29.9381</ele>
        <time>2013-05-22T17:32:43Z</time>
      </trkpt>
      <trkpt lat="59.8906732" lon="17.6401663">
        <ele>29.4575</ele>
        <time>2013-05-22T17:32:44Z</time>
      </trkpt>
      <trkpt lat="59.8906558" lon="17.6402673">
        <ele>28.9769</ele>
        <time>2013-05-22T17:32:45Z</time>
      </trkpt>
      <trkpt lat="59.890634" lon="17.6403673">
        <ele>28.4962</ele>
        <time>2013-05-22T17:32:46Z</time>
      </trkpt>
      <trkpt lat="59.8906097" lon="17.6404671">
        <ele>27.5349</ele>
        <time>2013-05-22T17:32:47Z</time>
      </trkpt>
      <trkpt lat="59.890586" lon="17.6405709">
        <ele>27.0543</ele>
        <time>2013-05-22T17:32:48Z</time>
      </trkpt>
      <trkpt lat="59.8905605" lon="17.6406744">
        <ele>27.0543</ele>
        <time>2013-05-22T17:32:49Z</time>
      </trkpt>
      <trkpt lat="59.8905371" lon="17.6407806">
        <ele>26.5736</ele>
        <time>2013-05-22T17:32:50Z</time>
      </trkpt>
      <trkpt lat="59.8905171" lon="17.6408936">
        <ele>27.0543</ele>
        <time>2013-05-22T17:32:51Z</time>
      </trkpt>
      <trkpt lat="59.8904993" lon="17.6410101">
        <ele>27.0543</ele>
        <time>2013-05-22T17:32:52Z</time>
      </trkpt>
      <trkpt lat="59.8904822" lon="17.6411263">
        <ele>27.5349</ele>
        <time>2013-05-22T17:32:53Z</time>
      </trkpt>
      <trkpt lat="59.8904594" lon="17.6412352">
        <ele>27.5349</ele>
        <time>2013-05-22T17:32:54Z</time>
      </trkpt>
      <trkpt lat="59.890429" lon="17.6413317">
        <ele>27.5349</ele>
        <time>2013-05-22T17:32:55Z</time>
      </trkpt>
      <trkpt lat="59.8903915" lon="17.6414104">
        <ele>27.0543</ele>
        <time>2013-05-22T17:32:56Z</time>
      </trkpt>
      <trkpt lat="59.8903541" lon="17.6414842">
        <ele>27.0543</ele>
        <time>2013-05-22T17:32:57Z</time>
      </trkpt>
      <trkpt lat="59.8903279" lon="17.6415727">
        <ele>26.5736</ele>
        <time>2013-05-22T17:32:58Z</time>
      </trkpt>
      <trkpt lat="59.8903106" lon="17.641674">
        <ele>26.5736</ele>
        <time>2013-05-22T17:32:59Z</time>
      </trkpt>
      <trkpt lat="59.8902963" lon="17.6417784">
        <ele>27.0543</ele>
        <time>2013-05-22T17:33:00Z</time>
      </trkpt>
      <trkpt lat="59.8902823" lon="17.6418846">
        <ele>27.0543</ele>
        <time>2013-05-22T17:33:01Z</time>
      </trkpt>
      <trkpt lat="59.8902677" lon="17.6419923">
        <ele>27.0543</ele>
        <time>2013-05-22T17:33:02Z</time>
      </trkpt>
      <trkpt lat="59.8902528" lon="17.642102">
        <ele>27.0543</ele>
        <time>2013-05-22T17:33:03Z</time>
      </trkpt>
      <trkpt lat="59.8902378" lon="17.6422139">
        <ele>27.0543</ele>
        <time>2013-05-22T17:33:04Z</time>
      </trkpt>
      <trkpt lat="59.8902222" lon="17.6423263">
        <ele>27.0543</ele>
        <time>2013-05-22T17:33:05Z</time>
      </trkpt>
      <trkpt lat="59.8902056" lon="17.6424384">
        <ele>27.0543</ele>
        <time>2013-05-22T17:33:06Z</time>
      </trkpt>
      <trkpt lat="59.8901937" lon="17.6425517">
        <ele>27.0543</ele>
        <time>2013-05-22T17:33:07Z</time>
      </trkpt>
      <trkpt lat="59.8901945" lon="17.6426646">
        <ele>27.0543</ele>
        <time>2013-05-22T17:33:08Z</time>
      </trkpt>
      <trkpt lat="59.8902099" lon="17.6427748">
        <ele>27.0543</ele>
        <time>2013-05-22T17:33:09Z</time>
      </trkpt>
      <trkpt lat="59.8902337" lon="17.6428812">
        <ele>27.0543</ele>
        <time>2013-05-22T17:33:10Z</time>
      </trkpt>
      <trkpt lat="59.8902622" lon="17.6429856">
        <ele>26.5736</ele>
        <time>2013-05-22T17:33:11Z</time>
      </trkpt>
      <trkpt lat="59.8902922" lon="17.6430915">
        <ele>26.5736</ele>
        <time>2013-05-22T17:33:12Z</time>
      </trkpt>
      <trkpt lat="59.890324" lon="17.643197">
        <ele>26.5736</ele>
        <time>2013-05-22T17:33:13Z</time>
      </trkpt>
      <trkpt lat="59.8903517" lon="17.643306">
        <ele>27.0543</ele>
        <time>2013-05-22T17:33:14Z</time>
      </trkpt>
      <trkpt lat="59.8903668" lon="17.6434219">
        <ele>27.0543</ele>
        <time>2013-05-22T17:33:15Z</time>
      </trkpt>
      <trkpt lat="59.8903693" lon="17.6435389">
        <ele>26.5736</ele>
        <time>2013-05-22T17:33:16Z</time>
      </trkpt>
      <trkpt lat="59.8903627" lon="17.6436546">
        <ele>26.5736</ele>
        <time>2013-05-22T17:33:17Z</time>
      </trkpt>
      <trkpt lat="59.8903527" lon="17.6437707">
        <ele>26.5736</ele>
        <time>2013-05-22T17:33:18Z</time>
      </trkpt>
      <trkpt lat="59.8903419" lon="17.6438864">
        <ele>26.5736</ele>
        <time>2013-05-22T17:33:19Z</time>
      </trkpt>
      <trkpt lat="59.8903311" lon="17.6440027">
        <ele>26.5736</ele>
        <time>2013-05-22T17:33:20Z</time>
      </trkpt>
      <trkpt lat="59.8903187" lon="17.6441187">
        <ele>26.0929</ele>
        <time>2013-05-22T17:33:21Z</time>
      </trkpt>
      <trkpt lat="59.8903052" lon="17.6442352">
        <ele>25.6123</ele>
        <time>2013-05-22T17:33:22Z</time>
      </trkpt>
      <trkpt lat="59.8902931" lon="17.6443535">
        <ele>25.6123</ele>
        <time>2013-05-22T17:33:23Z</time>
      </trkpt>
      <trkpt lat="59.8902811" lon="17.644472">
        <ele>25.6123</ele>
        <time>2013-05-22T17:33:24Z</time>
      </trkpt>
      <trkpt lat="59.8902687" lon="17.6445982">
        <ele>25.6123</ele>
        <time>2013-05-22T17:33:25Z</time>
      </trkpt>
      <trkpt lat="59.8902568" lon="17.6447233">
        <ele>25.6123</ele>
        <time>2013-05-22T17:33:26Z</time>
      </trkpt>
      <trkpt lat="59.8902456" lon="17.6448506">
        <ele>25.6123</ele>
        <time>2013-05-22T17:33:27Z</time>
      </trkpt>
      <trkpt lat="59.8902357" lon="17.6449795">
        <ele>25.6123</ele>
        <time>2013-05-22T17:33:28Z</time>
      </trkpt>
      <trkpt lat="59.8902262" lon="17.6451085">
        <ele>25.1317</ele>
        <time>2013-05-22T17:33:29Z</time>
      </trkpt>
      <trkpt lat="59.890215" lon="17.6452381">
        <ele>25.1317</ele>
        <time>2013-05-22T17:33:30Z</time>
      </trkpt>
      <trkpt lat="59.8902003" lon="17.6453701">
        <ele>25.1317</ele>
        <time>2013-05-22T17:33:31Z</time>
      </trkpt>
      <trkpt lat="59.8901835" lon="17.6455049">
        <ele>25.1317</ele>
        <time>2013-05-22T17:33:32Z</time>
      </trkpt>
      <trkpt lat="59.8901674" lon="17.6456422">
        <ele>24.651</ele>
        <time>2013-05-22T17:33:33Z</time>
      </trkpt>
      <trkpt lat="59.8901495" lon="17.6457784">
        <ele>24.651</ele>
        <time>2013-05-22T17:33:34Z</time>
      </trkpt>
      <trkpt lat="59.8901252" lon="17.6459092">
        <ele>24.651</ele>
        <time>2013-05-22T17:33:35Z</time>
      </trkpt>
      <trkpt lat="59.89009" lon="17.6460286">
        <ele>24.1703</ele>
        <time>2013-05-22T17:33:36Z</time>
      </trkpt>
      <trkpt lat="59.8900445" lon="17.6461378">
        <ele>23.6896</ele>
        <time>2013-05-22T17:33:37Z</time>
      </trkpt>
      <trkpt lat="59.8899941" lon="17.6462451">
        <ele>22.7283</ele>
        <time>2013-05-22T17:33:38Z</time>
      </trkpt>
      <trkpt lat="59.8899397" lon="17.6463584">
        <ele>22.2476</ele>
        <time>2013-05-22T17:33:39Z</time>
      </trkpt>
      <trkpt lat="59.8898859" lon="17.6464848">
        <ele>21.767</ele>
        <time>2013-05-22T17:33:40Z</time>
      </trkpt>
      <trkpt lat="59.8898333" lon="17.6466334">
        <ele>21.767</ele>
        <time>2013-05-22T17:33:41Z</time>
      </trkpt>
      <trkpt lat="59.889784" lon="17.646779">
        <ele>21.767</ele>
        <time>2013-05-22T17:33:42Z</time>
      </trkpt>
      <trkpt lat="59.8897456" lon="17.6469285">
        <ele>21.767</ele>
        <time>2013-05-22T17:33:43Z</time>
      </trkpt>
      <trkpt lat="59.8897118" lon="17.6470786">
        <ele>21.767</ele>
        <time>2013-05-22T17:33:44Z</time>
      </trkpt>
      <trkpt lat="59.8896787" lon="17.6472212">
        <ele>22.7283</ele>
        <time>2013-05-22T17:33:45Z</time>
      </trkpt>
      <trkpt lat="59.8896362" lon="17.6473763">
        <ele>23.6896</ele>
        <time>2013-05-22T17:33:46Z</time>
      </trkpt>
      <trkpt lat="59.8896022" lon="17.6474975">
        <ele>24.651</ele>
        <time>2013-05-22T17:33:47Z</time>
      </trkpt>
      <trkpt lat="59.8895633" lon="17.6476147">
        <ele>24.651</ele>
        <time>2013-05-22T17:33:48Z</time>
      </trkpt>
      <trkpt lat="59.8895479" lon="17.6477385">
        <ele>25.6123</ele>
        <time>2013-05-22T17:33:49Z</time>
      </trkpt>
      <trkpt lat="59.8895237" lon="17.6478423">
        <ele>26.0929</ele>
        <time>2013-05-22T17:33:50Z</time>
      </trkpt>
      <trkpt lat="59.8894871" lon="17.6479318">
        <ele>26.5736</ele>
        <time>2013-05-22T17:33:51Z</time>
      </trkpt>
      <trkpt lat="59.889456" lon="17.6480372">
        <ele>27.0543</ele>
        <time>2013-05-22T17:33:52Z</time>
      </trkpt>
      <trkpt lat="59.8894295" lon="17.6481487">
        <ele>28.0155</ele>
        <time>2013-05-22T17:33:53Z</time>
      </trkpt>
      <trkpt lat="59.8893997" lon="17.6482543">
        <ele>28.0155</ele>
        <time>2013-05-22T17:33:54Z</time>
      </trkpt>
      <trkpt lat="59.8893778" lon="17.6483689">
        <ele>28.0155</ele>
        <time>2013-05-22T17:33:55Z</time>
      </trkpt>
      <trkpt lat="59.8893533" lon="17.6484789">
        <ele>28.4962</ele>
        <time>2013-05-22T17:33:56Z</time>
      </trkpt>
      <trkpt lat="59.8893255" lon="17.6486089">
        <ele>28.4962</ele>
        <time>2013-05-22T17:33:57Z</time>
      </trkpt>
      <trkpt lat="59.8892924" lon="17.6487034">
        <ele>28.4962</ele>
        <time>2013-05-22T17:33:58Z</time>
      </trkpt>
      <trkpt lat="59.8892539" lon="17.6487956">
        <ele>28.4962</ele>
        <time>2013-05-22T17:33:59Z</time>
      </trkpt>
      <trkpt lat="59.8892148" lon="17.6488881">
        <ele>28.4962</ele>
        <time>2013-05-22T17:34:00Z</time>
      </trkpt>
      <trkpt lat="59.8891757" lon="17.6489827">
        <ele>28.9769</ele>
        <time>2013-05-22T17:34:01Z</time>
      </trkpt>
      <trkpt lat="59.8891396" lon="17.6490781">
        <ele>28.9769</ele>
        <time>2013-05-22T17:34:02Z</time>
      </trkpt>
      <trkpt lat="59.889107" lon="17.6491763">
        <ele>29.4575</ele>
        <time>2013-05-22T17:34:03Z</time>
      </trkpt>
      <trkpt lat="59.8890694" lon="17.6492746">
        <ele>29.4575</ele>
        <time>2013-05-22T17:34:04Z</time>
      </trkpt>
      <trkpt lat="59.8890252" lon="17.649374">
        <ele>29.4575</ele>
        <time>2013-05-22T17:34:05Z</time>
      </trkpt>
      <trkpt lat="59.8889779" lon="17.649469">
        <ele>28.9769</ele>
        <time>2013-05-22T17:34:06Z</time>
      </trkpt>
      <trkpt lat="59.8889308" lon="17.6495665">
        <ele>28.9769</ele>
        <time>2013-05-22T17:34:07Z</time>
      </trkpt>
      <trkpt lat="59.8888868" lon="17.6496724">
        <ele>28.9769</ele>
        <time>2013-05-22T17:34:08Z</time>
      </trkpt>
      <trkpt lat="59.8888469" lon="17.6497956">
        <ele>28.4962</ele>
        <time>2013-05-22T17:34:09Z</time>
      </trkpt>
      <trkpt lat="59.8888056" lon="17.6499063">
        <ele>28.4962</ele>
        <time>2013-05-22T17:34:10Z</time>
      </trkpt>
      <trkpt lat="59.8887666" lon="17.650023">
        <ele>28.4962</ele>
        <time>2013-05-22T17:34:11Z</time>
      </trkpt>
      <trkpt lat="59.8887218" lon="17.6501468">
        <ele>28.9769</ele>
        <time>2013-05-22T17:34:12Z</time>
      </trkpt>
      <trkpt lat="59.8886814" lon="17.6502606">
        <ele>28.9769</ele>
        <time>2013-05-22T17:34:13Z</time>
      </trkpt>
      <trkpt lat="59.8886371" lon="17.650416">
        <ele>29.4575</ele>
        <time>2013-05-22T17:34:14Z</time>
      </trkpt>
      <trkpt lat="59.8886044" lon="17.6505332">
        <ele>29.4575</ele>
        <time>2013-05-22T17:34:15Z</time>
      </trkpt>
      <trkpt lat="59.8885453" lon="17.650629">
        <ele>29.4575</ele>
        <time>2013-05-22T17:34:16Z</time>
      </trkpt>
      <trkpt lat="59.8885023" lon="17.6507725">
        <ele>29.9381</ele>
        <time>2013-05-22T17:34:17Z</time>
      </trkpt>
      <trkpt lat="59.888447" lon="17.6508668">
        <ele>29.9381</ele>
        <time>2013-05-22T17:34:18Z</time>
      </trkpt>
      <trkpt lat="59.8884075" lon="17.6509552">
        <ele>29.4575</ele>
        <time>2013-05-22T17:34:19Z</time>
      </trkpt>
      <trkpt lat="59.8883745" lon="17.6510425">
        <ele>28.4962</ele>
        <time>2013-05-22T17:34:20Z</time>
      </trkpt>
      <trkpt lat="59.8883045" lon="17.6511534">
        <ele>29.4575</ele>
        <time>2013-05-22T17:34:21Z</time>
      </trkpt>
      <trkpt lat="59.8882728" lon="17.6513031">
        <ele>30.4188</ele>
        <time>2013-05-22T17:34:22Z</time>
      </trkpt>
      <trkpt lat="59.8882176" lon="17.651418">
        <ele>31.3801</ele>
        <time>2013-05-22T17:34:23Z</time>
      </trkpt>
      <trkpt lat="59.8881875" lon="17.6515395">
        <ele>31.3801</ele>
        <time>2013-05-22T17:34:24Z</time>
      </trkpt>
      <trkpt lat="59.888144" lon="17.6516532">
        <ele>31.3801</ele>
        <time>2013-05-22T17:34:25Z</time>
      </trkpt>
      <trkpt lat="59.8880899" lon="17.6517593">
        <ele>31.8607</ele>
        <time>2013-05-22T17:34:26Z</time>
      </trkpt>
      <trkpt lat="59.8880521" lon="17.6518676">
        <ele>31.3801</ele>
        <time>2013-05-22T17:34:27Z</time>
      </trkpt>
      <trkpt lat="59.888017" lon="17.6519817">
        <ele>31.3801</ele>
        <time>2013-05-22T17:34:28Z</time>
      </trkpt>
      <trkpt lat="59.8879834" lon="17.6521022">
        <ele>30.8995</ele>
        <time>2013-05-22T17:34:29Z</time>
      </trkpt>
      <trkpt lat="59.887945" lon="17.6522178">
        <ele>30.4188</ele>
        <time>2013-05-22T17:34:30Z</time>
      </trkpt>
      <trkpt lat="59.8879051" lon="17.6523323">
        <ele>30.4188</ele>
        <time>2013-05-22T17:34:31Z</time>
      </trkpt>
      <trkpt lat="59.8878685" lon="17.6524508">
        <ele>30.4188</ele>
        <time>2013-05-22T17:34:32Z</time>
      </trkpt>
      <trkpt lat="59.8878233" lon="17.652524">
        <ele>29.4575</ele>
        <time>2013-05-22T17:34:33Z</time>
      </trkpt>
      <trkpt lat="59.8877808" lon="17.6526343">
        <ele>29.4575</ele>
        <time>2013-05-22T17:34:34Z</time>
      </trkpt>
      <trkpt lat="59.8877435" lon="17.6527504">
        <ele>28.9769</ele>
        <time>2013-05-22T17:34:35Z</time>
      </trkpt>
      <trkpt lat="59.8877065" lon="17.6528657">
        <ele>28.4962</ele>
        <time>2013-05-22T17:34:36Z</time>
      </trkpt>
      <trkpt lat="59.8876651" lon="17.6529756">
        <ele>28.4962</ele>
        <time>2013-05-22T17:34:37Z</time>
      </trkpt>
      <trkpt lat="59.8876228" lon="17.6530822">
        <ele>28.4962</ele>
        <time>2013-05-22T17:34:38Z</time>
      </trkpt>
      <trkpt lat="59.8875818" lon="17.6531844">
        <ele>28.4962</ele>
        <time>2013-05-22T17:34:39Z</time>
      </trkpt>
      <trkpt lat="59.8875428" lon="17.653285">
        <ele>28.4962</ele>
        <time>2013-05-22T17:34:40Z</time>
      </trkpt>
      <trkpt lat="59.8875056" lon="17.6533893">
        <ele>28.4962</ele>
        <time>2013-05-22T17:34:41Z</time>
      </trkpt>
      <trkpt lat="59.887467" lon="17.6535024">
        <ele>28.9769</ele>
        <time>2013-05-22T17:34:42Z</time>
      </trkpt>
      <trkpt lat="59.8874299" lon="17.653611">
        <ele>28.9769</ele>
        <time>2013-05-22T17:34:43Z</time>
      </trkpt>
      <trkpt lat="59.887389" lon="17.6537149">
        <ele>28.9769</ele>
        <time>2013-05-22T17:34:44Z</time>
      </trkpt>
      <trkpt lat="59.8873377" lon="17.6538349">
        <ele>28.9769</ele>
        <time>2013-05-22T17:34:45Z</time>
      </trkpt>
      <trkpt lat="59.8872956" lon="17.6539387">
        <ele>28.9769</ele>
        <time>2013-05-22T17:34:46Z</time>
      </trkpt>
      <trkpt lat="59.8872581" lon="17.6540488">
        <ele>28.9769</ele>
        <time>2013-05-22T17:34:47Z</time>
      </trkpt>
      <trkpt lat="59.8872146" lon="17.6541467">
        <ele>28.9769</ele>
        <time>2013-05-22T17:34:48Z</time>
      </trkpt>
      <trkpt lat="59.8871788" lon="17.6542627">
        <ele>28.9769</ele>
        <time>2013-05-22T17:34:49Z</time>
      </trkpt>
      <trkpt lat="59.8871401" lon="17.6543738">
        <ele>28.9769</ele>
        <time>2013-05-22T17:34:50Z</time>
      </trkpt>
      <trkpt lat="59.8871022" lon="17.6544856">
        <ele>28.4962</ele>
        <time>2013-05-22T17:34:51Z</time>
      </trkpt>
      <trkpt lat="59.8870649" lon="17.654599">
        <ele>28.4962</ele>
        <time>2013-05-22T17:34:52Z</time>
      </trkpt>
      <trkpt lat="59.8870246" lon="17.6547113">
        <ele>28.4962</ele>
        <time>2013-05-22T17:34:53Z</time>
      </trkpt>
      <trkpt lat="59.8869847" lon="17.6548198">
        <ele>28.4962</ele>
        <time>2013-05-22T17:34:54Z</time>
      </trkpt>
      <trkpt lat="59.8869497" lon="17.6549254">
        <ele>28.9769</ele>
        <time>2013-05-22T17:34:55Z</time>
      </trkpt>
      <trkpt lat="59.8869023" lon="17.6550381">
        <ele>28.4962</ele>
        <time>2013-05-22T17:34:56Z</time>
      </trkpt>
      <trkpt lat="59.8868609" lon="17.6551377">
        <ele>28.4962</ele>
        <time>2013-05-22T17:34:57Z</time>
      </trkpt>
      <trkpt lat="59.8868185" lon="17.6552265">
        <ele>28.0155</ele>
        <time>2013-05-22T17:34:58Z</time>
      </trkpt>
      <trkpt lat="59.8867728" lon="17.6553052">
        <ele>27.5349</ele>
        <time>2013-05-22T17:34:59Z</time>
      </trkpt>
      <trkpt lat="59.8867164" lon="17.6553627">
        <ele>27.5349</ele>
        <time>2013-05-22T17:35:00Z</time>
      </trkpt>
      <trkpt lat="59.8866519" lon="17.655418">
        <ele>27.0543</ele>
        <time>2013-05-22T17:35:01Z</time>
      </trkpt>
      <trkpt lat="59.8865884" lon="17.6554632">
        <ele>27.0543</ele>
        <time>2013-05-22T17:35:02Z</time>
      </trkpt>
      <trkpt lat="59.8865271" lon="17.6555072">
        <ele>26.5736</ele>
        <time>2013-05-22T17:35:03Z</time>
      </trkpt>
      <trkpt lat="59.886464" lon="17.6555481">
        <ele>26.5736</ele>
        <time>2013-05-22T17:35:04Z</time>
      </trkpt>
      <trkpt lat="59.8864041" lon="17.6555987">
        <ele>26.5736</ele>
        <time>2013-05-22T17:35:05Z</time>
      </trkpt>
      <trkpt lat="59.886348" lon="17.6556635">
        <ele>26.0929</ele>
        <time>2013-05-22T17:35:06Z</time>
      </trkpt>
      <trkpt lat="59.8862982" lon="17.6557442">
        <ele>26.0929</ele>
        <time>2013-05-22T17:35:07Z</time>
      </trkpt>
      <trkpt lat="59.8862506" lon="17.65584">
        <ele>26.0929</ele>
        <time>2013-05-22T17:35:08Z</time>
      </trkpt>
      <trkpt lat="59.886207" lon="17.6559402">
        <ele>26.0929</ele>
        <time>2013-05-22T17:35:09Z</time>
      </trkpt>
      <trkpt lat="59.8861677" lon="17.6560453">
        <ele>25.6123</ele>
        <time>2013-05-22T17:35:10Z</time>
      </trkpt>
      <trkpt lat="59.8861305" lon="17.6561499">
        <ele>25.1317</ele>
        <time>2013-05-22T17:35:11Z</time>
      </trkpt>
      <trkpt lat="59.8860953" lon="17.6562571">
        <ele>25.1317</ele>
        <time>2013-05-22T17:35:12Z</time>
      </trkpt>
      <trkpt lat="59.8860594" lon="17.6563643">
        <ele>24.651</ele>
        <time>2013-05-22T17:35:13Z</time>
      </trkpt>
      <trkpt lat="59.8860242" lon="17.6564752">
        <ele>24.651</ele>
        <time>2013-05-22T17:35:14Z</time>
      </trkpt>
      <trkpt lat="59.8859921" lon="17.6565892">
        <ele>24.651</ele>
        <time>2013-05-22T17:35:15Z</time>
      </trkpt>
      <trkpt lat="59.8859647" lon="17.6567049">
        <ele>23.6896</ele>
        <time>2013-05-22T17:35:16Z</time>
      </trkpt>
      <trkpt lat="59.8859438" lon="17.6568316">
        <ele>23.209</ele>
        <time>2013-05-22T17:35:17Z</time>
      </trkpt>
      <trkpt lat="59.8859282" lon="17.6569691">
        <ele>22.7283</ele>
        <time>2013-05-22T17:35:18Z</time>
      </trkpt>
      <trkpt lat="59.8859135" lon="17.6571114">
        <ele>22.2476</ele>
        <time>2013-05-22T17:35:19Z</time>
      </trkpt>
      <trkpt lat="59.885891" lon="17.6572528">
        <ele>22.2476</ele>
        <time>2013-05-22T17:35:20Z</time>
      </trkpt>
      <trkpt lat="59.8858564" lon="17.6573861">
        <ele>21.767</ele>
        <time>2013-05-22T17:35:21Z</time>
      </trkpt>
      <trkpt lat="59.8858098" lon="17.657507">
        <ele>21.2864</ele>
        <time>2013-05-22T17:35:22Z</time>
      </trkpt>
      <trkpt lat="59.8857554" lon="17.6575979">
        <ele>20.8057</ele>
        <time>2013-05-22T17:35:23Z</time>
      </trkpt>
      <trkpt lat="59.8856871" lon="17.6576989">
        <ele>20.325</ele>
        <time>2013-05-22T17:35:24Z</time>
      </trkpt>
      <trkpt lat="59.8856309" lon="17.6577951">
        <ele>20.325</ele>
        <time>2013-05-22T17:35:25Z</time>
      </trkpt>
      <trkpt lat="59.8855798" lon="17.6579009">
        <ele>19.8444</ele>
        <time>2013-05-22T17:35:26Z</time>
      </trkpt>
      <trkpt lat="59.885535" lon="17.6580153">
        <ele>20.325</ele>
        <time>2013-05-22T17:35:27Z</time>
      </trkpt>
      <trkpt lat="59.8855015" lon="17.6581392">
        <ele>20.8057</ele>
        <time>2013-05-22T17:35:28Z</time>
      </trkpt>
      <trkpt lat="59.8854783" lon="17.6582651">
        <ele>21.2864</ele>
        <time>2013-05-22T17:35:29Z</time>
      </trkpt>
      <trkpt lat="59.8854643" lon="17.6583908">
        <ele>21.767</ele>
        <time>2013-05-22T17:35:30Z</time>
      </trkpt>
      <trkpt lat="59.885456" lon="17.6585176">
        <ele>22.2476</ele>
        <time>2013-05-22T17:35:31Z</time>
      </trkpt>
      <trkpt lat="59.8854506" lon="17.658643">
        <ele>22.7283</ele>
        <time>2013-05-22T17:35:32Z</time>
      </trkpt>
      <trkpt lat="59.8854483" lon="17.6587681">
        <ele>22.7283</ele>
        <time>2013-05-22T17:35:33Z</time>
      </trkpt>
      <trkpt lat="59.8854486" lon="17.6588903">
        <ele>23.209</ele>
        <time>2013-05-22T17:35:34Z</time>
      </trkpt>
      <trkpt lat="59.8854485" lon="17.6590139">
        <ele>23.209</ele>
        <time>2013-05-22T17:35:35Z</time>
      </trkpt>
      <trkpt lat="59.8854465" lon="17.6591374">
        <ele>23.6896</ele>
        <time>2013-05-22T17:35:36Z</time>
      </trkpt>
      <trkpt lat="59.8854425" lon="17.6592622">
        <ele>23.6896</ele>
        <time>2013-05-22T17:35:37Z</time>
      </trkpt>
      <trkpt lat="59.8854368" lon="17.6593896">
        <ele>23.6896</ele>
        <time>2013-05-22T17:35:38Z</time>
      </trkpt>
      <trkpt lat="59.8854284" lon="17.6595215">
        <ele>23.6896</ele>
        <time>2013-05-22T17:35:39Z</time>
      </trkpt>
      <trkpt lat="59.8854166" lon="17.659657">
        <ele>23.6896</ele>
        <time>2013-05-22T17:35:40Z</time>
      </trkpt>
      <trkpt lat="59.8853988" lon="17.6597943">
        <ele>23.6896</ele>
        <time>2013-05-22T17:35:41Z</time>
      </trkpt>
      <trkpt lat="59.8853747" lon="17.6599351">
        <ele>23.6896</ele>
        <time>2013-05-22T17:35:42Z</time>
      </trkpt>
      <trkpt lat="59.8853425" lon="17.6600728">
        <ele>23.6896</ele>
        <time>2013-05-22T17:35:43Z</time>
      </trkpt>
      <trkpt lat="59.8852979" lon="17.6602013">
        <ele>23.6896</ele>
        <time>2013-05-22T17:35:44Z</time>
      </trkpt>
      <trkpt lat="59.885239" lon="17.6603117">
        <ele>23.6896</ele>
        <time>2013-05-22T17:35:45Z</time>
      </trkpt>
      <trkpt lat="59.8851685" lon="17.6603982">
        <ele>23.209</ele>
        <time>2013-05-22T17:35:46Z</time>
      </trkpt>
      <trkpt lat="59.885093" lon="17.6604697">
        <ele>23.209</ele>
        <time>2013-05-22T17:35:47Z</time>
      </trkpt>
      <trkpt lat="59.8850164" lon="17.6605386">
        <ele>22.7283</ele>
        <time>2013-05-22T17:35:48Z</time>
      </trkpt>
      <trkpt lat="59.8849393" lon="17.6606094">
        <ele>22.7283</ele>
        <time>2013-05-22T17:35:49Z</time>
      </trkpt>
      <trkpt lat="59.8848577" lon="17.6606725">
        <ele>22.2476</ele>
        <time>2013-05-22T17:35:52Z</time>
      </trkpt>
      <trkpt lat="59.8847816" lon="17.6607292">
        <ele>22.2476</ele>
        <time>2013-05-22T17:35:53Z</time>
      </trkpt>
      <trkpt lat="59.8847039" lon="17.6607752">
        <ele>22.7283</ele>
        <time>2013-05-22T17:35:54Z</time>
      </trkpt>
      <trkpt lat="59.8846308" lon="17.6608253">
        <ele>22.7283</ele>
        <time>2013-05-22T17:35:55Z</time>
      </trkpt>
      <trkpt lat="59.8845634" lon="17.6608825">
        <ele>23.209</ele>
        <time>2013-05-22T17:35:56Z</time>
      </trkpt>
      <trkpt lat="59.8844987" lon="17.6609411">
        <ele>23.209</ele>
        <time>2013-05-22T17:35:57Z</time>
      </trkpt>
      <trkpt lat="59.884436" lon="17.660997">
        <ele>23.6896</ele>
        <time>2013-05-22T17:35:58Z</time>
      </trkpt>
      <trkpt lat="59.8843745" lon="17.6610473">
        <ele>24.1703</ele>
        <time>2013-05-22T17:35:59Z</time>
      </trkpt>
      <trkpt lat="59.8843148" lon="17.661096">
        <ele>24.1703</ele>
        <time>2013-05-22T17:36:00Z</time>
      </trkpt>
      <trkpt lat="59.8842576" lon="17.6611498">
        <ele>24.651</ele>
        <time>2013-05-22T17:36:01Z</time>
      </trkpt>
      <trkpt lat="59.884203" lon="17.661211">
        <ele>24.651</ele>
        <time>2013-05-22T17:36:02Z</time>
      </trkpt>
      <trkpt lat="59.8841514" lon="17.6612793">
        <ele>25.1317</ele>
        <time>2013-05-22T17:36:03Z</time>
      </trkpt>
      <trkpt lat="59.8841028" lon="17.6613553">
        <ele>25.6123</ele>
        <time>2013-05-22T17:36:04Z</time>
      </trkpt>
      <trkpt lat="59.8840572" lon="17.6614368">
        <ele>25.6123</ele>
        <time>2013-05-22T17:36:05Z</time>
      </trkpt>
      <trkpt lat="59.884014" lon="17.6615238">
        <ele>26.0929</ele>
        <time>2013-05-22T17:36:06Z</time>
      </trkpt>
      <trkpt lat="59.8839745" lon="17.661618">
        <ele>26.0929</ele>
        <time>2013-05-22T17:36:07Z</time>
      </trkpt>
      <trkpt lat="59.8839382" lon="17.6617176">
        <ele>26.0929</ele>
        <time>2013-05-22T17:36:08Z</time>
      </trkpt>
      <trkpt lat="59.8839056" lon="17.6618237">
        <ele>26.5736</ele>
        <time>2013-05-22T17:36:09Z</time>
      </trkpt>
      <trkpt lat="59.8838772" lon="17.6619368">
        <ele>26.5736</ele>
        <time>2013-05-22T17:36:10Z</time>
      </trkpt>
      <trkpt lat="59.8838521" lon="17.6620557">
        <ele>26.5736</ele>
        <time>2013-05-22T17:36:11Z</time>
      </trkpt>
      <trkpt lat="59.8838298" lon="17.6621781">
        <ele>26.5736</ele>
        <time>2013-05-22T17:36:12Z</time>
      </trkpt>
      <trkpt lat="59.8838118" lon="17.6623032">
        <ele>26.5736</ele>
        <time>2013-05-22T17:36:13Z</time>
      </trkpt>
      <trkpt lat="59.8837959" lon="17.6624288">
        <ele>26.5736</ele>
        <time>2013-05-22T17:36:14Z</time>
      </trkpt>
      <trkpt lat="59.8837802" lon="17.6625542">
        <ele>26.5736</ele>
        <time>2013-05-22T17:36:15Z</time>
      </trkpt>
      <trkpt lat="59.8837647" lon="17.6626796">
        <ele>26.5736</ele>
        <time>2013-05-22T17:36:16Z</time>
      </trkpt>
      <trkpt lat="59.8837495" lon="17.662805">
        <ele>26.5736</ele>
        <time>2013-05-22T17:36:17Z</time>
      </trkpt>
      <trkpt lat="59.8837318" lon="17.6629297">
        <ele>26.5736</ele>
        <time>2013-05-22T17:36:18Z</time>
      </trkpt>
      <trkpt lat="59.8837113" lon="17.6630482">
        <ele>26.5736</ele>
        <time>2013-05-22T17:36:19Z</time>
      </trkpt>
      <trkpt lat="59.8836896" lon="17.6631657">
        <ele>26.5736</ele>
        <time>2013-05-22T17:36:20Z</time>
      </trkpt>
      <trkpt lat="59.8836664" lon="17.6632836">
        <ele>26.5736</ele>
        <time>2013-05-22T17:36:21Z</time>
      </trkpt>
      <trkpt lat="59.8836435" lon="17.6634011">
        <ele>27.0543</ele>
        <time>2013-05-22T17:36:22Z</time>
      </trkpt>
      <trkpt lat="59.883621" lon="17.6635164">
        <ele>27.0543</ele>
        <time>2013-05-22T17:36:23Z</time>
      </trkpt>
      <trkpt lat="59.8835954" lon="17.6636271">
        <ele>27.5349</ele>
        <time>2013-05-22T17:36:24Z</time>
      </trkpt>
      <trkpt lat="59.8835682" lon="17.6637337">
        <ele>27.5349</ele>
        <time>2013-05-22T17:36:25Z</time>
      </trkpt>
      <trkpt lat="59.8835412" lon="17.6638347">
        <ele>28.0155</ele>
        <time>2013-05-22T17:36:26Z</time>
      </trkpt>
      <trkpt lat="59.8835143" lon="17.6639337">
        <ele>28.0155</ele>
        <time>2013-05-22T17:36:27Z</time>
      </trkpt>
      <trkpt lat="59.8834869" lon="17.664031">
        <ele>28.4962</ele>
        <time>2013-05-22T17:36:28Z</time>
      </trkpt>
      <trkpt lat="59.8834575" lon="17.6641247">
        <ele>28.4962</ele>
        <time>2013-05-22T17:36:29Z</time>
      </trkpt>
      <trkpt lat="59.8834259" lon="17.6642149">
        <ele>28.4962</ele>
        <time>2013-05-22T17:36:30Z</time>
      </trkpt>
      <trkpt lat="59.8833922" lon="17.6642999">
        <ele>28.9769</ele>
        <time>2013-05-22T17:36:31Z</time>
      </trkpt>
      <trkpt lat="59.8833554" lon="17.664378">
        <ele>28.9769</ele>
        <time>2013-05-22T17:36:32Z</time>
      </trkpt>
      <trkpt lat="59.8833145" lon="17.6644483">
        <ele>28.9769</ele>
        <time>2013-05-22T17:36:33Z</time>
      </trkpt>
      <trkpt lat="59.8832695" lon="17.6645121">
        <ele>28.9769</ele>
        <time>2013-05-22T17:36:34Z</time>
      </trkpt>
      <trkpt lat="59.8832203" lon="17.6645666">
        <ele>28.4962</ele>
        <time>2013-05-22T17:36:35Z</time>
      </trkpt>
      <trkpt lat="59.8831657" lon="17.6646095">
        <ele>28.4962</ele>
        <time>2013-05-22T17:36:36Z</time>
      </trkpt>
      <trkpt lat="59.8831066" lon="17.6646421">
        <ele>28.0155</ele>
        <time>2013-05-22T17:36:37Z</time>
      </trkpt>
      <trkpt lat="59.8830448" lon="17.6646676">
        <ele>28.0155</ele>
        <time>2013-05-22T17:36:38Z</time>
      </trkpt>
      <trkpt lat="59.8829823" lon="17.6646905">
        <ele>27.5349</ele>
        <time>2013-05-22T17:36:39Z</time>
      </trkpt>
      <trkpt lat="59.8829188" lon="17.6647094">
        <ele>27.5349</ele>
        <time>2013-05-22T17:36:40Z</time>
      </trkpt>
      <trkpt lat="59.8828549" lon="17.6647189">
        <ele>27.0543</ele>
        <time>2013-05-22T17:36:41Z</time>
      </trkpt>
      <trkpt lat="59.8827909" lon="17.6647239">
        <ele>27.0543</ele>
        <time>2013-05-22T17:36:42Z</time>
      </trkpt>
      <trkpt lat="59.8827275" lon="17.6647323">
        <ele>27.0543</ele>
        <time>2013-05-22T17:36:43Z</time>
      </trkpt>
      <trkpt lat="59.8826644" lon="17.6647438">
        <ele>27.0543</ele>
        <time>2013-05-22T17:36:44Z</time>
      </trkpt>
      <trkpt lat="59.8826024" lon="17.6647557">
        <ele>26.5736</ele>
        <time>2013-05-22T17:36:45Z</time>
      </trkpt>
      <trkpt lat="59.882541" lon="17.6647703">
        <ele>26.5736</ele>
        <time>2013-05-22T17:36:46Z</time>
      </trkpt>
      <trkpt lat="59.8824804" lon="17.6647868">
        <ele>26.5736</ele>
        <time>2013-05-22T17:36:47Z</time>
      </trkpt>
      <trkpt lat="59.8824206" lon="17.6648032">
        <ele>26.5736</ele>
        <time>2013-05-22T17:36:48Z</time>
      </trkpt>
      <trkpt lat="59.8823609" lon="17.6648241">
        <ele>26.5736</ele>
        <time>2013-05-22T17:36:49Z</time>
      </trkpt>
      <trkpt lat="59.8823022" lon="17.6648504">
        <ele>26.5736</ele>
        <time>2013-05-22T17:36:50Z</time>
      </trkpt>
      <trkpt lat="59.8822443" lon="17.66488">
        <ele>26.5736</ele>
        <time>2013-05-22T17:36:51Z</time>
      </trkpt>
      <trkpt lat="59.8821868" lon="17.664914">
        <ele>26.5736</ele>
        <time>2013-05-22T17:36:52Z</time>
      </trkpt>
      <trkpt lat="59.8821308" lon="17.6649562">
        <ele>26.5736</ele>
        <time>2013-05-22T17:36:53Z</time>
      </trkpt>
      <trkpt lat="59.8820786" lon="17.6650104">
        <ele>26.5736</ele>
        <time>2013-05-22T17:36:54Z</time>
      </trkpt>
      <trkpt lat="59.8820313" lon="17.6650778">
        <ele>27.0543</ele>
        <time>2013-05-22T17:36:55Z</time>
      </trkpt>
      <trkpt lat="59.8819891" lon="17.665158">
        <ele>27.0543</ele>
        <time>2013-05-22T17:36:56Z</time>
      </trkpt>
      <trkpt lat="59.8819515" lon="17.6652473">
        <ele>27.0543</ele>
        <time>2013-05-22T17:36:57Z</time>
      </trkpt>
      <trkpt lat="59.8819179" lon="17.665344">
        <ele>27.0543</ele>
        <time>2013-05-22T17:36:58Z</time>
      </trkpt>
      <trkpt lat="59.8818877" lon="17.6654447">
        <ele>27.0543</ele>
        <time>2013-05-22T17:36:59Z</time>
      </trkpt>
      <trkpt lat="59.8818588" lon="17.6655486">
        <ele>27.0543</ele>
        <time>2013-05-22T17:37:00Z</time>
      </trkpt>
      <trkpt lat="59.88183" lon="17.665655">
        <ele>27.0543</ele>
        <time>2013-05-22T17:37:01Z</time>
      </trkpt>
      <trkpt lat="59.8817991" lon="17.6657609">
        <ele>27.0543</ele>
        <time>2013-05-22T17:37:02Z</time>
      </trkpt>
      <trkpt lat="59.8817657" lon="17.6658656">
        <ele>27.0543</ele>
        <time>2013-05-22T17:37:03Z</time>
      </trkpt>
      <trkpt lat="59.8817321" lon="17.6659718">
        <ele>27.0543</ele>
        <time>2013-05-22T17:37:04Z</time>
      </trkpt>
      <trkpt lat="59.8816998" lon="17.6660797">
        <ele>27.0543</ele>
        <time>2013-05-22T17:37:05Z</time>
      </trkpt>
      <trkpt lat="59.8816681" lon="17.6661886">
        <ele>27.0543</ele>
        <time>2013-05-22T17:37:06Z</time>
      </trkpt>
      <trkpt lat="59.8816357" lon="17.6662968">
        <ele>27.0543</ele>
        <time>2013-05-22T17:37:07Z</time>
      </trkpt>
      <trkpt lat="59.8816025" lon="17.6664038">
        <ele>27.0543</ele>
        <time>2013-05-22T17:37:08Z</time>
      </trkpt>
      <trkpt lat="59.8815692" lon="17.6665122">
        <ele>27.0543</ele>
        <time>2013-05-22T17:37:09Z</time>
      </trkpt>
      <trkpt lat="59.8815361" lon="17.6666231">
        <ele>27.0543</ele>
        <time>2013-05-22T17:37:10Z</time>
      </trkpt>
      <trkpt lat="59.8815021" lon="17.6667349">
        <ele>27.0543</ele>
        <time>2013-05-22T17:37:11Z</time>
      </trkpt>
      <trkpt lat="59.8814671" lon="17.6668464">
        <ele>27.0543</ele>
        <time>2013-05-22T17:37:12Z</time>
      </trkpt>
      <trkpt lat="59.8814326" lon="17.6669593">
        <ele>27.0543</ele>
        <time>2013-05-22T17:37:13Z</time>
      </trkpt>
      <trkpt lat="59.8813977" lon="17.6670733">
        <ele>27.0543</ele>
        <time>2013-05-22T17:37:14Z</time>
      </trkpt>
      <trkpt lat="59.8813621" lon="17.6671878">
        <ele>27.0543</ele>
        <time>2013-05-22T17:37:15Z</time>
      </trkpt>
      <trkpt lat="59.8813273" lon="17.6673033">
        <ele>27.0543</ele>
        <time>2013-05-22T17:37:16Z</time>
      </trkpt>
      <trkpt lat="59.8812925" lon="17.6674183">
        <ele>27.0543</ele>
        <time>2013-05-22T17:37:17Z</time>
      </trkpt>
      <trkpt lat="59.8812568" lon="17.6675327">
        <ele>27.0543</ele>
        <time>2013-05-22T17:37:18Z</time>
      </trkpt>
      <trkpt lat="59.8812208" lon="17.667647">
        <ele>27.5349</ele>
        <time>2013-05-22T17:37:19Z</time>
      </trkpt>
      <trkpt lat="59.881185" lon="17.6677611">
        <ele>27.5349</ele>
        <time>2013-05-22T17:37:20Z</time>
      </trkpt>
      <trkpt lat="59.8811494" lon="17.6678741">
        <ele>27.5349</ele>
        <time>2013-05-22T17:37:21Z</time>
      </trkpt>
      <trkpt lat="59.881114" lon="17.6679879">
        <ele>27.5349</ele>
        <time>2013-05-22T17:37:22Z</time>
      </trkpt>
      <trkpt lat="59.8810779" lon="17.6681019">
        <ele>27.5349</ele>
        <time>2013-05-22T17:37:23Z</time>
      </trkpt>
      <trkpt lat="59.8810419" lon="17.6682155">
        <ele>28.0155</ele>
        <time>2013-05-22T17:37:24Z</time>
      </trkpt>
      <trkpt lat="59.8810087" lon="17.6683275">
        <ele>28.4962</ele>
        <time>2013-05-22T17:37:25Z</time>
      </trkpt>
      <trkpt lat="59.8809777" lon="17.6684323">
        <ele>28.9769</ele>
        <time>2013-05-22T17:37:26Z</time>
      </trkpt>
      <trkpt lat="59.8809501" lon="17.6685212">
        <ele>29.4575</ele>
        <time>2013-05-22T17:37:27Z</time>
      </trkpt>
      <trkpt lat="59.8809216" lon="17.6685929">
        <ele>29.4575</ele>
        <time>2013-05-22T17:37:28Z</time>
      </trkpt>
      <trkpt lat="59.88089" lon="17.6686509">
        <ele>29.9381</ele>
        <time>2013-05-22T17:37:29Z</time>
      </trkpt>
      <trkpt lat="59.8808582" lon="17.6686986">
        <ele>30.4188</ele>
        <time>2013-05-22T17:37:30Z</time>
      </trkpt>
      <trkpt lat="59.8808263" lon="17.6687453">
        <ele>30.4188</ele>
        <time>2013-05-22T17:37:31Z</time>
      </trkpt>
      <trkpt lat="59.8807932" lon="17.6687988">
        <ele>30.8995</ele>
        <time>2013-05-22T17:37:32Z</time>
      </trkpt>
      <trkpt lat="59.8807593" lon="17.6688578">
        <ele>30.8995</ele>
        <time>2013-05-22T17:37:33Z</time>
      </trkpt>
      <trkpt lat="59.8807253" lon="17.668921">
        <ele>30.8995</ele>
        <time>2013-05-22T17:37:34Z</time>
      </trkpt>
      <trkpt lat="59.8806916" lon="17.6689881">
        <ele>30.8995</ele>
        <time>2013-05-22T17:37:35Z</time>
      </trkpt>
      <trkpt lat="59.8806597" lon="17.6690622">
        <ele>30.4188</ele>
        <time>2013-05-22T17:37:36Z</time>
      </trkpt>
      <trkpt lat="59.88063" lon="17.6691448">
        <ele>29.9381</ele>
        <time>2013-05-22T17:37:37Z</time>
      </trkpt>
      <trkpt lat="59.8806002" lon="17.6692339">
        <ele>29.9381</ele>
        <time>2013-05-22T17:37:38Z</time>
      </trkpt>
      <trkpt lat="59.8805704" lon="17.6693264">
        <ele>29.9381</ele>
        <time>2013-05-22T17:37:39Z</time>
      </trkpt>
      <trkpt lat="59.880541" lon="17.6694208">
        <ele>29.9381</ele>
        <time>2013-05-22T17:37:40Z</time>
      </trkpt>
      <trkpt lat="59.88051" lon="17.6695141">
        <ele>29.4575</ele>
        <time>2013-05-22T17:37:41Z</time>
      </trkpt>
      <trkpt lat="59.8804758" lon="17.6696052">
        <ele>29.4575</ele>
        <time>2013-05-22T17:37:42Z</time>
      </trkpt>
      <trkpt lat="59.8804376" lon="17.669694">
        <ele>29.4575</ele>
        <time>2013-05-22T17:37:43Z</time>
      </trkpt>
      <trkpt lat="59.8803961" lon="17.6697781">
        <ele>29.4575</ele>
        <time>2013-05-22T17:37:44Z</time>
      </trkpt>
      <trkpt lat="59.8803513" lon="17.669859">
        <ele>28.9769</ele>
        <time>2013-05-22T17:37:45Z</time>
      </trkpt>
      <trkpt lat="59.8803029" lon="17.6699377">
        <ele>28.9769</ele>
        <time>2013-05-22T17:37:46Z</time>
      </trkpt>
      <trkpt lat="59.8802534" lon="17.6700135">
        <ele>28.9769</ele>
        <time>2013-05-22T17:37:47Z</time>
      </trkpt>
      <trkpt lat="59.8802039" lon="17.6700894">
        <ele>28.9769</ele>
        <time>2013-05-22T17:37:48Z</time>
      </trkpt>
      <trkpt lat="59.8801547" lon="17.6701645">
        <ele>28.4962</ele>
        <time>2013-05-22T17:37:49Z</time>
      </trkpt>
      <trkpt lat="59.8801048" lon="17.6702373">
        <ele>28.4962</ele>
        <time>2013-05-22T17:37:50Z</time>
      </trkpt>
      <trkpt lat="59.880056" lon="17.6703031">
        <ele>28.4962</ele>
        <time>2013-05-22T17:37:51Z</time>
      </trkpt>
      <trkpt lat="59.8800086" lon="17.6703637">
        <ele>28.4962</ele>
        <time>2013-05-22T17:37:52Z</time>
      </trkpt>
      <trkpt lat="59.8799682" lon="17.6704182">
        <ele>28.4962</ele>
        <time>2013-05-22T17:37:53Z</time>
      </trkpt>
      <trkpt lat="59.8799356" lon="17.6704728">
        <ele>28.4962</ele>
        <time>2013-05-22T17:37:54Z</time>
      </trkpt>
      <trkpt lat="59.8799098" lon="17.6705233">
        <ele>28.4962</ele>
        <time>2013-05-22T17:37:55Z</time>
      </trkpt>
      <trkpt lat="59.8798806" lon="17.6705838">
        <ele>28.4962</ele>
        <time>2013-05-22T17:37:56Z</time>
      </trkpt>
      <trkpt lat="59.8798421" lon="17.6706506">
        <ele>29.4575</ele>
        <time>2013-05-22T17:37:57Z</time>
      </trkpt>
      <trkpt lat="59.8797998" lon="17.6707112">
        <ele>28.9769</ele>
        <time>2013-05-22T17:37:58Z</time>
      </trkpt>
      <trkpt lat="59.8797572" lon="17.6707754">
        <ele>28.9769</ele>
        <time>2013-05-22T17:37:59Z</time>
      </trkpt>
      <trkpt lat="59.879714" lon="17.6708314">
        <ele>28.9769</ele>
        <time>2013-05-22T17:38:00Z</time>
      </trkpt>
      <trkpt lat="59.8796663" lon="17.6708857">
        <ele>28.4962</ele>
        <time>2013-05-22T17:38:01Z</time>
      </trkpt>
      <trkpt lat="59.8796143" lon="17.6709439">
        <ele>28.4962</ele>
        <time>2013-05-22T17:38:02Z</time>
      </trkpt>
      <trkpt lat="59.8795641" lon="17.6710024">
        <ele>28.0155</ele>
        <time>2013-05-22T17:38:03Z</time>
      </trkpt>
      <trkpt lat="59.8795132" lon="17.6710667">
        <ele>27.5349</ele>
        <time>2013-05-22T17:38:04Z</time>
      </trkpt>
      <trkpt lat="59.8794611" lon="17.6711252">
        <ele>27.0543</ele>
        <time>2013-05-22T17:38:05Z</time>
      </trkpt>
      <trkpt lat="59.8794101" lon="17.671176">
        <ele>27.0543</ele>
        <time>2013-05-22T17:38:06Z</time>
      </trkpt>
      <trkpt lat="59.8793571" lon="17.6712301">
        <ele>26.0929</ele>
        <time>2013-05-22T17:38:07Z</time>
      </trkpt>
      <trkpt lat="59.8793036" lon="17.6712834">
        <ele>25.6123</ele>
        <time>2013-05-22T17:38:08Z</time>
      </trkpt>
      <trkpt lat="59.8792485" lon="17.6713334">
        <ele>25.6123</ele>
        <time>2013-05-22T17:38:09Z</time>
      </trkpt>
      <trkpt lat="59.8791938" lon="17.6713645">
        <ele>25.1317</ele>
        <time>2013-05-22T17:38:10Z</time>
      </trkpt>
      <trkpt lat="59.879142" lon="17.6713653">
        <ele>25.1317</ele>
        <time>2013-05-22T17:38:11Z</time>
      </trkpt>
      <trkpt lat="59.87909" lon="17.6713339">
        <ele>25.1317</ele>
        <time>2013-05-22T17:38:12Z</time>
      </trkpt>
      <trkpt lat="59.879039" lon="17.6712933">
        <ele>25.6123</ele>
        <time>2013-05-22T17:38:13Z</time>
      </trkpt>
      <trkpt lat="59.8789864" lon="17.6712634">
        <ele>25.6123</ele>
        <time>2013-05-22T17:38:14Z</time>
      </trkpt>
      <trkpt lat="59.878932" lon="17.6712551">
        <ele>25.6123</ele>
        <time>2013-05-22T17:38:15Z</time>
      </trkpt>
      <trkpt lat="59.8788773" lon="17.6712768">
        <ele>26.0929</ele>
        <time>2013-05-22T17:38:16Z</time>
      </trkpt>
      <trkpt lat="59.8788299" lon="17.6713257">
        <ele>25.6123</ele>
        <time>2013-05-22T17:38:17Z</time>
      </trkpt>
      <trkpt lat="59.8787989" lon="17.6714083">
        <ele>25.6123</ele>
        <time>2013-05-22T17:38:18Z</time>
      </trkpt>
      <trkpt lat="59.8787814" lon="17.6715077">
        <ele>25.1317</ele>
        <time>2013-05-22T17:38:19Z</time>
      </trkpt>
      <trkpt lat="59.8787773" lon="17.6716104">
        <ele>25.1317</ele>
        <time>2013-05-22T17:38:20Z</time>
      </trkpt>
      <trkpt lat="59.8787818" lon="17.6717126">
        <ele>25.1317</ele>
        <time>2013-05-22T17:38:21Z</time>
      </trkpt>
      <trkpt lat="59.8787882" lon="17.6718149">
        <ele>25.1317</ele>
        <time>2013-05-22T17:38:22Z</time>
      </trkpt>
      <trkpt lat="59.8787918" lon="17.6719167">
        <ele>25.1317</ele>
        <time>2013-05-22T17:38:23Z</time>
      </trkpt>
      <trkpt lat="59.8787902" lon="17.6720156">
        <ele>25.1317</ele>
        <time>2013-05-22T17:38:24Z</time>
      </trkpt>
      <trkpt lat="59.8787845" lon="17.6721152">
        <ele>25.1317</ele>
        <time>2013-05-22T17:38:25Z</time>
      </trkpt>
      <trkpt lat="59.8787767" lon="17.6722145">
        <ele>25.1317</ele>
        <time>2013-05-22T17:38:26Z</time>
      </trkpt>
      <trkpt lat="59.8787685" lon="17.6723141">
        <ele>25.1317</ele>
        <time>2013-05-22T17:38:27Z</time>
      </trkpt>
      <trkpt lat="59.8787639" lon="17.6724153">
        <ele>25.1317</ele>
        <time>2013-05-22T17:38:28Z</time>
      </trkpt>
      <trkpt lat="59.8787658" lon="17.6725165">
        <ele>25.6123</ele>
        <time>2013-05-22T17:38:29Z</time>
      </trkpt>
      <trkpt lat="59.8787735" lon="17.672615">
        <ele>25.6123</ele>
        <time>2013-05-22T17:38:30Z</time>
      </trkpt>
      <trkpt lat="59.8787829" lon="17.6727088">
        <ele>25.6123</ele>
        <time>2013-05-22T17:38:31Z</time>
      </trkpt>
      <trkpt lat="59.8787927" lon="17.6727993">
        <ele>25.6123</ele>
        <time>2013-05-22T17:38:32Z</time>
      </trkpt>
      <trkpt lat="59.8788011" lon="17.6728895">
        <ele>25.6123</ele>
        <time>2013-05-22T17:38:33Z</time>
      </trkpt>
      <trkpt lat="59.8788074" lon="17.6729794">
        <ele>25.6123</ele>
        <time>2013-05-22T17:38:34Z</time>
      </trkpt>
      <trkpt lat="59.8788083" lon="17.6730698">
        <ele>25.6123</ele>
        <time>2013-05-22T17:38:35Z</time>
      </trkpt>
      <trkpt lat="59.8788082" lon="17.6731612">
        <ele>25.6123</ele>
        <time>2013-05-22T17:38:36Z</time>
      </trkpt>
      <trkpt lat="59.8788137" lon="17.6732521">
        <ele>25.6123</ele>
        <time>2013-05-22T17:38:37Z</time>
      </trkpt>
      <trkpt lat="59.8788219" lon="17.6733483">
        <ele>26.0929</ele>
        <time>2013-05-22T17:38:38Z</time>
      </trkpt>
      <trkpt lat="59.8788322" lon="17.6734438">
        <ele>26.5736</ele>
        <time>2013-05-22T17:38:39Z</time>
      </trkpt>
      <trkpt lat="59.878842" lon="17.6735417">
        <ele>26.5736</ele>
        <time>2013-05-22T17:38:40Z</time>
      </trkpt>
      <trkpt lat="59.8788493" lon="17.6736437">
        <ele>27.0543</ele>
        <time>2013-05-22T17:38:41Z</time>
      </trkpt>
      <trkpt lat="59.8788528" lon="17.6737479">
        <ele>27.5349</ele>
        <time>2013-05-22T17:38:42Z</time>
      </trkpt>
      <trkpt lat="59.8788555" lon="17.6738435">
        <ele>28.0155</ele>
        <time>2013-05-22T17:38:43Z</time>
      </trkpt>
      <trkpt lat="59.8788527" lon="17.6739312">
        <ele>28.0155</ele>
        <time>2013-05-22T17:38:44Z</time>
      </trkpt>
      <trkpt lat="59.8788379" lon="17.674014">
        <ele>28.0155</ele>
        <time>2013-05-22T17:38:45Z</time>
      </trkpt>
      <trkpt lat="59.8788099" lon="17.6740854">
        <ele>28.0155</ele>
        <time>2013-05-22T17:38:46Z</time>
      </trkpt>
      <trkpt lat="59.8787716" lon="17.674138">
        <ele>28.4962</ele>
        <time>2013-05-22T17:38:47Z</time>
      </trkpt>
      <trkpt lat="59.8787286" lon="17.6741719">
        <ele>28.4962</ele>
        <time>2013-05-22T17:38:48Z</time>
      </trkpt>
      <trkpt lat="59.8786833" lon="17.6741929">
        <ele>28.4962</ele>
        <time>2013-05-22T17:38:49Z</time>
      </trkpt>
      <trkpt lat="59.8786374" lon="17.6742097">
        <ele>28.4962</ele>
        <time>2013-05-22T17:38:50Z</time>
      </trkpt>
      <trkpt lat="59.8785918" lon="17.6742285">
        <ele>28.0155</ele>
        <time>2013-05-22T17:38:51Z</time>
      </trkpt>
      <trkpt lat="59.8785468" lon="17.6742535">
        <ele>28.0155</ele>
        <time>2013-05-22T17:38:52Z</time>
      </trkpt>
      <trkpt lat="59.8785038" lon="17.6742836">
        <ele>28.0155</ele>
        <time>2013-05-22T17:38:53Z</time>
      </trkpt>
      <trkpt lat="59.8784619" lon="17.6743113">
        <ele>28.4962</ele>
        <time>2013-05-22T17:38:54Z</time>
      </trkpt>
      <trkpt lat="59.8784194" lon="17.6743294">
        <ele>28.4962</ele>
        <time>2013-05-22T17:38:55Z</time>
      </trkpt>
      <trkpt lat="59.8783774" lon="17.6743374">
        <ele>28.4962</ele>
        <time>2013-05-22T17:38:56Z</time>
      </trkpt>
      <trkpt lat="59.8783371" lon="17.6743415">
        <ele>28.0155</ele>
        <time>2013-05-22T17:38:57Z</time>
      </trkpt>
      <trkpt lat="59.8782991" lon="17.6743496">
        <ele>28.0155</ele>
        <time>2013-05-22T17:38:58Z</time>
      </trkpt>
      <trkpt lat="59.8782639" lon="17.6743628">
        <ele>28.0155</ele>
        <time>2013-05-22T17:38:59Z</time>
      </trkpt>
      <trkpt lat="59.8782318" lon="17.6743742">
        <ele>28.0155</ele>
        <time>2013-05-22T17:39:00Z</time>
      </trkpt>
      <trkpt lat="59.8782036" lon="17.674384">
        <ele>28.0155</ele>
        <time>2013-05-22T17:39:01Z</time>
      </trkpt>
      <trkpt lat="59.8781805" lon="17.6743926">
        <ele>28.0155</ele>
        <time>2013-05-22T17:39:02Z</time>
      </trkpt>
      <trkpt lat="59.8781602" lon="17.6744003">
        <ele>28.0155</ele>
        <time>2013-05-22T17:39:03Z</time>
      </trkpt>
      <trkpt lat="59.8781442" lon="17.674407">
        <ele>28.0155</ele>
        <time>2013-05-22T17:39:04Z</time>
      </trkpt>
      <trkpt lat="59.8781356" lon="17.6744118">
        <ele>27.5349</ele>
        <time>2013-05-22T17:39:05Z</time>
      </trkpt>
      <trkpt lat="59.8781332" lon="17.674415">
        <ele>28.0155</ele>
        <time>2013-05-22T17:39:06Z</time>
      </trkpt>
      <trkpt lat="59.8781353" lon="17.6744184">
        <ele>28.0155</ele>
        <time>2013-05-22T17:39:07Z</time>
      </trkpt>
      <trkpt lat="59.8782392" lon="17.6746945">
        <ele>51.0872</ele>
        <time>2013-05-22T17:40:09Z</time>
      </trkpt>
      <trkpt lat="59.8781967" lon="17.6745637">
        <ele>47.2418</ele>
        <time>2013-05-22T17:40:10Z</time>
      </trkpt>
      <trkpt lat="59.8781667" lon="17.6745179">
        <ele>45.7999</ele>
        <time>2013-05-22T17:40:11Z</time>
      </trkpt>
      <trkpt lat="59.8781731" lon="17.6745197">
        <ele>48.2034</ele>
        <time>2013-05-22T17:40:12Z</time>
      </trkpt>
      <trkpt lat="59.8781926" lon="17.6745823">
        <ele>53.4905</ele>
        <time>2013-05-22T17:40:13Z</time>
      </trkpt>
      <trkpt lat="59.8781876" lon="17.6746114">
        <ele>55.8938</ele>
        <time>2013-05-22T17:40:14Z</time>
      </trkpt>
      <trkpt lat="59.8781747" lon="17.6746367">
        <ele>57.3358</ele>
        <time>2013-05-22T17:40:15Z</time>
      </trkpt>
      <trkpt lat="59.8781686" lon="17.6746405">
        <ele>56.8551</ele>
        <time>2013-05-22T17:40:16Z</time>
      </trkpt>
      <trkpt lat="59.8781618" lon="17.6746282">
        <ele>57.8165</ele>
        <time>2013-05-22T17:40:17Z</time>
      </trkpt>
      <trkpt lat="59.8781566" lon="17.6746119">
        <ele>57.3358</ele>
        <time>2013-05-22T17:40:18Z</time>
      </trkpt>
      <trkpt lat="59.8781613" lon="17.6746258">
        <ele>59.2584</ele>
        <time>2013-05-22T17:40:19Z</time>
      </trkpt>
      <trkpt lat="59.8781591" lon="17.6746298">
        <ele>59.2584</ele>
        <time>2013-05-22T17:40:20Z</time>
      </trkpt>
      <trkpt lat="59.8781573" lon="17.6746418">
        <ele>59.7391</ele>
        <time>2013-05-22T17:40:21Z</time>
      </trkpt>
      <trkpt lat="59.8781597" lon="17.6746595">
        <ele>61.181</ele>
        <time>2013-05-22T17:40:22Z</time>
      </trkpt>
      <trkpt lat="59.8781534" lon="17.6746723">
        <ele>61.181</ele>
        <time>2013-05-22T17:40:23Z</time>
      </trkpt>
      <trkpt lat="59.8781404" lon="17.6746826">
        <ele>60.7003</ele>
        <time>2013-05-22T17:40:24Z</time>
      </trkpt>
      <trkpt lat="59.8781308" lon="17.6746927">
        <ele>60.2197</ele>
        <time>2013-05-22T17:40:25Z</time>
      </trkpt>
      <trkpt lat="59.8781216" lon="17.6746839">
        <ele>58.7777</ele>
        <time>2013-05-22T17:40:26Z</time>
      </trkpt>
      <trkpt lat="59.8781301" lon="17.6746884">
        <ele>59.2584</ele>
        <time>2013-05-22T17:40:27Z</time>
      </trkpt>
      <trkpt lat="59.8781375" lon="17.6746904">
        <ele>59.2584</ele>
        <time>2013-05-22T17:40:28Z</time>
      </trkpt>
      <trkpt lat="59.8781439" lon="17.6746932">
        <ele>59.7391</ele>
        <time>2013-05-22T17:40:29Z</time>
      </trkpt>
      <trkpt lat="59.878137" lon="17.6746901">
        <ele>58.7777</ele>
        <time>2013-05-22T17:40:30Z</time>
      </trkpt>
      <trkpt lat="59.8781347" lon="17.6746916">
        <ele>57.8165</ele>
        <time>2013-05-22T17:40:31Z</time>
      </trkpt>
      <trkpt lat="59.8781313" lon="17.6746951">
        <ele>56.8551</ele>
        <time>2013-05-22T17:40:32Z</time>
      </trkpt>
      <trkpt lat="59.8781534" lon="17.6746837">
        <ele>40.0321</ele>
        <time>2013-05-22T17:42:37Z</time>
      </trkpt>
      <trkpt lat="59.8781775" lon="17.6746492">
        <ele>38.1094</ele>
        <time>2013-05-22T17:42:38Z</time>
      </trkpt>
      <trkpt lat="59.8782085" lon="17.6746239">
        <ele>36.6675</ele>
        <time>2013-05-22T17:42:39Z</time>
      </trkpt>
      <trkpt lat="59.8782451" lon="17.6746015">
        <ele>35.7061</ele>
        <time>2013-05-22T17:42:40Z</time>
      </trkpt>
      <trkpt lat="59.8782891" lon="17.6745674">
        <ele>35.7061</ele>
        <time>2013-05-22T17:42:41Z</time>
      </trkpt>
      <trkpt lat="59.8783264" lon="17.6745337">
        <ele>34.7449</ele>
        <time>2013-05-22T17:42:42Z</time>
      </trkpt>
      <trkpt lat="59.8783618" lon="17.6744993">
        <ele>34.2642</ele>
        <time>2013-05-22T17:42:43Z</time>
      </trkpt>
      <trkpt lat="59.8783933" lon="17.6744609">
        <ele>32.8223</ele>
        <time>2013-05-22T17:42:44Z</time>
      </trkpt>
      <trkpt lat="59.878425" lon="17.6744358">
        <ele>31.8607</ele>
        <time>2013-05-22T17:42:45Z</time>
      </trkpt>
      <trkpt lat="59.8784546" lon="17.6744439">
        <ele>31.8607</ele>
        <time>2013-05-22T17:42:46Z</time>
      </trkpt>
      <trkpt lat="59.8784727" lon="17.6744777">
        <ele>31.8607</ele>
        <time>2013-05-22T17:42:47Z</time>
      </trkpt>
      <trkpt lat="59.8784836" lon="17.6745179">
        <ele>31.8607</ele>
        <time>2013-05-22T17:42:48Z</time>
      </trkpt>
      <trkpt lat="59.8784929" lon="17.6745673">
        <ele>31.8607</ele>
        <time>2013-05-22T17:42:49Z</time>
      </trkpt>
      <trkpt lat="59.8784999" lon="17.6746239">
        <ele>31.8607</ele>
        <time>2013-05-22T17:42:50Z</time>
      </trkpt>
      <trkpt lat="59.8784904" lon="17.6746714">
        <ele>31.8607</ele>
        <time>2013-05-22T17:42:51Z</time>
      </trkpt>
      <trkpt lat="59.8784679" lon="17.6747087">
        <ele>31.3801</ele>
        <time>2013-05-22T17:42:52Z</time>
      </trkpt>
      <trkpt lat="59.8784385" lon="17.6747377">
        <ele>30.8995</ele>
        <time>2013-05-22T17:42:53Z</time>
      </trkpt>
      <trkpt lat="59.8784075" lon="17.6747667">
        <ele>30.4188</ele>
        <time>2013-05-22T17:42:54Z</time>
      </trkpt>
      <trkpt lat="59.8783741" lon="17.6747978">
        <ele>29.9381</ele>
        <time>2013-05-22T17:42:55Z</time>
      </trkpt>
      <trkpt lat="59.8783357" lon="17.67483">
        <ele>28.9769</ele>
        <time>2013-05-22T17:42:56Z</time>
      </trkpt>
      <trkpt lat="59.8782928" lon="17.6748674">
        <ele>28.9769</ele>
        <time>2013-05-22T17:42:57Z</time>
      </trkpt>
      <trkpt lat="59.8782469" lon="17.6749118">
        <ele>28.4962</ele>
        <time>2013-05-22T17:42:58Z</time>
      </trkpt>
      <trkpt lat="59.8781992" lon="17.67496">
        <ele>28.0155</ele>
        <time>2013-05-22T17:42:59Z</time>
      </trkpt>
      <trkpt lat="59.8781493" lon="17.6750122">
        <ele>28.0155</ele>
        <time>2013-05-22T17:43:00Z</time>
      </trkpt>
      <trkpt lat="59.8781002" lon="17.6750688">
        <ele>28.0155</ele>
        <time>2013-05-22T17:43:01Z</time>
      </trkpt>
      <trkpt lat="59.8780534" lon="17.6751309">
        <ele>28.0155</ele>
        <time>2013-05-22T17:43:02Z</time>
      </trkpt>
      <trkpt lat="59.8780079" lon="17.6751915">
        <ele>27.5349</ele>
        <time>2013-05-22T17:43:03Z</time>
      </trkpt>
      <trkpt lat="59.8779599" lon="17.6752473">
        <ele>27.5349</ele>
        <time>2013-05-22T17:43:04Z</time>
      </trkpt>
      <trkpt lat="59.877911" lon="17.6752962">
        <ele>27.5349</ele>
        <time>2013-05-22T17:43:05Z</time>
      </trkpt>
      <trkpt lat="59.8778612" lon="17.6753381">
        <ele>27.0543</ele>
        <time>2013-05-22T17:43:06Z</time>
      </trkpt>
      <trkpt lat="59.8778122" lon="17.6753732">
        <ele>27.0543</ele>
        <time>2013-05-22T17:43:07Z</time>
      </trkpt>
      <trkpt lat="59.8777641" lon="17.6754011">
        <ele>27.0543</ele>
        <time>2013-05-22T17:43:08Z</time>
      </trkpt>
      <trkpt lat="59.8777149" lon="17.6754236">
        <ele>26.5736</ele>
        <time>2013-05-22T17:43:09Z</time>
      </trkpt>
      <trkpt lat="59.8776651" lon="17.6754473">
        <ele>27.0543</ele>
        <time>2013-05-22T17:43:10Z</time>
      </trkpt>
      <trkpt lat="59.8776137" lon="17.6754754">
        <ele>27.0543</ele>
        <time>2013-05-22T17:43:11Z</time>
      </trkpt>
      <trkpt lat="59.8775589" lon="17.6755118">
        <ele>27.0543</ele>
        <time>2013-05-22T17:43:12Z</time>
      </trkpt>
      <trkpt lat="59.8775035" lon="17.6755464">
        <ele>27.0543</ele>
        <time>2013-05-22T17:43:13Z</time>
      </trkpt>
      <trkpt lat="59.8774484" lon="17.6755791">
        <ele>27.0543</ele>
        <time>2013-05-22T17:43:14Z</time>
      </trkpt>
      <trkpt lat="59.8773945" lon="17.6756112">
        <ele>27.0543</ele>
        <time>2013-05-22T17:43:15Z</time>
      </trkpt>
      <trkpt lat="59.8773407" lon="17.6756423">
        <ele>26.5736</ele>
        <time>2013-05-22T17:43:16Z</time>
      </trkpt>
      <trkpt lat="59.8772844" lon="17.6756703">
        <ele>26.5736</ele>
        <time>2013-05-22T17:43:17Z</time>
      </trkpt>
      <trkpt lat="59.8772269" lon="17.6756959">
        <ele>26.5736</ele>
        <time>2013-05-22T17:43:18Z</time>
      </trkpt>
      <trkpt lat="59.8771658" lon="17.6757313">
        <ele>26.0929</ele>
        <time>2013-05-22T17:43:19Z</time>
      </trkpt>
      <trkpt lat="59.8771052" lon="17.6757666">
        <ele>25.6123</ele>
        <time>2013-05-22T17:43:20Z</time>
      </trkpt>
      <trkpt lat="59.8770485" lon="17.675816">
        <ele>25.6123</ele>
        <time>2013-05-22T17:43:21Z</time>
      </trkpt>
      <trkpt lat="59.8769927" lon="17.6758561">
        <ele>25.1317</ele>
        <time>2013-05-22T17:43:22Z</time>
      </trkpt>
      <trkpt lat="59.876939" lon="17.6758457">
        <ele>24.651</ele>
        <time>2013-05-22T17:43:23Z</time>
      </trkpt>
      <trkpt lat="59.8768814" lon="17.6758385">
        <ele>24.651</ele>
        <time>2013-05-22T17:43:24Z</time>
      </trkpt>
      <trkpt lat="59.8768227" lon="17.675828">
        <ele>24.651</ele>
        <time>2013-05-22T17:43:25Z</time>
      </trkpt>
      <trkpt lat="59.8767626" lon="17.6758225">
        <ele>24.1703</ele>
        <time>2013-05-22T17:43:26Z</time>
      </trkpt>
      <trkpt lat="59.8767016" lon="17.6758186">
        <ele>24.1703</ele>
        <time>2013-05-22T17:43:27Z</time>
      </trkpt>
      <trkpt lat="59.8766414" lon="17.6758183">
        <ele>24.1703</ele>
        <time>2013-05-22T17:43:28Z</time>
      </trkpt>
      <trkpt lat="59.8765838" lon="17.6758204">
        <ele>23.6896</ele>
        <time>2013-05-22T17:43:29Z</time>
      </trkpt>
      <trkpt lat="59.8765266" lon="17.6758219">
        <ele>23.6896</ele>
        <time>2013-05-22T17:43:30Z</time>
      </trkpt>
      <trkpt lat="59.8764707" lon="17.6758168">
        <ele>23.6896</ele>
        <time>2013-05-22T17:43:31Z</time>
      </trkpt>
      <trkpt lat="59.8764167" lon="17.6758136">
        <ele>23.6896</ele>
        <time>2013-05-22T17:43:32Z</time>
      </trkpt>
      <trkpt lat="59.8763639" lon="17.6758135">
        <ele>23.6896</ele>
        <time>2013-05-22T17:43:33Z</time>
      </trkpt>
      <trkpt lat="59.8763148" lon="17.6758039">
        <ele>23.209</ele>
        <time>2013-05-22T17:43:34Z</time>
      </trkpt>
      <trkpt lat="59.8762685" lon="17.6757727">
        <ele>22.7283</ele>
        <time>2013-05-22T17:43:35Z</time>
      </trkpt>
      <trkpt lat="59.876225" lon="17.6757187">
        <ele>22.7283</ele>
        <time>2013-05-22T17:43:36Z</time>
      </trkpt>
      <trkpt lat="59.8761882" lon="17.6756472">
        <ele>22.2476</ele>
        <time>2013-05-22T17:43:37Z</time>
      </trkpt>
      <trkpt lat="59.8761555" lon="17.6755659">
        <ele>22.2476</ele>
        <time>2013-05-22T17:43:38Z</time>
      </trkpt>
      <trkpt lat="59.876126" lon="17.6754762">
        <ele>22.2476</ele>
        <time>2013-05-22T17:43:39Z</time>
      </trkpt>
      <trkpt lat="59.8761028" lon="17.6753775">
        <ele>22.2476</ele>
        <time>2013-05-22T17:43:40Z</time>
      </trkpt>
      <trkpt lat="59.8760835" lon="17.6752754">
        <ele>22.7283</ele>
        <time>2013-05-22T17:43:41Z</time>
      </trkpt>
      <trkpt lat="59.8760658" lon="17.6751699">
        <ele>22.7283</ele>
        <time>2013-05-22T17:43:42Z</time>
      </trkpt>
      <trkpt lat="59.87605" lon="17.675062">
        <ele>22.7283</ele>
        <time>2013-05-22T17:43:43Z</time>
      </trkpt>
      <trkpt lat="59.8760351" lon="17.6749543">
        <ele>23.209</ele>
        <time>2013-05-22T17:43:44Z</time>
      </trkpt>
      <trkpt lat="59.8760199" lon="17.674847">
        <ele>23.209</ele>
        <time>2013-05-22T17:43:45Z</time>
      </trkpt>
      <trkpt lat="59.8760059" lon="17.6747388">
        <ele>23.6896</ele>
        <time>2013-05-22T17:43:46Z</time>
      </trkpt>
      <trkpt lat="59.875993" lon="17.6746296">
        <ele>24.1703</ele>
        <time>2013-05-22T17:43:47Z</time>
      </trkpt>
      <trkpt lat="59.87598" lon="17.6745207">
        <ele>24.1703</ele>
        <time>2013-05-22T17:43:48Z</time>
      </trkpt>
      <trkpt lat="59.8759669" lon="17.6744114">
        <ele>24.651</ele>
        <time>2013-05-22T17:43:49Z</time>
      </trkpt>
      <trkpt lat="59.8759541" lon="17.6743003">
        <ele>24.651</ele>
        <time>2013-05-22T17:43:50Z</time>
      </trkpt>
      <trkpt lat="59.8759423" lon="17.6741869">
        <ele>24.651</ele>
        <time>2013-05-22T17:43:51Z</time>
      </trkpt>
      <trkpt lat="59.8759277" lon="17.6740726">
        <ele>25.1317</ele>
        <time>2013-05-22T17:43:52Z</time>
      </trkpt>
      <trkpt lat="59.8759107" lon="17.6739586">
        <ele>25.6123</ele>
        <time>2013-05-22T17:43:53Z</time>
      </trkpt>
      <trkpt lat="59.8758957" lon="17.6738417">
        <ele>26.0929</ele>
        <time>2013-05-22T17:43:54Z</time>
      </trkpt>
      <trkpt lat="59.8758838" lon="17.6737218">
        <ele>26.0929</ele>
        <time>2013-05-22T17:43:55Z</time>
      </trkpt>
      <trkpt lat="59.87587" lon="17.673599">
        <ele>26.5736</ele>
        <time>2013-05-22T17:43:56Z</time>
      </trkpt>
      <trkpt lat="59.8758524" lon="17.6734743">
        <ele>26.5736</ele>
        <time>2013-05-22T17:43:57Z</time>
      </trkpt>
      <trkpt lat="59.8758333" lon="17.6733506">
        <ele>26.5736</ele>
        <time>2013-05-22T17:43:58Z</time>
      </trkpt>
      <trkpt lat="59.8758096" lon="17.673232">
        <ele>27.0543</ele>
        <time>2013-05-22T17:43:59Z</time>
      </trkpt>
      <trkpt lat="59.8757789" lon="17.6731219">
        <ele>27.0543</ele>
        <time>2013-05-22T17:44:00Z</time>
      </trkpt>
      <trkpt lat="59.8757465" lon="17.6730149">
        <ele>27.0543</ele>
        <time>2013-05-22T17:44:01Z</time>
      </trkpt>
      <trkpt lat="59.8757174" lon="17.6729067">
        <ele>27.5349</ele>
        <time>2013-05-22T17:44:02Z</time>
      </trkpt>
      <trkpt lat="59.875694" lon="17.6727973">
        <ele>27.5349</ele>
        <time>2013-05-22T17:44:03Z</time>
      </trkpt>
      <trkpt lat="59.8756699" lon="17.6726953">
        <ele>28.0155</ele>
        <time>2013-05-22T17:44:04Z</time>
      </trkpt>
      <trkpt lat="59.8756365" lon="17.6726144">
        <ele>28.0155</ele>
        <time>2013-05-22T17:44:05Z</time>
      </trkpt>
      <trkpt lat="59.875593" lon="17.6725624">
        <ele>28.0155</ele>
        <time>2013-05-22T17:44:06Z</time>
      </trkpt>
      <trkpt lat="59.8755447" lon="17.6725414">
        <ele>28.0155</ele>
        <time>2013-05-22T17:44:07Z</time>
      </trkpt>
      <trkpt lat="59.8754957" lon="17.6725523">
        <ele>28.0155</ele>
        <time>2013-05-22T17:44:08Z</time>
      </trkpt>
      <trkpt lat="59.8754509" lon="17.6725947">
        <ele>27.5349</ele>
        <time>2013-05-22T17:44:09Z</time>
      </trkpt>
      <trkpt lat="59.8754112" lon="17.6726652">
        <ele>27.5349</ele>
        <time>2013-05-22T17:44:10Z</time>
      </trkpt>
      <trkpt lat="59.8753774" lon="17.6727533">
        <ele>27.5349</ele>
        <time>2013-05-22T17:44:11Z</time>
      </trkpt>
      <trkpt lat="59.8753444" lon="17.6728489">
        <ele>27.5349</ele>
        <time>2013-05-22T17:44:12Z</time>
      </trkpt>
      <trkpt lat="59.875309" lon="17.6729447">
        <ele>27.5349</ele>
        <time>2013-05-22T17:44:13Z</time>
      </trkpt>
      <trkpt lat="59.8752704" lon="17.6730397">
        <ele>27.5349</ele>
        <time>2013-05-22T17:44:14Z</time>
      </trkpt>
      <trkpt lat="59.8752297" lon="17.6731338">
        <ele>27.5349</ele>
        <time>2013-05-22T17:44:15Z</time>
      </trkpt>
      <trkpt lat="59.8751866" lon="17.6732255">
        <ele>27.5349</ele>
        <time>2013-05-22T17:44:16Z</time>
      </trkpt>
      <trkpt lat="59.8751414" lon="17.6733143">
        <ele>28.0155</ele>
        <time>2013-05-22T17:44:17Z</time>
      </trkpt>
      <trkpt lat="59.8750942" lon="17.6734001">
        <ele>28.0155</ele>
        <time>2013-05-22T17:44:18Z</time>
      </trkpt>
      <trkpt lat="59.8750446" lon="17.6734829">
        <ele>28.0155</ele>
        <time>2013-05-22T17:44:19Z</time>
      </trkpt>
      <trkpt lat="59.8749918" lon="17.6735549">
        <ele>28.0155</ele>
        <time>2013-05-22T17:44:20Z</time>
      </trkpt>
      <trkpt lat="59.8749345" lon="17.6736043">
        <ele>28.0155</ele>
        <time>2013-05-22T17:44:21Z</time>
      </trkpt>
      <trkpt lat="59.8748741" lon="17.6736209">
        <ele>28.4962</ele>
        <time>2013-05-22T17:44:22Z</time>
      </trkpt>
      <trkpt lat="59.8748146" lon="17.6736037">
        <ele>28.4962</ele>
        <time>2013-05-22T17:44:23Z</time>
      </trkpt>
      <trkpt lat="59.874758" lon="17.6735597">
        <ele>28.4962</ele>
        <time>2013-05-22T17:44:24Z</time>
      </trkpt>
      <trkpt lat="59.8747047" lon="17.6734961">
        <ele>28.4962</ele>
        <time>2013-05-22T17:44:25Z</time>
      </trkpt>
      <trkpt lat="59.8746532" lon="17.6734224">
        <ele>28.4962</ele>
        <time>2013-05-22T17:44:26Z</time>
      </trkpt>
      <trkpt lat="59.8746014" lon="17.6733453">
        <ele>28.4962</ele>
        <time>2013-05-22T17:44:27Z</time>
      </trkpt>
      <trkpt lat="59.8744995" lon="17.6731802">
        <ele>28.4962</ele>
        <time>2013-05-22T17:44:28Z</time>
      </trkpt>
      <trkpt lat="59.8744504" lon="17.6730908">
        <ele>28.9769</ele>
        <time>2013-05-22T17:44:29Z</time>
      </trkpt>
      <trkpt lat="59.874403" lon="17.6729983">
        <ele>28.9769</ele>
        <time>2013-05-22T17:44:30Z</time>
      </trkpt>
      <trkpt lat="59.8743571" lon="17.6729028">
        <ele>28.9769</ele>
        <time>2013-05-22T17:44:31Z</time>
      </trkpt>
      <trkpt lat="59.874312" lon="17.6728055">
        <ele>28.9769</ele>
        <time>2013-05-22T17:44:32Z</time>
      </trkpt>
      <trkpt lat="59.8742669" lon="17.6727073">
        <ele>28.9769</ele>
        <time>2013-05-22T17:44:33Z</time>
      </trkpt>
      <trkpt lat="59.8742204" lon="17.672609">
        <ele>28.9769</ele>
        <time>2013-05-22T17:44:34Z</time>
      </trkpt>
      <trkpt lat="59.8741737" lon="17.6725082">
        <ele>28.9769</ele>
        <time>2013-05-22T17:44:35Z</time>
      </trkpt>
      <trkpt lat="59.8741271" lon="17.6724057">
        <ele>28.9769</ele>
        <time>2013-05-22T17:44:36Z</time>
      </trkpt>
      <trkpt lat="59.8740798" lon="17.6723021">
        <ele>28.9769</ele>
        <time>2013-05-22T17:44:37Z</time>
      </trkpt>
      <trkpt lat="59.8740313" lon="17.6721967">
        <ele>28.9769</ele>
        <time>2013-05-22T17:44:38Z</time>
      </trkpt>
      <trkpt lat="59.8739826" lon="17.6720907">
        <ele>28.9769</ele>
        <time>2013-05-22T17:44:39Z</time>
      </trkpt>
      <trkpt lat="59.8739344" lon="17.6719843">
        <ele>28.9769</ele>
        <time>2013-05-22T17:44:40Z</time>
      </trkpt>
      <trkpt lat="59.8738868" lon="17.6718773">
        <ele>28.9769</ele>
        <time>2013-05-22T17:44:41Z</time>
      </trkpt>
      <trkpt lat="59.873839" lon="17.6717696">
        <ele>29.4575</ele>
        <time>2013-05-22T17:44:42Z</time>
      </trkpt>
      <trkpt lat="59.8737905" lon="17.6716628">
        <ele>29.4575</ele>
        <time>2013-05-22T17:44:43Z</time>
      </trkpt>
      <trkpt lat="59.8737412" lon="17.6715585">
        <ele>29.4575</ele>
        <time>2013-05-22T17:44:44Z</time>
      </trkpt>
      <trkpt lat="59.873691" lon="17.6714557">
        <ele>29.4575</ele>
        <time>2013-05-22T17:44:45Z</time>
      </trkpt>
      <trkpt lat="59.8736416" lon="17.6713532">
        <ele>29.4575</ele>
        <time>2013-05-22T17:44:46Z</time>
      </trkpt>
      <trkpt lat="59.873593" lon="17.6712491">
        <ele>29.4575</ele>
        <time>2013-05-22T17:44:47Z</time>
      </trkpt>
      <trkpt lat="59.8735447" lon="17.6711433">
        <ele>29.4575</ele>
        <time>2013-05-22T17:44:48Z</time>
      </trkpt>
      <trkpt lat="59.8734958" lon="17.6710355">
        <ele>29.4575</ele>
        <time>2013-05-22T17:44:49Z</time>
      </trkpt>
      <trkpt lat="59.8734465" lon="17.6709267">
        <ele>29.4575</ele>
        <time>2013-05-22T17:44:50Z</time>
      </trkpt>
      <trkpt lat="59.8733968" lon="17.6708169">
        <ele>29.4575</ele>
        <time>2013-05-22T17:44:51Z</time>
      </trkpt>
      <trkpt lat="59.8733476" lon="17.6707067">
        <ele>28.9769</ele>
        <time>2013-05-22T17:44:52Z</time>
      </trkpt>
      <trkpt lat="59.8732977" lon="17.6705973">
        <ele>28.9769</ele>
        <time>2013-05-22T17:44:53Z</time>
      </trkpt>
      <trkpt lat="59.873247" lon="17.6704875">
        <ele>28.9769</ele>
        <time>2013-05-22T17:44:54Z</time>
      </trkpt>
      <trkpt lat="59.8731966" lon="17.6703757">
        <ele>28.9769</ele>
        <time>2013-05-22T17:44:55Z</time>
      </trkpt>
      <trkpt lat="59.8731443" lon="17.6702626">
        <ele>28.4962</ele>
        <time>2013-05-22T17:44:56Z</time>
      </trkpt>
      <trkpt lat="59.8730895" lon="17.6701477">
        <ele>28.4962</ele>
        <time>2013-05-22T17:44:57Z</time>
      </trkpt>
      <trkpt lat="59.8730336" lon="17.6700311">
        <ele>28.4962</ele>
        <time>2013-05-22T17:44:58Z</time>
      </trkpt>
      <trkpt lat="59.8729775" lon="17.6699125">
        <ele>28.4962</ele>
        <time>2013-05-22T17:44:59Z</time>
      </trkpt>
      <trkpt lat="59.8729201" lon="17.6697923">
        <ele>28.4962</ele>
        <time>2013-05-22T17:45:00Z</time>
      </trkpt>
      <trkpt lat="59.8728631" lon="17.6696704">
        <ele>28.4962</ele>
        <time>2013-05-22T17:45:01Z</time>
      </trkpt>
      <trkpt lat="59.8728042" lon="17.6695471">
        <ele>28.4962</ele>
        <time>2013-05-22T17:45:02Z</time>
      </trkpt>
      <trkpt lat="59.8727424" lon="17.6694219">
        <ele>28.4962</ele>
        <time>2013-05-22T17:45:03Z</time>
      </trkpt>
      <trkpt lat="59.8726792" lon="17.6692918">
        <ele>28.9769</ele>
        <time>2013-05-22T17:45:04Z</time>
      </trkpt>
      <trkpt lat="59.8726156" lon="17.6691563">
        <ele>28.4962</ele>
        <time>2013-05-22T17:45:05Z</time>
      </trkpt>
      <trkpt lat="59.8725503" lon="17.6690167">
        <ele>28.4962</ele>
        <time>2013-05-22T17:45:06Z</time>
      </trkpt>
      <trkpt lat="59.872483" lon="17.6688723">
        <ele>28.0155</ele>
        <time>2013-05-22T17:45:07Z</time>
      </trkpt>
      <trkpt lat="59.8724134" lon="17.6687243">
        <ele>28.0155</ele>
        <time>2013-05-22T17:45:08Z</time>
      </trkpt>
      <trkpt lat="59.8723268" lon="17.6685535">
        <ele>28.0155</ele>
        <time>2013-05-22T17:45:09Z</time>
      </trkpt>
      <trkpt lat="59.8722483" lon="17.6683926">
        <ele>27.5349</ele>
        <time>2013-05-22T17:45:10Z</time>
      </trkpt>
      <trkpt lat="59.8721711" lon="17.6682315">
        <ele>27.0543</ele>
        <time>2013-05-22T17:45:11Z</time>
      </trkpt>
      <trkpt lat="59.8720935" lon="17.6680698">
        <ele>27.0543</ele>
        <time>2013-05-22T17:45:12Z</time>
      </trkpt>
      <trkpt lat="59.8720172" lon="17.6679058">
        <ele>26.5736</ele>
        <time>2013-05-22T17:45:13Z</time>
      </trkpt>
      <trkpt lat="59.8719416" lon="17.6677395">
        <ele>26.0929</ele>
        <time>2013-05-22T17:45:14Z</time>
      </trkpt>
      <trkpt lat="59.871866" lon="17.6675706">
        <ele>25.6123</ele>
        <time>2013-05-22T17:45:15Z</time>
      </trkpt>
      <trkpt lat="59.87179" lon="17.6673984">
        <ele>25.1317</ele>
        <time>2013-05-22T17:45:16Z</time>
      </trkpt>
      <trkpt lat="59.8717127" lon="17.6672244">
        <ele>25.1317</ele>
        <time>2013-05-22T17:45:17Z</time>
      </trkpt>
      <trkpt lat="59.8716334" lon="17.6670513">
        <ele>24.651</ele>
        <time>2013-05-22T17:45:18Z</time>
      </trkpt>
      <trkpt lat="59.8715532" lon="17.6668785">
        <ele>24.1703</ele>
        <time>2013-05-22T17:45:19Z</time>
      </trkpt>
      <trkpt lat="59.8714735" lon="17.6667065">
        <ele>23.6896</ele>
        <time>2013-05-22T17:45:20Z</time>
      </trkpt>
      <trkpt lat="59.8713951" lon="17.6665366">
        <ele>23.209</ele>
        <time>2013-05-22T17:45:21Z</time>
      </trkpt>
      <trkpt lat="59.8713181" lon="17.6663683">
        <ele>22.7283</ele>
        <time>2013-05-22T17:45:22Z</time>
      </trkpt>
      <trkpt lat="59.8712429" lon="17.666202">
        <ele>22.7283</ele>
        <time>2013-05-22T17:45:23Z</time>
      </trkpt>
      <trkpt lat="59.8711698" lon="17.6660376">
        <ele>22.2476</ele>
        <time>2013-05-22T17:45:24Z</time>
      </trkpt>
      <trkpt lat="59.8710979" lon="17.6658765">
        <ele>21.767</ele>
        <time>2013-05-22T17:45:25Z</time>
      </trkpt>
      <trkpt lat="59.8710263" lon="17.6657197">
        <ele>21.767</ele>
        <time>2013-05-22T17:45:26Z</time>
      </trkpt>
      <trkpt lat="59.8709552" lon="17.6655667">
        <ele>21.2864</ele>
        <time>2013-05-22T17:45:27Z</time>
      </trkpt>
      <trkpt lat="59.8708855" lon="17.6654154">
        <ele>21.2864</ele>
        <time>2013-05-22T17:45:28Z</time>
      </trkpt>
      <trkpt lat="59.8708168" lon="17.6652658">
        <ele>20.8057</ele>
        <time>2013-05-22T17:45:29Z</time>
      </trkpt>
      <trkpt lat="59.8707485" lon="17.6651169">
        <ele>20.8057</ele>
        <time>2013-05-22T17:45:30Z</time>
      </trkpt>
      <trkpt lat="59.8706798" lon="17.6649681">
        <ele>20.325</ele>
        <time>2013-05-22T17:45:31Z</time>
      </trkpt>
      <trkpt lat="59.8706114" lon="17.6648192">
        <ele>20.325</ele>
        <time>2013-05-22T17:45:32Z</time>
      </trkpt>
      <trkpt lat="59.8705431" lon="17.6646707">
        <ele>20.325</ele>
        <time>2013-05-22T17:45:33Z</time>
      </trkpt>
      <trkpt lat="59.8704735" lon="17.6645252">
        <ele>20.325</ele>
        <time>2013-05-22T17:45:34Z</time>
      </trkpt>
      <trkpt lat="59.8704024" lon="17.6643801">
        <ele>19.8444</ele>
        <time>2013-05-22T17:45:35Z</time>
      </trkpt>
      <trkpt lat="59.8703372" lon="17.664249">
        <ele>19.8444</ele>
        <time>2013-05-22T17:45:36Z</time>
      </trkpt>
      <trkpt lat="59.8702757" lon="17.6641116">
        <ele>19.3638</ele>
        <time>2013-05-22T17:45:37Z</time>
      </trkpt>
      <trkpt lat="59.870215" lon="17.6639771">
        <ele>19.3638</ele>
        <time>2013-05-22T17:45:38Z</time>
      </trkpt>
      <trkpt lat="59.8701559" lon="17.6638457">
        <ele>19.3638</ele>
        <time>2013-05-22T17:45:39Z</time>
      </trkpt>
      <trkpt lat="59.8700989" lon="17.6637162">
        <ele>18.8831</ele>
        <time>2013-05-22T17:45:40Z</time>
      </trkpt>
      <trkpt lat="59.8700426" lon="17.6635913">
        <ele>18.8831</ele>
        <time>2013-05-22T17:45:41Z</time>
      </trkpt>
      <trkpt lat="59.8699867" lon="17.663471">
        <ele>18.8831</ele>
        <time>2013-05-22T17:45:42Z</time>
      </trkpt>
      <trkpt lat="59.8699333" lon="17.6633522">
        <ele>18.4023</ele>
        <time>2013-05-22T17:45:43Z</time>
      </trkpt>
      <trkpt lat="59.8698795" lon="17.6632378">
        <ele>18.4023</ele>
        <time>2013-05-22T17:45:44Z</time>
      </trkpt>
      <trkpt lat="59.8698286" lon="17.6631236">
        <ele>18.4023</ele>
        <time>2013-05-22T17:45:45Z</time>
      </trkpt>
      <trkpt lat="59.8697779" lon="17.6630124">
        <ele>17.9218</ele>
        <time>2013-05-22T17:45:46Z</time>
      </trkpt>
      <trkpt lat="59.8697275" lon="17.6629054">
        <ele>17.9218</ele>
        <time>2013-05-22T17:45:47Z</time>
      </trkpt>
      <trkpt lat="59.8696804" lon="17.662794">
        <ele>17.4412</ele>
        <time>2013-05-22T17:45:48Z</time>
      </trkpt>
      <trkpt lat="59.8696328" lon="17.6626918">
        <ele>17.4412</ele>
        <time>2013-05-22T17:45:49Z</time>
      </trkpt>
      <trkpt lat="59.8695852" lon="17.6625907">
        <ele>17.4412</ele>
        <time>2013-05-22T17:45:50Z</time>
      </trkpt>
      <trkpt lat="59.8695391" lon="17.6624899">
        <ele>17.4412</ele>
        <time>2013-05-22T17:45:51Z</time>
      </trkpt>
      <trkpt lat="59.8694944" lon="17.6623908">
        <ele>17.4412</ele>
        <time>2013-05-22T17:45:52Z</time>
      </trkpt>
      <trkpt lat="59.8694505" lon="17.6622941">
        <ele>17.4412</ele>
        <time>2013-05-22T17:45:53Z</time>
      </trkpt>
      <trkpt lat="59.8694084" lon="17.6622015">
        <ele>16.9604</ele>
        <time>2013-05-22T17:45:54Z</time>
      </trkpt>
      <trkpt lat="59.8693676" lon="17.6621149">
        <ele>16.9604</ele>
        <time>2013-05-22T17:45:55Z</time>
      </trkpt>
      <trkpt lat="59.8693286" lon="17.6620313">
        <ele>16.9604</ele>
        <time>2013-05-22T17:45:56Z</time>
      </trkpt>
      <trkpt lat="59.869292" lon="17.6619502">
        <ele>16.9604</ele>
        <time>2013-05-22T17:45:57Z</time>
      </trkpt>
      <trkpt lat="59.8692581" lon="17.6618751">
        <ele>16.9604</ele>
        <time>2013-05-22T17:45:58Z</time>
      </trkpt>
      <trkpt lat="59.8692283" lon="17.6618075">
        <ele>16.9604</ele>
        <time>2013-05-22T17:45:59Z</time>
      </trkpt>
      <trkpt lat="59.8692043" lon="17.6617518">
        <ele>16.9604</ele>
        <time>2013-05-22T17:46:00Z</time>
      </trkpt>
      <trkpt lat="59.869189" lon="17.6617139">
        <ele>16.9604</ele>
        <time>2013-05-22T17:46:01Z</time>
      </trkpt>
      <trkpt lat="59.8691849" lon="17.6616896">
        <ele>17.4412</ele>
        <time>2013-05-22T17:46:02Z</time>
      </trkpt>
      <trkpt lat="59.8691827" lon="17.6616657">
        <ele>17.4412</ele>
        <time>2013-05-22T17:46:03Z</time>
      </trkpt>
      <trkpt lat="59.8691735" lon="17.6616394">
        <ele>17.4412</ele>
        <time>2013-05-22T17:46:04Z</time>
      </trkpt>
      <trkpt lat="59.8691614" lon="17.6616135">
        <ele>17.4412</ele>
        <time>2013-05-22T17:46:05Z</time>
      </trkpt>
      <trkpt lat="59.8691465" lon="17.6615825">
        <ele>17.9218</ele>
        <time>2013-05-22T17:46:06Z</time>
      </trkpt>
      <trkpt lat="59.8691282" lon="17.6615456">
        <ele>17.9218</ele>
        <time>2013-05-22T17:46:07Z</time>
      </trkpt>
      <trkpt lat="59.8691081" lon="17.6615021">
        <ele>17.9218</ele>
        <time>2013-05-22T17:46:08Z</time>
      </trkpt>
      <trkpt lat="59.8690952" lon="17.6614483">
        <ele>18.4023</ele>
        <time>2013-05-22T17:46:09Z</time>
      </trkpt>
      <trkpt lat="59.8690896" lon="17.6613822">
        <ele>18.4023</ele>
        <time>2013-05-22T17:46:10Z</time>
      </trkpt>
      <trkpt lat="59.8690955" lon="17.6613133">
        <ele>18.8831</ele>
        <time>2013-05-22T17:46:11Z</time>
      </trkpt>
      <trkpt lat="59.8691111" lon="17.6612499">
        <ele>18.8831</ele>
        <time>2013-05-22T17:46:12Z</time>
      </trkpt>
      <trkpt lat="59.8691371" lon="17.6611996">
        <ele>19.3638</ele>
        <time>2013-05-22T17:46:13Z</time>
      </trkpt>
      <trkpt lat="59.8691651" lon="17.6611603">
        <ele>19.8444</ele>
        <time>2013-05-22T17:46:14Z</time>
      </trkpt>
      <trkpt lat="59.8691903" lon="17.6611166">
        <ele>20.325</ele>
        <time>2013-05-22T17:46:15Z</time>
      </trkpt>
      <trkpt lat="59.8692028" lon="17.6610559">
        <ele>20.325</ele>
        <time>2013-05-22T17:46:16Z</time>
      </trkpt>
      <trkpt lat="59.8691972" lon="17.6609899">
        <ele>20.325</ele>
        <time>2013-05-22T17:46:17Z</time>
      </trkpt>
      <trkpt lat="59.8691776" lon="17.6609293">
        <ele>20.325</ele>
        <time>2013-05-22T17:46:18Z</time>
      </trkpt>
      <trkpt lat="59.8691494" lon="17.6608697">
        <ele>20.325</ele>
        <time>2013-05-22T17:46:19Z</time>
      </trkpt>
      <trkpt lat="59.8691169" lon="17.660806">
        <ele>19.8444</ele>
        <time>2013-05-22T17:46:20Z</time>
      </trkpt>
      <trkpt lat="59.8690815" lon="17.6607365">
        <ele>19.8444</ele>
        <time>2013-05-22T17:46:21Z</time>
      </trkpt>
      <trkpt lat="59.8690454" lon="17.6606601">
        <ele>19.8444</ele>
        <time>2013-05-22T17:46:22Z</time>
      </trkpt>
      <trkpt lat="59.8690101" lon="17.6605749">
        <ele>19.3638</ele>
        <time>2013-05-22T17:46:23Z</time>
      </trkpt>
      <trkpt lat="59.8689715" lon="17.6604852">
        <ele>19.3638</ele>
        <time>2013-05-22T17:46:24Z</time>
      </trkpt>
      <trkpt lat="59.8689311" lon="17.6603944">
        <ele>19.3638</ele>
        <time>2013-05-22T17:46:25Z</time>
      </trkpt>
      <trkpt lat="59.8688885" lon="17.6603034">
        <ele>18.8831</ele>
        <time>2013-05-22T17:46:26Z</time>
      </trkpt>
      <trkpt lat="59.8688425" lon="17.6602147">
        <ele>18.8831</ele>
        <time>2013-05-22T17:46:27Z</time>
      </trkpt>
      <trkpt lat="59.8687952" lon="17.6601262">
        <ele>18.8831</ele>
        <time>2013-05-22T17:46:28Z</time>
      </trkpt>
      <trkpt lat="59.8687481" lon="17.6600361">
        <ele>18.8831</ele>
        <time>2013-05-22T17:46:29Z</time>
      </trkpt>
      <trkpt lat="59.8687019" lon="17.6599471">
        <ele>18.8831</ele>
        <time>2013-05-22T17:46:30Z</time>
      </trkpt>
      <trkpt lat="59.868657" lon="17.6598595">
        <ele>18.8831</ele>
        <time>2013-05-22T17:46:31Z</time>
      </trkpt>
      <trkpt lat="59.8686158" lon="17.6597719">
        <ele>18.8831</ele>
        <time>2013-05-22T17:46:32Z</time>
      </trkpt>
      <trkpt lat="59.8685772" lon="17.659701">
        <ele>18.4023</ele>
        <time>2013-05-22T17:46:33Z</time>
      </trkpt>
      <trkpt lat="59.8685413" lon="17.6596604">
        <ele>18.4023</ele>
        <time>2013-05-22T17:46:34Z</time>
      </trkpt>
      <trkpt lat="59.8685098" lon="17.6596434">
        <ele>18.8831</ele>
        <time>2013-05-22T17:46:35Z</time>
      </trkpt>
      <trkpt lat="59.8684823" lon="17.6596471">
        <ele>18.4023</ele>
        <time>2013-05-22T17:46:36Z</time>
      </trkpt>
      <trkpt lat="59.8684562" lon="17.6596554">
        <ele>18.4023</ele>
        <time>2013-05-22T17:46:37Z</time>
      </trkpt>
      <trkpt lat="59.868433" lon="17.6596448">
        <ele>18.4023</ele>
        <time>2013-05-22T17:46:38Z</time>
      </trkpt>
      <trkpt lat="59.8684158" lon="17.6596218">
        <ele>18.4023</ele>
        <time>2013-05-22T17:46:39Z</time>
      </trkpt>
      <trkpt lat="59.8684031" lon="17.6596025">
        <ele>18.4023</ele>
        <time>2013-05-22T17:46:40Z</time>
      </trkpt>
      <trkpt lat="59.8683927" lon="17.6595962">
        <ele>18.4023</ele>
        <time>2013-05-22T17:46:41Z</time>
      </trkpt>
      <trkpt lat="59.868386" lon="17.6595961">
        <ele>18.4023</ele>
        <time>2013-05-22T17:46:42Z</time>
      </trkpt>
      <trkpt lat="59.8683849" lon="17.6595975">
        <ele>18.4023</ele>
        <time>2013-05-22T17:46:43Z</time>
      </trkpt>
      <trkpt lat="59.868386" lon="17.6595998">
        <ele>17.9218</ele>
        <time>2013-05-22T17:46:44Z</time>
      </trkpt>
      <trkpt lat="59.8683594" lon="17.6595454">
        <ele>23.209</ele>
        <time>2013-05-22T17:47:24Z</time>
      </trkpt>
      <trkpt lat="59.8683373" lon="17.6595078">
        <ele>23.209</ele>
        <time>2013-05-22T17:47:25Z</time>
      </trkpt>
      <trkpt lat="59.8683114" lon="17.6594596">
        <ele>23.209</ele>
        <time>2013-05-22T17:47:26Z</time>
      </trkpt>
      <trkpt lat="59.8682833" lon="17.6594034">
        <ele>23.209</ele>
        <time>2013-05-22T17:47:27Z</time>
      </trkpt>
      <trkpt lat="59.8682491" lon="17.6593483">
        <ele>23.209</ele>
        <time>2013-05-22T17:47:28Z</time>
      </trkpt>
      <trkpt lat="59.8682141" lon="17.6592839">
        <ele>23.209</ele>
        <time>2013-05-22T17:47:29Z</time>
      </trkpt>
      <trkpt lat="59.8681903" lon="17.6591973">
        <ele>23.209</ele>
        <time>2013-05-22T17:47:30Z</time>
      </trkpt>
      <trkpt lat="59.8681784" lon="17.6590975">
        <ele>23.209</ele>
        <time>2013-05-22T17:47:31Z</time>
      </trkpt>
      <trkpt lat="59.8681708" lon="17.6589948">
        <ele>23.6896</ele>
        <time>2013-05-22T17:47:32Z</time>
      </trkpt>
      <trkpt lat="59.8681682" lon="17.658888">
        <ele>23.6896</ele>
        <time>2013-05-22T17:47:33Z</time>
      </trkpt>
      <trkpt lat="59.8681559" lon="17.6587789">
        <ele>24.1703</ele>
        <time>2013-05-22T17:47:34Z</time>
      </trkpt>
      <trkpt lat="59.8681255" lon="17.6586737">
        <ele>24.1703</ele>
        <time>2013-05-22T17:47:35Z</time>
      </trkpt>
      <trkpt lat="59.8680788" lon="17.6585734">
        <ele>24.1703</ele>
        <time>2013-05-22T17:47:36Z</time>
      </trkpt>
      <trkpt lat="59.8680276" lon="17.6584759">
        <ele>24.651</ele>
        <time>2013-05-22T17:47:37Z</time>
      </trkpt>
      <trkpt lat="59.8679762" lon="17.6583769">
        <ele>24.651</ele>
        <time>2013-05-22T17:47:38Z</time>
      </trkpt>
      <trkpt lat="59.867924" lon="17.6582762">
        <ele>25.1317</ele>
        <time>2013-05-22T17:47:39Z</time>
      </trkpt>
      <trkpt lat="59.8678732" lon="17.6581728">
        <ele>25.1317</ele>
        <time>2013-05-22T17:47:40Z</time>
      </trkpt>
      <trkpt lat="59.8678234" lon="17.6580657">
        <ele>25.6123</ele>
        <time>2013-05-22T17:47:41Z</time>
      </trkpt>
      <trkpt lat="59.867774" lon="17.6579546">
        <ele>25.6123</ele>
        <time>2013-05-22T17:47:42Z</time>
      </trkpt>
      <trkpt lat="59.8677249" lon="17.6578403">
        <ele>25.6123</ele>
        <time>2013-05-22T17:47:43Z</time>
      </trkpt>
      <trkpt lat="59.8676725" lon="17.657728">
        <ele>25.6123</ele>
        <time>2013-05-22T17:47:44Z</time>
      </trkpt>
      <trkpt lat="59.8676176" lon="17.6576189">
        <ele>25.6123</ele>
        <time>2013-05-22T17:47:45Z</time>
      </trkpt>
      <trkpt lat="59.8675629" lon="17.6575075">
        <ele>25.6123</ele>
        <time>2013-05-22T17:47:46Z</time>
      </trkpt>
      <trkpt lat="59.8675121" lon="17.6573917">
        <ele>26.0929</ele>
        <time>2013-05-22T17:47:47Z</time>
      </trkpt>
      <trkpt lat="59.8674617" lon="17.6572762">
        <ele>26.0929</ele>
        <time>2013-05-22T17:47:48Z</time>
      </trkpt>
      <trkpt lat="59.867411" lon="17.6571625">
        <ele>26.5736</ele>
        <time>2013-05-22T17:47:49Z</time>
      </trkpt>
      <trkpt lat="59.8673607" lon="17.6570498">
        <ele>26.5736</ele>
        <time>2013-05-22T17:47:50Z</time>
      </trkpt>
      <trkpt lat="59.8673111" lon="17.6569372">
        <ele>26.5736</ele>
        <time>2013-05-22T17:47:51Z</time>
      </trkpt>
      <trkpt lat="59.8672623" lon="17.6568263">
        <ele>27.0543</ele>
        <time>2013-05-22T17:47:52Z</time>
      </trkpt>
      <trkpt lat="59.8672138" lon="17.6567187">
        <ele>27.0543</ele>
        <time>2013-05-22T17:47:53Z</time>
      </trkpt>
      <trkpt lat="59.8671666" lon="17.656614">
        <ele>27.0543</ele>
        <time>2013-05-22T17:47:54Z</time>
      </trkpt>
      <trkpt lat="59.8671209" lon="17.6565086">
        <ele>27.0543</ele>
        <time>2013-05-22T17:47:55Z</time>
      </trkpt>
      <trkpt lat="59.8670765" lon="17.6564031">
        <ele>27.5349</ele>
        <time>2013-05-22T17:47:56Z</time>
      </trkpt>
      <trkpt lat="59.8670326" lon="17.6562976">
        <ele>27.5349</ele>
        <time>2013-05-22T17:47:57Z</time>
      </trkpt>
      <trkpt lat="59.8669889" lon="17.6561945">
        <ele>27.5349</ele>
        <time>2013-05-22T17:47:58Z</time>
      </trkpt>
      <trkpt lat="59.8669454" lon="17.6560947">
        <ele>27.5349</ele>
        <time>2013-05-22T17:47:59Z</time>
      </trkpt>
      <trkpt lat="59.8669015" lon="17.6559987">
        <ele>27.5349</ele>
        <time>2013-05-22T17:48:00Z</time>
      </trkpt>
      <trkpt lat="59.8668568" lon="17.6559064">
        <ele>28.0155</ele>
        <time>2013-05-22T17:48:01Z</time>
      </trkpt>
      <trkpt lat="59.8668128" lon="17.6558136">
        <ele>28.0155</ele>
        <time>2013-05-22T17:48:02Z</time>
      </trkpt>
      <trkpt lat="59.8667698" lon="17.6557186">
        <ele>28.0155</ele>
        <time>2013-05-22T17:48:03Z</time>
      </trkpt>
      <trkpt lat="59.866728" lon="17.6556232">
        <ele>28.0155</ele>
        <time>2013-05-22T17:48:04Z</time>
      </trkpt>
      <trkpt lat="59.8666876" lon="17.6555268">
        <ele>27.5349</ele>
        <time>2013-05-22T17:48:05Z</time>
      </trkpt>
      <trkpt lat="59.866646" lon="17.6554329">
        <ele>27.5349</ele>
        <time>2013-05-22T17:48:06Z</time>
      </trkpt>
      <trkpt lat="59.8666038" lon="17.6553412">
        <ele>27.5349</ele>
        <time>2013-05-22T17:48:07Z</time>
      </trkpt>
      <trkpt lat="59.866561" lon="17.6552484">
        <ele>27.5349</ele>
        <time>2013-05-22T17:48:08Z</time>
      </trkpt>
      <trkpt lat="59.8665186" lon="17.6551521">
        <ele>27.0543</ele>
        <time>2013-05-22T17:48:09Z</time>
      </trkpt>
      <trkpt lat="59.8664761" lon="17.6550559">
        <ele>27.0543</ele>
        <time>2013-05-22T17:48:10Z</time>
      </trkpt>
      <trkpt lat="59.8664326" lon="17.6549617">
        <ele>27.0543</ele>
        <time>2013-05-22T17:48:11Z</time>
      </trkpt>
      <trkpt lat="59.8663885" lon="17.6548664">
        <ele>26.5736</ele>
        <time>2013-05-22T17:48:12Z</time>
      </trkpt>
      <trkpt lat="59.8663451" lon="17.654769">
        <ele>26.5736</ele>
        <time>2013-05-22T17:48:13Z</time>
      </trkpt>
      <trkpt lat="59.866301" lon="17.6546716">
        <ele>26.0929</ele>
        <time>2013-05-22T17:48:14Z</time>
      </trkpt>
      <trkpt lat="59.8662554" lon="17.6545752">
        <ele>25.6123</ele>
        <time>2013-05-22T17:48:15Z</time>
      </trkpt>
      <trkpt lat="59.8662089" lon="17.6544779">
        <ele>25.6123</ele>
        <time>2013-05-22T17:48:16Z</time>
      </trkpt>
      <trkpt lat="59.8661656" lon="17.654377">
        <ele>25.1317</ele>
        <time>2013-05-22T17:48:17Z</time>
      </trkpt>
      <trkpt lat="59.8661253" lon="17.6542742">
        <ele>24.651</ele>
        <time>2013-05-22T17:48:18Z</time>
      </trkpt>
      <trkpt lat="59.8660839" lon="17.6541752">
        <ele>24.651</ele>
        <time>2013-05-22T17:48:19Z</time>
      </trkpt>
      <trkpt lat="59.86604" lon="17.65408">
        <ele>24.1703</ele>
        <time>2013-05-22T17:48:20Z</time>
      </trkpt>
      <trkpt lat="59.865996" lon="17.6539851">
        <ele>24.1703</ele>
        <time>2013-05-22T17:48:21Z</time>
      </trkpt>
      <trkpt lat="59.8659523" lon="17.6538913">
        <ele>23.6896</ele>
        <time>2013-05-22T17:48:22Z</time>
      </trkpt>
      <trkpt lat="59.8659077" lon="17.6538011">
        <ele>23.209</ele>
        <time>2013-05-22T17:48:23Z</time>
      </trkpt>
      <trkpt lat="59.8658633" lon="17.6537091">
        <ele>22.7283</ele>
        <time>2013-05-22T17:48:24Z</time>
      </trkpt>
      <trkpt lat="59.8658194" lon="17.6536153">
        <ele>22.2476</ele>
        <time>2013-05-22T17:48:25Z</time>
      </trkpt>
      <trkpt lat="59.8657767" lon="17.6535207">
        <ele>22.2476</ele>
        <time>2013-05-22T17:48:26Z</time>
      </trkpt>
      <trkpt lat="59.8657347" lon="17.6534266">
        <ele>21.767</ele>
        <time>2013-05-22T17:48:27Z</time>
      </trkpt>
      <trkpt lat="59.8656913" lon="17.6533375">
        <ele>21.2864</ele>
        <time>2013-05-22T17:48:28Z</time>
      </trkpt>
      <trkpt lat="59.8656483" lon="17.6532489">
        <ele>21.2864</ele>
        <time>2013-05-22T17:48:29Z</time>
      </trkpt>
      <trkpt lat="59.8656043" lon="17.6531591">
        <ele>20.8057</ele>
        <time>2013-05-22T17:48:30Z</time>
      </trkpt>
      <trkpt lat="59.8655544" lon="17.6530673">
        <ele>20.8057</ele>
        <time>2013-05-22T17:48:31Z</time>
      </trkpt>
      <trkpt lat="59.8655044" lon="17.6529839">
        <ele>20.325</ele>
        <time>2013-05-22T17:48:32Z</time>
      </trkpt>
      <trkpt lat="59.8654547" lon="17.6529016">
        <ele>20.325</ele>
        <time>2013-05-22T17:48:33Z</time>
      </trkpt>
      <trkpt lat="59.8654059" lon="17.652814">
        <ele>20.325</ele>
        <time>2013-05-22T17:48:34Z</time>
      </trkpt>
      <trkpt lat="59.8653582" lon="17.6527258">
        <ele>19.8444</ele>
        <time>2013-05-22T17:48:35Z</time>
      </trkpt>
      <trkpt lat="59.865314" lon="17.6526327">
        <ele>19.8444</ele>
        <time>2013-05-22T17:48:36Z</time>
      </trkpt>
      <trkpt lat="59.865272" lon="17.6525367">
        <ele>19.8444</ele>
        <time>2013-05-22T17:48:37Z</time>
      </trkpt>
      <trkpt lat="59.8652324" lon="17.6524393">
        <ele>19.3638</ele>
        <time>2013-05-22T17:48:38Z</time>
      </trkpt>
      <trkpt lat="59.8651883" lon="17.6523453">
        <ele>18.8831</ele>
        <time>2013-05-22T17:48:39Z</time>
      </trkpt>
      <trkpt lat="59.8651439" lon="17.6522509">
        <ele>18.8831</ele>
        <time>2013-05-22T17:48:40Z</time>
      </trkpt>
      <trkpt lat="59.8651002" lon="17.6521541">
        <ele>18.8831</ele>
        <time>2013-05-22T17:48:41Z</time>
      </trkpt>
      <trkpt lat="59.8650565" lon="17.6520585">
        <ele>18.8831</ele>
        <time>2013-05-22T17:48:42Z</time>
      </trkpt>
      <trkpt lat="59.8650128" lon="17.6519655">
        <ele>18.8831</ele>
        <time>2013-05-22T17:48:43Z</time>
      </trkpt>
      <trkpt lat="59.8649695" lon="17.6518744">
        <ele>18.8831</ele>
        <time>2013-05-22T17:48:44Z</time>
      </trkpt>
      <trkpt lat="59.8649273" lon="17.6517871">
        <ele>18.8831</ele>
        <time>2013-05-22T17:48:45Z</time>
      </trkpt>
      <trkpt lat="59.864888" lon="17.6517018">
        <ele>18.4023</ele>
        <time>2013-05-22T17:48:46Z</time>
      </trkpt>
      <trkpt lat="59.8648469" lon="17.6516221">
        <ele>17.9218</ele>
        <time>2013-05-22T17:48:47Z</time>
      </trkpt>
      <trkpt lat="59.8648071" lon="17.6515433">
        <ele>17.9218</ele>
        <time>2013-05-22T17:48:48Z</time>
      </trkpt>
      <trkpt lat="59.8647687" lon="17.6514639">
        <ele>17.9218</ele>
        <time>2013-05-22T17:48:49Z</time>
      </trkpt>
      <trkpt lat="59.8647316" lon="17.6513838">
        <ele>17.9218</ele>
        <time>2013-05-22T17:48:50Z</time>
      </trkpt>
      <trkpt lat="59.8646955" lon="17.651305">
        <ele>17.4412</ele>
        <time>2013-05-22T17:48:51Z</time>
      </trkpt>
      <trkpt lat="59.8646629" lon="17.6512356">
        <ele>17.4412</ele>
        <time>2013-05-22T17:48:52Z</time>
      </trkpt>
      <trkpt lat="59.8646382" lon="17.6511781">
        <ele>17.4412</ele>
        <time>2013-05-22T17:48:53Z</time>
      </trkpt>
      <trkpt lat="59.864624" lon="17.6511339">
        <ele>16.9604</ele>
        <time>2013-05-22T17:48:54Z</time>
      </trkpt>
      <trkpt lat="59.8646077" lon="17.6511095">
        <ele>16.9604</ele>
        <time>2013-05-22T17:48:55Z</time>
      </trkpt>
      <trkpt lat="59.8645946" lon="17.6510916">
        <ele>16.4797</ele>
        <time>2013-05-22T17:48:56Z</time>
      </trkpt>
      <trkpt lat="59.8645898" lon="17.6510655">
        <ele>16.4797</ele>
        <time>2013-05-22T17:48:57Z</time>
      </trkpt>
      <trkpt lat="59.8645925" lon="17.6510347">
        <ele>15.999</ele>
        <time>2013-05-22T17:48:58Z</time>
      </trkpt>
      <trkpt lat="59.8645989" lon="17.650999">
        <ele>15.999</ele>
        <time>2013-05-22T17:48:59Z</time>
      </trkpt>
      <trkpt lat="59.8646087" lon="17.6509559">
        <ele>15.5184</ele>
        <time>2013-05-22T17:49:00Z</time>
      </trkpt>
      <trkpt lat="59.8646137" lon="17.6509077">
        <ele>15.5184</ele>
        <time>2013-05-22T17:49:01Z</time>
      </trkpt>
      <trkpt lat="59.8646029" lon="17.6508673">
        <ele>15.5184</ele>
        <time>2013-05-22T17:49:02Z</time>
      </trkpt>
      <trkpt lat="59.864579" lon="17.6508542">
        <ele>15.5184</ele>
        <time>2013-05-22T17:49:03Z</time>
      </trkpt>
      <trkpt lat="59.8645507" lon="17.650873">
        <ele>15.0377</ele>
        <time>2013-05-22T17:49:04Z</time>
      </trkpt>
      <trkpt lat="59.8645235" lon="17.6509102">
        <ele>15.0377</ele>
        <time>2013-05-22T17:49:05Z</time>
      </trkpt>
      <trkpt lat="59.864499" lon="17.6509445">
        <ele>15.0377</ele>
        <time>2013-05-22T17:49:06Z</time>
      </trkpt>
      <trkpt lat="59.8644774" lon="17.6509685">
        <ele>15.0377</ele>
        <time>2013-05-22T17:49:07Z</time>
      </trkpt>
      <trkpt lat="59.8644558" lon="17.6509922">
        <ele>15.0377</ele>
        <time>2013-05-22T17:49:08Z</time>
      </trkpt>
      <trkpt lat="59.8644323" lon="17.6510287">
        <ele>14.557</ele>
        <time>2013-05-22T17:49:09Z</time>
      </trkpt>
      <trkpt lat="59.8644059" lon="17.6510757">
        <ele>14.557</ele>
        <time>2013-05-22T17:49:10Z</time>
      </trkpt>
      <trkpt lat="59.8643777" lon="17.6511227">
        <ele>14.557</ele>
        <time>2013-05-22T17:49:11Z</time>
      </trkpt>
      <trkpt lat="59.8643471" lon="17.6511459">
        <ele>14.557</ele>
        <time>2013-05-22T17:49:12Z</time>
      </trkpt>
      <trkpt lat="59.8643137" lon="17.6511368">
        <ele>14.557</ele>
        <time>2013-05-22T17:49:13Z</time>
      </trkpt>
      <trkpt lat="59.8642785" lon="17.6511004">
        <ele>14.557</ele>
        <time>2013-05-22T17:49:14Z</time>
      </trkpt>
      <trkpt lat="59.8642424" lon="17.6510423">
        <ele>14.557</ele>
        <time>2013-05-22T17:49:15Z</time>
      </trkpt>
      <trkpt lat="59.8642061" lon="17.6509728">
        <ele>14.557</ele>
        <time>2013-05-22T17:49:16Z</time>
      </trkpt>
      <trkpt lat="59.8641693" lon="17.6508958">
        <ele>14.557</ele>
        <time>2013-05-22T17:49:17Z</time>
      </trkpt>
      <trkpt lat="59.864129" lon="17.6508162">
        <ele>14.557</ele>
        <time>2013-05-22T17:49:18Z</time>
      </trkpt>
      <trkpt lat="59.8640907" lon="17.6507331">
        <ele>14.557</ele>
        <time>2013-05-22T17:49:19Z</time>
      </trkpt>
      <trkpt lat="59.8640519" lon="17.6506457">
        <ele>14.557</ele>
        <time>2013-05-22T17:49:20Z</time>
      </trkpt>
      <trkpt lat="59.8640146" lon="17.6505534">
        <ele>14.557</ele>
        <time>2013-05-22T17:49:21Z</time>
      </trkpt>
      <trkpt lat="59.8639739" lon="17.6504577">
        <ele>14.557</ele>
        <time>2013-05-22T17:49:22Z</time>
      </trkpt>
      <trkpt lat="59.8639312" lon="17.6503597">
        <ele>15.0377</ele>
        <time>2013-05-22T17:49:23Z</time>
      </trkpt>
      <trkpt lat="59.8638865" lon="17.6502581">
        <ele>15.0377</ele>
        <time>2013-05-22T17:49:24Z</time>
      </trkpt>
      <trkpt lat="59.8638395" lon="17.6501538">
        <ele>15.0377</ele>
        <time>2013-05-22T17:49:25Z</time>
      </trkpt>
      <trkpt lat="59.8637902" lon="17.6500468">
        <ele>15.0377</ele>
        <time>2013-05-22T17:49:26Z</time>
      </trkpt>
      <trkpt lat="59.863742" lon="17.6499428">
        <ele>15.0377</ele>
        <time>2013-05-22T17:49:27Z</time>
      </trkpt>
      <trkpt lat="59.8636974" lon="17.6498468">
        <ele>15.0377</ele>
        <time>2013-05-22T17:49:28Z</time>
      </trkpt>
      <trkpt lat="59.8636535" lon="17.6497566">
        <ele>15.0377</ele>
        <time>2013-05-22T17:49:29Z</time>
      </trkpt>
      <trkpt lat="59.863602" lon="17.649669">
        <ele>15.0377</ele>
        <time>2013-05-22T17:49:30Z</time>
      </trkpt>
      <trkpt lat="59.8635497" lon="17.6495801">
        <ele>15.0377</ele>
        <time>2013-05-22T17:49:31Z</time>
      </trkpt>
      <trkpt lat="59.8634968" lon="17.6494875">
        <ele>15.0377</ele>
        <time>2013-05-22T17:49:32Z</time>
      </trkpt>
      <trkpt lat="59.8634514" lon="17.6493889">
        <ele>15.0377</ele>
        <time>2013-05-22T17:49:33Z</time>
      </trkpt>
      <trkpt lat="59.8634115" lon="17.6492868">
        <ele>15.0377</ele>
        <time>2013-05-22T17:49:34Z</time>
      </trkpt>
      <trkpt lat="59.8633684" lon="17.6491848">
        <ele>14.557</ele>
        <time>2013-05-22T17:49:35Z</time>
      </trkpt>
      <trkpt lat="59.8633261" lon="17.6490852">
        <ele>14.557</ele>
        <time>2013-05-22T17:49:36Z</time>
      </trkpt>
      <trkpt lat="59.8632825" lon="17.6489927">
        <ele>14.557</ele>
        <time>2013-05-22T17:49:37Z</time>
      </trkpt>
      <trkpt lat="59.8632444" lon="17.648913">
        <ele>14.557</ele>
        <time>2013-05-22T17:49:38Z</time>
      </trkpt>
      <trkpt lat="59.8632028" lon="17.6488621">
        <ele>14.0764</ele>
        <time>2013-05-22T17:49:39Z</time>
      </trkpt>
      <trkpt lat="59.8631588" lon="17.6488523">
        <ele>14.0764</ele>
        <time>2013-05-22T17:49:40Z</time>
      </trkpt>
      <trkpt lat="59.8631102" lon="17.6488693">
        <ele>13.5958</ele>
        <time>2013-05-22T17:49:41Z</time>
      </trkpt>
      <trkpt lat="59.8630542" lon="17.6488978">
        <ele>14.0764</ele>
        <time>2013-05-22T17:49:42Z</time>
      </trkpt>
      <trkpt lat="59.8630083" lon="17.6489464">
        <ele>14.0764</ele>
        <time>2013-05-22T17:49:43Z</time>
      </trkpt>
      <trkpt lat="59.8629623" lon="17.6490004">
        <ele>13.5958</ele>
        <time>2013-05-22T17:49:44Z</time>
      </trkpt>
      <trkpt lat="59.8629137" lon="17.6490626">
        <ele>13.1151</ele>
        <time>2013-05-22T17:49:45Z</time>
      </trkpt>
      <trkpt lat="59.8628645" lon="17.6491383">
        <ele>13.5958</ele>
        <time>2013-05-22T17:49:46Z</time>
      </trkpt>
      <trkpt lat="59.8628077" lon="17.6492085">
        <ele>15.0377</ele>
        <time>2013-05-22T17:49:47Z</time>
      </trkpt>
      <trkpt lat="59.862749" lon="17.6492641">
        <ele>15.999</ele>
        <time>2013-05-22T17:49:48Z</time>
      </trkpt>
      <trkpt lat="59.8626939" lon="17.6493195">
        <ele>16.4797</ele>
        <time>2013-05-22T17:49:49Z</time>
      </trkpt>
      <trkpt lat="59.8626361" lon="17.649376">
        <ele>16.9604</ele>
        <time>2013-05-22T17:49:50Z</time>
      </trkpt>
      <trkpt lat="59.8625856" lon="17.6494381">
        <ele>16.9604</ele>
        <time>2013-05-22T17:49:51Z</time>
      </trkpt>
      <trkpt lat="59.8625339" lon="17.6495037">
        <ele>16.9604</ele>
        <time>2013-05-22T17:49:52Z</time>
      </trkpt>
      <trkpt lat="59.8624853" lon="17.6495718">
        <ele>16.4797</ele>
        <time>2013-05-22T17:49:53Z</time>
      </trkpt>
      <trkpt lat="59.8624372" lon="17.6496391">
        <ele>15.999</ele>
        <time>2013-05-22T17:49:54Z</time>
      </trkpt>
      <trkpt lat="59.8623853" lon="17.6497039">
        <ele>15.999</ele>
        <time>2013-05-22T17:49:55Z</time>
      </trkpt>
      <trkpt lat="59.8623241" lon="17.6497784">
        <ele>17.4412</ele>
        <time>2013-05-22T17:49:56Z</time>
      </trkpt>
      <trkpt lat="59.8622678" lon="17.6498562">
        <ele>18.8831</ele>
        <time>2013-05-22T17:49:57Z</time>
      </trkpt>
      <trkpt lat="59.8622133" lon="17.6499324">
        <ele>20.325</ele>
        <time>2013-05-22T17:49:58Z</time>
      </trkpt>
      <trkpt lat="59.8621601" lon="17.6500085">
        <ele>21.2864</ele>
        <time>2013-05-22T17:49:59Z</time>
      </trkpt>
      <trkpt lat="59.8621055" lon="17.65007">
        <ele>22.2476</ele>
        <time>2013-05-22T17:50:00Z</time>
      </trkpt>
      <trkpt lat="59.8620588" lon="17.6501254">
        <ele>22.2476</ele>
        <time>2013-05-22T17:50:01Z</time>
      </trkpt>
      <trkpt lat="59.8620092" lon="17.6501473">
        <ele>22.2476</ele>
        <time>2013-05-22T17:50:02Z</time>
      </trkpt>
      <trkpt lat="59.8619687" lon="17.6500894">
        <ele>21.767</ele>
        <time>2013-05-22T17:50:03Z</time>
      </trkpt>
      <trkpt lat="59.8619388" lon="17.650008">
        <ele>21.2864</ele>
        <time>2013-05-22T17:50:04Z</time>
      </trkpt>
      <trkpt lat="59.8619175" lon="17.6499135">
        <ele>21.2864</ele>
        <time>2013-05-22T17:50:05Z</time>
      </trkpt>
      <trkpt lat="59.8618969" lon="17.6498148">
        <ele>20.8057</ele>
        <time>2013-05-22T17:50:06Z</time>
      </trkpt>
      <trkpt lat="59.8618741" lon="17.6497125">
        <ele>20.325</ele>
        <time>2013-05-22T17:50:07Z</time>
      </trkpt>
      <trkpt lat="59.8618502" lon="17.649608">
        <ele>20.325</ele>
        <time>2013-05-22T17:50:08Z</time>
      </trkpt>
      <trkpt lat="59.8618264" lon="17.6495042">
        <ele>19.8444</ele>
        <time>2013-05-22T17:50:09Z</time>
      </trkpt>
      <trkpt lat="59.8618094" lon="17.6493982">
        <ele>19.8444</ele>
        <time>2013-05-22T17:50:10Z</time>
      </trkpt>
      <trkpt lat="59.8617858" lon="17.6492963">
        <ele>19.3638</ele>
        <time>2013-05-22T17:50:11Z</time>
      </trkpt>
      <trkpt lat="59.8617621" lon="17.6491973">
        <ele>19.3638</ele>
        <time>2013-05-22T17:50:12Z</time>
      </trkpt>
      <trkpt lat="59.8617378" lon="17.6491012">
        <ele>19.3638</ele>
        <time>2013-05-22T17:50:13Z</time>
      </trkpt>
      <trkpt lat="59.8617145" lon="17.6490071">
        <ele>18.8831</ele>
        <time>2013-05-22T17:50:14Z</time>
      </trkpt>
      <trkpt lat="59.8616969" lon="17.6489187">
        <ele>18.8831</ele>
        <time>2013-05-22T17:50:15Z</time>
      </trkpt>
      <trkpt lat="59.8616855" lon="17.6488449">
        <ele>18.4023</ele>
        <time>2013-05-22T17:50:16Z</time>
      </trkpt>
      <trkpt lat="59.8616752" lon="17.6487849">
        <ele>18.4023</ele>
        <time>2013-05-22T17:50:17Z</time>
      </trkpt>
      <trkpt lat="59.8616669" lon="17.6487466">
        <ele>18.4023</ele>
        <time>2013-05-22T17:50:18Z</time>
      </trkpt>
      <trkpt lat="59.8616637" lon="17.6487252">
        <ele>18.4023</ele>
        <time>2013-05-22T17:50:19Z</time>
      </trkpt>
      <trkpt lat="59.8616612" lon="17.6487141">
        <ele>18.4023</ele>
        <time>2013-05-22T17:50:20Z</time>
      </trkpt>
      <trkpt lat="59.8616563" lon="17.6487112">
        <ele>17.9218</ele>
        <time>2013-05-22T17:50:21Z</time>
      </trkpt>
      <trkpt lat="59.8616506" lon="17.6487151">
        <ele>17.9218</ele>
        <time>2013-05-22T17:50:22Z</time>
      </trkpt>
      <trkpt lat="59.8616478" lon="17.6487284">
        <ele>17.9218</ele>
        <time>2013-05-22T17:50:23Z</time>
      </trkpt>
      <trkpt lat="59.8616493" lon="17.648747">
        <ele>17.4412</ele>
        <time>2013-05-22T17:50:24Z</time>
      </trkpt>
      <trkpt lat="59.8616571" lon="17.6487523">
        <ele>17.4412</ele>
        <time>2013-05-22T17:50:25Z</time>
      </trkpt>
      <trkpt lat="59.8616618" lon="17.6487409">
        <ele>17.4412</ele>
        <time>2013-05-22T17:50:26Z</time>
      </trkpt>
      <trkpt lat="59.8616575" lon="17.6487273">
        <ele>17.4412</ele>
        <time>2013-05-22T17:50:27Z</time>
      </trkpt>
      <trkpt lat="59.8616493" lon="17.6487206">
        <ele>16.9604</ele>
        <time>2013-05-22T17:50:28Z</time>
      </trkpt>
      <trkpt lat="59.8616372" lon="17.6487123">
        <ele>16.9604</ele>
        <time>2013-05-22T17:50:29Z</time>
      </trkpt>
      <trkpt lat="59.8616187" lon="17.6486947">
        <ele>16.9604</ele>
        <time>2013-05-22T17:50:30Z</time>
      </trkpt>
      <trkpt lat="59.8615983" lon="17.6486673">
        <ele>16.9604</ele>
        <time>2013-05-22T17:50:31Z</time>
      </trkpt>
      <trkpt lat="59.8615856" lon="17.6486317">
        <ele>16.9604</ele>
        <time>2013-05-22T17:50:32Z</time>
      </trkpt>
      <trkpt lat="59.8615833" lon="17.6485951">
        <ele>16.9604</ele>
        <time>2013-05-22T17:50:33Z</time>
      </trkpt>
      <trkpt lat="59.8615786" lon="17.648555">
        <ele>16.4797</ele>
        <time>2013-05-22T17:50:34Z</time>
      </trkpt>
      <trkpt lat="59.8615581" lon="17.6485181">
        <ele>16.4797</ele>
        <time>2013-05-22T17:50:35Z</time>
      </trkpt>
      <trkpt lat="59.8615266" lon="17.6485118">
        <ele>16.4797</ele>
        <time>2013-05-22T17:50:36Z</time>
      </trkpt>
      <trkpt lat="59.8614891" lon="17.6485481">
        <ele>16.4797</ele>
        <time>2013-05-22T17:50:37Z</time>
      </trkpt>
      <trkpt lat="59.8614494" lon="17.6486103">
        <ele>16.4797</ele>
        <time>2013-05-22T17:50:38Z</time>
      </trkpt>
      <trkpt lat="59.8614079" lon="17.6486847">
        <ele>16.4797</ele>
        <time>2013-05-22T17:50:39Z</time>
      </trkpt>
      <trkpt lat="59.8613649" lon="17.6487651">
        <ele>16.4797</ele>
        <time>2013-05-22T17:50:40Z</time>
      </trkpt>
      <trkpt lat="59.8613231" lon="17.6488496">
        <ele>16.4797</ele>
        <time>2013-05-22T17:50:41Z</time>
      </trkpt>
      <trkpt lat="59.8612779" lon="17.6489361">
        <ele>16.4797</ele>
        <time>2013-05-22T17:50:42Z</time>
      </trkpt>
      <trkpt lat="59.8612319" lon="17.6490252">
        <ele>15.999</ele>
        <time>2013-05-22T17:50:43Z</time>
      </trkpt>
      <trkpt lat="59.8611852" lon="17.6491165">
        <ele>15.999</ele>
        <time>2013-05-22T17:50:44Z</time>
      </trkpt>
      <trkpt lat="59.8611368" lon="17.6492077">
        <ele>15.999</ele>
        <time>2013-05-22T17:50:45Z</time>
      </trkpt>
      <trkpt lat="59.8610873" lon="17.6493035">
        <ele>15.999</ele>
        <time>2013-05-22T17:50:46Z</time>
      </trkpt>
      <trkpt lat="59.8610354" lon="17.6493988">
        <ele>15.999</ele>
        <time>2013-05-22T17:50:47Z</time>
      </trkpt>
      <trkpt lat="59.8609816" lon="17.6494941">
        <ele>15.999</ele>
        <time>2013-05-22T17:50:48Z</time>
      </trkpt>
      <trkpt lat="59.8609282" lon="17.6495904">
        <ele>15.999</ele>
        <time>2013-05-22T17:50:49Z</time>
      </trkpt>
      <trkpt lat="59.8608774" lon="17.6496909">
        <ele>15.999</ele>
        <time>2013-05-22T17:50:50Z</time>
      </trkpt>
      <trkpt lat="59.8608263" lon="17.6497928">
        <ele>15.999</ele>
        <time>2013-05-22T17:50:51Z</time>
      </trkpt>
      <trkpt lat="59.8607764" lon="17.6499049">
        <ele>16.9604</ele>
        <time>2013-05-22T17:50:52Z</time>
      </trkpt>
      <trkpt lat="59.8607247" lon="17.6500089">
        <ele>16.9604</ele>
        <time>2013-05-22T17:50:53Z</time>
      </trkpt>
      <trkpt lat="59.8606713" lon="17.6501121">
        <ele>17.4412</ele>
        <time>2013-05-22T17:50:54Z</time>
      </trkpt>
      <trkpt lat="59.8606185" lon="17.650215">
        <ele>17.4412</ele>
        <time>2013-05-22T17:50:55Z</time>
      </trkpt>
      <trkpt lat="59.8605725" lon="17.6503229">
        <ele>18.4023</ele>
        <time>2013-05-22T17:50:56Z</time>
      </trkpt>
      <trkpt lat="59.860521" lon="17.6504256">
        <ele>18.8831</ele>
        <time>2013-05-22T17:50:57Z</time>
      </trkpt>
      <trkpt lat="59.8604704" lon="17.6505254">
        <ele>18.8831</ele>
        <time>2013-05-22T17:50:58Z</time>
      </trkpt>
      <trkpt lat="59.8604154" lon="17.6506187">
        <ele>18.8831</ele>
        <time>2013-05-22T17:50:59Z</time>
      </trkpt>
      <trkpt lat="59.86036" lon="17.6507076">
        <ele>18.8831</ele>
        <time>2013-05-22T17:51:00Z</time>
      </trkpt>
      <trkpt lat="59.8603113" lon="17.6507998">
        <ele>18.8831</ele>
        <time>2013-05-22T17:51:01Z</time>
      </trkpt>
      <trkpt lat="59.8602631" lon="17.6508917">
        <ele>19.3638</ele>
        <time>2013-05-22T17:51:02Z</time>
      </trkpt>
      <trkpt lat="59.8602144" lon="17.6509854">
        <ele>18.8831</ele>
        <time>2013-05-22T17:51:03Z</time>
      </trkpt>
      <trkpt lat="59.8601712" lon="17.651092">
        <ele>19.3638</ele>
        <time>2013-05-22T17:51:04Z</time>
      </trkpt>
      <trkpt lat="59.8601242" lon="17.6511936">
        <ele>18.8831</ele>
        <time>2013-05-22T17:51:05Z</time>
      </trkpt>
      <trkpt lat="59.8600751" lon="17.6512948">
        <ele>18.8831</ele>
        <time>2013-05-22T17:51:06Z</time>
      </trkpt>
      <trkpt lat="59.8600264" lon="17.6513967">
        <ele>19.8444</ele>
        <time>2013-05-22T17:51:07Z</time>
      </trkpt>
      <trkpt lat="59.8599703" lon="17.6514864">
        <ele>19.8444</ele>
        <time>2013-05-22T17:51:08Z</time>
      </trkpt>
      <trkpt lat="59.8599182" lon="17.6515781">
        <ele>20.8057</ele>
        <time>2013-05-22T17:51:09Z</time>
      </trkpt>
      <trkpt lat="59.8598664" lon="17.6516719">
        <ele>21.2864</ele>
        <time>2013-05-22T17:51:10Z</time>
      </trkpt>
      <trkpt lat="59.8598174" lon="17.6517719">
        <ele>21.767</ele>
        <time>2013-05-22T17:51:11Z</time>
      </trkpt>
      <trkpt lat="59.8597757" lon="17.6518877">
        <ele>23.209</ele>
        <time>2013-05-22T17:51:12Z</time>
      </trkpt>
      <trkpt lat="59.8597435" lon="17.6520042">
        <ele>24.1703</ele>
        <time>2013-05-22T17:51:13Z</time>
      </trkpt>
      <trkpt lat="59.859703" lon="17.652107">
        <ele>23.6896</ele>
        <time>2013-05-22T17:51:14Z</time>
      </trkpt>
      <trkpt lat="59.859656" lon="17.6522022">
        <ele>23.6896</ele>
        <time>2013-05-22T17:51:15Z</time>
      </trkpt>
      <trkpt lat="59.8596026" lon="17.6522908">
        <ele>23.6896</ele>
        <time>2013-05-22T17:51:16Z</time>
      </trkpt>
      <trkpt lat="59.8595439" lon="17.6523623">
        <ele>23.209</ele>
        <time>2013-05-22T17:51:17Z</time>
      </trkpt>
      <trkpt lat="59.8594828" lon="17.652437">
        <ele>22.7283</ele>
        <time>2013-05-22T17:51:18Z</time>
      </trkpt>
      <trkpt lat="59.8594229" lon="17.6525182">
        <ele>22.7283</ele>
        <time>2013-05-22T17:51:19Z</time>
      </trkpt>
      <trkpt lat="59.8593441" lon="17.652603">
        <ele>22.2476</ele>
        <time>2013-05-22T17:51:20Z</time>
      </trkpt>
      <trkpt lat="59.8592753" lon="17.6526848">
        <ele>21.767</ele>
        <time>2013-05-22T17:51:21Z</time>
      </trkpt>
      <trkpt lat="59.8592172" lon="17.6527796">
        <ele>21.2864</ele>
        <time>2013-05-22T17:51:22Z</time>
      </trkpt>
      <trkpt lat="59.8591578" lon="17.65287">
        <ele>20.8057</ele>
        <time>2013-05-22T17:51:23Z</time>
      </trkpt>
      <trkpt lat="59.8591012" lon="17.6529636">
        <ele>20.325</ele>
        <time>2013-05-22T17:51:24Z</time>
      </trkpt>
      <trkpt lat="59.8590464" lon="17.6530571">
        <ele>19.8444</ele>
        <time>2013-05-22T17:51:25Z</time>
      </trkpt>
      <trkpt lat="59.8589914" lon="17.6531506">
        <ele>19.8444</ele>
        <time>2013-05-22T17:51:26Z</time>
      </trkpt>
      <trkpt lat="59.858937" lon="17.6532467">
        <ele>19.3638</ele>
        <time>2013-05-22T17:51:27Z</time>
      </trkpt>
      <trkpt lat="59.8588845" lon="17.653345">
        <ele>19.3638</ele>
        <time>2013-05-22T17:51:28Z</time>
      </trkpt>
      <trkpt lat="59.8588334" lon="17.653444">
        <ele>19.3638</ele>
        <time>2013-05-22T17:51:29Z</time>
      </trkpt>
      <trkpt lat="59.8587805" lon="17.6535377">
        <ele>19.3638</ele>
        <time>2013-05-22T17:51:30Z</time>
      </trkpt>
      <trkpt lat="59.8587309" lon="17.6536298">
        <ele>19.3638</ele>
        <time>2013-05-22T17:51:31Z</time>
      </trkpt>
      <trkpt lat="59.8586799" lon="17.6537177">
        <ele>18.8831</ele>
        <time>2013-05-22T17:51:32Z</time>
      </trkpt>
      <trkpt lat="59.8586281" lon="17.6538277">
        <ele>18.8831</ele>
        <time>2013-05-22T17:51:33Z</time>
      </trkpt>
      <trkpt lat="59.8585796" lon="17.6538993">
        <ele>18.4023</ele>
        <time>2013-05-22T17:51:34Z</time>
      </trkpt>
      <trkpt lat="59.8585364" lon="17.6539899">
        <ele>18.4023</ele>
        <time>2013-05-22T17:51:35Z</time>
      </trkpt>
      <trkpt lat="59.8584936" lon="17.6540913">
        <ele>18.4023</ele>
        <time>2013-05-22T17:51:36Z</time>
      </trkpt>
      <trkpt lat="59.8584743" lon="17.6542221">
        <ele>18.4023</ele>
        <time>2013-05-22T17:51:37Z</time>
      </trkpt>
      <trkpt lat="59.8584395" lon="17.6543473">
        <ele>18.4023</ele>
        <time>2013-05-22T17:51:38Z</time>
      </trkpt>
      <trkpt lat="59.8584081" lon="17.6544634">
        <ele>18.4023</ele>
        <time>2013-05-22T17:51:39Z</time>
      </trkpt>
      <trkpt lat="59.8583825" lon="17.6545809">
        <ele>17.9218</ele>
        <time>2013-05-22T17:51:40Z</time>
      </trkpt>
      <trkpt lat="59.8583585" lon="17.6546944">
        <ele>17.4412</ele>
        <time>2013-05-22T17:51:41Z</time>
      </trkpt>
      <trkpt lat="59.8583317" lon="17.6548047">
        <ele>16.9604</ele>
        <time>2013-05-22T17:51:42Z</time>
      </trkpt>
      <trkpt lat="59.858306" lon="17.6549206">
        <ele>16.4797</ele>
        <time>2013-05-22T17:51:43Z</time>
      </trkpt>
      <trkpt lat="59.8582794" lon="17.6550363">
        <ele>15.999</ele>
        <time>2013-05-22T17:51:44Z</time>
      </trkpt>
      <trkpt lat="59.8582417" lon="17.6551395">
        <ele>15.5184</ele>
        <time>2013-05-22T17:51:45Z</time>
      </trkpt>
      <trkpt lat="59.8581942" lon="17.6552122">
        <ele>15.999</ele>
        <time>2013-05-22T17:51:46Z</time>
      </trkpt>
      <trkpt lat="59.8581424" lon="17.65525">
        <ele>15.5184</ele>
        <time>2013-05-22T17:51:47Z</time>
      </trkpt>
      <trkpt lat="59.8580842" lon="17.6552465">
        <ele>15.0377</ele>
        <time>2013-05-22T17:51:48Z</time>
      </trkpt>
      <trkpt lat="59.8580287" lon="17.6551953">
        <ele>14.557</ele>
        <time>2013-05-22T17:51:49Z</time>
      </trkpt>
      <trkpt lat="59.857975" lon="17.6551329">
        <ele>14.0764</ele>
        <time>2013-05-22T17:51:50Z</time>
      </trkpt>
      <trkpt lat="59.8579227" lon="17.6550677">
        <ele>13.5958</ele>
        <time>2013-05-22T17:51:51Z</time>
      </trkpt>
      <trkpt lat="59.8578674" lon="17.6550094">
        <ele>13.1151</ele>
        <time>2013-05-22T17:51:52Z</time>
      </trkpt>
      <trkpt lat="59.8578106" lon="17.6549537">
        <ele>12.6344</ele>
        <time>2013-05-22T17:51:53Z</time>
      </trkpt>
      <trkpt lat="59.8577524" lon="17.6548996">
        <ele>12.1538</ele>
        <time>2013-05-22T17:51:54Z</time>
      </trkpt>
      <trkpt lat="59.8576939" lon="17.6548506">
        <ele>12.1538</ele>
        <time>2013-05-22T17:51:55Z</time>
      </trkpt>
      <trkpt lat="59.8576358" lon="17.6548062">
        <ele>11.6732</ele>
        <time>2013-05-22T17:51:56Z</time>
      </trkpt>
      <trkpt lat="59.8575763" lon="17.654785">
        <ele>11.6732</ele>
        <time>2013-05-22T17:51:57Z</time>
      </trkpt>
      <trkpt lat="59.8575156" lon="17.6547813">
        <ele>11.1925</ele>
        <time>2013-05-22T17:51:58Z</time>
      </trkpt>
      <trkpt lat="59.8574532" lon="17.6547608">
        <ele>10.7118</ele>
        <time>2013-05-22T17:51:59Z</time>
      </trkpt>
      <trkpt lat="59.8573892" lon="17.6547109">
        <ele>10.7118</ele>
        <time>2013-05-22T17:52:00Z</time>
      </trkpt>
      <trkpt lat="59.8573234" lon="17.6546451">
        <ele>10.2312</ele>
        <time>2013-05-22T17:52:01Z</time>
      </trkpt>
      <trkpt lat="59.8572548" lon="17.6545746">
        <ele>9.75061</ele>
        <time>2013-05-22T17:52:02Z</time>
      </trkpt>
      <trkpt lat="59.8571833" lon="17.6545033">
        <ele>9.2699</ele>
        <time>2013-05-22T17:52:03Z</time>
      </trkpt>
      <trkpt lat="59.8571105" lon="17.6544306">
        <ele>8.78918</ele>
        <time>2013-05-22T17:52:04Z</time>
      </trkpt>
      <trkpt lat="59.8570381" lon="17.6543556">
        <ele>8.30859</ele>
        <time>2013-05-22T17:52:05Z</time>
      </trkpt>
      <trkpt lat="59.856967" lon="17.6542811">
        <ele>8.30859</ele>
        <time>2013-05-22T17:52:06Z</time>
      </trkpt>
      <trkpt lat="59.856896" lon="17.6542086">
        <ele>8.30859</ele>
        <time>2013-05-22T17:52:07Z</time>
      </trkpt>
      <trkpt lat="59.8568271" lon="17.6541369">
        <ele>8.30859</ele>
        <time>2013-05-22T17:52:08Z</time>
      </trkpt>
      <trkpt lat="59.8567637" lon="17.6540703">
        <ele>7.82788</ele>
        <time>2013-05-22T17:52:09Z</time>
      </trkpt>
      <trkpt lat="59.8567177" lon="17.6540109">
        <ele>7.34717</ele>
        <time>2013-05-22T17:52:10Z</time>
      </trkpt>
      <trkpt lat="59.8566878" lon="17.6539553">
        <ele>7.34717</ele>
        <time>2013-05-22T17:52:11Z</time>
      </trkpt>
      <trkpt lat="59.8566667" lon="17.653897">
        <ele>7.82788</ele>
        <time>2013-05-22T17:52:12Z</time>
      </trkpt>
      <trkpt lat="59.8566526" lon="17.6538349">
        <ele>7.82788</ele>
        <time>2013-05-22T17:52:13Z</time>
      </trkpt>
      <trkpt lat="59.8566396" lon="17.6537683">
        <ele>7.82788</ele>
        <time>2013-05-22T17:52:14Z</time>
      </trkpt>
      <trkpt lat="59.8566216" lon="17.6536992">
        <ele>7.82788</ele>
        <time>2013-05-22T17:52:15Z</time>
      </trkpt>
      <trkpt lat="59.8565949" lon="17.6536331">
        <ele>7.82788</ele>
        <time>2013-05-22T17:52:16Z</time>
      </trkpt>
      <trkpt lat="59.8565604" lon="17.653577">
        <ele>7.82788</ele>
        <time>2013-05-22T17:52:17Z</time>
      </trkpt>
      <trkpt lat="59.8565223" lon="17.6535349">
        <ele>7.82788</ele>
        <time>2013-05-22T17:52:18Z</time>
      </trkpt>
      <trkpt lat="59.8564833" lon="17.6535098">
        <ele>7.82788</ele>
        <time>2013-05-22T17:52:19Z</time>
      </trkpt>
      <trkpt lat="59.8564478" lon="17.6534983">
        <ele>7.82788</ele>
        <time>2013-05-22T17:52:20Z</time>
      </trkpt>
      <trkpt lat="59.8564143" lon="17.6534862">
        <ele>8.78918</ele>
        <time>2013-05-22T17:52:21Z</time>
      </trkpt>
      <trkpt lat="59.8563937" lon="17.6534663">
        <ele>9.2699</ele>
        <time>2013-05-22T17:52:22Z</time>
      </trkpt>
      <trkpt lat="59.8563785" lon="17.6534455">
        <ele>9.2699</ele>
        <time>2013-05-22T17:52:23Z</time>
      </trkpt>
      <trkpt lat="59.8563625" lon="17.6534219">
        <ele>9.75061</ele>
        <time>2013-05-22T17:52:24Z</time>
      </trkpt>
      <trkpt lat="59.8563391" lon="17.6534">
        <ele>9.75061</ele>
        <time>2013-05-22T17:52:25Z</time>
      </trkpt>
      <trkpt lat="59.8563061" lon="17.6533769">
        <ele>10.2312</ele>
        <time>2013-05-22T17:52:26Z</time>
      </trkpt>
      <trkpt lat="59.8562672" lon="17.6533466">
        <ele>10.2312</ele>
        <time>2013-05-22T17:52:27Z</time>
      </trkpt>
      <trkpt lat="59.8562243" lon="17.6533102">
        <ele>10.2312</ele>
        <time>2013-05-22T17:52:28Z</time>
      </trkpt>
      <trkpt lat="59.8561786" lon="17.6532677">
        <ele>10.2312</ele>
        <time>2013-05-22T17:52:29Z</time>
      </trkpt>
      <trkpt lat="59.8561299" lon="17.6532207">
        <ele>9.75061</ele>
        <time>2013-05-22T17:52:30Z</time>
      </trkpt>
      <trkpt lat="59.856078" lon="17.6531714">
        <ele>9.75061</ele>
        <time>2013-05-22T17:52:31Z</time>
      </trkpt>
      <trkpt lat="59.8560221" lon="17.6531192">
        <ele>9.2699</ele>
        <time>2013-05-22T17:52:32Z</time>
      </trkpt>
      <trkpt lat="59.8559627" lon="17.6530611">
        <ele>8.78918</ele>
        <time>2013-05-22T17:52:33Z</time>
      </trkpt>
      <trkpt lat="59.8559003" lon="17.6529975">
        <ele>8.30859</ele>
        <time>2013-05-22T17:52:34Z</time>
      </trkpt>
      <trkpt lat="59.8558335" lon="17.6529329">
        <ele>7.82788</ele>
        <time>2013-05-22T17:52:35Z</time>
      </trkpt>
      <trkpt lat="59.8557626" lon="17.6528674">
        <ele>7.82788</ele>
        <time>2013-05-22T17:52:36Z</time>
      </trkpt>
      <trkpt lat="59.8556895" lon="17.6527965">
        <ele>7.34717</ele>
        <time>2013-05-22T17:52:37Z</time>
      </trkpt>
      <trkpt lat="59.8556165" lon="17.6527146">
        <ele>6.86646</ele>
        <time>2013-05-22T17:52:38Z</time>
      </trkpt>
      <trkpt lat="59.8555471" lon="17.6526199">
        <ele>6.38586</ele>
        <time>2013-05-22T17:52:39Z</time>
      </trkpt>
      <trkpt lat="59.8554705" lon="17.6525063">
        <ele>6.38586</ele>
        <time>2013-05-22T17:52:40Z</time>
      </trkpt>
      <trkpt lat="59.8554022" lon="17.6524368">
        <ele>6.38586</ele>
        <time>2013-05-22T17:52:41Z</time>
      </trkpt>
      <trkpt lat="59.8553442" lon="17.6524064">
        <ele>6.38586</ele>
        <time>2013-05-22T17:52:42Z</time>
      </trkpt>
      <trkpt lat="59.85524" lon="17.6522516">
        <ele>6.38586</ele>
        <time>2013-05-22T17:52:43Z</time>
      </trkpt>
      <trkpt lat="59.8551757" lon="17.6521132">
        <ele>5.90527</ele>
        <time>2013-05-22T17:52:44Z</time>
      </trkpt>
      <trkpt lat="59.8551166" lon="17.6519924">
        <ele>6.38586</ele>
        <time>2013-05-22T17:52:45Z</time>
      </trkpt>
      <trkpt lat="59.8550662" lon="17.6518743">
        <ele>6.38586</ele>
        <time>2013-05-22T17:52:46Z</time>
      </trkpt>
      <trkpt lat="59.8550223" lon="17.6517636">
        <ele>6.38586</ele>
        <time>2013-05-22T17:52:47Z</time>
      </trkpt>
      <trkpt lat="59.8549809" lon="17.651652">
        <ele>6.38586</ele>
        <time>2013-05-22T17:52:48Z</time>
      </trkpt>
      <trkpt lat="59.8549378" lon="17.6515387">
        <ele>6.38586</ele>
        <time>2013-05-22T17:52:49Z</time>
      </trkpt>
      <trkpt lat="59.8548945" lon="17.6514271">
        <ele>6.38586</ele>
        <time>2013-05-22T17:52:50Z</time>
      </trkpt>
      <trkpt lat="59.8548502" lon="17.6513217">
        <ele>6.86646</ele>
        <time>2013-05-22T17:52:51Z</time>
      </trkpt>
      <trkpt lat="59.8548063" lon="17.6512142">
        <ele>6.86646</ele>
        <time>2013-05-22T17:52:52Z</time>
      </trkpt>
      <trkpt lat="59.8547675" lon="17.6511025">
        <ele>7.34717</ele>
        <time>2013-05-22T17:52:53Z</time>
      </trkpt>
      <trkpt lat="59.8547401" lon="17.650986">
        <ele>7.34717</ele>
        <time>2013-05-22T17:52:54Z</time>
      </trkpt>
      <trkpt lat="59.85471" lon="17.6508762">
        <ele>7.82788</ele>
        <time>2013-05-22T17:52:55Z</time>
      </trkpt>
      <trkpt lat="59.8546731" lon="17.6507856">
        <ele>7.82788</ele>
        <time>2013-05-22T17:52:56Z</time>
      </trkpt>
      <trkpt lat="59.8546334" lon="17.6507026">
        <ele>7.82788</ele>
        <time>2013-05-22T17:52:57Z</time>
      </trkpt>
      <trkpt lat="59.8545889" lon="17.6506284">
        <ele>7.82788</ele>
        <time>2013-05-22T17:52:58Z</time>
      </trkpt>
      <trkpt lat="59.8545368" lon="17.6505684">
        <ele>7.82788</ele>
        <time>2013-05-22T17:52:59Z</time>
      </trkpt>
      <trkpt lat="59.8544842" lon="17.6504985">
        <ele>7.82788</ele>
        <time>2013-05-22T17:53:00Z</time>
      </trkpt>
      <trkpt lat="59.8544346" lon="17.6504123">
        <ele>7.82788</ele>
        <time>2013-05-22T17:53:01Z</time>
      </trkpt>
      <trkpt lat="59.8543873" lon="17.6503212">
        <ele>8.30859</ele>
        <time>2013-05-22T17:53:02Z</time>
      </trkpt>
      <trkpt lat="59.8543439" lon="17.6502286">
        <ele>8.30859</ele>
        <time>2013-05-22T17:53:03Z</time>
      </trkpt>
      <trkpt lat="59.8543027" lon="17.6501338">
        <ele>8.30859</ele>
        <time>2013-05-22T17:53:04Z</time>
      </trkpt>
      <trkpt lat="59.8542615" lon="17.6500386">
        <ele>8.30859</ele>
        <time>2013-05-22T17:53:05Z</time>
      </trkpt>
      <trkpt lat="59.8542213" lon="17.6499483">
        <ele>8.30859</ele>
        <time>2013-05-22T17:53:06Z</time>
      </trkpt>
      <trkpt lat="59.8541833" lon="17.6498641">
        <ele>8.30859</ele>
        <time>2013-05-22T17:53:07Z</time>
      </trkpt>
      <trkpt lat="59.8541496" lon="17.6497873">
        <ele>8.30859</ele>
        <time>2013-05-22T17:53:08Z</time>
      </trkpt>
      <trkpt lat="59.8541193" lon="17.6497149">
        <ele>8.30859</ele>
        <time>2013-05-22T17:53:09Z</time>
      </trkpt>
      <trkpt lat="59.8540898" lon="17.6496495">
        <ele>8.78918</ele>
        <time>2013-05-22T17:53:10Z</time>
      </trkpt>
      <trkpt lat="59.8540667" lon="17.6495935">
        <ele>8.78918</ele>
        <time>2013-05-22T17:53:11Z</time>
      </trkpt>
      <trkpt lat="59.8540423" lon="17.6495488">
        <ele>8.78918</ele>
        <time>2013-05-22T17:53:12Z</time>
      </trkpt>
      <trkpt lat="59.8540159" lon="17.6495029">
        <ele>8.78918</ele>
        <time>2013-05-22T17:53:13Z</time>
      </trkpt>
      <trkpt lat="59.8539893" lon="17.6494468">
        <ele>8.78918</ele>
        <time>2013-05-22T17:53:14Z</time>
      </trkpt>
      <trkpt lat="59.8539616" lon="17.6493797">
        <ele>8.78918</ele>
        <time>2013-05-22T17:53:15Z</time>
      </trkpt>
      <trkpt lat="59.8539307" lon="17.6493069">
        <ele>9.2699</ele>
        <time>2013-05-22T17:53:16Z</time>
      </trkpt>
      <trkpt lat="59.8538973" lon="17.6492315">
        <ele>8.78918</ele>
        <time>2013-05-22T17:53:17Z</time>
      </trkpt>
      <trkpt lat="59.8538634" lon="17.6491537">
        <ele>8.78918</ele>
        <time>2013-05-22T17:53:18Z</time>
      </trkpt>
      <trkpt lat="59.8538289" lon="17.6490713">
        <ele>8.78918</ele>
        <time>2013-05-22T17:53:19Z</time>
      </trkpt>
      <trkpt lat="59.8537924" lon="17.6489871">
        <ele>8.78918</ele>
        <time>2013-05-22T17:53:20Z</time>
      </trkpt>
      <trkpt lat="59.8537544" lon="17.6489023">
        <ele>8.30859</ele>
        <time>2013-05-22T17:53:21Z</time>
      </trkpt>
      <trkpt lat="59.8537154" lon="17.6488159">
        <ele>8.30859</ele>
        <time>2013-05-22T17:53:22Z</time>
      </trkpt>
      <trkpt lat="59.8536756" lon="17.6487279">
        <ele>8.30859</ele>
        <time>2013-05-22T17:53:23Z</time>
      </trkpt>
      <trkpt lat="59.8536304" lon="17.6486433">
        <ele>9.2699</ele>
        <time>2013-05-22T17:53:24Z</time>
      </trkpt>
      <trkpt lat="59.853592" lon="17.6485563">
        <ele>9.2699</ele>
        <time>2013-05-22T17:53:25Z</time>
      </trkpt>
      <trkpt lat="59.8535507" lon="17.648471">
        <ele>9.2699</ele>
        <time>2013-05-22T17:53:26Z</time>
      </trkpt>
      <trkpt lat="59.8535031" lon="17.6483958">
        <ele>9.75061</ele>
        <time>2013-05-22T17:53:27Z</time>
      </trkpt>
      <trkpt lat="59.8534545" lon="17.6483307">
        <ele>9.75061</ele>
        <time>2013-05-22T17:53:28Z</time>
      </trkpt>
      <trkpt lat="59.8534079" lon="17.6482674">
        <ele>9.75061</ele>
        <time>2013-05-22T17:53:29Z</time>
      </trkpt>
      <trkpt lat="59.8533611" lon="17.6482037">
        <ele>10.2312</ele>
        <time>2013-05-22T17:53:30Z</time>
      </trkpt>
      <trkpt lat="59.8533153" lon="17.6481352">
        <ele>11.1925</ele>
        <time>2013-05-22T17:53:31Z</time>
      </trkpt>
      <trkpt lat="59.8532754" lon="17.6480592">
        <ele>12.1538</ele>
        <time>2013-05-22T17:53:32Z</time>
      </trkpt>
      <trkpt lat="59.8532425" lon="17.6479756">
        <ele>12.1538</ele>
        <time>2013-05-22T17:53:33Z</time>
      </trkpt>
      <trkpt lat="59.8532087" lon="17.6478898">
        <ele>12.1538</ele>
        <time>2013-05-22T17:53:34Z</time>
      </trkpt>
      <trkpt lat="59.8531741" lon="17.6478023">
        <ele>12.1538</ele>
        <time>2013-05-22T17:53:35Z</time>
      </trkpt>
      <trkpt lat="59.8531368" lon="17.647712">
        <ele>12.1538</ele>
        <time>2013-05-22T17:53:36Z</time>
      </trkpt>
      <trkpt lat="59.8530969" lon="17.6476192">
        <ele>11.6732</ele>
        <time>2013-05-22T17:53:37Z</time>
      </trkpt>
      <trkpt lat="59.8530554" lon="17.6475236">
        <ele>11.6732</ele>
        <time>2013-05-22T17:53:38Z</time>
      </trkpt>
      <trkpt lat="59.8530135" lon="17.6474246">
        <ele>11.6732</ele>
        <time>2013-05-22T17:53:39Z</time>
      </trkpt>
      <trkpt lat="59.8529705" lon="17.6473236">
        <ele>11.6732</ele>
        <time>2013-05-22T17:53:40Z</time>
      </trkpt>
      <trkpt lat="59.8529224" lon="17.6472241">
        <ele>12.1538</ele>
        <time>2013-05-22T17:53:41Z</time>
      </trkpt>
      <trkpt lat="59.852873" lon="17.6471245">
        <ele>12.1538</ele>
        <time>2013-05-22T17:53:42Z</time>
      </trkpt>
      <trkpt lat="59.8528223" lon="17.6470273">
        <ele>12.6344</ele>
        <time>2013-05-22T17:53:43Z</time>
      </trkpt>
      <trkpt lat="59.8527737" lon="17.6469297">
        <ele>13.1151</ele>
        <time>2013-05-22T17:53:44Z</time>
      </trkpt>
      <trkpt lat="59.8527209" lon="17.6468377">
        <ele>13.5958</ele>
        <time>2013-05-22T17:53:45Z</time>
      </trkpt>
      <trkpt lat="59.8526721" lon="17.6467419">
        <ele>14.0764</ele>
        <time>2013-05-22T17:53:46Z</time>
      </trkpt>
      <trkpt lat="59.8526199" lon="17.6466547">
        <ele>14.557</ele>
        <time>2013-05-22T17:53:47Z</time>
      </trkpt>
      <trkpt lat="59.8525684" lon="17.646572">
        <ele>15.0377</ele>
        <time>2013-05-22T17:53:48Z</time>
      </trkpt>
      <trkpt lat="59.8525188" lon="17.6464908">
        <ele>15.0377</ele>
        <time>2013-05-22T17:53:49Z</time>
      </trkpt>
      <trkpt lat="59.8524696" lon="17.6464108">
        <ele>15.5184</ele>
        <time>2013-05-22T17:53:50Z</time>
      </trkpt>
      <trkpt lat="59.8524266" lon="17.6463269">
        <ele>15.5184</ele>
        <time>2013-05-22T17:53:51Z</time>
      </trkpt>
      <trkpt lat="59.8523861" lon="17.6462415">
        <ele>15.5184</ele>
        <time>2013-05-22T17:53:52Z</time>
      </trkpt>
      <trkpt lat="59.8523484" lon="17.6461553">
        <ele>15.0377</ele>
        <time>2013-05-22T17:53:53Z</time>
      </trkpt>
      <trkpt lat="59.8523147" lon="17.6460733">
        <ele>15.0377</ele>
        <time>2013-05-22T17:53:54Z</time>
      </trkpt>
      <trkpt lat="59.8522866" lon="17.645997">
        <ele>15.0377</ele>
        <time>2013-05-22T17:53:55Z</time>
      </trkpt>
      <trkpt lat="59.8522676" lon="17.6459181">
        <ele>14.557</ele>
        <time>2013-05-22T17:53:56Z</time>
      </trkpt>
      <trkpt lat="59.8522579" lon="17.645839">
        <ele>14.557</ele>
        <time>2013-05-22T17:53:57Z</time>
      </trkpt>
      <trkpt lat="59.8522505" lon="17.6457696">
        <ele>14.557</ele>
        <time>2013-05-22T17:53:58Z</time>
      </trkpt>
      <trkpt lat="59.8522417" lon="17.6457108">
        <ele>14.557</ele>
        <time>2013-05-22T17:53:59Z</time>
      </trkpt>
      <trkpt lat="59.8522338" lon="17.6456613">
        <ele>14.0764</ele>
        <time>2013-05-22T17:54:00Z</time>
      </trkpt>
      <trkpt lat="59.8522319" lon="17.6456229">
        <ele>14.0764</ele>
        <time>2013-05-22T17:54:01Z</time>
      </trkpt>
      <trkpt lat="59.8522355" lon="17.6455915">
        <ele>14.0764</ele>
        <time>2013-05-22T17:54:02Z</time>
      </trkpt>
      <trkpt lat="59.8522381" lon="17.6455619">
        <ele>14.0764</ele>
        <time>2013-05-22T17:54:03Z</time>
      </trkpt>
      <trkpt lat="59.8522374" lon="17.6455268">
        <ele>13.5958</ele>
        <time>2013-05-22T17:54:04Z</time>
      </trkpt>
      <trkpt lat="59.8522356" lon="17.6454856">
        <ele>13.5958</ele>
        <time>2013-05-22T17:54:05Z</time>
      </trkpt>
      <trkpt lat="59.852238" lon="17.645434">
        <ele>13.1151</ele>
        <time>2013-05-22T17:54:06Z</time>
      </trkpt>
      <trkpt lat="59.8522506" lon="17.6453732">
        <ele>13.1151</ele>
        <time>2013-05-22T17:54:07Z</time>
      </trkpt>
      <trkpt lat="59.8522769" lon="17.6453151">
        <ele>12.6344</ele>
        <time>2013-05-22T17:54:08Z</time>
      </trkpt>
      <trkpt lat="59.8523112" lon="17.6452625">
        <ele>12.1538</ele>
        <time>2013-05-22T17:54:09Z</time>
      </trkpt>
      <trkpt lat="59.8523411" lon="17.6452038">
        <ele>11.6732</ele>
        <time>2013-05-22T17:54:10Z</time>
      </trkpt>
      <trkpt lat="59.8523551" lon="17.6451388">
        <ele>11.1925</ele>
        <time>2013-05-22T17:54:11Z</time>
      </trkpt>
      <trkpt lat="59.85235" lon="17.645092">
        <ele>10.7118</ele>
        <time>2013-05-22T17:54:12Z</time>
      </trkpt>
      <trkpt lat="59.8523277" lon="17.6450857">
        <ele>10.2312</ele>
        <time>2013-05-22T17:54:13Z</time>
      </trkpt>
      <trkpt lat="59.8522995" lon="17.6451118">
        <ele>9.75061</ele>
        <time>2013-05-22T17:54:14Z</time>
      </trkpt>
      <trkpt lat="59.8522692" lon="17.6451542">
        <ele>9.75061</ele>
        <time>2013-05-22T17:54:15Z</time>
      </trkpt>
      <trkpt lat="59.8522342" lon="17.6451998">
        <ele>9.2699</ele>
        <time>2013-05-22T17:54:16Z</time>
      </trkpt>
      <trkpt lat="59.8521947" lon="17.6452441">
        <ele>9.2699</ele>
        <time>2013-05-22T17:54:17Z</time>
      </trkpt>
      <trkpt lat="59.8521535" lon="17.6452902">
        <ele>9.2699</ele>
        <time>2013-05-22T17:54:18Z</time>
      </trkpt>
      <trkpt lat="59.8521111" lon="17.6453417">
        <ele>8.78918</ele>
        <time>2013-05-22T17:54:19Z</time>
      </trkpt>
      <trkpt lat="59.8520659" lon="17.6453951">
        <ele>8.78918</ele>
        <time>2013-05-22T17:54:20Z</time>
      </trkpt>
      <trkpt lat="59.8520194" lon="17.6454506">
        <ele>8.78918</ele>
        <time>2013-05-22T17:54:21Z</time>
      </trkpt>
      <trkpt lat="59.8519743" lon="17.6455085">
        <ele>8.30859</ele>
        <time>2013-05-22T17:54:22Z</time>
      </trkpt>
      <trkpt lat="59.8519286" lon="17.6455661">
        <ele>8.30859</ele>
        <time>2013-05-22T17:54:23Z</time>
      </trkpt>
      <trkpt lat="59.8518831" lon="17.645622">
        <ele>8.30859</ele>
        <time>2013-05-22T17:54:24Z</time>
      </trkpt>
      <trkpt lat="59.8518404" lon="17.6456751">
        <ele>7.82788</ele>
        <time>2013-05-22T17:54:25Z</time>
      </trkpt>
      <trkpt lat="59.8518034" lon="17.6457225">
        <ele>7.82788</ele>
        <time>2013-05-22T17:54:26Z</time>
      </trkpt>
      <trkpt lat="59.8517733" lon="17.645763">
        <ele>7.82788</ele>
        <time>2013-05-22T17:54:27Z</time>
      </trkpt>
      <trkpt lat="59.8517499" lon="17.6457971">
        <ele>7.82788</ele>
        <time>2013-05-22T17:54:28Z</time>
      </trkpt>
      <trkpt lat="59.8517324" lon="17.6458227">
        <ele>7.82788</ele>
        <time>2013-05-22T17:54:29Z</time>
      </trkpt>
      <trkpt lat="59.8517194" lon="17.6458407">
        <ele>7.82788</ele>
        <time>2013-05-22T17:54:30Z</time>
      </trkpt>
      <trkpt lat="59.851706" lon="17.6458547">
        <ele>7.82788</ele>
        <time>2013-05-22T17:54:31Z</time>
      </trkpt>
      <trkpt lat="59.8516916" lon="17.645856">
        <ele>7.82788</ele>
        <time>2013-05-22T17:54:32Z</time>
      </trkpt>
      <trkpt lat="59.8516786" lon="17.6458441">
        <ele>8.30859</ele>
        <time>2013-05-22T17:54:33Z</time>
      </trkpt>
      <trkpt lat="59.8516687" lon="17.6458224">
        <ele>8.30859</ele>
        <time>2013-05-22T17:54:34Z</time>
      </trkpt>
      <trkpt lat="59.8516588" lon="17.6457948">
        <ele>8.30859</ele>
        <time>2013-05-22T17:54:35Z</time>
      </trkpt>
      <trkpt lat="59.8516486" lon="17.6457634">
        <ele>8.30859</ele>
        <time>2013-05-22T17:54:36Z</time>
      </trkpt>
      <trkpt lat="59.8516376" lon="17.6457324">
        <ele>8.30859</ele>
        <time>2013-05-22T17:54:37Z</time>
      </trkpt>
      <trkpt lat="59.8516268" lon="17.6457011">
        <ele>8.30859</ele>
        <time>2013-05-22T17:54:38Z</time>
      </trkpt>
      <trkpt lat="59.8516166" lon="17.6456699">
        <ele>8.78918</ele>
        <time>2013-05-22T17:54:39Z</time>
      </trkpt>
      <trkpt lat="59.8516071" lon="17.6456414">
        <ele>8.78918</ele>
        <time>2013-05-22T17:54:40Z</time>
      </trkpt>
      <trkpt lat="59.8515982" lon="17.6456157">
        <ele>8.78918</ele>
        <time>2013-05-22T17:54:41Z</time>
      </trkpt>
      <trkpt lat="59.8515895" lon="17.6455915">
        <ele>8.78918</ele>
        <time>2013-05-22T17:54:42Z</time>
      </trkpt>
      <trkpt lat="59.8515827" lon="17.6455691">
        <ele>8.78918</ele>
        <time>2013-05-22T17:54:43Z</time>
      </trkpt>
      <trkpt lat="59.8515781" lon="17.6455473">
        <ele>8.78918</ele>
        <time>2013-05-22T17:54:44Z</time>
      </trkpt>
      <trkpt lat="59.8515731" lon="17.6455242">
        <ele>8.78918</ele>
        <time>2013-05-22T17:54:45Z</time>
      </trkpt>
      <trkpt lat="59.8515641" lon="17.6454992">
        <ele>8.78918</ele>
        <time>2013-05-22T17:54:46Z</time>
      </trkpt>
      <trkpt lat="59.8515553" lon="17.6454723">
        <ele>8.78918</ele>
        <time>2013-05-22T17:54:47Z</time>
      </trkpt>
      <trkpt lat="59.8515502" lon="17.6454458">
        <ele>8.78918</ele>
        <time>2013-05-22T17:54:48Z</time>
      </trkpt>
      <trkpt lat="59.8515429" lon="17.6454268">
        <ele>9.2699</ele>
        <time>2013-05-22T17:54:49Z</time>
      </trkpt>
      <trkpt lat="59.8515344" lon="17.6454135">
        <ele>9.2699</ele>
        <time>2013-05-22T17:54:50Z</time>
      </trkpt>
    </trkseg>
  </trk>
</gpx>